<?xml version="1.0" encoding="UTF-8" standalone="no" ?>
<gpx xmlns="http://www.topografix.com/GPX/1/1" xmlns:xsi="http://www.w3.org/2001/XMLSchema-instance" xsi:schemaLocation="http://www.topografix.com/GPX/1/1 http://www.topografix.com/GPX/1/1/gpx.xsd" version="1.1" creator="VisuGPX - https://www.visugpx.com">
  <metadata>
    <name>Le pas de l\'ours par le col de Cherel</name>
    <desc><![CDATA[Une jolie rando en aller - retour jusqu\'au pas de l\'ours, ou nous avons une superbe vue sur la pointe de Sambuy et Chaurionde, le col d\'Orgeval. Nous montons par le col de Cherel bien cyclable puis un peu de poussée - portée pour monter au pas de l\'ours.
Genial
Offert par : http://www.outdoor-diots.blogspot.com]]></desc>
  </metadata>
  <trk>
    <name><![CDATA[Arcalod]]></name>
    <trkseg>
      <trkpt lat="45.66708" lon="6.19388">
        <ele>988.37280273438</ele>
        <time>2011-04-16T05:04:41Z</time>
      </trkpt>
      <trkpt lat="45.66722" lon="6.19402">
        <ele>988.853515625</ele>
        <time>2011-04-16T05:04:47Z</time>
      </trkpt>
      <trkpt lat="45.66738" lon="6.19418">
        <ele>988.853515625</ele>
        <time>2011-04-16T05:04:55Z</time>
      </trkpt>
      <trkpt lat="45.66753" lon="6.19435">
        <ele>989.333984375</ele>
        <time>2011-04-16T05:05:02Z</time>
      </trkpt>
      <trkpt lat="45.66761" lon="6.19444">
        <ele>990.29541015625</ele>
        <time>2011-04-16T05:05:06Z</time>
      </trkpt>
      <trkpt lat="45.66783" lon="6.19465">
        <ele>993.17919921875</ele>
        <time>2011-04-16T05:05:17Z</time>
      </trkpt>
      <trkpt lat="45.66792" lon="6.19473">
        <ele>993.65991210938</ele>
        <time>2011-04-16T05:05:22Z</time>
      </trkpt>
      <trkpt lat="45.66807" lon="6.19486">
        <ele>994.62109375</ele>
        <time>2011-04-16T05:05:31Z</time>
      </trkpt>
      <trkpt lat="45.66818" lon="6.19495">
        <ele>996.5439453125</ele>
        <time>2011-04-16T05:05:38Z</time>
      </trkpt>
      <trkpt lat="45.66828" lon="6.19502">
        <ele>997.98583984375</ele>
        <time>2011-04-16T05:05:44Z</time>
      </trkpt>
      <trkpt lat="45.66837" lon="6.19509">
        <ele>1000.3891601562</ele>
        <time>2011-04-16T05:05:50Z</time>
      </trkpt>
      <trkpt lat="45.66849" lon="6.19517">
        <ele>1004.2346191406</ele>
        <time>2011-04-16T05:05:58Z</time>
      </trkpt>
      <trkpt lat="45.66858" lon="6.19522">
        <ele>1004.7150878906</ele>
        <time>2011-04-16T05:06:04Z</time>
      </trkpt>
      <trkpt lat="45.66867" lon="6.19526">
        <ele>1004.7150878906</ele>
        <time>2011-04-16T05:06:10Z</time>
      </trkpt>
      <trkpt lat="45.6688" lon="6.19535">
        <ele>1006.6376953125</ele>
        <time>2011-04-16T05:06:19Z</time>
      </trkpt>
      <trkpt lat="45.66891" lon="6.19545">
        <ele>1008.0798339844</ele>
        <time>2011-04-16T05:06:26Z</time>
      </trkpt>
      <trkpt lat="45.669" lon="6.19554">
        <ele>1009.5217285156</ele>
        <time>2011-04-16T05:06:33Z</time>
      </trkpt>
      <trkpt lat="45.66915" lon="6.19568">
        <ele>1012.4055175781</ele>
        <time>2011-04-16T05:06:44Z</time>
      </trkpt>
      <trkpt lat="45.66923" lon="6.19573">
        <ele>1013.8474121094</ele>
        <time>2011-04-16T05:06:49Z</time>
      </trkpt>
      <trkpt lat="45.66929" lon="6.19578">
        <ele>1014.328125</ele>
        <time>2011-04-16T05:06:54Z</time>
      </trkpt>
      <trkpt lat="45.66941" lon="6.19586">
        <ele>1014.8088378906</ele>
        <time>2011-04-16T05:07:02Z</time>
      </trkpt>
      <trkpt lat="45.66952" lon="6.19598">
        <ele>1015.2895507812</ele>
        <time>2011-04-16T05:07:11Z</time>
      </trkpt>
      <trkpt lat="45.6696" lon="6.19613">
        <ele>1016.2507324219</ele>
        <time>2011-04-16T05:07:19Z</time>
      </trkpt>
      <trkpt lat="45.6697" lon="6.19627">
        <ele>1018.6540527344</ele>
        <time>2011-04-16T05:07:28Z</time>
      </trkpt>
      <trkpt lat="45.6698" lon="6.19634">
        <ele>1020.5769042969</ele>
        <time>2011-04-16T05:07:35Z</time>
      </trkpt>
      <trkpt lat="45.6699" lon="6.19638">
        <ele>1026.8254394531</ele>
        <time>2011-04-16T05:07:42Z</time>
      </trkpt>
      <trkpt lat="45.67002" lon="6.19645">
        <ele>1029.7092285156</ele>
        <time>2011-04-16T05:07:50Z</time>
      </trkpt>
      <trkpt lat="45.67014" lon="6.19657">
        <ele>1030.1899414062</ele>
        <time>2011-04-16T05:07:59Z</time>
      </trkpt>
      <trkpt lat="45.67024" lon="6.19665">
        <ele>1030.1899414062</ele>
        <time>2011-04-16T05:08:06Z</time>
      </trkpt>
      <trkpt lat="45.67034" lon="6.19676">
        <ele>1030.1899414062</ele>
        <time>2011-04-16T05:08:14Z</time>
      </trkpt>
      <trkpt lat="45.67044" lon="6.19689">
        <ele>1029.7092285156</ele>
        <time>2011-04-16T05:08:23Z</time>
      </trkpt>
      <trkpt lat="45.67054" lon="6.19703">
        <ele>1030.1899414062</ele>
        <time>2011-04-16T05:08:32Z</time>
      </trkpt>
      <trkpt lat="45.67062" lon="6.19715">
        <ele>1030.1899414062</ele>
        <time>2011-04-16T05:08:40Z</time>
      </trkpt>
      <trkpt lat="45.67069" lon="6.19726">
        <ele>1029.7092285156</ele>
        <time>2011-04-16T05:08:46Z</time>
      </trkpt>
      <trkpt lat="45.67076" lon="6.19744">
        <ele>1032.1125488281</ele>
        <time>2011-04-16T05:08:55Z</time>
      </trkpt>
      <trkpt lat="45.67078" lon="6.19749">
        <ele>1032.1125488281</ele>
        <time>2011-04-16T05:09:01Z</time>
      </trkpt>
      <trkpt lat="45.67079" lon="6.19749">
        <ele>1034.5158691406</ele>
        <time>2011-04-16T05:09:14Z</time>
      </trkpt>
      <trkpt lat="45.6708" lon="6.19748">
        <ele>1035.4770507812</ele>
        <time>2011-04-16T05:09:25Z</time>
      </trkpt>
      <trkpt lat="45.67082" lon="6.1975">
        <ele>1034.9965820312</ele>
        <time>2011-04-16T05:09:32Z</time>
      </trkpt>
      <trkpt lat="45.67084" lon="6.19754">
        <ele>1035.4770507812</ele>
        <time>2011-04-16T05:09:35Z</time>
      </trkpt>
      <trkpt lat="45.67085" lon="6.19755">
        <ele>1035.4770507812</ele>
        <time>2011-04-16T05:09:36Z</time>
      </trkpt>
      <trkpt lat="45.67089" lon="6.19762">
        <ele>1036.4387207031</ele>
        <time>2011-04-16T05:09:40Z</time>
      </trkpt>
      <trkpt lat="45.67094" lon="6.19768">
        <ele>1037.8806152344</ele>
        <time>2011-04-16T05:09:45Z</time>
      </trkpt>
      <trkpt lat="45.67104" lon="6.19779">
        <ele>1038.8420410156</ele>
        <time>2011-04-16T05:09:54Z</time>
      </trkpt>
      <trkpt lat="45.67114" lon="6.19787">
        <ele>1040.7644042969</ele>
        <time>2011-04-16T05:10:01Z</time>
      </trkpt>
      <trkpt lat="45.67123" lon="6.19796">
        <ele>1040.2839355469</ele>
        <time>2011-04-16T05:10:08Z</time>
      </trkpt>
      <trkpt lat="45.67137" lon="6.19804">
        <ele>1043.1677246094</ele>
        <time>2011-04-16T05:10:17Z</time>
      </trkpt>
      <trkpt lat="45.6715" lon="6.1981">
        <ele>1046.5324707031</ele>
        <time>2011-04-16T05:10:26Z</time>
      </trkpt>
      <trkpt lat="45.67162" lon="6.19817">
        <ele>1047.9743652344</ele>
        <time>2011-04-16T05:10:34Z</time>
      </trkpt>
      <trkpt lat="45.6717" lon="6.19824">
        <ele>1048.4548339844</ele>
        <time>2011-04-16T05:10:40Z</time>
      </trkpt>
      <trkpt lat="45.67181" lon="6.19835">
        <ele>1048.935546875</ele>
        <time>2011-04-16T05:10:48Z</time>
      </trkpt>
      <trkpt lat="45.6719" lon="6.19846">
        <ele>1048.935546875</ele>
        <time>2011-04-16T05:10:56Z</time>
      </trkpt>
      <trkpt lat="45.67204" lon="6.19861">
        <ele>1049.4162597656</ele>
        <time>2011-04-16T05:11:07Z</time>
      </trkpt>
      <trkpt lat="45.6722" lon="6.19872">
        <ele>1050.8581542969</ele>
        <time>2011-04-16T05:11:18Z</time>
      </trkpt>
      <trkpt lat="45.67234" lon="6.19887">
        <ele>1050.3776855469</ele>
        <time>2011-04-16T05:11:29Z</time>
      </trkpt>
      <trkpt lat="45.67246" lon="6.19902">
        <ele>1050.3776855469</ele>
        <time>2011-04-16T05:11:38Z</time>
      </trkpt>
      <trkpt lat="45.67256" lon="6.19911">
        <ele>1049.4162597656</ele>
        <time>2011-04-16T05:11:45Z</time>
      </trkpt>
      <trkpt lat="45.67263" lon="6.19915">
        <ele>1048.4548339844</ele>
        <time>2011-04-16T05:11:51Z</time>
      </trkpt>
      <trkpt lat="45.67265" lon="6.19915">
        <ele>1054.2231445312</ele>
        <time>2011-04-16T05:12:04Z</time>
      </trkpt>
      <trkpt lat="45.67267" lon="6.19915">
        <ele>1057.1069335938</ele>
        <time>2011-04-16T05:12:13Z</time>
      </trkpt>
      <trkpt lat="45.67268" lon="6.19915">
        <ele>1058.548828125</ele>
        <time>2011-04-16T05:12:19Z</time>
      </trkpt>
      <trkpt lat="45.67272" lon="6.19917">
        <ele>1059.0295410156</ele>
        <time>2011-04-16T05:12:24Z</time>
      </trkpt>
      <trkpt lat="45.67278" lon="6.19921">
        <ele>1059.0295410156</ele>
        <time>2011-04-16T05:12:29Z</time>
      </trkpt>
      <trkpt lat="45.67284" lon="6.19929">
        <ele>1056.6262207031</ele>
        <time>2011-04-16T05:12:35Z</time>
      </trkpt>
      <trkpt lat="45.6729" lon="6.19941">
        <ele>1056.1455078125</ele>
        <time>2011-04-16T05:12:41Z</time>
      </trkpt>
      <trkpt lat="45.67295" lon="6.19954">
        <ele>1058.068359375</ele>
        <time>2011-04-16T05:12:47Z</time>
      </trkpt>
      <trkpt lat="45.67299" lon="6.19964">
        <ele>1056.1455078125</ele>
        <time>2011-04-16T05:12:51Z</time>
      </trkpt>
      <trkpt lat="45.67307" lon="6.19973">
        <ele>1051.8195800781</ele>
        <time>2011-04-16T05:12:56Z</time>
      </trkpt>
      <trkpt lat="45.67309" lon="6.19975">
        <ele>1050.8581542969</ele>
        <time>2011-04-16T05:12:57Z</time>
      </trkpt>
      <trkpt lat="45.67322" lon="6.19995">
        <ele>1053.26171875</ele>
        <time>2011-04-16T05:13:05Z</time>
      </trkpt>
      <trkpt lat="45.67331" lon="6.20009">
        <ele>1049.8969726562</ele>
        <time>2011-04-16T05:13:13Z</time>
      </trkpt>
      <trkpt lat="45.67337" lon="6.20015">
        <ele>1049.8969726562</ele>
        <time>2011-04-16T05:13:19Z</time>
      </trkpt>
      <trkpt lat="45.67338" lon="6.20017">
        <ele>1054.2231445312</ele>
        <time>2011-04-16T05:13:25Z</time>
      </trkpt>
      <trkpt lat="45.67344" lon="6.20017">
        <ele>1062.3940429688</ele>
        <time>2011-04-16T05:13:34Z</time>
      </trkpt>
      <trkpt lat="45.6734" lon="6.20013">
        <ele>1059.0295410156</ele>
        <time>2011-04-16T05:13:47Z</time>
      </trkpt>
      <trkpt lat="45.6734" lon="6.20014">
        <ele>1055.6650390625</ele>
        <time>2011-04-16T05:14:00Z</time>
      </trkpt>
      <trkpt lat="45.67336" lon="6.20014">
        <ele>1061.4328613281</ele>
        <time>2011-04-16T05:14:17Z</time>
      </trkpt>
      <trkpt lat="45.67335" lon="6.20011">
        <ele>1064.7973632812</ele>
        <time>2011-04-16T05:14:29Z</time>
      </trkpt>
      <trkpt lat="45.67338" lon="6.20011">
        <ele>1063.8359375</ele>
        <time>2011-04-16T05:14:40Z</time>
      </trkpt>
      <trkpt lat="45.67331" lon="6.20008">
        <ele>1061.9135742188</ele>
        <time>2011-04-16T05:14:47Z</time>
      </trkpt>
      <trkpt lat="45.67332" lon="6.20004">
        <ele>1060.9521484375</ele>
        <time>2011-04-16T05:14:49Z</time>
      </trkpt>
      <trkpt lat="45.67335" lon="6.20002">
        <ele>1059.9907226562</ele>
        <time>2011-04-16T05:14:51Z</time>
      </trkpt>
      <trkpt lat="45.67348" lon="6.20001">
        <ele>1059.0295410156</ele>
        <time>2011-04-16T05:14:59Z</time>
      </trkpt>
      <trkpt lat="45.67353" lon="6.19999">
        <ele>1059.0295410156</ele>
        <time>2011-04-16T05:15:02Z</time>
      </trkpt>
      <trkpt lat="45.67356" lon="6.19993">
        <ele>1059.5102539062</ele>
        <time>2011-04-16T05:15:06Z</time>
      </trkpt>
      <trkpt lat="45.67358" lon="6.19982">
        <ele>1060.4714355469</ele>
        <time>2011-04-16T05:15:12Z</time>
      </trkpt>
      <trkpt lat="45.67357" lon="6.19975">
        <ele>1060.9521484375</ele>
        <time>2011-04-16T05:15:16Z</time>
      </trkpt>
      <trkpt lat="45.67356" lon="6.19967">
        <ele>1061.9135742188</ele>
        <time>2011-04-16T05:15:20Z</time>
      </trkpt>
      <trkpt lat="45.67356" lon="6.19962">
        <ele>1062.3940429688</ele>
        <time>2011-04-16T05:15:23Z</time>
      </trkpt>
      <trkpt lat="45.67356" lon="6.19955">
        <ele>1063.35546875</ele>
        <time>2011-04-16T05:15:27Z</time>
      </trkpt>
      <trkpt lat="45.6736" lon="6.19941">
        <ele>1066.7199707031</ele>
        <time>2011-04-16T05:15:35Z</time>
      </trkpt>
      <trkpt lat="45.67363" lon="6.1993">
        <ele>1067.6811523438</ele>
        <time>2011-04-16T05:15:42Z</time>
      </trkpt>
      <trkpt lat="45.6736" lon="6.19916">
        <ele>1069.6042480469</ele>
        <time>2011-04-16T05:15:49Z</time>
      </trkpt>
      <trkpt lat="45.67358" lon="6.19902">
        <ele>1071.5266113281</ele>
        <time>2011-04-16T05:15:56Z</time>
      </trkpt>
      <trkpt lat="45.67355" lon="6.1989">
        <ele>1073.4494628906</ele>
        <time>2011-04-16T05:16:02Z</time>
      </trkpt>
      <trkpt lat="45.6735" lon="6.19873">
        <ele>1075.8525390625</ele>
        <time>2011-04-16T05:16:11Z</time>
      </trkpt>
      <trkpt lat="45.6735" lon="6.19872">
        <ele>1076.3332519531</ele>
        <time>2011-04-16T05:16:12Z</time>
      </trkpt>
      <trkpt lat="45.67356" lon="6.19865">
        <ele>1075.8525390625</ele>
        <time>2011-04-16T05:16:18Z</time>
      </trkpt>
      <trkpt lat="45.67361" lon="6.1987">
        <ele>1075.8525390625</ele>
        <time>2011-04-16T05:16:22Z</time>
      </trkpt>
      <trkpt lat="45.67368" lon="6.19885">
        <ele>1074.8913574219</ele>
        <time>2011-04-16T05:16:31Z</time>
      </trkpt>
      <trkpt lat="45.67374" lon="6.19901">
        <ele>1076.3332519531</ele>
        <time>2011-04-16T05:16:40Z</time>
      </trkpt>
      <trkpt lat="45.67382" lon="6.1991">
        <ele>1077.7751464844</ele>
        <time>2011-04-16T05:16:47Z</time>
      </trkpt>
      <trkpt lat="45.6739" lon="6.19916">
        <ele>1078.7365722656</ele>
        <time>2011-04-16T05:16:54Z</time>
      </trkpt>
      <trkpt lat="45.674" lon="6.19923">
        <ele>1079.2170410156</ele>
        <time>2011-04-16T05:17:02Z</time>
      </trkpt>
      <trkpt lat="45.67404" lon="6.19936">
        <ele>1079.6977539062</ele>
        <time>2011-04-16T05:17:09Z</time>
      </trkpt>
      <trkpt lat="45.67402" lon="6.19952">
        <ele>1080.6591796875</ele>
        <time>2011-04-16T05:17:17Z</time>
      </trkpt>
      <trkpt lat="45.67399" lon="6.19967">
        <ele>1082.5817871094</ele>
        <time>2011-04-16T05:17:25Z</time>
      </trkpt>
      <trkpt lat="45.67399" lon="6.19973">
        <ele>1083.54296875</ele>
        <time>2011-04-16T05:17:28Z</time>
      </trkpt>
      <trkpt lat="45.67402" lon="6.19985">
        <ele>1084.0239257812</ele>
        <time>2011-04-16T05:17:34Z</time>
      </trkpt>
      <trkpt lat="45.67414" lon="6.19995">
        <ele>1086.9077148438</ele>
        <time>2011-04-16T05:17:43Z</time>
      </trkpt>
      <trkpt lat="45.67425" lon="6.20001">
        <ele>1088.3498535156</ele>
        <time>2011-04-16T05:17:50Z</time>
      </trkpt>
      <trkpt lat="45.67436" lon="6.20007">
        <ele>1089.7917480469</ele>
        <time>2011-04-16T05:17:57Z</time>
      </trkpt>
      <trkpt lat="45.67439" lon="6.20012">
        <ele>1091.2336425781</ele>
        <time>2011-04-16T05:18:03Z</time>
      </trkpt>
      <trkpt lat="45.6744" lon="6.20011">
        <ele>1091.7143554688</ele>
        <time>2011-04-16T05:18:06Z</time>
      </trkpt>
      <trkpt lat="45.67451" lon="6.20018">
        <ele>1094.5981445312</ele>
        <time>2011-04-16T05:18:15Z</time>
      </trkpt>
      <trkpt lat="45.67457" lon="6.20028">
        <ele>1097.0014648438</ele>
        <time>2011-04-16T05:18:22Z</time>
      </trkpt>
      <trkpt lat="45.67466" lon="6.2004">
        <ele>1099.4047851562</ele>
        <time>2011-04-16T05:18:31Z</time>
      </trkpt>
      <trkpt lat="45.67474" lon="6.20048">
        <ele>1102.2888183594</ele>
        <time>2011-04-16T05:18:39Z</time>
      </trkpt>
      <trkpt lat="45.6748" lon="6.20057">
        <ele>1103.2502441406</ele>
        <time>2011-04-16T05:18:46Z</time>
      </trkpt>
      <trkpt lat="45.6749" lon="6.20068">
        <ele>1103.2502441406</ele>
        <time>2011-04-16T05:18:55Z</time>
      </trkpt>
      <trkpt lat="45.675" lon="6.20076">
        <ele>1104.2116699219</ele>
        <time>2011-04-16T05:19:04Z</time>
      </trkpt>
      <trkpt lat="45.67507" lon="6.20084">
        <ele>1104.2116699219</ele>
        <time>2011-04-16T05:19:11Z</time>
      </trkpt>
      <trkpt lat="45.67515" lon="6.20095">
        <ele>1105.6535644531</ele>
        <time>2011-04-16T05:19:19Z</time>
      </trkpt>
      <trkpt lat="45.67517" lon="6.20098">
        <ele>1106.1340332031</ele>
        <time>2011-04-16T05:19:21Z</time>
      </trkpt>
      <trkpt lat="45.67526" lon="6.20108">
        <ele>1106.6147460938</ele>
        <time>2011-04-16T05:19:30Z</time>
      </trkpt>
      <trkpt lat="45.67533" lon="6.20119">
        <ele>1106.1340332031</ele>
        <time>2011-04-16T05:19:38Z</time>
      </trkpt>
      <trkpt lat="45.67543" lon="6.20131">
        <ele>1106.6147460938</ele>
        <time>2011-04-16T05:19:47Z</time>
      </trkpt>
      <trkpt lat="45.67552" lon="6.2015">
        <ele>1110.4599609375</ele>
        <time>2011-04-16T05:19:58Z</time>
      </trkpt>
      <trkpt lat="45.67558" lon="6.20165">
        <ele>1113.3439941406</ele>
        <time>2011-04-16T05:20:07Z</time>
      </trkpt>
      <trkpt lat="45.6756" lon="6.2018">
        <ele>1113.3439941406</ele>
        <time>2011-04-16T05:20:15Z</time>
      </trkpt>
      <trkpt lat="45.67569" lon="6.20179">
        <ele>1116.7087402344</ele>
        <time>2011-04-16T05:20:22Z</time>
      </trkpt>
      <trkpt lat="45.67569" lon="6.20173">
        <ele>1118.6313476562</ele>
        <time>2011-04-16T05:20:25Z</time>
      </trkpt>
      <trkpt lat="45.67565" lon="6.20156">
        <ele>1121.9958496094</ele>
        <time>2011-04-16T05:20:34Z</time>
      </trkpt>
      <trkpt lat="45.67563" lon="6.20142">
        <ele>1122.4765625</ele>
        <time>2011-04-16T05:20:41Z</time>
      </trkpt>
      <trkpt lat="45.67566" lon="6.20131">
        <ele>1123.9184570312</ele>
        <time>2011-04-16T05:20:47Z</time>
      </trkpt>
      <trkpt lat="45.67569" lon="6.20118">
        <ele>1123.4379882812</ele>
        <time>2011-04-16T05:20:55Z</time>
      </trkpt>
      <trkpt lat="45.67564" lon="6.20103">
        <ele>1123.9184570312</ele>
        <time>2011-04-16T05:21:03Z</time>
      </trkpt>
      <trkpt lat="45.67556" lon="6.2009">
        <ele>1124.3991699219</ele>
        <time>2011-04-16T05:21:11Z</time>
      </trkpt>
      <trkpt lat="45.67548" lon="6.20076">
        <ele>1124.3991699219</ele>
        <time>2011-04-16T05:21:20Z</time>
      </trkpt>
      <trkpt lat="45.67545" lon="6.20064">
        <ele>1123.9184570312</ele>
        <time>2011-04-16T05:21:26Z</time>
      </trkpt>
      <trkpt lat="45.67544" lon="6.20062">
        <ele>1124.3991699219</ele>
        <time>2011-04-16T05:21:34Z</time>
      </trkpt>
      <trkpt lat="45.67544" lon="6.20063">
        <ele>1125.8410644531</ele>
        <time>2011-04-16T05:21:45Z</time>
      </trkpt>
      <trkpt lat="45.67543" lon="6.20064">
        <ele>1126.8024902344</ele>
        <time>2011-04-16T05:21:56Z</time>
      </trkpt>
      <trkpt lat="45.67543" lon="6.20064">
        <ele>1126.8024902344</ele>
        <time>2011-04-16T05:22:00Z</time>
      </trkpt>
      <trkpt lat="45.67542" lon="6.20065">
        <ele>1126.8024902344</ele>
        <time>2011-04-16T05:22:04Z</time>
      </trkpt>
      <trkpt lat="45.67542" lon="6.20065">
        <ele>1127.763671875</ele>
        <time>2011-04-16T05:22:08Z</time>
      </trkpt>
      <trkpt lat="45.6754" lon="6.20066">
        <ele>1129.2055664062</ele>
        <time>2011-04-16T05:22:20Z</time>
      </trkpt>
      <trkpt lat="45.6754" lon="6.20066">
        <ele>1129.6862792969</ele>
        <time>2011-04-16T05:22:32Z</time>
      </trkpt>
      <trkpt lat="45.67541" lon="6.20066">
        <ele>1129.6862792969</ele>
        <time>2011-04-16T05:22:42Z</time>
      </trkpt>
      <trkpt lat="45.67544" lon="6.20067">
        <ele>1126.8024902344</ele>
        <time>2011-04-16T05:22:55Z</time>
      </trkpt>
      <trkpt lat="45.67545" lon="6.20068">
        <ele>1123.4379882812</ele>
        <time>2011-04-16T05:23:10Z</time>
      </trkpt>
      <trkpt lat="45.67545" lon="6.20067">
        <ele>1123.4379882812</ele>
        <time>2011-04-16T05:23:12Z</time>
      </trkpt>
      <trkpt lat="45.67546" lon="6.20063">
        <ele>1128.7250976562</ele>
        <time>2011-04-16T05:23:24Z</time>
      </trkpt>
      <trkpt lat="45.67545" lon="6.20063">
        <ele>1130.6477050781</ele>
        <time>2011-04-16T05:23:28Z</time>
      </trkpt>
      <trkpt lat="45.67545" lon="6.20067">
        <ele>1130.1669921875</ele>
        <time>2011-04-16T05:23:35Z</time>
      </trkpt>
      <trkpt lat="45.67543" lon="6.20068">
        <ele>1128.2443847656</ele>
        <time>2011-04-16T05:23:54Z</time>
      </trkpt>
      <trkpt lat="45.67543" lon="6.20066">
        <ele>1127.283203125</ele>
        <time>2011-04-16T05:24:09Z</time>
      </trkpt>
      <trkpt lat="45.67547" lon="6.20063">
        <ele>1116.2280273438</ele>
        <time>2011-04-16T05:24:24Z</time>
      </trkpt>
      <trkpt lat="45.67551" lon="6.20063">
        <ele>1115.2666015625</ele>
        <time>2011-04-16T05:24:34Z</time>
      </trkpt>
      <trkpt lat="45.6755" lon="6.20064">
        <ele>1119.5927734375</ele>
        <time>2011-04-16T05:24:45Z</time>
      </trkpt>
      <trkpt lat="45.67546" lon="6.20063">
        <ele>1128.7250976562</ele>
        <time>2011-04-16T05:25:08Z</time>
      </trkpt>
      <trkpt lat="45.67546" lon="6.20065">
        <ele>1129.2055664062</ele>
        <time>2011-04-16T05:25:13Z</time>
      </trkpt>
      <trkpt lat="45.67545" lon="6.20066">
        <ele>1130.6477050781</ele>
        <time>2011-04-16T05:25:31Z</time>
      </trkpt>
      <trkpt lat="45.67547" lon="6.20068">
        <ele>1126.8024902344</ele>
        <time>2011-04-16T05:25:45Z</time>
      </trkpt>
      <trkpt lat="45.67555" lon="6.20068">
        <ele>1133.0510253906</ele>
        <time>2011-04-16T05:25:56Z</time>
      </trkpt>
      <trkpt lat="45.67566" lon="6.20062">
        <ele>1125.8410644531</ele>
        <time>2011-04-16T05:26:03Z</time>
      </trkpt>
      <trkpt lat="45.67568" lon="6.20058">
        <ele>1117.189453125</ele>
        <time>2011-04-16T05:26:17Z</time>
      </trkpt>
      <trkpt lat="45.67566" lon="6.20058">
        <ele>1119.1120605469</ele>
        <time>2011-04-16T05:26:29Z</time>
      </trkpt>
      <trkpt lat="45.67559" lon="6.20059">
        <ele>1124.3991699219</ele>
        <time>2011-04-16T05:27:00Z</time>
      </trkpt>
      <trkpt lat="45.67558" lon="6.20058">
        <ele>1124.3991699219</ele>
        <time>2011-04-16T05:27:03Z</time>
      </trkpt>
      <trkpt lat="45.67556" lon="6.20059">
        <ele>1126.3217773438</ele>
        <time>2011-04-16T05:27:09Z</time>
      </trkpt>
      <trkpt lat="45.67554" lon="6.2006">
        <ele>1131.1284179688</ele>
        <time>2011-04-16T05:27:18Z</time>
      </trkpt>
      <trkpt lat="45.67553" lon="6.2006">
        <ele>1132.5705566406</ele>
        <time>2011-04-16T05:27:22Z</time>
      </trkpt>
      <trkpt lat="45.67551" lon="6.2006">
        <ele>1128.2443847656</ele>
        <time>2011-04-16T05:27:32Z</time>
      </trkpt>
      <trkpt lat="45.6755" lon="6.2006">
        <ele>1127.763671875</ele>
        <time>2011-04-16T05:27:41Z</time>
      </trkpt>
      <trkpt lat="45.67547" lon="6.2006">
        <ele>1131.1284179688</ele>
        <time>2011-04-16T05:27:51Z</time>
      </trkpt>
      <trkpt lat="45.67546" lon="6.20062">
        <ele>1132.08984375</ele>
        <time>2011-04-16T05:28:08Z</time>
      </trkpt>
      <trkpt lat="45.67548" lon="6.20063">
        <ele>1129.2055664062</ele>
        <time>2011-04-16T05:28:15Z</time>
      </trkpt>
      <trkpt lat="45.67549" lon="6.20061">
        <ele>1128.7250976562</ele>
        <time>2011-04-16T05:28:19Z</time>
      </trkpt>
      <trkpt lat="45.67548" lon="6.20062">
        <ele>1128.2443847656</ele>
        <time>2011-04-16T05:28:27Z</time>
      </trkpt>
      <trkpt lat="45.67544" lon="6.20062">
        <ele>1127.763671875</ele>
        <time>2011-04-16T05:28:35Z</time>
      </trkpt>
      <trkpt lat="45.67543" lon="6.2006">
        <ele>1127.283203125</ele>
        <time>2011-04-16T05:28:40Z</time>
      </trkpt>
      <trkpt lat="45.67542" lon="6.20056">
        <ele>1128.2443847656</ele>
        <time>2011-04-16T05:28:46Z</time>
      </trkpt>
      <trkpt lat="45.67542" lon="6.20049">
        <ele>1127.763671875</ele>
        <time>2011-04-16T05:28:51Z</time>
      </trkpt>
      <trkpt lat="45.67542" lon="6.20045">
        <ele>1127.763671875</ele>
        <time>2011-04-16T05:28:53Z</time>
      </trkpt>
      <trkpt lat="45.67547" lon="6.20038">
        <ele>1127.283203125</ele>
        <time>2011-04-16T05:28:59Z</time>
      </trkpt>
      <trkpt lat="45.67553" lon="6.20042">
        <ele>1128.2443847656</ele>
        <time>2011-04-16T05:29:05Z</time>
      </trkpt>
      <trkpt lat="45.67553" lon="6.2005">
        <ele>1128.2443847656</ele>
        <time>2011-04-16T05:29:10Z</time>
      </trkpt>
      <trkpt lat="45.67553" lon="6.20063">
        <ele>1129.2055664062</ele>
        <time>2011-04-16T05:29:17Z</time>
      </trkpt>
      <trkpt lat="45.67556" lon="6.20071">
        <ele>1129.6862792969</ele>
        <time>2011-04-16T05:29:22Z</time>
      </trkpt>
      <trkpt lat="45.67563" lon="6.20078">
        <ele>1130.1669921875</ele>
        <time>2011-04-16T05:29:29Z</time>
      </trkpt>
      <trkpt lat="45.67569" lon="6.20084">
        <ele>1132.08984375</ele>
        <time>2011-04-16T05:29:35Z</time>
      </trkpt>
      <trkpt lat="45.67576" lon="6.20089">
        <ele>1132.5705566406</ele>
        <time>2011-04-16T05:29:41Z</time>
      </trkpt>
      <trkpt lat="45.67578" lon="6.20091">
        <ele>1132.5705566406</ele>
        <time>2011-04-16T05:29:43Z</time>
      </trkpt>
      <trkpt lat="45.67587" lon="6.20096">
        <ele>1131.6088867188</ele>
        <time>2011-04-16T05:29:51Z</time>
      </trkpt>
      <trkpt lat="45.67594" lon="6.20103">
        <ele>1130.6477050781</ele>
        <time>2011-04-16T05:29:58Z</time>
      </trkpt>
      <trkpt lat="45.67599" lon="6.20113">
        <ele>1133.5317382812</ele>
        <time>2011-04-16T05:30:05Z</time>
      </trkpt>
      <trkpt lat="45.67602" lon="6.2012">
        <ele>1135.4543457031</ele>
        <time>2011-04-16T05:30:10Z</time>
      </trkpt>
      <trkpt lat="45.67607" lon="6.20119">
        <ele>1137.376953125</ele>
        <time>2011-04-16T05:30:16Z</time>
      </trkpt>
      <trkpt lat="45.67612" lon="6.20109">
        <ele>1140.2609863281</ele>
        <time>2011-04-16T05:30:23Z</time>
      </trkpt>
      <trkpt lat="45.67616" lon="6.20094">
        <ele>1143.6254882812</ele>
        <time>2011-04-16T05:30:32Z</time>
      </trkpt>
      <trkpt lat="45.67611" lon="6.20084">
        <ele>1145.0673828125</ele>
        <time>2011-04-16T05:30:39Z</time>
      </trkpt>
      <trkpt lat="45.67605" lon="6.20079">
        <ele>1146.0288085938</ele>
        <time>2011-04-16T05:30:44Z</time>
      </trkpt>
      <trkpt lat="45.67597" lon="6.20071">
        <ele>1147.470703125</ele>
        <time>2011-04-16T05:30:52Z</time>
      </trkpt>
      <trkpt lat="45.67597" lon="6.20055">
        <ele>1147.9514160156</ele>
        <time>2011-04-16T05:30:59Z</time>
      </trkpt>
      <trkpt lat="45.676" lon="6.20045">
        <ele>1148.4321289062</ele>
        <time>2011-04-16T05:31:05Z</time>
      </trkpt>
      <trkpt lat="45.67604" lon="6.20037">
        <ele>1148.4321289062</ele>
        <time>2011-04-16T05:31:11Z</time>
      </trkpt>
      <trkpt lat="45.67607" lon="6.20026">
        <ele>1148.9128417969</ele>
        <time>2011-04-16T05:31:18Z</time>
      </trkpt>
      <trkpt lat="45.67607" lon="6.20025">
        <ele>1148.9128417969</ele>
        <time>2011-04-16T05:31:19Z</time>
      </trkpt>
      <trkpt lat="45.67603" lon="6.20009">
        <ele>1151.796875</ele>
        <time>2011-04-16T05:31:28Z</time>
      </trkpt>
      <trkpt lat="45.67596" lon="6.19999">
        <ele>1154.2001953125</ele>
        <time>2011-04-16T05:31:35Z</time>
      </trkpt>
      <trkpt lat="45.67595" lon="6.19998">
        <ele>1154.2001953125</ele>
        <time>2011-04-16T05:31:36Z</time>
      </trkpt>
      <trkpt lat="45.67595" lon="6.1999">
        <ele>1155.1613769531</ele>
        <time>2011-04-16T05:31:40Z</time>
      </trkpt>
      <trkpt lat="45.67599" lon="6.19985">
        <ele>1156.6032714844</ele>
        <time>2011-04-16T05:31:46Z</time>
      </trkpt>
      <trkpt lat="45.67606" lon="6.1999">
        <ele>1155.1613769531</ele>
        <time>2011-04-16T05:31:53Z</time>
      </trkpt>
      <trkpt lat="45.6761" lon="6.19999">
        <ele>1154.6806640625</ele>
        <time>2011-04-16T05:32:00Z</time>
      </trkpt>
      <trkpt lat="45.67614" lon="6.2001">
        <ele>1154.6806640625</ele>
        <time>2011-04-16T05:32:07Z</time>
      </trkpt>
      <trkpt lat="45.67617" lon="6.20018">
        <ele>1156.1225585938</ele>
        <time>2011-04-16T05:32:13Z</time>
      </trkpt>
      <trkpt lat="45.6762" lon="6.20026">
        <ele>1156.6032714844</ele>
        <time>2011-04-16T05:32:18Z</time>
      </trkpt>
      <trkpt lat="45.6762" lon="6.2004">
        <ele>1158.5258789062</ele>
        <time>2011-04-16T05:32:26Z</time>
      </trkpt>
      <trkpt lat="45.67624" lon="6.20046">
        <ele>1159.9677734375</ele>
        <time>2011-04-16T05:32:32Z</time>
      </trkpt>
      <trkpt lat="45.67627" lon="6.20047">
        <ele>1161.4099121094</ele>
        <time>2011-04-16T05:32:35Z</time>
      </trkpt>
      <trkpt lat="45.67637" lon="6.20048">
        <ele>1164.2939453125</ele>
        <time>2011-04-16T05:32:43Z</time>
      </trkpt>
      <trkpt lat="45.67653" lon="6.20048">
        <ele>1171.0231933594</ele>
        <time>2011-04-16T05:32:54Z</time>
      </trkpt>
      <trkpt lat="45.67663" lon="6.20051">
        <ele>1175.3488769531</ele>
        <time>2011-04-16T05:33:03Z</time>
      </trkpt>
      <trkpt lat="45.67673" lon="6.20053">
        <ele>1176.791015625</ele>
        <time>2011-04-16T05:33:11Z</time>
      </trkpt>
      <trkpt lat="45.67678" lon="6.2005">
        <ele>1176.791015625</ele>
        <time>2011-04-16T05:33:15Z</time>
      </trkpt>
      <trkpt lat="45.67677" lon="6.20044">
        <ele>1175.3488769531</ele>
        <time>2011-04-16T05:33:21Z</time>
      </trkpt>
      <trkpt lat="45.67673" lon="6.20042">
        <ele>1175.3488769531</ele>
        <time>2011-04-16T05:33:25Z</time>
      </trkpt>
      <trkpt lat="45.67663" lon="6.20036">
        <ele>1178.7136230469</ele>
        <time>2011-04-16T05:33:32Z</time>
      </trkpt>
      <trkpt lat="45.67655" lon="6.20033">
        <ele>1180.6364746094</ele>
        <time>2011-04-16T05:33:38Z</time>
      </trkpt>
      <trkpt lat="45.67649" lon="6.20024">
        <ele>1182.5590820312</ele>
        <time>2011-04-16T05:33:45Z</time>
      </trkpt>
      <trkpt lat="45.67646" lon="6.20013">
        <ele>1183.5202636719</ele>
        <time>2011-04-16T05:33:52Z</time>
      </trkpt>
      <trkpt lat="45.67645" lon="6.2">
        <ele>1184.4816894531</ele>
        <time>2011-04-16T05:34:00Z</time>
      </trkpt>
      <trkpt lat="45.67643" lon="6.19987">
        <ele>1183.5202636719</ele>
        <time>2011-04-16T05:34:08Z</time>
      </trkpt>
      <trkpt lat="45.6764" lon="6.1997">
        <ele>1182.5590820312</ele>
        <time>2011-04-16T05:34:18Z</time>
      </trkpt>
      <trkpt lat="45.67634" lon="6.19959">
        <ele>1183.5202636719</ele>
        <time>2011-04-16T05:34:26Z</time>
      </trkpt>
      <trkpt lat="45.67624" lon="6.19947">
        <ele>1184.0009765625</ele>
        <time>2011-04-16T05:34:36Z</time>
      </trkpt>
      <trkpt lat="45.67622" lon="6.19939">
        <ele>1184.4816894531</ele>
        <time>2011-04-16T05:34:41Z</time>
      </trkpt>
      <trkpt lat="45.67628" lon="6.19932">
        <ele>1184.9624023438</ele>
        <time>2011-04-16T05:34:47Z</time>
      </trkpt>
      <trkpt lat="45.67633" lon="6.19936">
        <ele>1184.4816894531</ele>
        <time>2011-04-16T05:34:51Z</time>
      </trkpt>
      <trkpt lat="45.67643" lon="6.19947">
        <ele>1184.0009765625</ele>
        <time>2011-04-16T05:35:00Z</time>
      </trkpt>
      <trkpt lat="45.67651" lon="6.19956">
        <ele>1184.0009765625</ele>
        <time>2011-04-16T05:35:08Z</time>
      </trkpt>
      <trkpt lat="45.6766" lon="6.19965">
        <ele>1184.9624023438</ele>
        <time>2011-04-16T05:35:16Z</time>
      </trkpt>
      <trkpt lat="45.67669" lon="6.1998">
        <ele>1186.884765625</ele>
        <time>2011-04-16T05:35:26Z</time>
      </trkpt>
      <trkpt lat="45.67675" lon="6.19989">
        <ele>1189.2880859375</ele>
        <time>2011-04-16T05:35:33Z</time>
      </trkpt>
      <trkpt lat="45.67682" lon="6.19997">
        <ele>1192.1721191406</ele>
        <time>2011-04-16T05:35:40Z</time>
      </trkpt>
      <trkpt lat="45.67689" lon="6.20004">
        <ele>1195.5366210938</ele>
        <time>2011-04-16T05:35:47Z</time>
      </trkpt>
      <trkpt lat="45.67698" lon="6.20006">
        <ele>1196.9787597656</ele>
        <time>2011-04-16T05:35:54Z</time>
      </trkpt>
      <trkpt lat="45.67701" lon="6.20008">
        <ele>1197.4594726562</ele>
        <time>2011-04-16T05:35:57Z</time>
      </trkpt>
      <trkpt lat="45.67711" lon="6.20006">
        <ele>1200.8239746094</ele>
        <time>2011-04-16T05:36:05Z</time>
      </trkpt>
      <trkpt lat="45.67718" lon="6.20007">
        <ele>1205.6306152344</ele>
        <time>2011-04-16T05:36:11Z</time>
      </trkpt>
      <trkpt lat="45.67725" lon="6.20015">
        <ele>1212.8405761719</ele>
        <time>2011-04-16T05:36:18Z</time>
      </trkpt>
      <trkpt lat="45.67726" lon="6.20016">
        <ele>1212.8405761719</ele>
        <time>2011-04-16T05:36:19Z</time>
      </trkpt>
      <trkpt lat="45.67736" lon="6.20016">
        <ele>1209.4758300781</ele>
        <time>2011-04-16T05:36:26Z</time>
      </trkpt>
      <trkpt lat="45.67739" lon="6.20016">
        <ele>1208.0339355469</ele>
        <time>2011-04-16T05:36:28Z</time>
      </trkpt>
      <trkpt lat="45.6775" lon="6.20017">
        <ele>1208.0339355469</ele>
        <time>2011-04-16T05:36:36Z</time>
      </trkpt>
      <trkpt lat="45.67759" lon="6.20019">
        <ele>1209.4758300781</ele>
        <time>2011-04-16T05:36:43Z</time>
      </trkpt>
      <trkpt lat="45.67767" lon="6.20029">
        <ele>1209.4758300781</ele>
        <time>2011-04-16T05:36:52Z</time>
      </trkpt>
      <trkpt lat="45.67773" lon="6.20043">
        <ele>1208.9951171875</ele>
        <time>2011-04-16T05:37:02Z</time>
      </trkpt>
      <trkpt lat="45.67774" lon="6.20061">
        <ele>1210.4370117188</ele>
        <time>2011-04-16T05:37:11Z</time>
      </trkpt>
      <trkpt lat="45.67772" lon="6.20068">
        <ele>1211.8791503906</ele>
        <time>2011-04-16T05:37:17Z</time>
      </trkpt>
      <trkpt lat="45.67771" lon="6.2007">
        <ele>1217.6469726562</ele>
        <time>2011-04-16T05:37:30Z</time>
      </trkpt>
      <trkpt lat="45.67771" lon="6.20067">
        <ele>1216.205078125</ele>
        <time>2011-04-16T05:37:40Z</time>
      </trkpt>
      <trkpt lat="45.67771" lon="6.20068">
        <ele>1215.724609375</ele>
        <time>2011-04-16T05:37:45Z</time>
      </trkpt>
      <trkpt lat="45.67769" lon="6.20072">
        <ele>1217.1665039062</ele>
        <time>2011-04-16T05:37:54Z</time>
      </trkpt>
      <trkpt lat="45.67767" lon="6.2007">
        <ele>1222.9343261719</ele>
        <time>2011-04-16T05:38:04Z</time>
      </trkpt>
      <trkpt lat="45.67768" lon="6.20073">
        <ele>1222.4536132812</ele>
        <time>2011-04-16T05:38:10Z</time>
      </trkpt>
      <trkpt lat="45.67769" lon="6.20074">
        <ele>1221.4921875</ele>
        <time>2011-04-16T05:38:15Z</time>
      </trkpt>
      <trkpt lat="45.6777" lon="6.20075">
        <ele>1220.5310058594</ele>
        <time>2011-04-16T05:38:19Z</time>
      </trkpt>
      <trkpt lat="45.67768" lon="6.20074">
        <ele>1222.9343261719</ele>
        <time>2011-04-16T05:38:28Z</time>
      </trkpt>
      <trkpt lat="45.67765" lon="6.20074">
        <ele>1223.8955078125</ele>
        <time>2011-04-16T05:38:39Z</time>
      </trkpt>
      <trkpt lat="45.67767" lon="6.20074">
        <ele>1224.8569335938</ele>
        <time>2011-04-16T05:38:48Z</time>
      </trkpt>
      <trkpt lat="45.67765" lon="6.20073">
        <ele>1227.7407226562</ele>
        <time>2011-04-16T05:39:02Z</time>
      </trkpt>
      <trkpt lat="45.67764" lon="6.20073">
        <ele>1226.7795410156</ele>
        <time>2011-04-16T05:39:09Z</time>
      </trkpt>
      <trkpt lat="45.67763" lon="6.20073">
        <ele>1220.5310058594</ele>
        <time>2011-04-16T05:39:26Z</time>
      </trkpt>
      <trkpt lat="45.67763" lon="6.20075">
        <ele>1220.5310058594</ele>
        <time>2011-04-16T05:39:33Z</time>
      </trkpt>
      <trkpt lat="45.67762" lon="6.20077">
        <ele>1222.4536132812</ele>
        <time>2011-04-16T05:39:49Z</time>
      </trkpt>
      <trkpt lat="45.67762" lon="6.20077">
        <ele>1225.3374023438</ele>
        <time>2011-04-16T05:40:02Z</time>
      </trkpt>
      <trkpt lat="45.67763" lon="6.20077">
        <ele>1226.298828125</ele>
        <time>2011-04-16T05:40:17Z</time>
      </trkpt>
      <trkpt lat="45.67765" lon="6.20076">
        <ele>1223.8955078125</ele>
        <time>2011-04-16T05:40:43Z</time>
      </trkpt>
      <trkpt lat="45.67767" lon="6.20074">
        <ele>1221.01171875</ele>
        <time>2011-04-16T05:41:04Z</time>
      </trkpt>
      <trkpt lat="45.67768" lon="6.20075">
        <ele>1220.0502929688</ele>
        <time>2011-04-16T05:41:14Z</time>
      </trkpt>
      <trkpt lat="45.67768" lon="6.20076">
        <ele>1219.0891113281</ele>
        <time>2011-04-16T05:41:20Z</time>
      </trkpt>
      <trkpt lat="45.67764" lon="6.20084">
        <ele>1220.0502929688</ele>
        <time>2011-04-16T05:41:26Z</time>
      </trkpt>
      <trkpt lat="45.67757" lon="6.20096">
        <ele>1221.01171875</ele>
        <time>2011-04-16T05:41:35Z</time>
      </trkpt>
      <trkpt lat="45.67754" lon="6.20108">
        <ele>1222.4536132812</ele>
        <time>2011-04-16T05:41:43Z</time>
      </trkpt>
      <trkpt lat="45.67752" lon="6.20121">
        <ele>1224.3762207031</ele>
        <time>2011-04-16T05:41:50Z</time>
      </trkpt>
      <trkpt lat="45.67751" lon="6.20123">
        <ele>1223.4150390625</ele>
        <time>2011-04-16T05:41:56Z</time>
      </trkpt>
      <trkpt lat="45.67751" lon="6.20122">
        <ele>1222.4536132812</ele>
        <time>2011-04-16T05:42:02Z</time>
      </trkpt>
      <trkpt lat="45.67749" lon="6.20119">
        <ele>1225.3374023438</ele>
        <time>2011-04-16T05:42:08Z</time>
      </trkpt>
      <trkpt lat="45.6775" lon="6.20118">
        <ele>1223.8955078125</ele>
        <time>2011-04-16T05:42:16Z</time>
      </trkpt>
      <trkpt lat="45.67752" lon="6.20116">
        <ele>1216.205078125</ele>
        <time>2011-04-16T05:42:27Z</time>
      </trkpt>
      <trkpt lat="45.67752" lon="6.20115">
        <ele>1211.3984375</ele>
        <time>2011-04-16T05:42:35Z</time>
      </trkpt>
      <trkpt lat="45.67753" lon="6.20115">
        <ele>1210.4370117188</ele>
        <time>2011-04-16T05:42:39Z</time>
      </trkpt>
      <trkpt lat="45.67752" lon="6.20114">
        <ele>1210.4370117188</ele>
        <time>2011-04-16T05:42:52Z</time>
      </trkpt>
      <trkpt lat="45.67752" lon="6.20116">
        <ele>1212.8405761719</ele>
        <time>2011-04-16T05:43:02Z</time>
      </trkpt>
      <trkpt lat="45.67752" lon="6.20119">
        <ele>1221.4921875</ele>
        <time>2011-04-16T05:43:06Z</time>
      </trkpt>
      <trkpt lat="45.67751" lon="6.20133">
        <ele>1250.8125</ele>
        <time>2011-04-16T05:43:28Z</time>
      </trkpt>
      <trkpt lat="45.67751" lon="6.20134">
        <ele>1250.8125</ele>
        <time>2011-04-16T05:43:35Z</time>
      </trkpt>
      <trkpt lat="45.67751" lon="6.20133">
        <ele>1246.9672851562</ele>
        <time>2011-04-16T05:43:56Z</time>
      </trkpt>
      <trkpt lat="45.67749" lon="6.20136">
        <ele>1250.33203125</ele>
        <time>2011-04-16T05:44:19Z</time>
      </trkpt>
      <trkpt lat="45.67748" lon="6.2013">
        <ele>1243.6025390625</ele>
        <time>2011-04-16T05:44:25Z</time>
      </trkpt>
      <trkpt lat="45.67751" lon="6.20123">
        <ele>1237.8347167969</ele>
        <time>2011-04-16T05:44:30Z</time>
      </trkpt>
      <trkpt lat="45.67754" lon="6.20131">
        <ele>1236.3928222656</ele>
        <time>2011-04-16T05:44:35Z</time>
      </trkpt>
      <trkpt lat="45.67757" lon="6.20139">
        <ele>1235.4313964844</ele>
        <time>2011-04-16T05:44:40Z</time>
      </trkpt>
      <trkpt lat="45.6776" lon="6.20141">
        <ele>1231.5861816406</ele>
        <time>2011-04-16T05:44:43Z</time>
      </trkpt>
      <trkpt lat="45.67766" lon="6.20147">
        <ele>1228.7023925781</ele>
        <time>2011-04-16T05:44:49Z</time>
      </trkpt>
      <trkpt lat="45.67775" lon="6.20154">
        <ele>1225.3374023438</ele>
        <time>2011-04-16T05:44:57Z</time>
      </trkpt>
      <trkpt lat="45.67781" lon="6.20155">
        <ele>1227.7407226562</ele>
        <time>2011-04-16T05:45:02Z</time>
      </trkpt>
      <trkpt lat="45.67788" lon="6.20158">
        <ele>1230.625</ele>
        <time>2011-04-16T05:45:07Z</time>
      </trkpt>
      <trkpt lat="45.67797" lon="6.20161">
        <ele>1232.0668945312</ele>
        <time>2011-04-16T05:45:13Z</time>
      </trkpt>
      <trkpt lat="45.67807" lon="6.20164">
        <ele>1232.5476074219</ele>
        <time>2011-04-16T05:45:20Z</time>
      </trkpt>
      <trkpt lat="45.67816" lon="6.20168">
        <ele>1232.0668945312</ele>
        <time>2011-04-16T05:45:27Z</time>
      </trkpt>
      <trkpt lat="45.67821" lon="6.20179">
        <ele>1233.5087890625</ele>
        <time>2011-04-16T05:45:34Z</time>
      </trkpt>
      <trkpt lat="45.67824" lon="6.20195">
        <ele>1233.0280761719</ele>
        <time>2011-04-16T05:45:44Z</time>
      </trkpt>
      <trkpt lat="45.67828" lon="6.2021">
        <ele>1233.9895019531</ele>
        <time>2011-04-16T05:45:53Z</time>
      </trkpt>
      <trkpt lat="45.67836" lon="6.20219">
        <ele>1234.9509277344</ele>
        <time>2011-04-16T05:46:01Z</time>
      </trkpt>
      <trkpt lat="45.6784" lon="6.20218">
        <ele>1234.4702148438</ele>
        <time>2011-04-16T05:46:04Z</time>
      </trkpt>
      <trkpt lat="45.67843" lon="6.20215">
        <ele>1235.912109375</ele>
        <time>2011-04-16T05:46:08Z</time>
      </trkpt>
      <trkpt lat="45.67841" lon="6.20196">
        <ele>1243.1218261719</ele>
        <time>2011-04-16T05:46:18Z</time>
      </trkpt>
      <trkpt lat="45.67838" lon="6.20182">
        <ele>1246.9672851562</ele>
        <time>2011-04-16T05:46:25Z</time>
      </trkpt>
      <trkpt lat="45.6784" lon="6.20167">
        <ele>1248.4091796875</ele>
        <time>2011-04-16T05:46:34Z</time>
      </trkpt>
      <trkpt lat="45.67838" lon="6.20154">
        <ele>1252.2543945312</ele>
        <time>2011-04-16T05:46:41Z</time>
      </trkpt>
      <trkpt lat="45.67837" lon="6.20153">
        <ele>1252.7351074219</ele>
        <time>2011-04-16T05:46:46Z</time>
      </trkpt>
      <trkpt lat="45.67836" lon="6.20148">
        <ele>1255.619140625</ele>
        <time>2011-04-16T05:46:56Z</time>
      </trkpt>
      <trkpt lat="45.67836" lon="6.20147">
        <ele>1248.4091796875</ele>
        <time>2011-04-16T05:47:08Z</time>
      </trkpt>
      <trkpt lat="45.67833" lon="6.20142">
        <ele>1257.0610351562</ele>
        <time>2011-04-16T05:47:18Z</time>
      </trkpt>
      <trkpt lat="45.67834" lon="6.20134">
        <ele>1250.8125</ele>
        <time>2011-04-16T05:47:25Z</time>
      </trkpt>
      <trkpt lat="45.67833" lon="6.20125">
        <ele>1247.4479980469</ele>
        <time>2011-04-16T05:47:33Z</time>
      </trkpt>
      <trkpt lat="45.67837" lon="6.20117">
        <ele>1245.0446777344</ele>
        <time>2011-04-16T05:47:39Z</time>
      </trkpt>
      <trkpt lat="45.67844" lon="6.2012">
        <ele>1246.9672851562</ele>
        <time>2011-04-16T05:47:44Z</time>
      </trkpt>
      <trkpt lat="45.67847" lon="6.20126">
        <ele>1246.0061035156</ele>
        <time>2011-04-16T05:47:48Z</time>
      </trkpt>
      <trkpt lat="45.67849" lon="6.20135">
        <ele>1246.4868164062</ele>
        <time>2011-04-16T05:47:53Z</time>
      </trkpt>
      <trkpt lat="45.67856" lon="6.20147">
        <ele>1246.9672851562</ele>
        <time>2011-04-16T05:48:01Z</time>
      </trkpt>
      <trkpt lat="45.67862" lon="6.20159">
        <ele>1247.9287109375</ele>
        <time>2011-04-16T05:48:09Z</time>
      </trkpt>
      <trkpt lat="45.6787" lon="6.2017">
        <ele>1248.4091796875</ele>
        <time>2011-04-16T05:48:17Z</time>
      </trkpt>
      <trkpt lat="45.67875" lon="6.2018">
        <ele>1249.3706054688</ele>
        <time>2011-04-16T05:48:24Z</time>
      </trkpt>
      <trkpt lat="45.67881" lon="6.20192">
        <ele>1251.7739257812</ele>
        <time>2011-04-16T05:48:32Z</time>
      </trkpt>
      <trkpt lat="45.67888" lon="6.202">
        <ele>1254.6577148438</ele>
        <time>2011-04-16T05:48:40Z</time>
      </trkpt>
      <trkpt lat="45.67899" lon="6.20205">
        <ele>1256.5803222656</ele>
        <time>2011-04-16T05:48:48Z</time>
      </trkpt>
      <trkpt lat="45.67906" lon="6.20213">
        <ele>1258.5029296875</ele>
        <time>2011-04-16T05:48:56Z</time>
      </trkpt>
      <trkpt lat="45.67908" lon="6.20217">
        <ele>1258.9836425781</ele>
        <time>2011-04-16T05:48:59Z</time>
      </trkpt>
      <trkpt lat="45.67915" lon="6.20223">
        <ele>1258.9836425781</ele>
        <time>2011-04-16T05:49:05Z</time>
      </trkpt>
      <trkpt lat="45.67919" lon="6.20217">
        <ele>1259.9448242188</ele>
        <time>2011-04-16T05:49:12Z</time>
      </trkpt>
      <trkpt lat="45.67918" lon="6.20211">
        <ele>1260.42578125</ele>
        <time>2011-04-16T05:49:15Z</time>
      </trkpt>
      <trkpt lat="45.67911" lon="6.202">
        <ele>1261.8679199219</ele>
        <time>2011-04-16T05:49:23Z</time>
      </trkpt>
      <trkpt lat="45.67905" lon="6.20183">
        <ele>1261.3872070312</ele>
        <time>2011-04-16T05:49:33Z</time>
      </trkpt>
      <trkpt lat="45.67905" lon="6.20168">
        <ele>1261.3872070312</ele>
        <time>2011-04-16T05:49:41Z</time>
      </trkpt>
      <trkpt lat="45.67907" lon="6.20153">
        <ele>1258.9836425781</ele>
        <time>2011-04-16T05:49:49Z</time>
      </trkpt>
      <trkpt lat="45.67905" lon="6.20133">
        <ele>1264.2709960938</ele>
        <time>2011-04-16T05:49:57Z</time>
      </trkpt>
      <trkpt lat="45.67904" lon="6.20116">
        <ele>1268.1162109375</ele>
        <time>2011-04-16T05:50:06Z</time>
      </trkpt>
      <trkpt lat="45.67899" lon="6.201">
        <ele>1272.4421386719</ele>
        <time>2011-04-16T05:50:15Z</time>
      </trkpt>
      <trkpt lat="45.67896" lon="6.20095">
        <ele>1270.51953125</ele>
        <time>2011-04-16T05:50:21Z</time>
      </trkpt>
      <trkpt lat="45.67896" lon="6.20093">
        <ele>1271.0002441406</ele>
        <time>2011-04-16T05:50:22Z</time>
      </trkpt>
      <trkpt lat="45.67896" lon="6.20086">
        <ele>1272.9228515625</ele>
        <time>2011-04-16T05:50:29Z</time>
      </trkpt>
      <trkpt lat="45.67896" lon="6.20086">
        <ele>1276.7683105469</ele>
        <time>2011-04-16T05:50:35Z</time>
      </trkpt>
      <trkpt lat="45.67898" lon="6.20084">
        <ele>1279.6520996094</ele>
        <time>2011-04-16T05:50:47Z</time>
      </trkpt>
      <trkpt lat="45.67902" lon="6.20085">
        <ele>1280.6135253906</ele>
        <time>2011-04-16T05:50:51Z</time>
      </trkpt>
      <trkpt lat="45.67907" lon="6.20099">
        <ele>1286.3813476562</ele>
        <time>2011-04-16T05:50:58Z</time>
      </trkpt>
      <trkpt lat="45.67908" lon="6.20104">
        <ele>1287.8232421875</ele>
        <time>2011-04-16T05:51:00Z</time>
      </trkpt>
      <trkpt lat="45.67915" lon="6.20115">
        <ele>1283.9780273438</ele>
        <time>2011-04-16T05:51:09Z</time>
      </trkpt>
      <trkpt lat="45.67922" lon="6.20123">
        <ele>1281.5747070312</ele>
        <time>2011-04-16T05:51:16Z</time>
      </trkpt>
      <trkpt lat="45.67927" lon="6.20134">
        <ele>1280.1328125</ele>
        <time>2011-04-16T05:51:24Z</time>
      </trkpt>
      <trkpt lat="45.67934" lon="6.20144">
        <ele>1279.1713867188</ele>
        <time>2011-04-16T05:51:32Z</time>
      </trkpt>
      <trkpt lat="45.67943" lon="6.20155">
        <ele>1283.0166015625</ele>
        <time>2011-04-16T05:51:41Z</time>
      </trkpt>
      <trkpt lat="45.67951" lon="6.20163">
        <ele>1282.0554199219</ele>
        <time>2011-04-16T05:51:49Z</time>
      </trkpt>
      <trkpt lat="45.67958" lon="6.20169">
        <ele>1283.9780273438</ele>
        <time>2011-04-16T05:51:56Z</time>
      </trkpt>
      <trkpt lat="45.67964" lon="6.2018">
        <ele>1290.70703125</ele>
        <time>2011-04-16T05:52:05Z</time>
      </trkpt>
      <trkpt lat="45.67965" lon="6.20186">
        <ele>1293.5913085938</ele>
        <time>2011-04-16T05:52:08Z</time>
      </trkpt>
      <trkpt lat="45.6797" lon="6.20197">
        <ele>1296.4753417969</ele>
        <time>2011-04-16T05:52:16Z</time>
      </trkpt>
      <trkpt lat="45.67977" lon="6.20206">
        <ele>1301.7624511719</ele>
        <time>2011-04-16T05:52:23Z</time>
      </trkpt>
      <trkpt lat="45.67986" lon="6.20208">
        <ele>1295.033203125</ele>
        <time>2011-04-16T05:52:31Z</time>
      </trkpt>
      <trkpt lat="45.67995" lon="6.20211">
        <ele>1294.0720214844</ele>
        <time>2011-04-16T05:52:39Z</time>
      </trkpt>
      <trkpt lat="45.68006" lon="6.20214">
        <ele>1293.5913085938</ele>
        <time>2011-04-16T05:52:47Z</time>
      </trkpt>
      <trkpt lat="45.68015" lon="6.20219">
        <ele>1295.033203125</ele>
        <time>2011-04-16T05:52:55Z</time>
      </trkpt>
      <trkpt lat="45.68022" lon="6.20223">
        <ele>1295.5139160156</ele>
        <time>2011-04-16T05:53:01Z</time>
      </trkpt>
      <trkpt lat="45.68032" lon="6.20225">
        <ele>1298.3977050781</ele>
        <time>2011-04-16T05:53:09Z</time>
      </trkpt>
      <trkpt lat="45.68039" lon="6.20227">
        <ele>1304.6462402344</ele>
        <time>2011-04-16T05:53:16Z</time>
      </trkpt>
      <trkpt lat="45.68047" lon="6.20225">
        <ele>1309.93359375</ele>
        <time>2011-04-16T05:53:23Z</time>
      </trkpt>
      <trkpt lat="45.68058" lon="6.20219">
        <ele>1308.0112304688</ele>
        <time>2011-04-16T05:53:32Z</time>
      </trkpt>
      <trkpt lat="45.68071" lon="6.20219">
        <ele>1306.5688476562</ele>
        <time>2011-04-16T05:53:42Z</time>
      </trkpt>
      <trkpt lat="45.68079" lon="6.20229">
        <ele>1311.8564453125</ele>
        <time>2011-04-16T05:53:50Z</time>
      </trkpt>
      <trkpt lat="45.68084" lon="6.20238">
        <ele>1315.2209472656</ele>
        <time>2011-04-16T05:53:56Z</time>
      </trkpt>
      <trkpt lat="45.68085" lon="6.20244">
        <ele>1312.8176269531</ele>
        <time>2011-04-16T05:54:03Z</time>
      </trkpt>
      <trkpt lat="45.68085" lon="6.20256">
        <ele>1310.8950195312</ele>
        <time>2011-04-16T05:54:10Z</time>
      </trkpt>
      <trkpt lat="45.68085" lon="6.20273">
        <ele>1310.4143066406</ele>
        <time>2011-04-16T05:54:20Z</time>
      </trkpt>
      <trkpt lat="45.6809" lon="6.20282">
        <ele>1310.8950195312</ele>
        <time>2011-04-16T05:54:26Z</time>
      </trkpt>
      <trkpt lat="45.68098" lon="6.20289">
        <ele>1312.3369140625</ele>
        <time>2011-04-16T05:54:34Z</time>
      </trkpt>
      <trkpt lat="45.68103" lon="6.20299">
        <ele>1314.2595214844</ele>
        <time>2011-04-16T05:54:42Z</time>
      </trkpt>
      <trkpt lat="45.68103" lon="6.2031">
        <ele>1314.740234375</ele>
        <time>2011-04-16T05:54:49Z</time>
      </trkpt>
      <trkpt lat="45.68106" lon="6.20326">
        <ele>1315.2209472656</ele>
        <time>2011-04-16T05:54:58Z</time>
      </trkpt>
      <trkpt lat="45.68114" lon="6.20336">
        <ele>1314.740234375</ele>
        <time>2011-04-16T05:55:06Z</time>
      </trkpt>
      <trkpt lat="45.68123" lon="6.20342">
        <ele>1317.6240234375</ele>
        <time>2011-04-16T05:55:13Z</time>
      </trkpt>
      <trkpt lat="45.68132" lon="6.20344">
        <ele>1320.9887695312</ele>
        <time>2011-04-16T05:55:20Z</time>
      </trkpt>
      <trkpt lat="45.68142" lon="6.20339">
        <ele>1322.9113769531</ele>
        <time>2011-04-16T05:55:29Z</time>
      </trkpt>
      <trkpt lat="45.68152" lon="6.20335">
        <ele>1326.2761230469</ele>
        <time>2011-04-16T05:55:38Z</time>
      </trkpt>
      <trkpt lat="45.68159" lon="6.20339">
        <ele>1327.2375488281</ele>
        <time>2011-04-16T05:55:44Z</time>
      </trkpt>
      <trkpt lat="45.68165" lon="6.20349">
        <ele>1327.7180175781</ele>
        <time>2011-04-16T05:55:51Z</time>
      </trkpt>
      <trkpt lat="45.68171" lon="6.20359">
        <ele>1326.7568359375</ele>
        <time>2011-04-16T05:55:59Z</time>
      </trkpt>
      <trkpt lat="45.68177" lon="6.20363">
        <ele>1327.7180175781</ele>
        <time>2011-04-16T05:56:05Z</time>
      </trkpt>
      <trkpt lat="45.68187" lon="6.20364">
        <ele>1329.1599121094</ele>
        <time>2011-04-16T05:56:13Z</time>
      </trkpt>
      <trkpt lat="45.68195" lon="6.20365">
        <ele>1330.1213378906</ele>
        <time>2011-04-16T05:56:19Z</time>
      </trkpt>
      <trkpt lat="45.68203" lon="6.20369">
        <ele>1333.9665527344</ele>
        <time>2011-04-16T05:56:26Z</time>
      </trkpt>
      <trkpt lat="45.68211" lon="6.2037">
        <ele>1336.3698730469</ele>
        <time>2011-04-16T05:56:33Z</time>
      </trkpt>
      <trkpt lat="45.6822" lon="6.20362">
        <ele>1335.8891601562</ele>
        <time>2011-04-16T05:56:41Z</time>
      </trkpt>
      <trkpt lat="45.6823" lon="6.20358">
        <ele>1340.2153320312</ele>
        <time>2011-04-16T05:56:50Z</time>
      </trkpt>
      <trkpt lat="45.68238" lon="6.20358">
        <ele>1342.1379394531</ele>
        <time>2011-04-16T05:56:57Z</time>
      </trkpt>
      <trkpt lat="45.6824" lon="6.20361">
        <ele>1346.4638671875</ele>
        <time>2011-04-16T05:56:59Z</time>
      </trkpt>
      <trkpt lat="45.6824" lon="6.20358">
        <ele>1346.4638671875</ele>
        <time>2011-04-16T05:57:16Z</time>
      </trkpt>
      <trkpt lat="45.68242" lon="6.20359">
        <ele>1353.1928710938</ele>
        <time>2011-04-16T05:57:28Z</time>
      </trkpt>
      <trkpt lat="45.68241" lon="6.20372">
        <ele>1370.4965820312</ele>
        <time>2011-04-16T05:57:36Z</time>
      </trkpt>
      <trkpt lat="45.68242" lon="6.20367">
        <ele>1363.2868652344</ele>
        <time>2011-04-16T05:57:43Z</time>
      </trkpt>
      <trkpt lat="45.68242" lon="6.20366">
        <ele>1361.3642578125</ele>
        <time>2011-04-16T05:57:53Z</time>
      </trkpt>
      <trkpt lat="45.68241" lon="6.20366">
        <ele>1359.4416503906</ele>
        <time>2011-04-16T05:57:56Z</time>
      </trkpt>
      <trkpt lat="45.6824" lon="6.20365">
        <ele>1356.0769042969</ele>
        <time>2011-04-16T05:57:59Z</time>
      </trkpt>
      <trkpt lat="45.6824" lon="6.20359">
        <ele>1347.9057617188</ele>
        <time>2011-04-16T05:58:05Z</time>
      </trkpt>
      <trkpt lat="45.68242" lon="6.20353">
        <ele>1337.8117675781</ele>
        <time>2011-04-16T05:58:16Z</time>
      </trkpt>
      <trkpt lat="45.68243" lon="6.2035">
        <ele>1333.0051269531</ele>
        <time>2011-04-16T05:58:22Z</time>
      </trkpt>
      <trkpt lat="45.68242" lon="6.20351">
        <ele>1334.447265625</ele>
        <time>2011-04-16T05:58:30Z</time>
      </trkpt>
      <trkpt lat="45.68243" lon="6.20356">
        <ele>1343.5798339844</ele>
        <time>2011-04-16T05:58:37Z</time>
      </trkpt>
      <trkpt lat="45.68243" lon="6.20366">
        <ele>1360.4028320312</ele>
        <time>2011-04-16T05:58:50Z</time>
      </trkpt>
      <trkpt lat="45.68243" lon="6.20365">
        <ele>1358.4802246094</ele>
        <time>2011-04-16T05:58:53Z</time>
      </trkpt>
      <trkpt lat="45.68243" lon="6.20358">
        <ele>1345.0217285156</ele>
        <time>2011-04-16T05:59:15Z</time>
      </trkpt>
      <trkpt lat="45.68238" lon="6.20358">
        <ele>1337.8117675781</ele>
        <time>2011-04-16T05:59:35Z</time>
      </trkpt>
      <trkpt lat="45.68237" lon="6.20363">
        <ele>1345.5024414062</ele>
        <time>2011-04-16T05:59:42Z</time>
      </trkpt>
      <trkpt lat="45.68239" lon="6.20377">
        <ele>1373.380859375</ele>
        <time>2011-04-16T05:59:54Z</time>
      </trkpt>
      <trkpt lat="45.68241" lon="6.20381">
        <ele>1384.9165039062</ele>
        <time>2011-04-16T05:59:59Z</time>
      </trkpt>
      <trkpt lat="45.68239" lon="6.20387">
        <ele>1392.6071777344</ele>
        <time>2011-04-16T06:00:04Z</time>
      </trkpt>
      <trkpt lat="45.6824" lon="6.20396">
        <ele>1407.98828125</ele>
        <time>2011-04-16T06:00:10Z</time>
      </trkpt>
      <trkpt lat="45.68239" lon="6.20405">
        <ele>1420.4853515625</ele>
        <time>2011-04-16T06:00:17Z</time>
      </trkpt>
      <trkpt lat="45.68238" lon="6.20406">
        <ele>1418.0817871094</ele>
        <time>2011-04-16T06:00:23Z</time>
      </trkpt>
      <trkpt lat="45.68235" lon="6.20397">
        <ele>1397.8942871094</ele>
        <time>2011-04-16T06:00:33Z</time>
      </trkpt>
      <trkpt lat="45.68244" lon="6.20382">
        <ele>1376.7453613281</ele>
        <time>2011-04-16T06:00:39Z</time>
      </trkpt>
      <trkpt lat="45.68251" lon="6.20375">
        <ele>1361.8449707031</ele>
        <time>2011-04-16T06:00:43Z</time>
      </trkpt>
      <trkpt lat="45.68264" lon="6.20369">
        <ele>1345.9831542969</ele>
        <time>2011-04-16T06:00:51Z</time>
      </trkpt>
      <trkpt lat="45.68273" lon="6.20373">
        <ele>1343.0991210938</ele>
        <time>2011-04-16T06:00:58Z</time>
      </trkpt>
      <trkpt lat="45.6828" lon="6.20383">
        <ele>1349.34765625</ele>
        <time>2011-04-16T06:01:05Z</time>
      </trkpt>
      <trkpt lat="45.68284" lon="6.20391">
        <ele>1360.4028320312</ele>
        <time>2011-04-16T06:01:11Z</time>
      </trkpt>
      <trkpt lat="45.68286" lon="6.20399">
        <ele>1362.3254394531</ele>
        <time>2011-04-16T06:01:16Z</time>
      </trkpt>
      <trkpt lat="45.68279" lon="6.20404">
        <ele>1358.4802246094</ele>
        <time>2011-04-16T06:01:22Z</time>
      </trkpt>
      <trkpt lat="45.68269" lon="6.20407">
        <ele>1357.9997558594</ele>
        <time>2011-04-16T06:01:29Z</time>
      </trkpt>
      <trkpt lat="45.68259" lon="6.20411">
        <ele>1365.2094726562</ele>
        <time>2011-04-16T06:01:36Z</time>
      </trkpt>
      <trkpt lat="45.68254" lon="6.20422">
        <ele>1364.248046875</ele>
        <time>2011-04-16T06:01:43Z</time>
      </trkpt>
      <trkpt lat="45.6825" lon="6.20438">
        <ele>1358.9609375</ele>
        <time>2011-04-16T06:01:52Z</time>
      </trkpt>
      <trkpt lat="45.68245" lon="6.2045">
        <ele>1355.1154785156</ele>
        <time>2011-04-16T06:02:00Z</time>
      </trkpt>
      <trkpt lat="45.68241" lon="6.20464">
        <ele>1353.6735839844</ele>
        <time>2011-04-16T06:02:08Z</time>
      </trkpt>
      <trkpt lat="45.68242" lon="6.20473">
        <ele>1352.2314453125</ele>
        <time>2011-04-16T06:02:14Z</time>
      </trkpt>
      <trkpt lat="45.68248" lon="6.2048">
        <ele>1349.34765625</ele>
        <time>2011-04-16T06:02:20Z</time>
      </trkpt>
      <trkpt lat="45.68256" lon="6.20488">
        <ele>1347.9057617188</ele>
        <time>2011-04-16T06:02:27Z</time>
      </trkpt>
      <trkpt lat="45.68264" lon="6.205">
        <ele>1347.9057617188</ele>
        <time>2011-04-16T06:02:35Z</time>
      </trkpt>
      <trkpt lat="45.6827" lon="6.20513">
        <ele>1348.8669433594</ele>
        <time>2011-04-16T06:02:42Z</time>
      </trkpt>
      <trkpt lat="45.68269" lon="6.2052">
        <ele>1349.8283691406</ele>
        <time>2011-04-16T06:02:47Z</time>
      </trkpt>
      <trkpt lat="45.68264" lon="6.20529">
        <ele>1351.7509765625</ele>
        <time>2011-04-16T06:02:54Z</time>
      </trkpt>
      <trkpt lat="45.68261" lon="6.20543">
        <ele>1351.2702636719</ele>
        <time>2011-04-16T06:03:01Z</time>
      </trkpt>
      <trkpt lat="45.68259" lon="6.20561">
        <ele>1349.8283691406</ele>
        <time>2011-04-16T06:03:09Z</time>
      </trkpt>
      <trkpt lat="45.68252" lon="6.20576">
        <ele>1351.2702636719</ele>
        <time>2011-04-16T06:03:16Z</time>
      </trkpt>
      <trkpt lat="45.68243" lon="6.20588">
        <ele>1355.1154785156</ele>
        <time>2011-04-16T06:03:24Z</time>
      </trkpt>
      <trkpt lat="45.68233" lon="6.20599">
        <ele>1356.0769042969</ele>
        <time>2011-04-16T06:03:32Z</time>
      </trkpt>
      <trkpt lat="45.6822" lon="6.20608">
        <ele>1359.4416503906</ele>
        <time>2011-04-16T06:03:41Z</time>
      </trkpt>
      <trkpt lat="45.68207" lon="6.20612">
        <ele>1360.4028320312</ele>
        <time>2011-04-16T06:03:49Z</time>
      </trkpt>
      <trkpt lat="45.68193" lon="6.20615">
        <ele>1363.7673339844</ele>
        <time>2011-04-16T06:03:57Z</time>
      </trkpt>
      <trkpt lat="45.68182" lon="6.20621">
        <ele>1365.6901855469</ele>
        <time>2011-04-16T06:04:05Z</time>
      </trkpt>
      <trkpt lat="45.68179" lon="6.20631">
        <ele>1363.7673339844</ele>
        <time>2011-04-16T06:04:10Z</time>
      </trkpt>
      <trkpt lat="45.68174" lon="6.20644">
        <ele>1366.6513671875</ele>
        <time>2011-04-16T06:04:17Z</time>
      </trkpt>
      <trkpt lat="45.68166" lon="6.20659">
        <ele>1369.0546875</ele>
        <time>2011-04-16T06:04:26Z</time>
      </trkpt>
      <trkpt lat="45.68159" lon="6.20668">
        <ele>1368.5739746094</ele>
        <time>2011-04-16T06:04:33Z</time>
      </trkpt>
      <trkpt lat="45.6815" lon="6.20679">
        <ele>1367.6125488281</ele>
        <time>2011-04-16T06:04:41Z</time>
      </trkpt>
      <trkpt lat="45.6814" lon="6.20694">
        <ele>1371.9384765625</ele>
        <time>2011-04-16T06:04:51Z</time>
      </trkpt>
      <trkpt lat="45.68137" lon="6.20703">
        <ele>1373.380859375</ele>
        <time>2011-04-16T06:04:57Z</time>
      </trkpt>
      <trkpt lat="45.68133" lon="6.20706">
        <ele>1372.9001464844</ele>
        <time>2011-04-16T06:05:01Z</time>
      </trkpt>
      <trkpt lat="45.68121" lon="6.20711">
        <ele>1373.861328125</ele>
        <time>2011-04-16T06:05:10Z</time>
      </trkpt>
      <trkpt lat="45.68112" lon="6.20722">
        <ele>1373.861328125</ele>
        <time>2011-04-16T06:05:19Z</time>
      </trkpt>
      <trkpt lat="45.68105" lon="6.20735">
        <ele>1375.7839355469</ele>
        <time>2011-04-16T06:05:27Z</time>
      </trkpt>
      <trkpt lat="45.68097" lon="6.20745">
        <ele>1380.1098632812</ele>
        <time>2011-04-16T06:05:35Z</time>
      </trkpt>
      <trkpt lat="45.68091" lon="6.20756">
        <ele>1380.5905761719</ele>
        <time>2011-04-16T06:05:42Z</time>
      </trkpt>
      <trkpt lat="45.68085" lon="6.20768">
        <ele>1380.1098632812</ele>
        <time>2011-04-16T06:05:49Z</time>
      </trkpt>
      <trkpt lat="45.68076" lon="6.2077">
        <ele>1382.0324707031</ele>
        <time>2011-04-16T06:05:55Z</time>
      </trkpt>
      <trkpt lat="45.68068" lon="6.20773">
        <ele>1382.0324707031</ele>
        <time>2011-04-16T06:06:02Z</time>
      </trkpt>
      <trkpt lat="45.68063" lon="6.20781">
        <ele>1378.66796875</ele>
        <time>2011-04-16T06:06:09Z</time>
      </trkpt>
      <trkpt lat="45.68057" lon="6.2079">
        <ele>1378.1872558594</ele>
        <time>2011-04-16T06:06:16Z</time>
      </trkpt>
      <trkpt lat="45.68052" lon="6.208">
        <ele>1377.7065429688</ele>
        <time>2011-04-16T06:06:23Z</time>
      </trkpt>
      <trkpt lat="45.68044" lon="6.20807">
        <ele>1380.1098632812</ele>
        <time>2011-04-16T06:06:30Z</time>
      </trkpt>
      <trkpt lat="45.68032" lon="6.20813">
        <ele>1382.9936523438</ele>
        <time>2011-04-16T06:06:39Z</time>
      </trkpt>
      <trkpt lat="45.6802" lon="6.20817">
        <ele>1386.3583984375</ele>
        <time>2011-04-16T06:06:48Z</time>
      </trkpt>
      <trkpt lat="45.68011" lon="6.20816">
        <ele>1385.3969726562</ele>
        <time>2011-04-16T06:06:56Z</time>
      </trkpt>
      <trkpt lat="45.68002" lon="6.20814">
        <ele>1385.3969726562</ele>
        <time>2011-04-16T06:07:03Z</time>
      </trkpt>
      <trkpt lat="45.6799" lon="6.20811">
        <ele>1385.8776855469</ele>
        <time>2011-04-16T06:07:12Z</time>
      </trkpt>
      <trkpt lat="45.6798" lon="6.20811">
        <ele>1386.8388671875</ele>
        <time>2011-04-16T06:07:20Z</time>
      </trkpt>
      <trkpt lat="45.67969" lon="6.20811">
        <ele>1387.8002929688</ele>
        <time>2011-04-16T06:07:29Z</time>
      </trkpt>
      <trkpt lat="45.67956" lon="6.20811">
        <ele>1389.7231445312</ele>
        <time>2011-04-16T06:07:39Z</time>
      </trkpt>
      <trkpt lat="45.67942" lon="6.20813">
        <ele>1391.1650390625</ele>
        <time>2011-04-16T06:07:50Z</time>
      </trkpt>
      <trkpt lat="45.67927" lon="6.20814">
        <ele>1393.0876464844</ele>
        <time>2011-04-16T06:08:01Z</time>
      </trkpt>
      <trkpt lat="45.67914" lon="6.20814">
        <ele>1394.5295410156</ele>
        <time>2011-04-16T06:08:10Z</time>
      </trkpt>
      <trkpt lat="45.67905" lon="6.20814">
        <ele>1395.4909667969</ele>
        <time>2011-04-16T06:08:17Z</time>
      </trkpt>
      <trkpt lat="45.67893" lon="6.20814">
        <ele>1396.9328613281</ele>
        <time>2011-04-16T06:08:25Z</time>
      </trkpt>
      <trkpt lat="45.67883" lon="6.20813">
        <ele>1397.8942871094</ele>
        <time>2011-04-16T06:08:32Z</time>
      </trkpt>
      <trkpt lat="45.67874" lon="6.20812">
        <ele>1399.3361816406</ele>
        <time>2011-04-16T06:08:39Z</time>
      </trkpt>
      <trkpt lat="45.67864" lon="6.20813">
        <ele>1400.7780761719</ele>
        <time>2011-04-16T06:08:46Z</time>
      </trkpt>
      <trkpt lat="45.67853" lon="6.20816">
        <ele>1402.7006835938</ele>
        <time>2011-04-16T06:08:54Z</time>
      </trkpt>
      <trkpt lat="45.67846" lon="6.20822">
        <ele>1404.1430664062</ele>
        <time>2011-04-16T06:08:59Z</time>
      </trkpt>
      <trkpt lat="45.67846" lon="6.20832">
        <ele>1405.1042480469</ele>
        <time>2011-04-16T06:09:04Z</time>
      </trkpt>
      <trkpt lat="45.67846" lon="6.20834">
        <ele>1405.1042480469</ele>
        <time>2011-04-16T06:09:12Z</time>
      </trkpt>
      <trkpt lat="45.67847" lon="6.20838">
        <ele>1405.5849609375</ele>
        <time>2011-04-16T06:09:18Z</time>
      </trkpt>
      <trkpt lat="45.67849" lon="6.20841">
        <ele>1405.5849609375</ele>
        <time>2011-04-16T06:09:20Z</time>
      </trkpt>
      <trkpt lat="45.67853" lon="6.20849">
        <ele>1406.0654296875</ele>
        <time>2011-04-16T06:09:26Z</time>
      </trkpt>
      <trkpt lat="45.67853" lon="6.20859">
        <ele>1406.5461425781</ele>
        <time>2011-04-16T06:09:32Z</time>
      </trkpt>
      <trkpt lat="45.67851" lon="6.20863">
        <ele>1407.0268554688</ele>
        <time>2011-04-16T06:09:34Z</time>
      </trkpt>
      <trkpt lat="45.67844" lon="6.2087">
        <ele>1407.98828125</ele>
        <time>2011-04-16T06:09:40Z</time>
      </trkpt>
      <trkpt lat="45.67842" lon="6.20884">
        <ele>1409.4301757812</ele>
        <time>2011-04-16T06:09:47Z</time>
      </trkpt>
      <trkpt lat="45.67848" lon="6.20898">
        <ele>1410.3913574219</ele>
        <time>2011-04-16T06:09:55Z</time>
      </trkpt>
      <trkpt lat="45.67852" lon="6.20909">
        <ele>1411.3527832031</ele>
        <time>2011-04-16T06:10:01Z</time>
      </trkpt>
      <trkpt lat="45.67854" lon="6.20926">
        <ele>1413.275390625</ele>
        <time>2011-04-16T06:10:10Z</time>
      </trkpt>
      <trkpt lat="45.67849" lon="6.20936">
        <ele>1414.7172851562</ele>
        <time>2011-04-16T06:10:16Z</time>
      </trkpt>
      <trkpt lat="45.67844" lon="6.20949">
        <ele>1416.6398925781</ele>
        <time>2011-04-16T06:10:24Z</time>
      </trkpt>
      <trkpt lat="45.67842" lon="6.20956">
        <ele>1417.1206054688</ele>
        <time>2011-04-16T06:10:30Z</time>
      </trkpt>
      <trkpt lat="45.67842" lon="6.20955">
        <ele>1417.6010742188</ele>
        <time>2011-04-16T06:10:41Z</time>
      </trkpt>
      <trkpt lat="45.67842" lon="6.20954">
        <ele>1418.5625</ele>
        <time>2011-04-16T06:10:50Z</time>
      </trkpt>
      <trkpt lat="45.67842" lon="6.20954">
        <ele>1417.6010742188</ele>
        <time>2011-04-16T06:10:59Z</time>
      </trkpt>
      <trkpt lat="45.67842" lon="6.20954">
        <ele>1417.6010742188</ele>
        <time>2011-04-16T06:11:05Z</time>
      </trkpt>
      <trkpt lat="45.67842" lon="6.20954">
        <ele>1417.1206054688</ele>
        <time>2011-04-16T06:11:15Z</time>
      </trkpt>
      <trkpt lat="45.67842" lon="6.20954">
        <ele>1417.1206054688</ele>
        <time>2011-04-16T06:11:21Z</time>
      </trkpt>
      <trkpt lat="45.67842" lon="6.20954">
        <ele>1416.6398925781</ele>
        <time>2011-04-16T06:11:31Z</time>
      </trkpt>
      <trkpt lat="45.67842" lon="6.20954">
        <ele>1416.1591796875</ele>
        <time>2011-04-16T06:11:36Z</time>
      </trkpt>
      <trkpt lat="45.67842" lon="6.20954">
        <ele>1416.1591796875</ele>
        <time>2011-04-16T06:11:42Z</time>
      </trkpt>
      <trkpt lat="45.67842" lon="6.20955">
        <ele>1417.6010742188</ele>
        <time>2011-04-16T06:11:51Z</time>
      </trkpt>
      <trkpt lat="45.67843" lon="6.20955">
        <ele>1418.0817871094</ele>
        <time>2011-04-16T06:11:53Z</time>
      </trkpt>
      <trkpt lat="45.67843" lon="6.20955">
        <ele>1418.5625</ele>
        <time>2011-04-16T06:11:54Z</time>
      </trkpt>
      <trkpt lat="45.67843" lon="6.20955">
        <ele>1418.5625</ele>
        <time>2011-04-16T06:12:01Z</time>
      </trkpt>
      <trkpt lat="45.67843" lon="6.20957">
        <ele>1420.4853515625</ele>
        <time>2011-04-16T06:12:09Z</time>
      </trkpt>
      <trkpt lat="45.67844" lon="6.20957">
        <ele>1420.9660644531</ele>
        <time>2011-04-16T06:12:14Z</time>
      </trkpt>
      <trkpt lat="45.67842" lon="6.20957">
        <ele>1420.4853515625</ele>
        <time>2011-04-16T06:12:23Z</time>
      </trkpt>
      <trkpt lat="45.67843" lon="6.20957">
        <ele>1420.0046386719</ele>
        <time>2011-04-16T06:12:32Z</time>
      </trkpt>
      <trkpt lat="45.67844" lon="6.20956">
        <ele>1419.5239257812</ele>
        <time>2011-04-16T06:12:41Z</time>
      </trkpt>
      <trkpt lat="45.67843" lon="6.20956">
        <ele>1420.0046386719</ele>
        <time>2011-04-16T06:12:51Z</time>
      </trkpt>
      <trkpt lat="45.67843" lon="6.20956">
        <ele>1420.0046386719</ele>
        <time>2011-04-16T06:12:55Z</time>
      </trkpt>
      <trkpt lat="45.67842" lon="6.20955">
        <ele>1419.5239257812</ele>
        <time>2011-04-16T06:13:04Z</time>
      </trkpt>
      <trkpt lat="45.67843" lon="6.20955">
        <ele>1419.5239257812</ele>
        <time>2011-04-16T06:13:11Z</time>
      </trkpt>
      <trkpt lat="45.67843" lon="6.20955">
        <ele>1419.0432128906</ele>
        <time>2011-04-16T06:13:20Z</time>
      </trkpt>
      <trkpt lat="45.67842" lon="6.20954">
        <ele>1419.0432128906</ele>
        <time>2011-04-16T06:13:35Z</time>
      </trkpt>
      <trkpt lat="45.67842" lon="6.20954">
        <ele>1418.5625</ele>
        <time>2011-04-16T06:13:53Z</time>
      </trkpt>
      <trkpt lat="45.67842" lon="6.20955">
        <ele>1420.4853515625</ele>
        <time>2011-04-16T06:14:15Z</time>
      </trkpt>
      <trkpt lat="45.67842" lon="6.20957">
        <ele>1420.9660644531</ele>
        <time>2011-04-16T06:14:33Z</time>
      </trkpt>
      <trkpt lat="45.67842" lon="6.20954">
        <ele>1420.9660644531</ele>
        <time>2011-04-16T06:14:37Z</time>
      </trkpt>
      <trkpt lat="45.67842" lon="6.20954">
        <ele>1421.9272460938</ele>
        <time>2011-04-16T06:14:42Z</time>
      </trkpt>
      <trkpt lat="45.67842" lon="6.20955">
        <ele>1422.4079589844</ele>
        <time>2011-04-16T06:14:50Z</time>
      </trkpt>
      <trkpt lat="45.67843" lon="6.20954">
        <ele>1422.4079589844</ele>
        <time>2011-04-16T06:14:53Z</time>
      </trkpt>
      <trkpt lat="45.67844" lon="6.20953">
        <ele>1421.9272460938</ele>
        <time>2011-04-16T06:15:02Z</time>
      </trkpt>
      <trkpt lat="45.67844" lon="6.20953">
        <ele>1421.9272460938</ele>
        <time>2011-04-16T06:15:09Z</time>
      </trkpt>
      <trkpt lat="45.67845" lon="6.20953">
        <ele>1421.9272460938</ele>
        <time>2011-04-16T06:15:16Z</time>
      </trkpt>
      <trkpt lat="45.67846" lon="6.20952">
        <ele>1421.4465332031</ele>
        <time>2011-04-16T06:15:26Z</time>
      </trkpt>
      <trkpt lat="45.67846" lon="6.20953">
        <ele>1420.9660644531</ele>
        <time>2011-04-16T06:15:34Z</time>
      </trkpt>
      <trkpt lat="45.67846" lon="6.20954">
        <ele>1420.4853515625</ele>
        <time>2011-04-16T06:15:37Z</time>
      </trkpt>
      <trkpt lat="45.67845" lon="6.20955">
        <ele>1421.4465332031</ele>
        <time>2011-04-16T06:15:48Z</time>
      </trkpt>
      <trkpt lat="45.67844" lon="6.20955">
        <ele>1422.4079589844</ele>
        <time>2011-04-16T06:15:57Z</time>
      </trkpt>
      <trkpt lat="45.67843" lon="6.20957">
        <ele>1422.888671875</ele>
        <time>2011-04-16T06:16:19Z</time>
      </trkpt>
      <trkpt lat="45.67844" lon="6.20955">
        <ele>1420.9660644531</ele>
        <time>2011-04-16T06:16:27Z</time>
      </trkpt>
      <trkpt lat="45.67846" lon="6.20959">
        <ele>1419.5239257812</ele>
        <time>2011-04-16T06:16:36Z</time>
      </trkpt>
      <trkpt lat="45.67848" lon="6.20959">
        <ele>1419.5239257812</ele>
        <time>2011-04-16T06:16:41Z</time>
      </trkpt>
      <trkpt lat="45.67849" lon="6.2096">
        <ele>1419.0432128906</ele>
        <time>2011-04-16T06:16:47Z</time>
      </trkpt>
      <trkpt lat="45.6785" lon="6.20962">
        <ele>1418.5625</ele>
        <time>2011-04-16T06:16:48Z</time>
      </trkpt>
      <trkpt lat="45.67852" lon="6.20967">
        <ele>1417.6010742188</ele>
        <time>2011-04-16T06:16:53Z</time>
      </trkpt>
      <trkpt lat="45.6785" lon="6.20969">
        <ele>1417.6010742188</ele>
        <time>2011-04-16T06:16:55Z</time>
      </trkpt>
      <trkpt lat="45.67848" lon="6.20971">
        <ele>1417.1206054688</ele>
        <time>2011-04-16T06:17:01Z</time>
      </trkpt>
      <trkpt lat="45.6785" lon="6.20973">
        <ele>1417.1206054688</ele>
        <time>2011-04-16T06:17:07Z</time>
      </trkpt>
      <trkpt lat="45.6785" lon="6.20971">
        <ele>1417.6010742188</ele>
        <time>2011-04-16T06:17:20Z</time>
      </trkpt>
      <trkpt lat="45.67845" lon="6.20962">
        <ele>1416.1591796875</ele>
        <time>2011-04-16T06:17:26Z</time>
      </trkpt>
      <trkpt lat="45.67844" lon="6.20956">
        <ele>1415.6787109375</ele>
        <time>2011-04-16T06:17:32Z</time>
      </trkpt>
      <trkpt lat="45.67846" lon="6.20957">
        <ele>1414.7172851562</ele>
        <time>2011-04-16T06:17:38Z</time>
      </trkpt>
      <trkpt lat="45.67846" lon="6.20957">
        <ele>1415.1979980469</ele>
        <time>2011-04-16T06:17:41Z</time>
      </trkpt>
      <trkpt lat="45.67847" lon="6.20956">
        <ele>1414.2365722656</ele>
        <time>2011-04-16T06:17:50Z</time>
      </trkpt>
      <trkpt lat="45.67843" lon="6.20958">
        <ele>1418.0817871094</ele>
        <time>2011-04-16T06:18:04Z</time>
      </trkpt>
      <trkpt lat="45.67843" lon="6.20958">
        <ele>1420.9660644531</ele>
        <time>2011-04-16T06:18:11Z</time>
      </trkpt>
      <trkpt lat="45.67843" lon="6.20958">
        <ele>1421.4465332031</ele>
        <time>2011-04-16T06:18:15Z</time>
      </trkpt>
      <trkpt lat="45.67841" lon="6.20965">
        <ele>1425.2917480469</ele>
        <time>2011-04-16T06:18:21Z</time>
      </trkpt>
      <trkpt lat="45.67841" lon="6.20965">
        <ele>1424.8112792969</ele>
        <time>2011-04-16T06:18:26Z</time>
      </trkpt>
      <trkpt lat="45.67839" lon="6.20966">
        <ele>1427.6950683594</ele>
        <time>2011-04-16T06:18:32Z</time>
      </trkpt>
      <trkpt lat="45.67841" lon="6.20965">
        <ele>1427.2145996094</ele>
        <time>2011-04-16T06:18:37Z</time>
      </trkpt>
      <trkpt lat="45.67841" lon="6.20962">
        <ele>1424.8112792969</ele>
        <time>2011-04-16T06:18:43Z</time>
      </trkpt>
      <trkpt lat="45.67842" lon="6.20962">
        <ele>1423.8498535156</ele>
        <time>2011-04-16T06:18:47Z</time>
      </trkpt>
      <trkpt lat="45.67842" lon="6.2096">
        <ele>1423.8498535156</ele>
        <time>2011-04-16T06:18:54Z</time>
      </trkpt>
      <trkpt lat="45.67841" lon="6.20958">
        <ele>1423.3693847656</ele>
        <time>2011-04-16T06:19:02Z</time>
      </trkpt>
      <trkpt lat="45.67841" lon="6.20957">
        <ele>1422.888671875</ele>
        <time>2011-04-16T06:19:12Z</time>
      </trkpt>
      <trkpt lat="45.67841" lon="6.20955">
        <ele>1422.4079589844</ele>
        <time>2011-04-16T06:19:18Z</time>
      </trkpt>
      <trkpt lat="45.6784" lon="6.20954">
        <ele>1421.9272460938</ele>
        <time>2011-04-16T06:19:24Z</time>
      </trkpt>
      <trkpt lat="45.67839" lon="6.20954">
        <ele>1422.4079589844</ele>
        <time>2011-04-16T06:19:31Z</time>
      </trkpt>
      <trkpt lat="45.67839" lon="6.20953">
        <ele>1422.4079589844</ele>
        <time>2011-04-16T06:19:44Z</time>
      </trkpt>
      <trkpt lat="45.6784" lon="6.20953">
        <ele>1420.4853515625</ele>
        <time>2011-04-16T06:19:56Z</time>
      </trkpt>
      <trkpt lat="45.6784" lon="6.20953">
        <ele>1420.4853515625</ele>
        <time>2011-04-16T06:20:00Z</time>
      </trkpt>
      <trkpt lat="45.67841" lon="6.20953">
        <ele>1420.9660644531</ele>
        <time>2011-04-16T06:20:05Z</time>
      </trkpt>
      <trkpt lat="45.67842" lon="6.20953">
        <ele>1420.4853515625</ele>
        <time>2011-04-16T06:20:19Z</time>
      </trkpt>
      <trkpt lat="45.67844" lon="6.20954">
        <ele>1420.4853515625</ele>
        <time>2011-04-16T06:20:33Z</time>
      </trkpt>
      <trkpt lat="45.67843" lon="6.20955">
        <ele>1420.9660644531</ele>
        <time>2011-04-16T06:20:36Z</time>
      </trkpt>
      <trkpt lat="45.67843" lon="6.20956">
        <ele>1422.888671875</ele>
        <time>2011-04-16T06:20:45Z</time>
      </trkpt>
      <trkpt lat="45.67841" lon="6.20953">
        <ele>1423.8498535156</ele>
        <time>2011-04-16T06:20:49Z</time>
      </trkpt>
      <trkpt lat="45.6784" lon="6.20952">
        <ele>1423.8498535156</ele>
        <time>2011-04-16T06:20:53Z</time>
      </trkpt>
      <trkpt lat="45.67841" lon="6.20952">
        <ele>1421.9272460938</ele>
        <time>2011-04-16T06:21:02Z</time>
      </trkpt>
      <trkpt lat="45.67842" lon="6.20948">
        <ele>1421.4465332031</ele>
        <time>2011-04-16T06:21:10Z</time>
      </trkpt>
      <trkpt lat="45.67844" lon="6.20945">
        <ele>1420.4853515625</ele>
        <time>2011-04-16T06:21:24Z</time>
      </trkpt>
      <trkpt lat="45.67845" lon="6.20945">
        <ele>1420.9660644531</ele>
        <time>2011-04-16T06:21:39Z</time>
      </trkpt>
      <trkpt lat="45.67845" lon="6.20944">
        <ele>1420.0046386719</ele>
        <time>2011-04-16T06:21:46Z</time>
      </trkpt>
      <trkpt lat="45.67845" lon="6.20945">
        <ele>1420.0046386719</ele>
        <time>2011-04-16T06:21:58Z</time>
      </trkpt>
      <trkpt lat="45.67845" lon="6.20944">
        <ele>1419.0432128906</ele>
        <time>2011-04-16T06:22:06Z</time>
      </trkpt>
      <trkpt lat="45.67846" lon="6.20944">
        <ele>1418.0817871094</ele>
        <time>2011-04-16T06:22:14Z</time>
      </trkpt>
      <trkpt lat="45.67846" lon="6.20944">
        <ele>1417.6010742188</ele>
        <time>2011-04-16T06:22:23Z</time>
      </trkpt>
      <trkpt lat="45.67845" lon="6.20946">
        <ele>1417.1206054688</ele>
        <time>2011-04-16T06:22:30Z</time>
      </trkpt>
      <trkpt lat="45.67844" lon="6.20946">
        <ele>1417.1206054688</ele>
        <time>2011-04-16T06:22:40Z</time>
      </trkpt>
      <trkpt lat="45.67843" lon="6.20948">
        <ele>1418.0817871094</ele>
        <time>2011-04-16T06:23:07Z</time>
      </trkpt>
      <trkpt lat="45.67843" lon="6.20948">
        <ele>1417.6010742188</ele>
        <time>2011-04-16T06:23:10Z</time>
      </trkpt>
      <trkpt lat="45.67844" lon="6.20948">
        <ele>1416.6398925781</ele>
        <time>2011-04-16T06:23:20Z</time>
      </trkpt>
      <trkpt lat="45.67845" lon="6.20946">
        <ele>1417.6010742188</ele>
        <time>2011-04-16T06:23:26Z</time>
      </trkpt>
      <trkpt lat="45.67845" lon="6.20947">
        <ele>1418.0817871094</ele>
        <time>2011-04-16T06:23:32Z</time>
      </trkpt>
      <trkpt lat="45.67845" lon="6.20946">
        <ele>1419.0432128906</ele>
        <time>2011-04-16T06:23:40Z</time>
      </trkpt>
      <trkpt lat="45.67845" lon="6.20946">
        <ele>1420.0046386719</ele>
        <time>2011-04-16T06:23:44Z</time>
      </trkpt>
      <trkpt lat="45.67846" lon="6.20945">
        <ele>1420.9660644531</ele>
        <time>2011-04-16T06:23:54Z</time>
      </trkpt>
      <trkpt lat="45.67847" lon="6.20947">
        <ele>1420.9660644531</ele>
        <time>2011-04-16T06:23:58Z</time>
      </trkpt>
      <trkpt lat="45.67847" lon="6.20952">
        <ele>1420.4853515625</ele>
        <time>2011-04-16T06:24:02Z</time>
      </trkpt>
      <trkpt lat="45.67847" lon="6.20953">
        <ele>1420.4853515625</ele>
        <time>2011-04-16T06:24:09Z</time>
      </trkpt>
      <trkpt lat="45.67847" lon="6.20952">
        <ele>1420.4853515625</ele>
        <time>2011-04-16T06:24:17Z</time>
      </trkpt>
      <trkpt lat="45.67845" lon="6.20954">
        <ele>1417.6010742188</ele>
        <time>2011-04-16T06:24:30Z</time>
      </trkpt>
      <trkpt lat="45.67845" lon="6.20954">
        <ele>1417.6010742188</ele>
        <time>2011-04-16T06:24:33Z</time>
      </trkpt>
      <trkpt lat="45.67845" lon="6.20954">
        <ele>1418.5625</ele>
        <time>2011-04-16T06:24:34Z</time>
      </trkpt>
      <trkpt lat="45.67845" lon="6.20954">
        <ele>1420.9660644531</ele>
        <time>2011-04-16T06:24:40Z</time>
      </trkpt>
      <trkpt lat="45.67845" lon="6.20955">
        <ele>1422.4079589844</ele>
        <time>2011-04-16T06:24:44Z</time>
      </trkpt>
      <trkpt lat="45.67844" lon="6.20957">
        <ele>1418.0817871094</ele>
        <time>2011-04-16T06:24:53Z</time>
      </trkpt>
      <trkpt lat="45.67845" lon="6.20957">
        <ele>1420.4853515625</ele>
        <time>2011-04-16T06:25:01Z</time>
      </trkpt>
      <trkpt lat="45.67844" lon="6.20957">
        <ele>1420.9660644531</ele>
        <time>2011-04-16T06:25:16Z</time>
      </trkpt>
      <trkpt lat="45.67844" lon="6.20955">
        <ele>1427.2145996094</ele>
        <time>2011-04-16T06:25:35Z</time>
      </trkpt>
      <trkpt lat="45.67843" lon="6.20956">
        <ele>1426.7338867188</ele>
        <time>2011-04-16T06:25:39Z</time>
      </trkpt>
      <trkpt lat="45.67842" lon="6.20955">
        <ele>1428.6564941406</ele>
        <time>2011-04-16T06:25:48Z</time>
      </trkpt>
      <trkpt lat="45.67843" lon="6.20954">
        <ele>1426.2531738281</ele>
        <time>2011-04-16T06:25:55Z</time>
      </trkpt>
      <trkpt lat="45.67843" lon="6.20954">
        <ele>1425.2917480469</ele>
        <time>2011-04-16T06:25:59Z</time>
      </trkpt>
      <trkpt lat="45.67842" lon="6.20959">
        <ele>1420.4853515625</ele>
        <time>2011-04-16T06:26:10Z</time>
      </trkpt>
      <trkpt lat="45.67842" lon="6.2096">
        <ele>1417.6010742188</ele>
        <time>2011-04-16T06:26:12Z</time>
      </trkpt>
      <trkpt lat="45.67842" lon="6.20959">
        <ele>1417.1206054688</ele>
        <time>2011-04-16T06:26:13Z</time>
      </trkpt>
      <trkpt lat="45.67842" lon="6.20958">
        <ele>1410.8720703125</ele>
        <time>2011-04-16T06:26:22Z</time>
      </trkpt>
      <trkpt lat="45.67843" lon="6.20957">
        <ele>1413.755859375</ele>
        <time>2011-04-16T06:26:35Z</time>
      </trkpt>
      <trkpt lat="45.67843" lon="6.20956">
        <ele>1415.6787109375</ele>
        <time>2011-04-16T06:26:42Z</time>
      </trkpt>
      <trkpt lat="45.67844" lon="6.20955">
        <ele>1417.1206054688</ele>
        <time>2011-04-16T06:26:46Z</time>
      </trkpt>
      <trkpt lat="45.67844" lon="6.20953">
        <ele>1419.0432128906</ele>
        <time>2011-04-16T06:26:53Z</time>
      </trkpt>
      <trkpt lat="45.67844" lon="6.20954">
        <ele>1419.0432128906</ele>
        <time>2011-04-16T06:26:56Z</time>
      </trkpt>
      <trkpt lat="45.67844" lon="6.20954">
        <ele>1419.0432128906</ele>
        <time>2011-04-16T06:26:57Z</time>
      </trkpt>
      <trkpt lat="45.67844" lon="6.20955">
        <ele>1418.5625</ele>
        <time>2011-04-16T06:27:01Z</time>
      </trkpt>
      <trkpt lat="45.67844" lon="6.20955">
        <ele>1417.1206054688</ele>
        <time>2011-04-16T06:27:04Z</time>
      </trkpt>
      <trkpt lat="45.67844" lon="6.20955">
        <ele>1414.7172851562</ele>
        <time>2011-04-16T06:27:09Z</time>
      </trkpt>
      <trkpt lat="45.67844" lon="6.20955">
        <ele>1414.7172851562</ele>
        <time>2011-04-16T06:27:10Z</time>
      </trkpt>
      <trkpt lat="45.67844" lon="6.20956">
        <ele>1413.275390625</ele>
        <time>2011-04-16T06:27:14Z</time>
      </trkpt>
      <trkpt lat="45.67844" lon="6.20956">
        <ele>1412.7946777344</ele>
        <time>2011-04-16T06:27:17Z</time>
      </trkpt>
      <trkpt lat="45.67844" lon="6.20956">
        <ele>1412.7946777344</ele>
        <time>2011-04-16T06:27:19Z</time>
      </trkpt>
      <trkpt lat="45.67844" lon="6.20956">
        <ele>1412.3139648438</ele>
        <time>2011-04-16T06:27:28Z</time>
      </trkpt>
      <trkpt lat="45.67844" lon="6.20957">
        <ele>1411.8334960938</ele>
        <time>2011-04-16T06:27:37Z</time>
      </trkpt>
      <trkpt lat="45.67843" lon="6.20956">
        <ele>1411.8334960938</ele>
        <time>2011-04-16T06:27:54Z</time>
      </trkpt>
      <trkpt lat="45.67844" lon="6.20958">
        <ele>1412.3139648438</ele>
        <time>2011-04-16T06:28:04Z</time>
      </trkpt>
      <trkpt lat="45.67843" lon="6.20958">
        <ele>1414.7172851562</ele>
        <time>2011-04-16T06:28:18Z</time>
      </trkpt>
      <trkpt lat="45.67842" lon="6.20957">
        <ele>1415.6787109375</ele>
        <time>2011-04-16T06:28:30Z</time>
      </trkpt>
      <trkpt lat="45.67842" lon="6.20957">
        <ele>1416.1591796875</ele>
        <time>2011-04-16T06:28:35Z</time>
      </trkpt>
      <trkpt lat="45.67843" lon="6.20956">
        <ele>1416.1591796875</ele>
        <time>2011-04-16T06:28:54Z</time>
      </trkpt>
      <trkpt lat="45.67843" lon="6.20956">
        <ele>1415.6787109375</ele>
        <time>2011-04-16T06:29:08Z</time>
      </trkpt>
      <trkpt lat="45.67844" lon="6.20957">
        <ele>1414.7172851562</ele>
        <time>2011-04-16T06:29:25Z</time>
      </trkpt>
      <trkpt lat="45.67844" lon="6.20958">
        <ele>1413.755859375</ele>
        <time>2011-04-16T06:29:34Z</time>
      </trkpt>
      <trkpt lat="45.67845" lon="6.20958">
        <ele>1414.2365722656</ele>
        <time>2011-04-16T06:29:44Z</time>
      </trkpt>
      <trkpt lat="45.67844" lon="6.20957">
        <ele>1416.1591796875</ele>
        <time>2011-04-16T06:29:55Z</time>
      </trkpt>
      <trkpt lat="45.67842" lon="6.20956">
        <ele>1419.0432128906</ele>
        <time>2011-04-16T06:30:04Z</time>
      </trkpt>
      <trkpt lat="45.67842" lon="6.20958">
        <ele>1419.0432128906</ele>
        <time>2011-04-16T06:30:15Z</time>
      </trkpt>
      <trkpt lat="45.67842" lon="6.20956">
        <ele>1418.5625</ele>
        <time>2011-04-16T06:30:26Z</time>
      </trkpt>
      <trkpt lat="45.67842" lon="6.20957">
        <ele>1419.0432128906</ele>
        <time>2011-04-16T06:30:40Z</time>
      </trkpt>
      <trkpt lat="45.67841" lon="6.20954">
        <ele>1416.6398925781</ele>
        <time>2011-04-16T06:30:50Z</time>
      </trkpt>
      <trkpt lat="45.67841" lon="6.20952">
        <ele>1415.1979980469</ele>
        <time>2011-04-16T06:31:02Z</time>
      </trkpt>
      <trkpt lat="45.67842" lon="6.20952">
        <ele>1415.1979980469</ele>
        <time>2011-04-16T06:31:10Z</time>
      </trkpt>
      <trkpt lat="45.67842" lon="6.20951">
        <ele>1416.1591796875</ele>
        <time>2011-04-16T06:31:18Z</time>
      </trkpt>
      <trkpt lat="45.67842" lon="6.2095">
        <ele>1416.1591796875</ele>
        <time>2011-04-16T06:31:29Z</time>
      </trkpt>
      <trkpt lat="45.67842" lon="6.20949">
        <ele>1417.1206054688</ele>
        <time>2011-04-16T06:31:47Z</time>
      </trkpt>
      <trkpt lat="45.67842" lon="6.2095">
        <ele>1419.5239257812</ele>
        <time>2011-04-16T06:32:21Z</time>
      </trkpt>
      <trkpt lat="45.67842" lon="6.20952">
        <ele>1419.5239257812</ele>
        <time>2011-04-16T06:32:27Z</time>
      </trkpt>
      <trkpt lat="45.67842" lon="6.20953">
        <ele>1419.5239257812</ele>
        <time>2011-04-16T06:32:32Z</time>
      </trkpt>
      <trkpt lat="45.67841" lon="6.20954">
        <ele>1419.5239257812</ele>
        <time>2011-04-16T06:32:40Z</time>
      </trkpt>
      <trkpt lat="45.67841" lon="6.20955">
        <ele>1419.5239257812</ele>
        <time>2011-04-16T06:32:46Z</time>
      </trkpt>
      <trkpt lat="45.67842" lon="6.20956">
        <ele>1419.0432128906</ele>
        <time>2011-04-16T06:32:50Z</time>
      </trkpt>
      <trkpt lat="45.67842" lon="6.20957">
        <ele>1420.0046386719</ele>
        <time>2011-04-16T06:32:59Z</time>
      </trkpt>
      <trkpt lat="45.67842" lon="6.20958">
        <ele>1420.4853515625</ele>
        <time>2011-04-16T06:33:02Z</time>
      </trkpt>
      <trkpt lat="45.67842" lon="6.20957">
        <ele>1420.9660644531</ele>
        <time>2011-04-16T06:33:11Z</time>
      </trkpt>
      <trkpt lat="45.67841" lon="6.20955">
        <ele>1421.9272460938</ele>
        <time>2011-04-16T06:33:21Z</time>
      </trkpt>
      <trkpt lat="45.67839" lon="6.20954">
        <ele>1421.4465332031</ele>
        <time>2011-04-16T06:33:27Z</time>
      </trkpt>
      <trkpt lat="45.67843" lon="6.20958">
        <ele>1421.9272460938</ele>
        <time>2011-04-16T06:33:33Z</time>
      </trkpt>
      <trkpt lat="45.67844" lon="6.2096">
        <ele>1422.888671875</ele>
        <time>2011-04-16T06:33:41Z</time>
      </trkpt>
      <trkpt lat="45.6785" lon="6.2096">
        <ele>1423.8498535156</ele>
        <time>2011-04-16T06:33:46Z</time>
      </trkpt>
      <trkpt lat="45.67852" lon="6.20959">
        <ele>1423.8498535156</ele>
        <time>2011-04-16T06:33:47Z</time>
      </trkpt>
      <trkpt lat="45.6786" lon="6.20952">
        <ele>1424.8112792969</ele>
        <time>2011-04-16T06:33:55Z</time>
      </trkpt>
      <trkpt lat="45.67867" lon="6.20945">
        <ele>1425.7724609375</ele>
        <time>2011-04-16T06:34:02Z</time>
      </trkpt>
      <trkpt lat="45.67873" lon="6.20941">
        <ele>1426.2531738281</ele>
        <time>2011-04-16T06:34:08Z</time>
      </trkpt>
      <trkpt lat="45.67882" lon="6.20939">
        <ele>1427.2145996094</ele>
        <time>2011-04-16T06:34:15Z</time>
      </trkpt>
      <trkpt lat="45.67892" lon="6.2094">
        <ele>1428.17578125</ele>
        <time>2011-04-16T06:34:23Z</time>
      </trkpt>
      <trkpt lat="45.67901" lon="6.20943">
        <ele>1428.6564941406</ele>
        <time>2011-04-16T06:34:30Z</time>
      </trkpt>
      <trkpt lat="45.67913" lon="6.20952">
        <ele>1430.0983886719</ele>
        <time>2011-04-16T06:34:40Z</time>
      </trkpt>
      <trkpt lat="45.6792" lon="6.20957">
        <ele>1431.0598144531</ele>
        <time>2011-04-16T06:34:46Z</time>
      </trkpt>
      <trkpt lat="45.67926" lon="6.2096">
        <ele>1431.0598144531</ele>
        <time>2011-04-16T06:34:51Z</time>
      </trkpt>
      <trkpt lat="45.67936" lon="6.20959">
        <ele>1431.5402832031</ele>
        <time>2011-04-16T06:34:59Z</time>
      </trkpt>
      <trkpt lat="45.67946" lon="6.20953">
        <ele>1432.9821777344</ele>
        <time>2011-04-16T06:35:08Z</time>
      </trkpt>
      <trkpt lat="45.67956" lon="6.20945">
        <ele>1434.4243164062</ele>
        <time>2011-04-16T06:35:17Z</time>
      </trkpt>
      <trkpt lat="45.67968" lon="6.20943">
        <ele>1435.3854980469</ele>
        <time>2011-04-16T06:35:26Z</time>
      </trkpt>
      <trkpt lat="45.67976" lon="6.2095">
        <ele>1435.8662109375</ele>
        <time>2011-04-16T06:35:33Z</time>
      </trkpt>
      <trkpt lat="45.67982" lon="6.2096">
        <ele>1436.8276367188</ele>
        <time>2011-04-16T06:35:40Z</time>
      </trkpt>
      <trkpt lat="45.6799" lon="6.20961">
        <ele>1437.7890625</ele>
        <time>2011-04-16T06:35:47Z</time>
      </trkpt>
      <trkpt lat="45.67998" lon="6.20953">
        <ele>1438.7504882812</ele>
        <time>2011-04-16T06:35:54Z</time>
      </trkpt>
      <trkpt lat="45.68005" lon="6.20949">
        <ele>1439.2309570312</ele>
        <time>2011-04-16T06:36:00Z</time>
      </trkpt>
      <trkpt lat="45.68014" lon="6.20948">
        <ele>1439.7116699219</ele>
        <time>2011-04-16T06:36:07Z</time>
      </trkpt>
      <trkpt lat="45.68023" lon="6.20949">
        <ele>1440.6728515625</ele>
        <time>2011-04-16T06:36:14Z</time>
      </trkpt>
      <trkpt lat="45.68035" lon="6.20949">
        <ele>1441.6342773438</ele>
        <time>2011-04-16T06:36:23Z</time>
      </trkpt>
      <trkpt lat="45.68047" lon="6.2095">
        <ele>1443.076171875</ele>
        <time>2011-04-16T06:36:32Z</time>
      </trkpt>
      <trkpt lat="45.68058" lon="6.20952">
        <ele>1444.5180664062</ele>
        <time>2011-04-16T06:36:41Z</time>
      </trkpt>
      <trkpt lat="45.68069" lon="6.20954">
        <ele>1445.4794921875</ele>
        <time>2011-04-16T06:36:50Z</time>
      </trkpt>
      <trkpt lat="45.68075" lon="6.20956">
        <ele>1445.9602050781</ele>
        <time>2011-04-16T06:36:55Z</time>
      </trkpt>
      <trkpt lat="45.68083" lon="6.20957">
        <ele>1446.9213867188</ele>
        <time>2011-04-16T06:37:02Z</time>
      </trkpt>
      <trkpt lat="45.68092" lon="6.20958">
        <ele>1447.8828125</ele>
        <time>2011-04-16T06:37:10Z</time>
      </trkpt>
      <trkpt lat="45.68104" lon="6.20957">
        <ele>1451.2473144531</ele>
        <time>2011-04-16T06:37:20Z</time>
      </trkpt>
      <trkpt lat="45.6811" lon="6.20954">
        <ele>1453.6508789062</ele>
        <time>2011-04-16T06:37:26Z</time>
      </trkpt>
      <trkpt lat="45.68119" lon="6.20953">
        <ele>1454.6120605469</ele>
        <time>2011-04-16T06:37:33Z</time>
      </trkpt>
      <trkpt lat="45.6813" lon="6.20952">
        <ele>1456.5346679688</ele>
        <time>2011-04-16T06:37:42Z</time>
      </trkpt>
      <trkpt lat="45.68139" lon="6.20951">
        <ele>1458.4572753906</ele>
        <time>2011-04-16T06:37:49Z</time>
      </trkpt>
      <trkpt lat="45.6815" lon="6.20953">
        <ele>1458.4572753906</ele>
        <time>2011-04-16T06:37:57Z</time>
      </trkpt>
      <trkpt lat="45.68159" lon="6.20958">
        <ele>1458.9379882812</ele>
        <time>2011-04-16T06:38:04Z</time>
      </trkpt>
      <trkpt lat="45.68172" lon="6.20964">
        <ele>1460.3798828125</ele>
        <time>2011-04-16T06:38:14Z</time>
      </trkpt>
      <trkpt lat="45.68183" lon="6.20969">
        <ele>1461.8220214844</ele>
        <time>2011-04-16T06:38:23Z</time>
      </trkpt>
      <trkpt lat="45.6819" lon="6.20968">
        <ele>1462.3024902344</ele>
        <time>2011-04-16T06:38:28Z</time>
      </trkpt>
      <trkpt lat="45.68199" lon="6.20964">
        <ele>1463.7443847656</ele>
        <time>2011-04-16T06:38:35Z</time>
      </trkpt>
      <trkpt lat="45.68207" lon="6.20957">
        <ele>1465.6672363281</ele>
        <time>2011-04-16T06:38:42Z</time>
      </trkpt>
      <trkpt lat="45.68217" lon="6.20952">
        <ele>1467.1091308594</ele>
        <time>2011-04-16T06:38:50Z</time>
      </trkpt>
      <trkpt lat="45.68226" lon="6.20952">
        <ele>1468.5512695312</ele>
        <time>2011-04-16T06:38:57Z</time>
      </trkpt>
      <trkpt lat="45.68238" lon="6.20953">
        <ele>1469.9931640625</ele>
        <time>2011-04-16T06:39:06Z</time>
      </trkpt>
      <trkpt lat="45.68249" lon="6.20952">
        <ele>1471.4350585938</ele>
        <time>2011-04-16T06:39:14Z</time>
      </trkpt>
      <trkpt lat="45.68258" lon="6.20952">
        <ele>1472.8771972656</ele>
        <time>2011-04-16T06:39:21Z</time>
      </trkpt>
      <trkpt lat="45.68267" lon="6.20952">
        <ele>1474.3190917969</ele>
        <time>2011-04-16T06:39:28Z</time>
      </trkpt>
      <trkpt lat="45.68279" lon="6.20951">
        <ele>1476.7224121094</ele>
        <time>2011-04-16T06:39:36Z</time>
      </trkpt>
      <trkpt lat="45.6829" lon="6.20953">
        <ele>1479.1254882812</ele>
        <time>2011-04-16T06:39:45Z</time>
      </trkpt>
      <trkpt lat="45.68303" lon="6.20957">
        <ele>1481.5288085938</ele>
        <time>2011-04-16T06:39:55Z</time>
      </trkpt>
      <trkpt lat="45.68304" lon="6.20958">
        <ele>1481.5288085938</ele>
        <time>2011-04-16T06:39:56Z</time>
      </trkpt>
      <trkpt lat="45.68313" lon="6.2096">
        <ele>1482.490234375</ele>
        <time>2011-04-16T06:40:04Z</time>
      </trkpt>
      <trkpt lat="45.68317" lon="6.20962">
        <ele>1482.970703125</ele>
        <time>2011-04-16T06:40:08Z</time>
      </trkpt>
      <trkpt lat="45.68322" lon="6.20964">
        <ele>1488.7390136719</ele>
        <time>2011-04-16T06:40:16Z</time>
      </trkpt>
      <trkpt lat="45.68327" lon="6.20965">
        <ele>1491.1420898438</ele>
        <time>2011-04-16T06:40:21Z</time>
      </trkpt>
      <trkpt lat="45.68333" lon="6.20967">
        <ele>1494.9873046875</ele>
        <time>2011-04-16T06:40:27Z</time>
      </trkpt>
      <trkpt lat="45.68343" lon="6.20968">
        <ele>1495.4680175781</ele>
        <time>2011-04-16T06:40:33Z</time>
      </trkpt>
      <trkpt lat="45.68352" lon="6.20969">
        <ele>1498.8325195312</ele>
        <time>2011-04-16T06:40:40Z</time>
      </trkpt>
      <trkpt lat="45.68362" lon="6.2097">
        <ele>1498.3518066406</ele>
        <time>2011-04-16T06:40:46Z</time>
      </trkpt>
      <trkpt lat="45.68376" lon="6.20972">
        <ele>1498.3518066406</ele>
        <time>2011-04-16T06:40:54Z</time>
      </trkpt>
      <trkpt lat="45.68386" lon="6.20973">
        <ele>1498.3518066406</ele>
        <time>2011-04-16T06:41:00Z</time>
      </trkpt>
      <trkpt lat="45.68396" lon="6.20975">
        <ele>1498.3518066406</ele>
        <time>2011-04-16T06:41:07Z</time>
      </trkpt>
      <trkpt lat="45.68412" lon="6.20976">
        <ele>1496.9099121094</ele>
        <time>2011-04-16T06:41:16Z</time>
      </trkpt>
      <trkpt lat="45.68427" lon="6.20977">
        <ele>1497.390625</ele>
        <time>2011-04-16T06:41:24Z</time>
      </trkpt>
      <trkpt lat="45.68441" lon="6.20978">
        <ele>1497.8713378906</ele>
        <time>2011-04-16T06:41:32Z</time>
      </trkpt>
      <trkpt lat="45.68449" lon="6.2098">
        <ele>1499.3132324219</ele>
        <time>2011-04-16T06:41:37Z</time>
      </trkpt>
      <trkpt lat="45.68462" lon="6.20976">
        <ele>1498.3518066406</ele>
        <time>2011-04-16T06:41:43Z</time>
      </trkpt>
      <trkpt lat="45.68473" lon="6.2097">
        <ele>1497.390625</ele>
        <time>2011-04-16T06:41:49Z</time>
      </trkpt>
      <trkpt lat="45.68485" lon="6.20961">
        <ele>1496.9099121094</ele>
        <time>2011-04-16T06:41:56Z</time>
      </trkpt>
      <trkpt lat="45.68498" lon="6.20954">
        <ele>1497.390625</ele>
        <time>2011-04-16T06:42:03Z</time>
      </trkpt>
      <trkpt lat="45.6851" lon="6.20948">
        <ele>1498.3518066406</ele>
        <time>2011-04-16T06:42:10Z</time>
      </trkpt>
      <trkpt lat="45.6852" lon="6.20948">
        <ele>1497.390625</ele>
        <time>2011-04-16T06:42:15Z</time>
      </trkpt>
      <trkpt lat="45.68535" lon="6.20947">
        <ele>1498.8325195312</ele>
        <time>2011-04-16T06:42:22Z</time>
      </trkpt>
      <trkpt lat="45.68556" lon="6.20951">
        <ele>1497.390625</ele>
        <time>2011-04-16T06:42:31Z</time>
      </trkpt>
      <trkpt lat="45.6857" lon="6.20952">
        <ele>1496.9099121094</ele>
        <time>2011-04-16T06:42:38Z</time>
      </trkpt>
      <trkpt lat="45.68574" lon="6.20953">
        <ele>1496.9099121094</ele>
        <time>2011-04-16T06:42:41Z</time>
      </trkpt>
      <trkpt lat="45.68574" lon="6.20954">
        <ele>1496.4294433594</ele>
        <time>2011-04-16T06:42:47Z</time>
      </trkpt>
      <trkpt lat="45.68574" lon="6.20954">
        <ele>1496.9099121094</ele>
        <time>2011-04-16T06:42:53Z</time>
      </trkpt>
      <trkpt lat="45.68573" lon="6.20954">
        <ele>1497.8713378906</ele>
        <time>2011-04-16T06:43:07Z</time>
      </trkpt>
      <trkpt lat="45.68575" lon="6.20953">
        <ele>1499.7939453125</ele>
        <time>2011-04-16T06:43:16Z</time>
      </trkpt>
      <trkpt lat="45.68575" lon="6.20958">
        <ele>1499.3132324219</ele>
        <time>2011-04-16T06:43:24Z</time>
      </trkpt>
      <trkpt lat="45.68575" lon="6.20962">
        <ele>1499.3132324219</ele>
        <time>2011-04-16T06:43:27Z</time>
      </trkpt>
      <trkpt lat="45.68573" lon="6.20963">
        <ele>1500.2749023438</ele>
        <time>2011-04-16T06:43:32Z</time>
      </trkpt>
      <trkpt lat="45.68573" lon="6.20962">
        <ele>1500.7553710938</ele>
        <time>2011-04-16T06:43:39Z</time>
      </trkpt>
      <trkpt lat="45.68575" lon="6.20964">
        <ele>1500.2749023438</ele>
        <time>2011-04-16T06:43:43Z</time>
      </trkpt>
      <trkpt lat="45.68575" lon="6.20965">
        <ele>1499.7939453125</ele>
        <time>2011-04-16T06:43:49Z</time>
      </trkpt>
      <trkpt lat="45.68575" lon="6.20964">
        <ele>1499.3132324219</ele>
        <time>2011-04-16T06:43:59Z</time>
      </trkpt>
      <trkpt lat="45.68576" lon="6.20965">
        <ele>1499.7939453125</ele>
        <time>2011-04-16T06:44:05Z</time>
      </trkpt>
      <trkpt lat="45.68578" lon="6.20962">
        <ele>1500.7553710938</ele>
        <time>2011-04-16T06:44:13Z</time>
      </trkpt>
      <trkpt lat="45.68579" lon="6.20962">
        <ele>1501.2360839844</ele>
        <time>2011-04-16T06:44:17Z</time>
      </trkpt>
      <trkpt lat="45.68579" lon="6.20963">
        <ele>1500.7553710938</ele>
        <time>2011-04-16T06:44:24Z</time>
      </trkpt>
      <trkpt lat="45.68582" lon="6.20959">
        <ele>1500.2749023438</ele>
        <time>2011-04-16T06:44:29Z</time>
      </trkpt>
      <trkpt lat="45.68585" lon="6.20956">
        <ele>1500.2749023438</ele>
        <time>2011-04-16T06:44:33Z</time>
      </trkpt>
      <trkpt lat="45.68587" lon="6.20954">
        <ele>1500.7553710938</ele>
        <time>2011-04-16T06:44:35Z</time>
      </trkpt>
      <trkpt lat="45.68588" lon="6.20949">
        <ele>1500.2749023438</ele>
        <time>2011-04-16T06:44:41Z</time>
      </trkpt>
      <trkpt lat="45.68588" lon="6.20948">
        <ele>1499.7939453125</ele>
        <time>2011-04-16T06:44:47Z</time>
      </trkpt>
      <trkpt lat="45.68588" lon="6.20948">
        <ele>1499.3132324219</ele>
        <time>2011-04-16T06:45:02Z</time>
      </trkpt>
      <trkpt lat="45.68589" lon="6.20949">
        <ele>1498.3518066406</ele>
        <time>2011-04-16T06:45:14Z</time>
      </trkpt>
      <trkpt lat="45.68591" lon="6.2095">
        <ele>1499.3132324219</ele>
        <time>2011-04-16T06:45:18Z</time>
      </trkpt>
      <trkpt lat="45.68591" lon="6.20949">
        <ele>1500.2749023438</ele>
        <time>2011-04-16T06:45:27Z</time>
      </trkpt>
      <trkpt lat="45.68592" lon="6.20949">
        <ele>1500.2749023438</ele>
        <time>2011-04-16T06:45:34Z</time>
      </trkpt>
      <trkpt lat="45.68593" lon="6.2095">
        <ele>1501.2360839844</ele>
        <time>2011-04-16T06:45:40Z</time>
      </trkpt>
      <trkpt lat="45.68595" lon="6.20956">
        <ele>1501.2360839844</ele>
        <time>2011-04-16T06:45:46Z</time>
      </trkpt>
      <trkpt lat="45.68595" lon="6.20957">
        <ele>1501.2360839844</ele>
        <time>2011-04-16T06:45:52Z</time>
      </trkpt>
      <trkpt lat="45.68598" lon="6.20956">
        <ele>1501.2360839844</ele>
        <time>2011-04-16T06:46:01Z</time>
      </trkpt>
      <trkpt lat="45.68598" lon="6.20958">
        <ele>1500.7553710938</ele>
        <time>2011-04-16T06:46:05Z</time>
      </trkpt>
      <trkpt lat="45.68597" lon="6.20958">
        <ele>1500.7553710938</ele>
        <time>2011-04-16T06:46:11Z</time>
      </trkpt>
      <trkpt lat="45.68597" lon="6.20959">
        <ele>1500.7553710938</ele>
        <time>2011-04-16T06:46:16Z</time>
      </trkpt>
      <trkpt lat="45.68597" lon="6.20961">
        <ele>1500.7553710938</ele>
        <time>2011-04-16T06:46:29Z</time>
      </trkpt>
      <trkpt lat="45.68597" lon="6.20961">
        <ele>1500.7553710938</ele>
        <time>2011-04-16T06:46:30Z</time>
      </trkpt>
      <trkpt lat="45.68597" lon="6.20962">
        <ele>1501.2360839844</ele>
        <time>2011-04-16T06:46:42Z</time>
      </trkpt>
      <trkpt lat="45.68597" lon="6.20964">
        <ele>1501.2360839844</ele>
        <time>2011-04-16T06:46:58Z</time>
      </trkpt>
      <trkpt lat="45.68599" lon="6.20963">
        <ele>1501.2360839844</ele>
        <time>2011-04-16T06:47:01Z</time>
      </trkpt>
      <trkpt lat="45.68603" lon="6.20957">
        <ele>1500.7553710938</ele>
        <time>2011-04-16T06:47:06Z</time>
      </trkpt>
      <trkpt lat="45.68602" lon="6.20959">
        <ele>1500.2749023438</ele>
        <time>2011-04-16T06:47:10Z</time>
      </trkpt>
      <trkpt lat="45.68605" lon="6.20954">
        <ele>1500.2749023438</ele>
        <time>2011-04-16T06:47:16Z</time>
      </trkpt>
      <trkpt lat="45.68607" lon="6.20951">
        <ele>1500.7553710938</ele>
        <time>2011-04-16T06:47:21Z</time>
      </trkpt>
      <trkpt lat="45.6861" lon="6.20949">
        <ele>1500.7553710938</ele>
        <time>2011-04-16T06:47:25Z</time>
      </trkpt>
      <trkpt lat="45.68615" lon="6.20945">
        <ele>1500.2749023438</ele>
        <time>2011-04-16T06:47:29Z</time>
      </trkpt>
      <trkpt lat="45.6862" lon="6.20942">
        <ele>1499.7939453125</ele>
        <time>2011-04-16T06:47:33Z</time>
      </trkpt>
      <trkpt lat="45.6863" lon="6.20937">
        <ele>1500.2749023438</ele>
        <time>2011-04-16T06:47:41Z</time>
      </trkpt>
      <trkpt lat="45.68633" lon="6.20936">
        <ele>1500.7553710938</ele>
        <time>2011-04-16T06:47:43Z</time>
      </trkpt>
      <trkpt lat="45.68634" lon="6.20937">
        <ele>1499.7939453125</ele>
        <time>2011-04-16T06:47:49Z</time>
      </trkpt>
      <trkpt lat="45.68637" lon="6.20934">
        <ele>1499.7939453125</ele>
        <time>2011-04-16T06:47:54Z</time>
      </trkpt>
      <trkpt lat="45.68641" lon="6.20936">
        <ele>1499.3132324219</ele>
        <time>2011-04-16T06:47:59Z</time>
      </trkpt>
      <trkpt lat="45.68648" lon="6.20939">
        <ele>1498.3518066406</ele>
        <time>2011-04-16T06:48:08Z</time>
      </trkpt>
      <trkpt lat="45.6865" lon="6.20941">
        <ele>1497.8713378906</ele>
        <time>2011-04-16T06:48:16Z</time>
      </trkpt>
      <trkpt lat="45.6865" lon="6.20941">
        <ele>1497.8713378906</ele>
        <time>2011-04-16T06:48:24Z</time>
      </trkpt>
      <trkpt lat="45.6865" lon="6.20948">
        <ele>1496.4294433594</ele>
        <time>2011-04-16T06:48:31Z</time>
      </trkpt>
      <trkpt lat="45.6865" lon="6.20948">
        <ele>1494.9873046875</ele>
        <time>2011-04-16T06:48:35Z</time>
      </trkpt>
      <trkpt lat="45.68655" lon="6.20941">
        <ele>1496.9099121094</ele>
        <time>2011-04-16T06:48:41Z</time>
      </trkpt>
      <trkpt lat="45.68657" lon="6.20939">
        <ele>1497.390625</ele>
        <time>2011-04-16T06:48:45Z</time>
      </trkpt>
      <trkpt lat="45.68658" lon="6.20938">
        <ele>1498.3518066406</ele>
        <time>2011-04-16T06:48:50Z</time>
      </trkpt>
      <trkpt lat="45.68661" lon="6.20941">
        <ele>1499.3132324219</ele>
        <time>2011-04-16T06:49:06Z</time>
      </trkpt>
      <trkpt lat="45.68662" lon="6.20943">
        <ele>1499.3132324219</ele>
        <time>2011-04-16T06:49:11Z</time>
      </trkpt>
      <trkpt lat="45.68661" lon="6.20943">
        <ele>1498.3518066406</ele>
        <time>2011-04-16T06:49:24Z</time>
      </trkpt>
      <trkpt lat="45.68661" lon="6.20943">
        <ele>1498.3518066406</ele>
        <time>2011-04-16T06:49:31Z</time>
      </trkpt>
      <trkpt lat="45.68661" lon="6.20942">
        <ele>1498.3518066406</ele>
        <time>2011-04-16T06:49:38Z</time>
      </trkpt>
      <trkpt lat="45.68661" lon="6.2094">
        <ele>1498.3518066406</ele>
        <time>2011-04-16T06:49:53Z</time>
      </trkpt>
      <trkpt lat="45.68661" lon="6.20941">
        <ele>1497.8713378906</ele>
        <time>2011-04-16T06:50:14Z</time>
      </trkpt>
      <trkpt lat="45.68661" lon="6.20941">
        <ele>1498.8325195312</ele>
        <time>2011-04-16T06:50:24Z</time>
      </trkpt>
      <trkpt lat="45.68661" lon="6.20941">
        <ele>1499.3132324219</ele>
        <time>2011-04-16T06:50:37Z</time>
      </trkpt>
      <trkpt lat="45.68661" lon="6.20939">
        <ele>1499.7939453125</ele>
        <time>2011-04-16T06:50:56Z</time>
      </trkpt>
      <trkpt lat="45.6866" lon="6.2094">
        <ele>1499.3132324219</ele>
        <time>2011-04-16T06:51:04Z</time>
      </trkpt>
      <trkpt lat="45.6866" lon="6.2094">
        <ele>1498.8325195312</ele>
        <time>2011-04-16T06:51:10Z</time>
      </trkpt>
      <trkpt lat="45.6866" lon="6.20941">
        <ele>1499.3132324219</ele>
        <time>2011-04-16T06:51:14Z</time>
      </trkpt>
      <trkpt lat="45.6866" lon="6.20941">
        <ele>1497.390625</ele>
        <time>2011-04-16T06:51:23Z</time>
      </trkpt>
      <trkpt lat="45.6866" lon="6.2094">
        <ele>1498.3518066406</ele>
        <time>2011-04-16T06:51:30Z</time>
      </trkpt>
      <trkpt lat="45.68661" lon="6.2094">
        <ele>1497.8713378906</ele>
        <time>2011-04-16T06:51:37Z</time>
      </trkpt>
      <trkpt lat="45.68662" lon="6.2094">
        <ele>1498.3518066406</ele>
        <time>2011-04-16T06:51:45Z</time>
      </trkpt>
      <trkpt lat="45.68661" lon="6.20941">
        <ele>1495.9487304688</ele>
        <time>2011-04-16T06:52:04Z</time>
      </trkpt>
      <trkpt lat="45.68662" lon="6.20941">
        <ele>1497.390625</ele>
        <time>2011-04-16T06:52:37Z</time>
      </trkpt>
      <trkpt lat="45.6866" lon="6.20942">
        <ele>1498.3518066406</ele>
        <time>2011-04-16T06:52:41Z</time>
      </trkpt>
      <trkpt lat="45.68656" lon="6.20941">
        <ele>1498.3518066406</ele>
        <time>2011-04-16T06:52:47Z</time>
      </trkpt>
      <trkpt lat="45.68655" lon="6.20942">
        <ele>1498.3518066406</ele>
        <time>2011-04-16T06:52:55Z</time>
      </trkpt>
      <trkpt lat="45.68656" lon="6.20942">
        <ele>1498.8325195312</ele>
        <time>2011-04-16T06:53:00Z</time>
      </trkpt>
      <trkpt lat="45.68657" lon="6.20941">
        <ele>1499.3132324219</ele>
        <time>2011-04-16T06:53:07Z</time>
      </trkpt>
      <trkpt lat="45.68656" lon="6.2094">
        <ele>1500.2749023438</ele>
        <time>2011-04-16T06:53:12Z</time>
      </trkpt>
      <trkpt lat="45.68657" lon="6.20937">
        <ele>1501.2360839844</ele>
        <time>2011-04-16T06:53:31Z</time>
      </trkpt>
      <trkpt lat="45.68657" lon="6.20936">
        <ele>1501.716796875</ele>
        <time>2011-04-16T06:53:36Z</time>
      </trkpt>
      <trkpt lat="45.68657" lon="6.20934">
        <ele>1499.3132324219</ele>
        <time>2011-04-16T06:53:47Z</time>
      </trkpt>
      <trkpt lat="45.68657" lon="6.20934">
        <ele>1499.3132324219</ele>
        <time>2011-04-16T06:53:50Z</time>
      </trkpt>
      <trkpt lat="45.68658" lon="6.20935">
        <ele>1498.8325195312</ele>
        <time>2011-04-16T06:53:55Z</time>
      </trkpt>
      <trkpt lat="45.68657" lon="6.20934">
        <ele>1497.390625</ele>
        <time>2011-04-16T06:54:00Z</time>
      </trkpt>
      <trkpt lat="45.68656" lon="6.20934">
        <ele>1496.9099121094</ele>
        <time>2011-04-16T06:54:05Z</time>
      </trkpt>
      <trkpt lat="45.68655" lon="6.20934">
        <ele>1496.9099121094</ele>
        <time>2011-04-16T06:54:13Z</time>
      </trkpt>
      <trkpt lat="45.68654" lon="6.20936">
        <ele>1497.390625</ele>
        <time>2011-04-16T06:54:20Z</time>
      </trkpt>
      <trkpt lat="45.68655" lon="6.20935">
        <ele>1496.4294433594</ele>
        <time>2011-04-16T06:54:27Z</time>
      </trkpt>
      <trkpt lat="45.68655" lon="6.20937">
        <ele>1496.9099121094</ele>
        <time>2011-04-16T06:54:35Z</time>
      </trkpt>
      <trkpt lat="45.68655" lon="6.20938">
        <ele>1497.390625</ele>
        <time>2011-04-16T06:54:39Z</time>
      </trkpt>
      <trkpt lat="45.68659" lon="6.20941">
        <ele>1495.4680175781</ele>
        <time>2011-04-16T06:54:46Z</time>
      </trkpt>
      <trkpt lat="45.6866" lon="6.20941">
        <ele>1495.4680175781</ele>
        <time>2011-04-16T06:54:51Z</time>
      </trkpt>
      <trkpt lat="45.6866" lon="6.20941">
        <ele>1495.4680175781</ele>
        <time>2011-04-16T06:54:56Z</time>
      </trkpt>
      <trkpt lat="45.68657" lon="6.20941">
        <ele>1495.4680175781</ele>
        <time>2011-04-16T06:55:00Z</time>
      </trkpt>
      <trkpt lat="45.6866" lon="6.20941">
        <ele>1495.4680175781</ele>
        <time>2011-04-16T06:55:04Z</time>
      </trkpt>
      <trkpt lat="45.68661" lon="6.20941">
        <ele>1495.4680175781</ele>
        <time>2011-04-16T06:55:08Z</time>
      </trkpt>
      <trkpt lat="45.68661" lon="6.20941">
        <ele>1495.4680175781</ele>
        <time>2011-04-16T06:55:15Z</time>
      </trkpt>
      <trkpt lat="45.68661" lon="6.2094">
        <ele>1494.9873046875</ele>
        <time>2011-04-16T06:55:22Z</time>
      </trkpt>
      <trkpt lat="45.68661" lon="6.2094">
        <ele>1495.4680175781</ele>
        <time>2011-04-16T06:55:26Z</time>
      </trkpt>
      <trkpt lat="45.68661" lon="6.20941">
        <ele>1495.9487304688</ele>
        <time>2011-04-16T06:55:31Z</time>
      </trkpt>
      <trkpt lat="45.68661" lon="6.20942">
        <ele>1496.4294433594</ele>
        <time>2011-04-16T06:55:37Z</time>
      </trkpt>
      <trkpt lat="45.68661" lon="6.20941">
        <ele>1498.3518066406</ele>
        <time>2011-04-16T06:55:57Z</time>
      </trkpt>
      <trkpt lat="45.68661" lon="6.2094">
        <ele>1498.3518066406</ele>
        <time>2011-04-16T06:56:07Z</time>
      </trkpt>
      <trkpt lat="45.6866" lon="6.20941">
        <ele>1499.3132324219</ele>
        <time>2011-04-16T06:56:17Z</time>
      </trkpt>
      <trkpt lat="45.68659" lon="6.20941">
        <ele>1498.3518066406</ele>
        <time>2011-04-16T06:56:23Z</time>
      </trkpt>
      <trkpt lat="45.68659" lon="6.20941">
        <ele>1499.3132324219</ele>
        <time>2011-04-16T06:56:28Z</time>
      </trkpt>
      <trkpt lat="45.68659" lon="6.20941">
        <ele>1499.3132324219</ele>
        <time>2011-04-16T06:56:29Z</time>
      </trkpt>
      <trkpt lat="45.68658" lon="6.20943">
        <ele>1499.7939453125</ele>
        <time>2011-04-16T06:56:33Z</time>
      </trkpt>
      <trkpt lat="45.68658" lon="6.20942">
        <ele>1499.3132324219</ele>
        <time>2011-04-16T06:56:40Z</time>
      </trkpt>
      <trkpt lat="45.68655" lon="6.2094">
        <ele>1500.2749023438</ele>
        <time>2011-04-16T06:56:44Z</time>
      </trkpt>
      <trkpt lat="45.6865" lon="6.20938">
        <ele>1500.7553710938</ele>
        <time>2011-04-16T06:56:50Z</time>
      </trkpt>
      <trkpt lat="45.68645" lon="6.20936">
        <ele>1499.7939453125</ele>
        <time>2011-04-16T06:56:56Z</time>
      </trkpt>
      <trkpt lat="45.68645" lon="6.20934">
        <ele>1500.2749023438</ele>
        <time>2011-04-16T06:57:01Z</time>
      </trkpt>
      <trkpt lat="45.68645" lon="6.20934">
        <ele>1499.7939453125</ele>
        <time>2011-04-16T06:57:02Z</time>
      </trkpt>
      <trkpt lat="45.68639" lon="6.20934">
        <ele>1499.7939453125</ele>
        <time>2011-04-16T06:57:07Z</time>
      </trkpt>
      <trkpt lat="45.68634" lon="6.20933">
        <ele>1500.7553710938</ele>
        <time>2011-04-16T06:57:12Z</time>
      </trkpt>
      <trkpt lat="45.6863" lon="6.20937">
        <ele>1500.2749023438</ele>
        <time>2011-04-16T06:57:17Z</time>
      </trkpt>
      <trkpt lat="45.68625" lon="6.20937">
        <ele>1500.2749023438</ele>
        <time>2011-04-16T06:57:21Z</time>
      </trkpt>
      <trkpt lat="45.68623" lon="6.20938">
        <ele>1499.7939453125</ele>
        <time>2011-04-16T06:57:23Z</time>
      </trkpt>
      <trkpt lat="45.68616" lon="6.20942">
        <ele>1501.2360839844</ele>
        <time>2011-04-16T06:57:30Z</time>
      </trkpt>
      <trkpt lat="45.68611" lon="6.20944">
        <ele>1501.2360839844</ele>
        <time>2011-04-16T06:57:35Z</time>
      </trkpt>
      <trkpt lat="45.68611" lon="6.20943">
        <ele>1500.7553710938</ele>
        <time>2011-04-16T06:57:41Z</time>
      </trkpt>
      <trkpt lat="45.68607" lon="6.20945">
        <ele>1501.2360839844</ele>
        <time>2011-04-16T06:57:44Z</time>
      </trkpt>
      <trkpt lat="45.68602" lon="6.2095">
        <ele>1501.2360839844</ele>
        <time>2011-04-16T06:57:50Z</time>
      </trkpt>
      <trkpt lat="45.68598" lon="6.20952">
        <ele>1501.2360839844</ele>
        <time>2011-04-16T06:57:56Z</time>
      </trkpt>
      <trkpt lat="45.68597" lon="6.20952">
        <ele>1502.197265625</ele>
        <time>2011-04-16T06:58:03Z</time>
      </trkpt>
      <trkpt lat="45.68597" lon="6.20952">
        <ele>1500.2749023438</ele>
        <time>2011-04-16T06:58:09Z</time>
      </trkpt>
      <trkpt lat="45.68594" lon="6.20954">
        <ele>1500.2749023438</ele>
        <time>2011-04-16T06:58:14Z</time>
      </trkpt>
      <trkpt lat="45.68592" lon="6.20957">
        <ele>1501.2360839844</ele>
        <time>2011-04-16T06:58:21Z</time>
      </trkpt>
      <trkpt lat="45.68591" lon="6.20957">
        <ele>1500.2749023438</ele>
        <time>2011-04-16T06:58:27Z</time>
      </trkpt>
      <trkpt lat="45.68592" lon="6.20955">
        <ele>1499.3132324219</ele>
        <time>2011-04-16T06:58:31Z</time>
      </trkpt>
      <trkpt lat="45.68591" lon="6.20956">
        <ele>1499.7939453125</ele>
        <time>2011-04-16T06:58:40Z</time>
      </trkpt>
      <trkpt lat="45.6859" lon="6.20955">
        <ele>1499.7939453125</ele>
        <time>2011-04-16T06:58:45Z</time>
      </trkpt>
      <trkpt lat="45.68589" lon="6.20955">
        <ele>1499.7939453125</ele>
        <time>2011-04-16T06:58:49Z</time>
      </trkpt>
      <trkpt lat="45.68589" lon="6.20955">
        <ele>1500.2749023438</ele>
        <time>2011-04-16T06:58:52Z</time>
      </trkpt>
      <trkpt lat="45.68587" lon="6.2096">
        <ele>1500.7553710938</ele>
        <time>2011-04-16T06:59:03Z</time>
      </trkpt>
      <trkpt lat="45.68579" lon="6.20961">
        <ele>1502.197265625</ele>
        <time>2011-04-16T06:59:10Z</time>
      </trkpt>
      <trkpt lat="45.68578" lon="6.20962">
        <ele>1502.197265625</ele>
        <time>2011-04-16T06:59:11Z</time>
      </trkpt>
      <trkpt lat="45.68575" lon="6.20962">
        <ele>1502.6779785156</ele>
        <time>2011-04-16T06:59:17Z</time>
      </trkpt>
      <trkpt lat="45.68575" lon="6.20962">
        <ele>1502.6779785156</ele>
        <time>2011-04-16T06:59:22Z</time>
      </trkpt>
      <trkpt lat="45.68576" lon="6.20961">
        <ele>1502.197265625</ele>
        <time>2011-04-16T06:59:24Z</time>
      </trkpt>
      <trkpt lat="45.68582" lon="6.20958">
        <ele>1501.716796875</ele>
        <time>2011-04-16T06:59:29Z</time>
      </trkpt>
      <trkpt lat="45.68588" lon="6.20962">
        <ele>1501.2360839844</ele>
        <time>2011-04-16T06:59:35Z</time>
      </trkpt>
      <trkpt lat="45.68596" lon="6.2097">
        <ele>1501.2360839844</ele>
        <time>2011-04-16T06:59:40Z</time>
      </trkpt>
      <trkpt lat="45.68604" lon="6.20984">
        <ele>1499.7939453125</ele>
        <time>2011-04-16T06:59:47Z</time>
      </trkpt>
      <trkpt lat="45.68611" lon="6.21007">
        <ele>1497.8713378906</ele>
        <time>2011-04-16T06:59:55Z</time>
      </trkpt>
      <trkpt lat="45.68615" lon="6.2103">
        <ele>1494.9873046875</ele>
        <time>2011-04-16T07:00:02Z</time>
      </trkpt>
      <trkpt lat="45.68617" lon="6.21048">
        <ele>1492.103515625</ele>
        <time>2011-04-16T07:00:08Z</time>
      </trkpt>
      <trkpt lat="45.68621" lon="6.21074">
        <ele>1489.2194824219</ele>
        <time>2011-04-16T07:00:16Z</time>
      </trkpt>
      <trkpt lat="45.68631" lon="6.21101">
        <ele>1490.6613769531</ele>
        <time>2011-04-16T07:00:23Z</time>
      </trkpt>
      <trkpt lat="45.68645" lon="6.21124">
        <ele>1491.1420898438</ele>
        <time>2011-04-16T07:00:30Z</time>
      </trkpt>
      <trkpt lat="45.68661" lon="6.21143">
        <ele>1491.1420898438</ele>
        <time>2011-04-16T07:00:36Z</time>
      </trkpt>
      <trkpt lat="45.68679" lon="6.21149">
        <ele>1488.7390136719</ele>
        <time>2011-04-16T07:00:41Z</time>
      </trkpt>
      <trkpt lat="45.68702" lon="6.21147">
        <ele>1488.2583007812</ele>
        <time>2011-04-16T07:00:48Z</time>
      </trkpt>
      <trkpt lat="45.68717" lon="6.21146">
        <ele>1482.490234375</ele>
        <time>2011-04-16T07:00:54Z</time>
      </trkpt>
      <trkpt lat="45.68731" lon="6.21154">
        <ele>1481.0483398438</ele>
        <time>2011-04-16T07:00:59Z</time>
      </trkpt>
      <trkpt lat="45.68747" lon="6.21169">
        <ele>1481.5288085938</ele>
        <time>2011-04-16T07:01:06Z</time>
      </trkpt>
      <trkpt lat="45.68763" lon="6.21186">
        <ele>1477.68359375</ele>
        <time>2011-04-16T07:01:12Z</time>
      </trkpt>
      <trkpt lat="45.68778" lon="6.21195">
        <ele>1474.7998046875</ele>
        <time>2011-04-16T07:01:17Z</time>
      </trkpt>
      <trkpt lat="45.68781" lon="6.21193">
        <ele>1474.3190917969</ele>
        <time>2011-04-16T07:01:18Z</time>
      </trkpt>
      <trkpt lat="45.68782" lon="6.21179">
        <ele>1470.9545898438</ele>
        <time>2011-04-16T07:01:22Z</time>
      </trkpt>
      <trkpt lat="45.68781" lon="6.21177">
        <ele>1470.4738769531</ele>
        <time>2011-04-16T07:01:23Z</time>
      </trkpt>
      <trkpt lat="45.68769" lon="6.21156">
        <ele>1466.6284179688</ele>
        <time>2011-04-16T07:01:30Z</time>
      </trkpt>
      <trkpt lat="45.68756" lon="6.21131">
        <ele>1465.1865234375</ele>
        <time>2011-04-16T07:01:37Z</time>
      </trkpt>
      <trkpt lat="45.68751" lon="6.21112">
        <ele>1466.6284179688</ele>
        <time>2011-04-16T07:01:41Z</time>
      </trkpt>
      <trkpt lat="45.68759" lon="6.21094">
        <ele>1466.1477050781</ele>
        <time>2011-04-16T07:01:46Z</time>
      </trkpt>
      <trkpt lat="45.68767" lon="6.21097">
        <ele>1465.1865234375</ele>
        <time>2011-04-16T07:01:50Z</time>
      </trkpt>
      <trkpt lat="45.68774" lon="6.21112">
        <ele>1463.7443847656</ele>
        <time>2011-04-16T07:01:54Z</time>
      </trkpt>
      <trkpt lat="45.68795" lon="6.21136">
        <ele>1460.3798828125</ele>
        <time>2011-04-16T07:02:00Z</time>
      </trkpt>
      <trkpt lat="45.68816" lon="6.21151">
        <ele>1456.5346679688</ele>
        <time>2011-04-16T07:02:05Z</time>
      </trkpt>
      <trkpt lat="45.68838" lon="6.21169">
        <ele>1452.2087402344</ele>
        <time>2011-04-16T07:02:11Z</time>
      </trkpt>
      <trkpt lat="45.68864" lon="6.21196">
        <ele>1448.8439941406</ele>
        <time>2011-04-16T07:02:19Z</time>
      </trkpt>
      <trkpt lat="45.68887" lon="6.21209">
        <ele>1446.9213867188</ele>
        <time>2011-04-16T07:02:25Z</time>
      </trkpt>
      <trkpt lat="45.68908" lon="6.21217">
        <ele>1443.5568847656</ele>
        <time>2011-04-16T07:02:31Z</time>
      </trkpt>
      <trkpt lat="45.68925" lon="6.2123">
        <ele>1441.1535644531</ele>
        <time>2011-04-16T07:02:36Z</time>
      </trkpt>
      <trkpt lat="45.68941" lon="6.21242">
        <ele>1441.6342773438</ele>
        <time>2011-04-16T07:02:41Z</time>
      </trkpt>
      <trkpt lat="45.68949" lon="6.2124">
        <ele>1441.6342773438</ele>
        <time>2011-04-16T07:02:45Z</time>
      </trkpt>
      <trkpt lat="45.68953" lon="6.21237">
        <ele>1442.595703125</ele>
        <time>2011-04-16T07:02:49Z</time>
      </trkpt>
      <trkpt lat="45.68954" lon="6.21235">
        <ele>1443.076171875</ele>
        <time>2011-04-16T07:02:55Z</time>
      </trkpt>
      <trkpt lat="45.68954" lon="6.21219">
        <ele>1440.6728515625</ele>
        <time>2011-04-16T07:03:00Z</time>
      </trkpt>
      <trkpt lat="45.68951" lon="6.2121">
        <ele>1439.7116699219</ele>
        <time>2011-04-16T07:03:03Z</time>
      </trkpt>
      <trkpt lat="45.68938" lon="6.21195">
        <ele>1438.2697753906</ele>
        <time>2011-04-16T07:03:09Z</time>
      </trkpt>
      <trkpt lat="45.68927" lon="6.21177">
        <ele>1436.8276367188</ele>
        <time>2011-04-16T07:03:13Z</time>
      </trkpt>
      <trkpt lat="45.68927" lon="6.21159">
        <ele>1436.3471679688</ele>
        <time>2011-04-16T07:03:16Z</time>
      </trkpt>
      <trkpt lat="45.68937" lon="6.21147">
        <ele>1435.8662109375</ele>
        <time>2011-04-16T07:03:20Z</time>
      </trkpt>
      <trkpt lat="45.68946" lon="6.21146">
        <ele>1433.9436035156</ele>
        <time>2011-04-16T07:03:23Z</time>
      </trkpt>
      <trkpt lat="45.68955" lon="6.21151">
        <ele>1432.9821777344</ele>
        <time>2011-04-16T07:03:26Z</time>
      </trkpt>
      <trkpt lat="45.68969" lon="6.21169">
        <ele>1432.5017089844</ele>
        <time>2011-04-16T07:03:32Z</time>
      </trkpt>
      <trkpt lat="45.68989" lon="6.21195">
        <ele>1430.0983886719</ele>
        <time>2011-04-16T07:03:39Z</time>
      </trkpt>
      <trkpt lat="45.69006" lon="6.21213">
        <ele>1427.6950683594</ele>
        <time>2011-04-16T07:03:44Z</time>
      </trkpt>
      <trkpt lat="45.69032" lon="6.21236">
        <ele>1423.3693847656</ele>
        <time>2011-04-16T07:03:52Z</time>
      </trkpt>
      <trkpt lat="45.6905" lon="6.2125">
        <ele>1421.9272460938</ele>
        <time>2011-04-16T07:03:57Z</time>
      </trkpt>
      <trkpt lat="45.69061" lon="6.21262">
        <ele>1420.0046386719</ele>
        <time>2011-04-16T07:04:00Z</time>
      </trkpt>
      <trkpt lat="45.69071" lon="6.21277">
        <ele>1419.5239257812</ele>
        <time>2011-04-16T07:04:03Z</time>
      </trkpt>
      <trkpt lat="45.69081" lon="6.21282">
        <ele>1415.6787109375</ele>
        <time>2011-04-16T07:04:08Z</time>
      </trkpt>
      <trkpt lat="45.69084" lon="6.21274">
        <ele>1414.2365722656</ele>
        <time>2011-04-16T07:04:11Z</time>
      </trkpt>
      <trkpt lat="45.69083" lon="6.21261">
        <ele>1413.755859375</ele>
        <time>2011-04-16T07:04:14Z</time>
      </trkpt>
      <trkpt lat="45.69068" lon="6.21243">
        <ele>1411.8334960938</ele>
        <time>2011-04-16T07:04:20Z</time>
      </trkpt>
      <trkpt lat="45.69049" lon="6.21218">
        <ele>1412.3139648438</ele>
        <time>2011-04-16T07:04:26Z</time>
      </trkpt>
      <trkpt lat="45.69035" lon="6.21192">
        <ele>1413.275390625</ele>
        <time>2011-04-16T07:04:31Z</time>
      </trkpt>
      <trkpt lat="45.69034" lon="6.21169">
        <ele>1414.7172851562</ele>
        <time>2011-04-16T07:04:35Z</time>
      </trkpt>
      <trkpt lat="45.69043" lon="6.21163">
        <ele>1413.755859375</ele>
        <time>2011-04-16T07:04:38Z</time>
      </trkpt>
      <trkpt lat="45.6905" lon="6.21168">
        <ele>1413.755859375</ele>
        <time>2011-04-16T07:04:41Z</time>
      </trkpt>
      <trkpt lat="45.69065" lon="6.2119">
        <ele>1411.3527832031</ele>
        <time>2011-04-16T07:04:49Z</time>
      </trkpt>
      <trkpt lat="45.69077" lon="6.212">
        <ele>1410.8720703125</ele>
        <time>2011-04-16T07:04:56Z</time>
      </trkpt>
      <trkpt lat="45.69093" lon="6.21207">
        <ele>1409.4301757812</ele>
        <time>2011-04-16T07:05:02Z</time>
      </trkpt>
      <trkpt lat="45.69112" lon="6.21217">
        <ele>1407.0268554688</ele>
        <time>2011-04-16T07:05:08Z</time>
      </trkpt>
      <trkpt lat="45.69132" lon="6.21235">
        <ele>1404.6235351562</ele>
        <time>2011-04-16T07:05:15Z</time>
      </trkpt>
      <trkpt lat="45.69151" lon="6.21257">
        <ele>1401.7395019531</ele>
        <time>2011-04-16T07:05:22Z</time>
      </trkpt>
      <trkpt lat="45.69168" lon="6.21275">
        <ele>1398.85546875</ele>
        <time>2011-04-16T07:05:27Z</time>
      </trkpt>
      <trkpt lat="45.6919" lon="6.21302">
        <ele>1395.0102539062</ele>
        <time>2011-04-16T07:05:34Z</time>
      </trkpt>
      <trkpt lat="45.69206" lon="6.21315">
        <ele>1392.6071777344</ele>
        <time>2011-04-16T07:05:39Z</time>
      </trkpt>
      <trkpt lat="45.69219" lon="6.21336">
        <ele>1390.2038574219</ele>
        <time>2011-04-16T07:05:44Z</time>
      </trkpt>
      <trkpt lat="45.69233" lon="6.21359">
        <ele>1386.3583984375</ele>
        <time>2011-04-16T07:05:49Z</time>
      </trkpt>
      <trkpt lat="45.69252" lon="6.21373">
        <ele>1382.9936523438</ele>
        <time>2011-04-16T07:05:54Z</time>
      </trkpt>
      <trkpt lat="45.6926" lon="6.2138">
        <ele>1381.0712890625</ele>
        <time>2011-04-16T07:06:00Z</time>
      </trkpt>
      <trkpt lat="45.69262" lon="6.21381">
        <ele>1380.5905761719</ele>
        <time>2011-04-16T07:06:07Z</time>
      </trkpt>
      <trkpt lat="45.6927" lon="6.21385">
        <ele>1382.0324707031</ele>
        <time>2011-04-16T07:06:14Z</time>
      </trkpt>
      <trkpt lat="45.69273" lon="6.21385">
        <ele>1381.0712890625</ele>
        <time>2011-04-16T07:06:21Z</time>
      </trkpt>
      <trkpt lat="45.69274" lon="6.21385">
        <ele>1383.955078125</ele>
        <time>2011-04-16T07:06:34Z</time>
      </trkpt>
      <trkpt lat="45.69275" lon="6.21383">
        <ele>1382.0324707031</ele>
        <time>2011-04-16T07:06:43Z</time>
      </trkpt>
      <trkpt lat="45.69277" lon="6.2138">
        <ele>1380.5905761719</ele>
        <time>2011-04-16T07:06:48Z</time>
      </trkpt>
      <trkpt lat="45.69278" lon="6.21375">
        <ele>1381.0712890625</ele>
        <time>2011-04-16T07:06:51Z</time>
      </trkpt>
      <trkpt lat="45.69279" lon="6.21372">
        <ele>1382.9936523438</ele>
        <time>2011-04-16T07:06:56Z</time>
      </trkpt>
      <trkpt lat="45.69279" lon="6.21372">
        <ele>1382.9936523438</ele>
        <time>2011-04-16T07:07:00Z</time>
      </trkpt>
      <trkpt lat="45.69277" lon="6.21371">
        <ele>1382.5131835938</ele>
        <time>2011-04-16T07:07:08Z</time>
      </trkpt>
      <trkpt lat="45.69271" lon="6.21365">
        <ele>1382.0324707031</ele>
        <time>2011-04-16T07:07:15Z</time>
      </trkpt>
      <trkpt lat="45.69266" lon="6.21356">
        <ele>1381.5517578125</ele>
        <time>2011-04-16T07:07:21Z</time>
      </trkpt>
      <trkpt lat="45.69258" lon="6.21345">
        <ele>1378.66796875</ele>
        <time>2011-04-16T07:07:27Z</time>
      </trkpt>
      <trkpt lat="45.69251" lon="6.21334">
        <ele>1376.7453613281</ele>
        <time>2011-04-16T07:07:33Z</time>
      </trkpt>
      <trkpt lat="45.6925" lon="6.21322">
        <ele>1375.7839355469</ele>
        <time>2011-04-16T07:07:39Z</time>
      </trkpt>
      <trkpt lat="45.69249" lon="6.21304">
        <ele>1378.1872558594</ele>
        <time>2011-04-16T07:07:45Z</time>
      </trkpt>
      <trkpt lat="45.69242" lon="6.21277">
        <ele>1375.7839355469</ele>
        <time>2011-04-16T07:07:52Z</time>
      </trkpt>
      <trkpt lat="45.69229" lon="6.21246">
        <ele>1370.9772949219</ele>
        <time>2011-04-16T07:08:01Z</time>
      </trkpt>
      <trkpt lat="45.69212" lon="6.21228">
        <ele>1367.1320800781</ele>
        <time>2011-04-16T07:08:07Z</time>
      </trkpt>
      <trkpt lat="45.69208" lon="6.21217">
        <ele>1367.1320800781</ele>
        <time>2011-04-16T07:08:09Z</time>
      </trkpt>
      <trkpt lat="45.69213" lon="6.21202">
        <ele>1365.2094726562</ele>
        <time>2011-04-16T07:08:14Z</time>
      </trkpt>
      <trkpt lat="45.69219" lon="6.21206">
        <ele>1363.7673339844</ele>
        <time>2011-04-16T07:08:17Z</time>
      </trkpt>
      <trkpt lat="45.6923" lon="6.21228">
        <ele>1360.8835449219</ele>
        <time>2011-04-16T07:08:24Z</time>
      </trkpt>
      <trkpt lat="45.69242" lon="6.21252">
        <ele>1359.9221191406</ele>
        <time>2011-04-16T07:08:31Z</time>
      </trkpt>
      <trkpt lat="45.69253" lon="6.21271">
        <ele>1361.8449707031</ele>
        <time>2011-04-16T07:08:38Z</time>
      </trkpt>
      <trkpt lat="45.69265" lon="6.21293">
        <ele>1357.5190429688</ele>
        <time>2011-04-16T07:08:46Z</time>
      </trkpt>
      <trkpt lat="45.69278" lon="6.21312">
        <ele>1357.5190429688</ele>
        <time>2011-04-16T07:08:52Z</time>
      </trkpt>
      <trkpt lat="45.69294" lon="6.21324">
        <ele>1360.8835449219</ele>
        <time>2011-04-16T07:08:57Z</time>
      </trkpt>
      <trkpt lat="45.69311" lon="6.21337">
        <ele>1356.5576171875</ele>
        <time>2011-04-16T07:09:03Z</time>
      </trkpt>
      <trkpt lat="45.69325" lon="6.21356">
        <ele>1361.8449707031</ele>
        <time>2011-04-16T07:09:10Z</time>
      </trkpt>
      <trkpt lat="45.69326" lon="6.21361">
        <ele>1360.4028320312</ele>
        <time>2011-04-16T07:09:12Z</time>
      </trkpt>
      <trkpt lat="45.69331" lon="6.21372">
        <ele>1358.9609375</ele>
        <time>2011-04-16T07:09:17Z</time>
      </trkpt>
      <trkpt lat="45.6934" lon="6.21383">
        <ele>1359.4416503906</ele>
        <time>2011-04-16T07:09:22Z</time>
      </trkpt>
      <trkpt lat="45.6935" lon="6.21393">
        <ele>1361.3642578125</ele>
        <time>2011-04-16T07:09:26Z</time>
      </trkpt>
      <trkpt lat="45.69363" lon="6.21402">
        <ele>1362.8061523438</ele>
        <time>2011-04-16T07:09:31Z</time>
      </trkpt>
      <trkpt lat="45.69374" lon="6.21408">
        <ele>1362.8061523438</ele>
        <time>2011-04-16T07:09:36Z</time>
      </trkpt>
      <trkpt lat="45.6939" lon="6.21421">
        <ele>1364.248046875</ele>
        <time>2011-04-16T07:09:42Z</time>
      </trkpt>
      <trkpt lat="45.69405" lon="6.21439">
        <ele>1360.4028320312</ele>
        <time>2011-04-16T07:09:49Z</time>
      </trkpt>
      <trkpt lat="45.69418" lon="6.21456">
        <ele>1364.7287597656</ele>
        <time>2011-04-16T07:09:56Z</time>
      </trkpt>
      <trkpt lat="45.69426" lon="6.21466">
        <ele>1365.2094726562</ele>
        <time>2011-04-16T07:10:02Z</time>
      </trkpt>
      <trkpt lat="45.69434" lon="6.21481">
        <ele>1363.7673339844</ele>
        <time>2011-04-16T07:10:07Z</time>
      </trkpt>
      <trkpt lat="45.69444" lon="6.21492">
        <ele>1355.5961914062</ele>
        <time>2011-04-16T07:10:12Z</time>
      </trkpt>
      <trkpt lat="45.69445" lon="6.21494">
        <ele>1356.0769042969</ele>
        <time>2011-04-16T07:10:13Z</time>
      </trkpt>
      <trkpt lat="45.69454" lon="6.21507">
        <ele>1353.6735839844</ele>
        <time>2011-04-16T07:10:18Z</time>
      </trkpt>
      <trkpt lat="45.69468" lon="6.21522">
        <ele>1353.6735839844</ele>
        <time>2011-04-16T07:10:23Z</time>
      </trkpt>
      <trkpt lat="45.69488" lon="6.21543">
        <ele>1349.8283691406</ele>
        <time>2011-04-16T07:10:28Z</time>
      </trkpt>
      <trkpt lat="45.69504" lon="6.21559">
        <ele>1350.3090820312</ele>
        <time>2011-04-16T07:10:33Z</time>
      </trkpt>
      <trkpt lat="45.69517" lon="6.21585">
        <ele>1340.2153320312</ele>
        <time>2011-04-16T07:10:37Z</time>
      </trkpt>
      <trkpt lat="45.69521" lon="6.21605">
        <ele>1339.734375</ele>
        <time>2011-04-16T07:10:42Z</time>
      </trkpt>
      <trkpt lat="45.69534" lon="6.2162">
        <ele>1339.734375</ele>
        <time>2011-04-16T07:10:47Z</time>
      </trkpt>
      <trkpt lat="45.69543" lon="6.2161">
        <ele>1334.9279785156</ele>
        <time>2011-04-16T07:10:51Z</time>
      </trkpt>
      <trkpt lat="45.69555" lon="6.21599">
        <ele>1333.4858398438</ele>
        <time>2011-04-16T07:10:55Z</time>
      </trkpt>
      <trkpt lat="45.69559" lon="6.216">
        <ele>1338.2924804688</ele>
        <time>2011-04-16T07:10:59Z</time>
      </trkpt>
      <trkpt lat="45.6956" lon="6.21601">
        <ele>1339.2536621094</ele>
        <time>2011-04-16T07:11:00Z</time>
      </trkpt>
      <trkpt lat="45.69563" lon="6.21601">
        <ele>1340.6958007812</ele>
        <time>2011-04-16T07:11:02Z</time>
      </trkpt>
      <trkpt lat="45.69564" lon="6.21602">
        <ele>1341.1765136719</ele>
        <time>2011-04-16T07:11:03Z</time>
      </trkpt>
      <trkpt lat="45.69565" lon="6.21603">
        <ele>1343.5798339844</ele>
        <time>2011-04-16T07:11:05Z</time>
      </trkpt>
      <trkpt lat="45.69569" lon="6.21605">
        <ele>1345.5024414062</ele>
        <time>2011-04-16T07:11:08Z</time>
      </trkpt>
      <trkpt lat="45.69571" lon="6.21605">
        <ele>1345.5024414062</ele>
        <time>2011-04-16T07:11:09Z</time>
      </trkpt>
      <trkpt lat="45.6958" lon="6.21607">
        <ele>1342.1379394531</ele>
        <time>2011-04-16T07:11:14Z</time>
      </trkpt>
      <trkpt lat="45.69588" lon="6.21616">
        <ele>1339.734375</ele>
        <time>2011-04-16T07:11:21Z</time>
      </trkpt>
      <trkpt lat="45.69594" lon="6.21626">
        <ele>1338.7731933594</ele>
        <time>2011-04-16T07:11:27Z</time>
      </trkpt>
      <trkpt lat="45.69596" lon="6.21633">
        <ele>1336.8503417969</ele>
        <time>2011-04-16T07:11:32Z</time>
      </trkpt>
      <trkpt lat="45.696" lon="6.21637">
        <ele>1340.2153320312</ele>
        <time>2011-04-16T07:12:00Z</time>
      </trkpt>
      <trkpt lat="45.69604" lon="6.21647">
        <ele>1339.734375</ele>
        <time>2011-04-16T07:12:06Z</time>
      </trkpt>
      <trkpt lat="45.69608" lon="6.21655">
        <ele>1339.734375</ele>
        <time>2011-04-16T07:12:10Z</time>
      </trkpt>
      <trkpt lat="45.69616" lon="6.21667">
        <ele>1340.2153320312</ele>
        <time>2011-04-16T07:12:18Z</time>
      </trkpt>
      <trkpt lat="45.69629" lon="6.21674">
        <ele>1344.060546875</ele>
        <time>2011-04-16T07:12:24Z</time>
      </trkpt>
      <trkpt lat="45.69635" lon="6.21673">
        <ele>1340.2153320312</ele>
        <time>2011-04-16T07:12:30Z</time>
      </trkpt>
      <trkpt lat="45.69637" lon="6.21671">
        <ele>1342.6186523438</ele>
        <time>2011-04-16T07:12:33Z</time>
      </trkpt>
      <trkpt lat="45.69651" lon="6.21675">
        <ele>1337.8117675781</ele>
        <time>2011-04-16T07:12:39Z</time>
      </trkpt>
      <trkpt lat="45.69666" lon="6.21683">
        <ele>1339.2536621094</ele>
        <time>2011-04-16T07:12:43Z</time>
      </trkpt>
      <trkpt lat="45.69675" lon="6.21687">
        <ele>1336.8503417969</ele>
        <time>2011-04-16T07:12:45Z</time>
      </trkpt>
      <trkpt lat="45.69681" lon="6.21686">
        <ele>1337.3310546875</ele>
        <time>2011-04-16T07:12:48Z</time>
      </trkpt>
      <trkpt lat="45.6969" lon="6.21688">
        <ele>1330.1213378906</ele>
        <time>2011-04-16T07:12:53Z</time>
      </trkpt>
      <trkpt lat="45.69693" lon="6.21689">
        <ele>1329.1599121094</ele>
        <time>2011-04-16T07:12:55Z</time>
      </trkpt>
      <trkpt lat="45.697" lon="6.2169">
        <ele>1332.0439453125</ele>
        <time>2011-04-16T07:13:01Z</time>
      </trkpt>
      <trkpt lat="45.69705" lon="6.21689">
        <ele>1333.0051269531</ele>
        <time>2011-04-16T07:13:08Z</time>
      </trkpt>
      <trkpt lat="45.69706" lon="6.21688">
        <ele>1333.0051269531</ele>
        <time>2011-04-16T07:13:14Z</time>
      </trkpt>
      <trkpt lat="45.69709" lon="6.21692">
        <ele>1333.4858398438</ele>
        <time>2011-04-16T07:13:23Z</time>
      </trkpt>
      <trkpt lat="45.69717" lon="6.21701">
        <ele>1337.8117675781</ele>
        <time>2011-04-16T07:13:30Z</time>
      </trkpt>
      <trkpt lat="45.69722" lon="6.21706">
        <ele>1337.3310546875</ele>
        <time>2011-04-16T07:13:33Z</time>
      </trkpt>
      <trkpt lat="45.69726" lon="6.21714">
        <ele>1337.8117675781</ele>
        <time>2011-04-16T07:13:37Z</time>
      </trkpt>
      <trkpt lat="45.69738" lon="6.21723">
        <ele>1347.9057617188</ele>
        <time>2011-04-16T07:13:44Z</time>
      </trkpt>
      <trkpt lat="45.69744" lon="6.21729">
        <ele>1348.8669433594</ele>
        <time>2011-04-16T07:13:51Z</time>
      </trkpt>
      <trkpt lat="45.69753" lon="6.21736">
        <ele>1351.7509765625</ele>
        <time>2011-04-16T07:13:57Z</time>
      </trkpt>
      <trkpt lat="45.69756" lon="6.21737">
        <ele>1352.7121582031</ele>
        <time>2011-04-16T07:14:01Z</time>
      </trkpt>
      <trkpt lat="45.69764" lon="6.21742">
        <ele>1351.7509765625</ele>
        <time>2011-04-16T07:14:09Z</time>
      </trkpt>
      <trkpt lat="45.69773" lon="6.21742">
        <ele>1351.7509765625</ele>
        <time>2011-04-16T07:14:15Z</time>
      </trkpt>
      <trkpt lat="45.69782" lon="6.2174">
        <ele>1352.2314453125</ele>
        <time>2011-04-16T07:14:21Z</time>
      </trkpt>
      <trkpt lat="45.69794" lon="6.21737">
        <ele>1354.154296875</ele>
        <time>2011-04-16T07:14:29Z</time>
      </trkpt>
      <trkpt lat="45.69806" lon="6.21737">
        <ele>1354.634765625</ele>
        <time>2011-04-16T07:14:37Z</time>
      </trkpt>
      <trkpt lat="45.69815" lon="6.21739">
        <ele>1352.7121582031</ele>
        <time>2011-04-16T07:14:43Z</time>
      </trkpt>
      <trkpt lat="45.69827" lon="6.21743">
        <ele>1352.7121582031</ele>
        <time>2011-04-16T07:14:51Z</time>
      </trkpt>
      <trkpt lat="45.69838" lon="6.21749">
        <ele>1353.1928710938</ele>
        <time>2011-04-16T07:14:59Z</time>
      </trkpt>
      <trkpt lat="45.69849" lon="6.21755">
        <ele>1351.7509765625</ele>
        <time>2011-04-16T07:15:07Z</time>
      </trkpt>
      <trkpt lat="45.69859" lon="6.21755">
        <ele>1350.7895507812</ele>
        <time>2011-04-16T07:15:13Z</time>
      </trkpt>
      <trkpt lat="45.69868" lon="6.21756">
        <ele>1352.2314453125</ele>
        <time>2011-04-16T07:15:19Z</time>
      </trkpt>
      <trkpt lat="45.69878" lon="6.21753">
        <ele>1355.1154785156</ele>
        <time>2011-04-16T07:15:26Z</time>
      </trkpt>
      <trkpt lat="45.69889" lon="6.21752">
        <ele>1357.9997558594</ele>
        <time>2011-04-16T07:15:33Z</time>
      </trkpt>
      <trkpt lat="45.699" lon="6.21751">
        <ele>1361.3642578125</ele>
        <time>2011-04-16T07:15:40Z</time>
      </trkpt>
      <trkpt lat="45.69911" lon="6.21749">
        <ele>1363.7673339844</ele>
        <time>2011-04-16T07:15:48Z</time>
      </trkpt>
      <trkpt lat="45.69925" lon="6.21751">
        <ele>1363.7673339844</ele>
        <time>2011-04-16T07:15:56Z</time>
      </trkpt>
      <trkpt lat="45.6994" lon="6.21757">
        <ele>1364.248046875</ele>
        <time>2011-04-16T07:16:06Z</time>
      </trkpt>
      <trkpt lat="45.69952" lon="6.21761">
        <ele>1368.5739746094</ele>
        <time>2011-04-16T07:16:15Z</time>
      </trkpt>
      <trkpt lat="45.69958" lon="6.21764">
        <ele>1369.5354003906</ele>
        <time>2011-04-16T07:16:20Z</time>
      </trkpt>
      <trkpt lat="45.69966" lon="6.21765">
        <ele>1368.5739746094</ele>
        <time>2011-04-16T07:16:24Z</time>
      </trkpt>
      <trkpt lat="45.69975" lon="6.2177">
        <ele>1368.5739746094</ele>
        <time>2011-04-16T07:16:30Z</time>
      </trkpt>
      <trkpt lat="45.69987" lon="6.21777">
        <ele>1370.0158691406</ele>
        <time>2011-04-16T07:16:37Z</time>
      </trkpt>
      <trkpt lat="45.69998" lon="6.21784">
        <ele>1365.2094726562</ele>
        <time>2011-04-16T07:16:43Z</time>
      </trkpt>
      <trkpt lat="45.70006" lon="6.21792">
        <ele>1368.0932617188</ele>
        <time>2011-04-16T07:16:50Z</time>
      </trkpt>
      <trkpt lat="45.70013" lon="6.21798">
        <ele>1371.9384765625</ele>
        <time>2011-04-16T07:16:56Z</time>
      </trkpt>
      <trkpt lat="45.70021" lon="6.21806">
        <ele>1374.8227539062</ele>
        <time>2011-04-16T07:17:04Z</time>
      </trkpt>
      <trkpt lat="45.70028" lon="6.21814">
        <ele>1375.7839355469</ele>
        <time>2011-04-16T07:17:10Z</time>
      </trkpt>
      <trkpt lat="45.70035" lon="6.21823">
        <ele>1379.6291503906</ele>
        <time>2011-04-16T07:17:17Z</time>
      </trkpt>
      <trkpt lat="45.70045" lon="6.21835">
        <ele>1382.9936523438</ele>
        <time>2011-04-16T07:17:24Z</time>
      </trkpt>
      <trkpt lat="45.70057" lon="6.21842">
        <ele>1386.3583984375</ele>
        <time>2011-04-16T07:17:31Z</time>
      </trkpt>
      <trkpt lat="45.70069" lon="6.21849">
        <ele>1384.9165039062</ele>
        <time>2011-04-16T07:17:38Z</time>
      </trkpt>
      <trkpt lat="45.70079" lon="6.21854">
        <ele>1380.5905761719</ele>
        <time>2011-04-16T07:17:44Z</time>
      </trkpt>
      <trkpt lat="45.7009" lon="6.21861">
        <ele>1376.2646484375</ele>
        <time>2011-04-16T07:17:51Z</time>
      </trkpt>
      <trkpt lat="45.70101" lon="6.21868">
        <ele>1372.9001464844</ele>
        <time>2011-04-16T07:17:59Z</time>
      </trkpt>
      <trkpt lat="45.70112" lon="6.21876">
        <ele>1373.380859375</ele>
        <time>2011-04-16T07:18:06Z</time>
      </trkpt>
      <trkpt lat="45.70123" lon="6.21883">
        <ele>1376.7453613281</ele>
        <time>2011-04-16T07:18:14Z</time>
      </trkpt>
      <trkpt lat="45.70127" lon="6.21886">
        <ele>1379.1484375</ele>
        <time>2011-04-16T07:18:20Z</time>
      </trkpt>
      <trkpt lat="45.7013" lon="6.21881">
        <ele>1386.3583984375</ele>
        <time>2011-04-16T07:18:31Z</time>
      </trkpt>
      <trkpt lat="45.70134" lon="6.21879">
        <ele>1391.1650390625</ele>
        <time>2011-04-16T07:18:40Z</time>
      </trkpt>
      <trkpt lat="45.70132" lon="6.21877">
        <ele>1389.2424316406</ele>
        <time>2011-04-16T07:18:51Z</time>
      </trkpt>
      <trkpt lat="45.70132" lon="6.21882">
        <ele>1383.955078125</ele>
        <time>2011-04-16T07:19:02Z</time>
      </trkpt>
      <trkpt lat="45.70133" lon="6.21884">
        <ele>1383.4743652344</ele>
        <time>2011-04-16T07:19:16Z</time>
      </trkpt>
      <trkpt lat="45.70133" lon="6.21885">
        <ele>1383.4743652344</ele>
        <time>2011-04-16T07:19:21Z</time>
      </trkpt>
      <trkpt lat="45.70137" lon="6.21892">
        <ele>1383.4743652344</ele>
        <time>2011-04-16T07:19:29Z</time>
      </trkpt>
      <trkpt lat="45.70139" lon="6.21898">
        <ele>1382.5131835938</ele>
        <time>2011-04-16T07:19:35Z</time>
      </trkpt>
      <trkpt lat="45.70147" lon="6.21907">
        <ele>1383.955078125</ele>
        <time>2011-04-16T07:19:41Z</time>
      </trkpt>
      <trkpt lat="45.70161" lon="6.2192">
        <ele>1383.4743652344</ele>
        <time>2011-04-16T07:19:50Z</time>
      </trkpt>
      <trkpt lat="45.70171" lon="6.21928">
        <ele>1382.9936523438</ele>
        <time>2011-04-16T07:19:55Z</time>
      </trkpt>
      <trkpt lat="45.70183" lon="6.21933">
        <ele>1384.9165039062</ele>
        <time>2011-04-16T07:20:02Z</time>
      </trkpt>
      <trkpt lat="45.70196" lon="6.2193">
        <ele>1387.3195800781</ele>
        <time>2011-04-16T07:20:08Z</time>
      </trkpt>
      <trkpt lat="45.70208" lon="6.21933">
        <ele>1386.8388671875</ele>
        <time>2011-04-16T07:20:14Z</time>
      </trkpt>
      <trkpt lat="45.70223" lon="6.21944">
        <ele>1375.7839355469</ele>
        <time>2011-04-16T07:20:20Z</time>
      </trkpt>
      <trkpt lat="45.70238" lon="6.21961">
        <ele>1371.4577636719</ele>
        <time>2011-04-16T07:20:27Z</time>
      </trkpt>
      <trkpt lat="45.70246" lon="6.21973">
        <ele>1369.0546875</ele>
        <time>2011-04-16T07:20:33Z</time>
      </trkpt>
      <trkpt lat="45.70253" lon="6.21991">
        <ele>1363.2868652344</ele>
        <time>2011-04-16T07:20:40Z</time>
      </trkpt>
      <trkpt lat="45.7026" lon="6.22014">
        <ele>1366.1706542969</ele>
        <time>2011-04-16T07:20:49Z</time>
      </trkpt>
      <trkpt lat="45.70265" lon="6.22036">
        <ele>1367.6125488281</ele>
        <time>2011-04-16T07:20:56Z</time>
      </trkpt>
      <trkpt lat="45.70272" lon="6.22051">
        <ele>1369.5354003906</ele>
        <time>2011-04-16T07:21:00Z</time>
      </trkpt>
      <trkpt lat="45.70288" lon="6.2207">
        <ele>1372.9001464844</ele>
        <time>2011-04-16T07:21:07Z</time>
      </trkpt>
      <trkpt lat="45.70298" lon="6.22087">
        <ele>1377.2260742188</ele>
        <time>2011-04-16T07:21:13Z</time>
      </trkpt>
      <trkpt lat="45.70307" lon="6.22097">
        <ele>1382.0324707031</ele>
        <time>2011-04-16T07:21:18Z</time>
      </trkpt>
      <trkpt lat="45.70322" lon="6.22099">
        <ele>1384.4357910156</ele>
        <time>2011-04-16T07:21:24Z</time>
      </trkpt>
      <trkpt lat="45.70333" lon="6.22109">
        <ele>1381.5517578125</ele>
        <time>2011-04-16T07:21:30Z</time>
      </trkpt>
      <trkpt lat="45.70345" lon="6.22113">
        <ele>1380.1098632812</ele>
        <time>2011-04-16T07:21:36Z</time>
      </trkpt>
      <trkpt lat="45.70357" lon="6.22124">
        <ele>1372.9001464844</ele>
        <time>2011-04-16T07:21:42Z</time>
      </trkpt>
      <trkpt lat="45.70367" lon="6.22138">
        <ele>1374.3420410156</ele>
        <time>2011-04-16T07:21:48Z</time>
      </trkpt>
      <trkpt lat="45.70369" lon="6.2214">
        <ele>1374.8227539062</ele>
        <time>2011-04-16T07:21:49Z</time>
      </trkpt>
      <trkpt lat="45.70378" lon="6.22157">
        <ele>1375.7839355469</ele>
        <time>2011-04-16T07:21:56Z</time>
      </trkpt>
      <trkpt lat="45.70387" lon="6.22168">
        <ele>1378.1872558594</ele>
        <time>2011-04-16T07:22:02Z</time>
      </trkpt>
      <trkpt lat="45.70393" lon="6.22181">
        <ele>1376.2646484375</ele>
        <time>2011-04-16T07:22:08Z</time>
      </trkpt>
      <trkpt lat="45.70396" lon="6.22202">
        <ele>1383.955078125</ele>
        <time>2011-04-16T07:22:15Z</time>
      </trkpt>
      <trkpt lat="45.70399" lon="6.22216">
        <ele>1385.3969726562</ele>
        <time>2011-04-16T07:22:21Z</time>
      </trkpt>
      <trkpt lat="45.704" lon="6.22235">
        <ele>1382.5131835938</ele>
        <time>2011-04-16T07:22:27Z</time>
      </trkpt>
      <trkpt lat="45.70405" lon="6.2225">
        <ele>1382.0324707031</ele>
        <time>2011-04-16T07:22:32Z</time>
      </trkpt>
      <trkpt lat="45.70406" lon="6.2227">
        <ele>1385.3969726562</ele>
        <time>2011-04-16T07:22:39Z</time>
      </trkpt>
      <trkpt lat="45.70409" lon="6.22279">
        <ele>1388.7619628906</ele>
        <time>2011-04-16T07:22:43Z</time>
      </trkpt>
      <trkpt lat="45.70411" lon="6.2229">
        <ele>1392.1264648438</ele>
        <time>2011-04-16T07:22:48Z</time>
      </trkpt>
      <trkpt lat="45.70418" lon="6.22312">
        <ele>1394.5295410156</ele>
        <time>2011-04-16T07:22:55Z</time>
      </trkpt>
      <trkpt lat="45.70425" lon="6.22324">
        <ele>1395.4909667969</ele>
        <time>2011-04-16T07:23:01Z</time>
      </trkpt>
      <trkpt lat="45.7043" lon="6.22339">
        <ele>1393.568359375</ele>
        <time>2011-04-16T07:23:08Z</time>
      </trkpt>
      <trkpt lat="45.7044" lon="6.22357">
        <ele>1386.3583984375</ele>
        <time>2011-04-16T07:23:13Z</time>
      </trkpt>
      <trkpt lat="45.70448" lon="6.22372">
        <ele>1386.3583984375</ele>
        <time>2011-04-16T07:23:20Z</time>
      </trkpt>
      <trkpt lat="45.70459" lon="6.22378">
        <ele>1384.9165039062</ele>
        <time>2011-04-16T07:23:25Z</time>
      </trkpt>
      <trkpt lat="45.70467" lon="6.2239">
        <ele>1382.5131835938</ele>
        <time>2011-04-16T07:23:32Z</time>
      </trkpt>
      <trkpt lat="45.70473" lon="6.22403">
        <ele>1386.8388671875</ele>
        <time>2011-04-16T07:23:39Z</time>
      </trkpt>
      <trkpt lat="45.70478" lon="6.22419">
        <ele>1387.8002929688</ele>
        <time>2011-04-16T07:23:47Z</time>
      </trkpt>
      <trkpt lat="45.70484" lon="6.22429">
        <ele>1389.2424316406</ele>
        <time>2011-04-16T07:23:54Z</time>
      </trkpt>
      <trkpt lat="45.70494" lon="6.22433">
        <ele>1390.6843261719</ele>
        <time>2011-04-16T07:24:00Z</time>
      </trkpt>
      <trkpt lat="45.70504" lon="6.22443">
        <ele>1391.6457519531</ele>
        <time>2011-04-16T07:24:07Z</time>
      </trkpt>
      <trkpt lat="45.70511" lon="6.22463">
        <ele>1392.1264648438</ele>
        <time>2011-04-16T07:24:15Z</time>
      </trkpt>
      <trkpt lat="45.70514" lon="6.22471">
        <ele>1392.1264648438</ele>
        <time>2011-04-16T07:24:18Z</time>
      </trkpt>
      <trkpt lat="45.70527" lon="6.22485">
        <ele>1393.568359375</ele>
        <time>2011-04-16T07:24:27Z</time>
      </trkpt>
      <trkpt lat="45.70537" lon="6.22491">
        <ele>1399.8168945312</ele>
        <time>2011-04-16T07:24:34Z</time>
      </trkpt>
      <trkpt lat="45.70547" lon="6.22495">
        <ele>1402.2199707031</ele>
        <time>2011-04-16T07:24:40Z</time>
      </trkpt>
      <trkpt lat="45.70558" lon="6.225">
        <ele>1408.46875</ele>
        <time>2011-04-16T07:24:47Z</time>
      </trkpt>
      <trkpt lat="45.70575" lon="6.22501">
        <ele>1407.0268554688</ele>
        <time>2011-04-16T07:24:55Z</time>
      </trkpt>
      <trkpt lat="45.70597" lon="6.22498">
        <ele>1404.1430664062</ele>
        <time>2011-04-16T07:25:05Z</time>
      </trkpt>
      <trkpt lat="45.70616" lon="6.22493">
        <ele>1403.662109375</ele>
        <time>2011-04-16T07:25:14Z</time>
      </trkpt>
      <trkpt lat="45.70631" lon="6.22487">
        <ele>1403.662109375</ele>
        <time>2011-04-16T07:25:21Z</time>
      </trkpt>
      <trkpt lat="45.70644" lon="6.22482">
        <ele>1400.7780761719</ele>
        <time>2011-04-16T07:25:27Z</time>
      </trkpt>
      <trkpt lat="45.70661" lon="6.22477">
        <ele>1402.7006835938</ele>
        <time>2011-04-16T07:25:35Z</time>
      </trkpt>
      <trkpt lat="45.70675" lon="6.22467">
        <ele>1402.7006835938</ele>
        <time>2011-04-16T07:25:42Z</time>
      </trkpt>
      <trkpt lat="45.70687" lon="6.22453">
        <ele>1401.2587890625</ele>
        <time>2011-04-16T07:25:49Z</time>
      </trkpt>
      <trkpt lat="45.70697" lon="6.22438">
        <ele>1400.7780761719</ele>
        <time>2011-04-16T07:25:56Z</time>
      </trkpt>
      <trkpt lat="45.7071" lon="6.22425">
        <ele>1402.2199707031</ele>
        <time>2011-04-16T07:26:04Z</time>
      </trkpt>
      <trkpt lat="45.70713" lon="6.22424">
        <ele>1403.1813964844</ele>
        <time>2011-04-16T07:26:06Z</time>
      </trkpt>
      <trkpt lat="45.70713" lon="6.22422">
        <ele>1405.5849609375</ele>
        <time>2011-04-16T07:26:15Z</time>
      </trkpt>
      <trkpt lat="45.70715" lon="6.22421">
        <ele>1404.1430664062</ele>
        <time>2011-04-16T07:26:22Z</time>
      </trkpt>
      <trkpt lat="45.70713" lon="6.22421">
        <ele>1409.4301757812</ele>
        <time>2011-04-16T07:26:39Z</time>
      </trkpt>
      <trkpt lat="45.70713" lon="6.2242">
        <ele>1409.4301757812</ele>
        <time>2011-04-16T07:26:46Z</time>
      </trkpt>
      <trkpt lat="45.70715" lon="6.22419">
        <ele>1414.2365722656</ele>
        <time>2011-04-16T07:27:00Z</time>
      </trkpt>
      <trkpt lat="45.70721" lon="6.22419">
        <ele>1413.755859375</ele>
        <time>2011-04-16T07:27:05Z</time>
      </trkpt>
      <trkpt lat="45.70732" lon="6.22419">
        <ele>1413.275390625</ele>
        <time>2011-04-16T07:27:13Z</time>
      </trkpt>
      <trkpt lat="45.70744" lon="6.22425">
        <ele>1410.8720703125</ele>
        <time>2011-04-16T07:27:21Z</time>
      </trkpt>
      <trkpt lat="45.70755" lon="6.22435">
        <ele>1408.9494628906</ele>
        <time>2011-04-16T07:27:28Z</time>
      </trkpt>
      <trkpt lat="45.70761" lon="6.22448">
        <ele>1409.4301757812</ele>
        <time>2011-04-16T07:27:36Z</time>
      </trkpt>
      <trkpt lat="45.70762" lon="6.22448">
        <ele>1409.4301757812</ele>
        <time>2011-04-16T07:27:40Z</time>
      </trkpt>
      <trkpt lat="45.70765" lon="6.22451">
        <ele>1407.0268554688</ele>
        <time>2011-04-16T07:27:46Z</time>
      </trkpt>
      <trkpt lat="45.70764" lon="6.22452">
        <ele>1407.98828125</ele>
        <time>2011-04-16T07:27:51Z</time>
      </trkpt>
      <trkpt lat="45.70761" lon="6.22454">
        <ele>1412.7946777344</ele>
        <time>2011-04-16T07:28:00Z</time>
      </trkpt>
      <trkpt lat="45.7076" lon="6.22452">
        <ele>1413.275390625</ele>
        <time>2011-04-16T07:28:06Z</time>
      </trkpt>
      <trkpt lat="45.7076" lon="6.22452">
        <ele>1413.275390625</ele>
        <time>2011-04-16T07:28:23Z</time>
      </trkpt>
      <trkpt lat="45.70758" lon="6.2245">
        <ele>1413.755859375</ele>
        <time>2011-04-16T07:28:30Z</time>
      </trkpt>
      <trkpt lat="45.70758" lon="6.22449">
        <ele>1413.755859375</ele>
        <time>2011-04-16T07:28:33Z</time>
      </trkpt>
      <trkpt lat="45.70758" lon="6.22449">
        <ele>1413.275390625</ele>
        <time>2011-04-16T07:28:35Z</time>
      </trkpt>
      <trkpt lat="45.70758" lon="6.22449">
        <ele>1413.755859375</ele>
        <time>2011-04-16T07:28:36Z</time>
      </trkpt>
      <trkpt lat="45.7076" lon="6.22449">
        <ele>1412.7946777344</ele>
        <time>2011-04-16T07:28:43Z</time>
      </trkpt>
      <trkpt lat="45.70763" lon="6.22454">
        <ele>1413.755859375</ele>
        <time>2011-04-16T07:29:11Z</time>
      </trkpt>
      <trkpt lat="45.70763" lon="6.22454">
        <ele>1412.7946777344</ele>
        <time>2011-04-16T07:29:16Z</time>
      </trkpt>
      <trkpt lat="45.70763" lon="6.22455">
        <ele>1412.7946777344</ele>
        <time>2011-04-16T07:29:17Z</time>
      </trkpt>
      <trkpt lat="45.70767" lon="6.22455">
        <ele>1402.7006835938</ele>
        <time>2011-04-16T07:29:30Z</time>
      </trkpt>
      <trkpt lat="45.70765" lon="6.22457">
        <ele>1406.0654296875</ele>
        <time>2011-04-16T07:29:49Z</time>
      </trkpt>
      <trkpt lat="45.7076" lon="6.22457">
        <ele>1408.9494628906</ele>
        <time>2011-04-16T07:29:53Z</time>
      </trkpt>
      <trkpt lat="45.70759" lon="6.22456">
        <ele>1409.9106445312</ele>
        <time>2011-04-16T07:29:59Z</time>
      </trkpt>
      <trkpt lat="45.70757" lon="6.22453">
        <ele>1412.3139648438</ele>
        <time>2011-04-16T07:30:39Z</time>
      </trkpt>
      <trkpt lat="45.70758" lon="6.22448">
        <ele>1411.8334960938</ele>
        <time>2011-04-16T07:30:44Z</time>
      </trkpt>
      <trkpt lat="45.70759" lon="6.22447">
        <ele>1411.8334960938</ele>
        <time>2011-04-16T07:30:50Z</time>
      </trkpt>
      <trkpt lat="45.70758" lon="6.22446">
        <ele>1412.3139648438</ele>
        <time>2011-04-16T07:31:19Z</time>
      </trkpt>
      <trkpt lat="45.70759" lon="6.22446">
        <ele>1412.3139648438</ele>
        <time>2011-04-16T07:31:26Z</time>
      </trkpt>
      <trkpt lat="45.7076" lon="6.22446">
        <ele>1411.8334960938</ele>
        <time>2011-04-16T07:31:33Z</time>
      </trkpt>
      <trkpt lat="45.7076" lon="6.22446">
        <ele>1411.8334960938</ele>
        <time>2011-04-16T07:31:38Z</time>
      </trkpt>
      <trkpt lat="45.7076" lon="6.22447">
        <ele>1411.8334960938</ele>
        <time>2011-04-16T07:31:59Z</time>
      </trkpt>
      <trkpt lat="45.70759" lon="6.22446">
        <ele>1412.3139648438</ele>
        <time>2011-04-16T07:32:03Z</time>
      </trkpt>
      <trkpt lat="45.70759" lon="6.22446">
        <ele>1412.3139648438</ele>
        <time>2011-04-16T07:32:10Z</time>
      </trkpt>
      <trkpt lat="45.70758" lon="6.22445">
        <ele>1412.7946777344</ele>
        <time>2011-04-16T07:32:17Z</time>
      </trkpt>
      <trkpt lat="45.70758" lon="6.22445">
        <ele>1412.7946777344</ele>
        <time>2011-04-16T07:32:23Z</time>
      </trkpt>
      <trkpt lat="45.70758" lon="6.22445">
        <ele>1413.275390625</ele>
        <time>2011-04-16T07:32:25Z</time>
      </trkpt>
      <trkpt lat="45.70758" lon="6.22445">
        <ele>1413.275390625</ele>
        <time>2011-04-16T07:32:37Z</time>
      </trkpt>
      <trkpt lat="45.70759" lon="6.22446">
        <ele>1412.3139648438</ele>
        <time>2011-04-16T07:32:54Z</time>
      </trkpt>
      <trkpt lat="45.7076" lon="6.22449">
        <ele>1412.3139648438</ele>
        <time>2011-04-16T07:32:56Z</time>
      </trkpt>
      <trkpt lat="45.70757" lon="6.22451">
        <ele>1414.2365722656</ele>
        <time>2011-04-16T07:33:00Z</time>
      </trkpt>
      <trkpt lat="45.70755" lon="6.22451">
        <ele>1414.7172851562</ele>
        <time>2011-04-16T07:33:01Z</time>
      </trkpt>
      <trkpt lat="45.70747" lon="6.22453">
        <ele>1418.5625</ele>
        <time>2011-04-16T07:33:09Z</time>
      </trkpt>
      <trkpt lat="45.70741" lon="6.22454">
        <ele>1421.9272460938</ele>
        <time>2011-04-16T07:33:15Z</time>
      </trkpt>
      <trkpt lat="45.70737" lon="6.22454">
        <ele>1425.2917480469</ele>
        <time>2011-04-16T07:33:20Z</time>
      </trkpt>
      <trkpt lat="45.70734" lon="6.22455">
        <ele>1427.2145996094</ele>
        <time>2011-04-16T07:33:23Z</time>
      </trkpt>
      <trkpt lat="45.70729" lon="6.22456">
        <ele>1430.0983886719</ele>
        <time>2011-04-16T07:33:28Z</time>
      </trkpt>
      <trkpt lat="45.70726" lon="6.22458">
        <ele>1432.0209960938</ele>
        <time>2011-04-16T07:33:31Z</time>
      </trkpt>
      <trkpt lat="45.7072" lon="6.22464">
        <ele>1434.9050292969</ele>
        <time>2011-04-16T07:33:38Z</time>
      </trkpt>
      <trkpt lat="45.70714" lon="6.22471">
        <ele>1437.3083496094</ele>
        <time>2011-04-16T07:33:46Z</time>
      </trkpt>
      <trkpt lat="45.70709" lon="6.22477">
        <ele>1438.2697753906</ele>
        <time>2011-04-16T07:33:53Z</time>
      </trkpt>
      <trkpt lat="45.70702" lon="6.22485">
        <ele>1438.7504882812</ele>
        <time>2011-04-16T07:34:01Z</time>
      </trkpt>
      <trkpt lat="45.707" lon="6.22489">
        <ele>1440.6728515625</ele>
        <time>2011-04-16T07:34:07Z</time>
      </trkpt>
      <trkpt lat="45.70699" lon="6.22493">
        <ele>1439.7116699219</ele>
        <time>2011-04-16T07:34:10Z</time>
      </trkpt>
      <trkpt lat="45.70694" lon="6.22501">
        <ele>1435.8662109375</ele>
        <time>2011-04-16T07:34:17Z</time>
      </trkpt>
      <trkpt lat="45.7069" lon="6.22511">
        <ele>1433.462890625</ele>
        <time>2011-04-16T07:34:25Z</time>
      </trkpt>
      <trkpt lat="45.70681" lon="6.22519">
        <ele>1439.2309570312</ele>
        <time>2011-04-16T07:34:33Z</time>
      </trkpt>
      <trkpt lat="45.70673" lon="6.22529">
        <ele>1438.7504882812</ele>
        <time>2011-04-16T07:34:42Z</time>
      </trkpt>
      <trkpt lat="45.70665" lon="6.22534">
        <ele>1437.3083496094</ele>
        <time>2011-04-16T07:34:50Z</time>
      </trkpt>
      <trkpt lat="45.70658" lon="6.22542">
        <ele>1439.2309570312</ele>
        <time>2011-04-16T07:34:57Z</time>
      </trkpt>
      <trkpt lat="45.7065" lon="6.22551">
        <ele>1442.1149902344</ele>
        <time>2011-04-16T07:35:04Z</time>
      </trkpt>
      <trkpt lat="45.70641" lon="6.2256">
        <ele>1441.1535644531</ele>
        <time>2011-04-16T07:35:15Z</time>
      </trkpt>
      <trkpt lat="45.70633" lon="6.22566">
        <ele>1440.1923828125</ele>
        <time>2011-04-16T07:35:25Z</time>
      </trkpt>
      <trkpt lat="45.70628" lon="6.2257">
        <ele>1438.2697753906</ele>
        <time>2011-04-16T07:35:32Z</time>
      </trkpt>
      <trkpt lat="45.70628" lon="6.22571">
        <ele>1436.8276367188</ele>
        <time>2011-04-16T07:35:38Z</time>
      </trkpt>
      <trkpt lat="45.7063" lon="6.2257">
        <ele>1434.4243164062</ele>
        <time>2011-04-16T07:35:45Z</time>
      </trkpt>
      <trkpt lat="45.70629" lon="6.22571">
        <ele>1433.462890625</ele>
        <time>2011-04-16T07:35:51Z</time>
      </trkpt>
      <trkpt lat="45.70624" lon="6.22575">
        <ele>1433.9436035156</ele>
        <time>2011-04-16T07:35:59Z</time>
      </trkpt>
      <trkpt lat="45.70618" lon="6.22581">
        <ele>1433.9436035156</ele>
        <time>2011-04-16T07:36:07Z</time>
      </trkpt>
      <trkpt lat="45.70609" lon="6.22588">
        <ele>1435.3854980469</ele>
        <time>2011-04-16T07:36:17Z</time>
      </trkpt>
      <trkpt lat="45.70601" lon="6.22593">
        <ele>1437.7890625</ele>
        <time>2011-04-16T07:36:26Z</time>
      </trkpt>
      <trkpt lat="45.70594" lon="6.22596">
        <ele>1441.6342773438</ele>
        <time>2011-04-16T07:36:33Z</time>
      </trkpt>
      <trkpt lat="45.70586" lon="6.22601">
        <ele>1444.5180664062</ele>
        <time>2011-04-16T07:36:41Z</time>
      </trkpt>
      <trkpt lat="45.70581" lon="6.22606">
        <ele>1444.9987792969</ele>
        <time>2011-04-16T07:36:48Z</time>
      </trkpt>
      <trkpt lat="45.70575" lon="6.22611">
        <ele>1448.8439941406</ele>
        <time>2011-04-16T07:36:56Z</time>
      </trkpt>
      <trkpt lat="45.70571" lon="6.22614">
        <ele>1451.2473144531</ele>
        <time>2011-04-16T07:37:02Z</time>
      </trkpt>
      <trkpt lat="45.70565" lon="6.22618">
        <ele>1453.1701660156</ele>
        <time>2011-04-16T07:37:09Z</time>
      </trkpt>
      <trkpt lat="45.70562" lon="6.22623">
        <ele>1455.0927734375</ele>
        <time>2011-04-16T07:37:17Z</time>
      </trkpt>
      <trkpt lat="45.70559" lon="6.22629">
        <ele>1457.0153808594</ele>
        <time>2011-04-16T07:37:25Z</time>
      </trkpt>
      <trkpt lat="45.70556" lon="6.22634">
        <ele>1459.8991699219</ele>
        <time>2011-04-16T07:37:34Z</time>
      </trkpt>
      <trkpt lat="45.70555" lon="6.22636">
        <ele>1460.8605957031</ele>
        <time>2011-04-16T07:37:40Z</time>
      </trkpt>
      <trkpt lat="45.70553" lon="6.22637">
        <ele>1461.8220214844</ele>
        <time>2011-04-16T07:37:56Z</time>
      </trkpt>
      <trkpt lat="45.70552" lon="6.22638">
        <ele>1464.2250976562</ele>
        <time>2011-04-16T07:38:06Z</time>
      </trkpt>
      <trkpt lat="45.70552" lon="6.2264">
        <ele>1467.5895996094</ele>
        <time>2011-04-16T07:38:12Z</time>
      </trkpt>
      <trkpt lat="45.70552" lon="6.22643">
        <ele>1464.7058105469</ele>
        <time>2011-04-16T07:38:17Z</time>
      </trkpt>
      <trkpt lat="45.7055" lon="6.22643">
        <ele>1471.4350585938</ele>
        <time>2011-04-16T07:38:30Z</time>
      </trkpt>
      <trkpt lat="45.70548" lon="6.22644">
        <ele>1469.5126953125</ele>
        <time>2011-04-16T07:38:35Z</time>
      </trkpt>
      <trkpt lat="45.70543" lon="6.22639">
        <ele>1470.9545898438</ele>
        <time>2011-04-16T07:38:41Z</time>
      </trkpt>
      <trkpt lat="45.70539" lon="6.22639">
        <ele>1468.5512695312</ele>
        <time>2011-04-16T07:38:49Z</time>
      </trkpt>
      <trkpt lat="45.70537" lon="6.22639">
        <ele>1467.5895996094</ele>
        <time>2011-04-16T07:38:52Z</time>
      </trkpt>
      <trkpt lat="45.70536" lon="6.22639">
        <ele>1467.1091308594</ele>
        <time>2011-04-16T07:38:53Z</time>
      </trkpt>
      <trkpt lat="45.70534" lon="6.22639">
        <ele>1469.9931640625</ele>
        <time>2011-04-16T07:39:02Z</time>
      </trkpt>
      <trkpt lat="45.70529" lon="6.2264">
        <ele>1475.2802734375</ele>
        <time>2011-04-16T07:39:10Z</time>
      </trkpt>
      <trkpt lat="45.70527" lon="6.22645">
        <ele>1462.783203125</ele>
        <time>2011-04-16T07:39:16Z</time>
      </trkpt>
      <trkpt lat="45.7053" lon="6.22649">
        <ele>1443.5568847656</ele>
        <time>2011-04-16T07:39:21Z</time>
      </trkpt>
      <trkpt lat="45.70527" lon="6.22654">
        <ele>1431.5402832031</ele>
        <time>2011-04-16T07:39:29Z</time>
      </trkpt>
      <trkpt lat="45.70521" lon="6.22653">
        <ele>1434.9050292969</ele>
        <time>2011-04-16T07:39:34Z</time>
      </trkpt>
      <trkpt lat="45.70509" lon="6.22651">
        <ele>1444.9987792969</ele>
        <time>2011-04-16T07:39:44Z</time>
      </trkpt>
      <trkpt lat="45.70503" lon="6.22651">
        <ele>1449.8054199219</ele>
        <time>2011-04-16T07:39:50Z</time>
      </trkpt>
      <trkpt lat="45.70498" lon="6.22651">
        <ele>1457.0153808594</ele>
        <time>2011-04-16T07:39:57Z</time>
      </trkpt>
      <trkpt lat="45.70493" lon="6.22648">
        <ele>1462.3024902344</ele>
        <time>2011-04-16T07:40:03Z</time>
      </trkpt>
      <trkpt lat="45.70486" lon="6.22647">
        <ele>1469.0319824219</ele>
        <time>2011-04-16T07:40:09Z</time>
      </trkpt>
      <trkpt lat="45.70481" lon="6.2265">
        <ele>1469.5126953125</ele>
        <time>2011-04-16T07:40:15Z</time>
      </trkpt>
      <trkpt lat="45.70475" lon="6.2265">
        <ele>1469.5126953125</ele>
        <time>2011-04-16T07:40:21Z</time>
      </trkpt>
      <trkpt lat="45.70472" lon="6.22649">
        <ele>1468.5512695312</ele>
        <time>2011-04-16T07:40:26Z</time>
      </trkpt>
      <trkpt lat="45.70469" lon="6.2265">
        <ele>1467.1091308594</ele>
        <time>2011-04-16T07:40:30Z</time>
      </trkpt>
      <trkpt lat="45.70464" lon="6.22653">
        <ele>1464.7058105469</ele>
        <time>2011-04-16T07:40:37Z</time>
      </trkpt>
      <trkpt lat="45.70465" lon="6.22654">
        <ele>1461.8220214844</ele>
        <time>2011-04-16T07:40:46Z</time>
      </trkpt>
      <trkpt lat="45.70465" lon="6.22654">
        <ele>1460.8605957031</ele>
        <time>2011-04-16T07:40:51Z</time>
      </trkpt>
      <trkpt lat="45.70464" lon="6.22653">
        <ele>1461.3413085938</ele>
        <time>2011-04-16T07:41:01Z</time>
      </trkpt>
      <trkpt lat="45.70463" lon="6.22656">
        <ele>1467.1091308594</ele>
        <time>2011-04-16T07:41:03Z</time>
      </trkpt>
      <trkpt lat="45.70459" lon="6.22663">
        <ele>1475.2802734375</ele>
        <time>2011-04-16T07:41:12Z</time>
      </trkpt>
      <trkpt lat="45.70459" lon="6.22665">
        <ele>1476.2416992188</ele>
        <time>2011-04-16T07:41:24Z</time>
      </trkpt>
      <trkpt lat="45.70459" lon="6.22665">
        <ele>1475.7609863281</ele>
        <time>2011-04-16T07:41:29Z</time>
      </trkpt>
      <trkpt lat="45.70458" lon="6.22665">
        <ele>1475.2802734375</ele>
        <time>2011-04-16T07:41:33Z</time>
      </trkpt>
      <trkpt lat="45.70456" lon="6.22667">
        <ele>1475.2802734375</ele>
        <time>2011-04-16T07:41:39Z</time>
      </trkpt>
      <trkpt lat="45.70451" lon="6.22669">
        <ele>1474.3190917969</ele>
        <time>2011-04-16T07:41:47Z</time>
      </trkpt>
      <trkpt lat="45.70444" lon="6.22671">
        <ele>1474.3190917969</ele>
        <time>2011-04-16T07:41:56Z</time>
      </trkpt>
      <trkpt lat="45.70442" lon="6.22672">
        <ele>1474.7998046875</ele>
        <time>2011-04-16T07:42:01Z</time>
      </trkpt>
      <trkpt lat="45.7044" lon="6.22672">
        <ele>1475.2802734375</ele>
        <time>2011-04-16T07:42:04Z</time>
      </trkpt>
      <trkpt lat="45.70435" lon="6.22672">
        <ele>1477.203125</ele>
        <time>2011-04-16T07:42:12Z</time>
      </trkpt>
      <trkpt lat="45.70434" lon="6.22672">
        <ele>1477.68359375</ele>
        <time>2011-04-16T07:42:16Z</time>
      </trkpt>
      <trkpt lat="45.70428" lon="6.22671">
        <ele>1478.6450195312</ele>
        <time>2011-04-16T07:42:25Z</time>
      </trkpt>
      <trkpt lat="45.70423" lon="6.22671">
        <ele>1479.6062011719</ele>
        <time>2011-04-16T07:42:33Z</time>
      </trkpt>
      <trkpt lat="45.70421" lon="6.2267">
        <ele>1480.0869140625</ele>
        <time>2011-04-16T07:42:50Z</time>
      </trkpt>
      <trkpt lat="45.70415" lon="6.2267">
        <ele>1481.5288085938</ele>
        <time>2011-04-16T07:42:59Z</time>
      </trkpt>
      <trkpt lat="45.70411" lon="6.22669">
        <ele>1482.490234375</ele>
        <time>2011-04-16T07:43:08Z</time>
      </trkpt>
      <trkpt lat="45.70407" lon="6.22667">
        <ele>1483.9321289062</ele>
        <time>2011-04-16T07:43:15Z</time>
      </trkpt>
      <trkpt lat="45.70403" lon="6.22667">
        <ele>1484.4130859375</ele>
        <time>2011-04-16T07:43:22Z</time>
      </trkpt>
      <trkpt lat="45.70398" lon="6.22667">
        <ele>1486.3356933594</ele>
        <time>2011-04-16T07:43:30Z</time>
      </trkpt>
      <trkpt lat="45.70392" lon="6.22666">
        <ele>1488.2583007812</ele>
        <time>2011-04-16T07:43:38Z</time>
      </trkpt>
      <trkpt lat="45.70387" lon="6.22664">
        <ele>1488.7390136719</ele>
        <time>2011-04-16T07:43:46Z</time>
      </trkpt>
      <trkpt lat="45.70384" lon="6.22663">
        <ele>1488.7390136719</ele>
        <time>2011-04-16T07:43:53Z</time>
      </trkpt>
      <trkpt lat="45.70382" lon="6.22662">
        <ele>1489.2194824219</ele>
        <time>2011-04-16T07:43:59Z</time>
      </trkpt>
      <trkpt lat="45.7038" lon="6.22661">
        <ele>1489.2194824219</ele>
        <time>2011-04-16T07:44:05Z</time>
      </trkpt>
      <trkpt lat="45.70374" lon="6.22657">
        <ele>1489.7001953125</ele>
        <time>2011-04-16T07:44:14Z</time>
      </trkpt>
      <trkpt lat="45.70372" lon="6.22657">
        <ele>1490.1809082031</ele>
        <time>2011-04-16T07:44:19Z</time>
      </trkpt>
      <trkpt lat="45.70373" lon="6.22655">
        <ele>1489.7001953125</ele>
        <time>2011-04-16T07:44:37Z</time>
      </trkpt>
      <trkpt lat="45.70373" lon="6.22655">
        <ele>1489.2194824219</ele>
        <time>2011-04-16T07:44:45Z</time>
      </trkpt>
      <trkpt lat="45.70373" lon="6.22655">
        <ele>1488.7390136719</ele>
        <time>2011-04-16T07:44:49Z</time>
      </trkpt>
      <trkpt lat="45.70373" lon="6.22655">
        <ele>1487.7775878906</ele>
        <time>2011-04-16T07:44:55Z</time>
      </trkpt>
      <trkpt lat="45.70373" lon="6.22655">
        <ele>1487.7775878906</ele>
        <time>2011-04-16T07:45:00Z</time>
      </trkpt>
      <trkpt lat="45.70373" lon="6.22654">
        <ele>1487.7775878906</ele>
        <time>2011-04-16T07:45:10Z</time>
      </trkpt>
      <trkpt lat="45.70372" lon="6.22654">
        <ele>1487.7775878906</ele>
        <time>2011-04-16T07:45:14Z</time>
      </trkpt>
      <trkpt lat="45.70372" lon="6.22654">
        <ele>1487.7775878906</ele>
        <time>2011-04-16T07:45:22Z</time>
      </trkpt>
      <trkpt lat="45.70372" lon="6.22655">
        <ele>1487.7775878906</ele>
        <time>2011-04-16T07:45:27Z</time>
      </trkpt>
      <trkpt lat="45.70372" lon="6.22655">
        <ele>1488.2583007812</ele>
        <time>2011-04-16T07:45:45Z</time>
      </trkpt>
      <trkpt lat="45.70372" lon="6.22655">
        <ele>1489.2194824219</ele>
        <time>2011-04-16T07:45:54Z</time>
      </trkpt>
      <trkpt lat="45.70371" lon="6.22654">
        <ele>1489.7001953125</ele>
        <time>2011-04-16T07:46:00Z</time>
      </trkpt>
      <trkpt lat="45.70371" lon="6.22653">
        <ele>1490.1809082031</ele>
        <time>2011-04-16T07:46:07Z</time>
      </trkpt>
      <trkpt lat="45.7037" lon="6.22653">
        <ele>1491.1420898438</ele>
        <time>2011-04-16T07:46:50Z</time>
      </trkpt>
      <trkpt lat="45.7037" lon="6.22652">
        <ele>1493.0646972656</ele>
        <time>2011-04-16T07:47:15Z</time>
      </trkpt>
      <trkpt lat="45.70371" lon="6.22652">
        <ele>1493.0646972656</ele>
        <time>2011-04-16T07:47:18Z</time>
      </trkpt>
      <trkpt lat="45.7037" lon="6.22652">
        <ele>1492.5842285156</ele>
        <time>2011-04-16T07:47:24Z</time>
      </trkpt>
      <trkpt lat="45.7037" lon="6.22651">
        <ele>1493.5454101562</ele>
        <time>2011-04-16T07:47:31Z</time>
      </trkpt>
      <trkpt lat="45.70372" lon="6.2265">
        <ele>1495.9487304688</ele>
        <time>2011-04-16T07:47:48Z</time>
      </trkpt>
      <trkpt lat="45.70372" lon="6.22652">
        <ele>1494.5065917969</ele>
        <time>2011-04-16T07:48:27Z</time>
      </trkpt>
      <trkpt lat="45.7037" lon="6.22647">
        <ele>1495.9487304688</ele>
        <time>2011-04-16T07:48:38Z</time>
      </trkpt>
      <trkpt lat="45.70368" lon="6.22648">
        <ele>1495.4680175781</ele>
        <time>2011-04-16T07:49:07Z</time>
      </trkpt>
      <trkpt lat="45.70369" lon="6.22652">
        <ele>1492.5842285156</ele>
        <time>2011-04-16T07:49:20Z</time>
      </trkpt>
      <trkpt lat="45.7037" lon="6.22653">
        <ele>1492.103515625</ele>
        <time>2011-04-16T07:49:24Z</time>
      </trkpt>
      <trkpt lat="45.70369" lon="6.22652">
        <ele>1490.1809082031</ele>
        <time>2011-04-16T07:49:52Z</time>
      </trkpt>
      <trkpt lat="45.70369" lon="6.22652">
        <ele>1490.1809082031</ele>
        <time>2011-04-16T07:49:55Z</time>
      </trkpt>
      <trkpt lat="45.70369" lon="6.22652">
        <ele>1489.7001953125</ele>
        <time>2011-04-16T07:49:57Z</time>
      </trkpt>
      <trkpt lat="45.70369" lon="6.22652">
        <ele>1489.7001953125</ele>
        <time>2011-04-16T07:49:58Z</time>
      </trkpt>
      <trkpt lat="45.70369" lon="6.22652">
        <ele>1489.2194824219</ele>
        <time>2011-04-16T07:50:00Z</time>
      </trkpt>
      <trkpt lat="45.70369" lon="6.22652">
        <ele>1489.2194824219</ele>
        <time>2011-04-16T07:50:09Z</time>
      </trkpt>
      <trkpt lat="45.70368" lon="6.22651">
        <ele>1489.2194824219</ele>
        <time>2011-04-16T07:50:18Z</time>
      </trkpt>
      <trkpt lat="45.70368" lon="6.2265">
        <ele>1488.7390136719</ele>
        <time>2011-04-16T07:50:25Z</time>
      </trkpt>
      <trkpt lat="45.70366" lon="6.22649">
        <ele>1487.7775878906</ele>
        <time>2011-04-16T07:50:34Z</time>
      </trkpt>
      <trkpt lat="45.70364" lon="6.22647">
        <ele>1488.2583007812</ele>
        <time>2011-04-16T07:50:41Z</time>
      </trkpt>
      <trkpt lat="45.70364" lon="6.22645">
        <ele>1488.7390136719</ele>
        <time>2011-04-16T07:51:09Z</time>
      </trkpt>
      <trkpt lat="45.70363" lon="6.22643">
        <ele>1488.2583007812</ele>
        <time>2011-04-16T07:51:16Z</time>
      </trkpt>
      <trkpt lat="45.70357" lon="6.22638">
        <ele>1489.2194824219</ele>
        <time>2011-04-16T07:51:23Z</time>
      </trkpt>
      <trkpt lat="45.70352" lon="6.22635">
        <ele>1491.1420898438</ele>
        <time>2011-04-16T07:51:30Z</time>
      </trkpt>
      <trkpt lat="45.7035" lon="6.22631">
        <ele>1492.5842285156</ele>
        <time>2011-04-16T07:51:34Z</time>
      </trkpt>
      <trkpt lat="45.70349" lon="6.22627">
        <ele>1493.5454101562</ele>
        <time>2011-04-16T07:51:37Z</time>
      </trkpt>
      <trkpt lat="45.70346" lon="6.22619">
        <ele>1495.4680175781</ele>
        <time>2011-04-16T07:51:45Z</time>
      </trkpt>
      <trkpt lat="45.70345" lon="6.22618">
        <ele>1495.9487304688</ele>
        <time>2011-04-16T07:51:50Z</time>
      </trkpt>
      <trkpt lat="45.70343" lon="6.22613">
        <ele>1496.4294433594</ele>
        <time>2011-04-16T07:51:56Z</time>
      </trkpt>
      <trkpt lat="45.7034" lon="6.22606">
        <ele>1497.8713378906</ele>
        <time>2011-04-16T07:52:03Z</time>
      </trkpt>
      <trkpt lat="45.7034" lon="6.22603">
        <ele>1498.3518066406</ele>
        <time>2011-04-16T07:52:11Z</time>
      </trkpt>
      <trkpt lat="45.70337" lon="6.22598">
        <ele>1499.3132324219</ele>
        <time>2011-04-16T07:52:18Z</time>
      </trkpt>
      <trkpt lat="45.70332" lon="6.22591">
        <ele>1501.2360839844</ele>
        <time>2011-04-16T07:52:27Z</time>
      </trkpt>
      <trkpt lat="45.7033" lon="6.22585">
        <ele>1502.197265625</ele>
        <time>2011-04-16T07:52:35Z</time>
      </trkpt>
      <trkpt lat="45.70328" lon="6.22583">
        <ele>1502.197265625</ele>
        <time>2011-04-16T07:52:41Z</time>
      </trkpt>
      <trkpt lat="45.70329" lon="6.22582">
        <ele>1502.197265625</ele>
        <time>2011-04-16T07:52:49Z</time>
      </trkpt>
      <trkpt lat="45.70329" lon="6.22582">
        <ele>1502.197265625</ele>
        <time>2011-04-16T07:53:06Z</time>
      </trkpt>
      <trkpt lat="45.70328" lon="6.22582">
        <ele>1502.197265625</ele>
        <time>2011-04-16T07:53:11Z</time>
      </trkpt>
      <trkpt lat="45.70328" lon="6.22583">
        <ele>1501.716796875</ele>
        <time>2011-04-16T07:53:18Z</time>
      </trkpt>
      <trkpt lat="45.70328" lon="6.22583">
        <ele>1502.197265625</ele>
        <time>2011-04-16T07:53:22Z</time>
      </trkpt>
      <trkpt lat="45.70326" lon="6.22579">
        <ele>1501.2360839844</ele>
        <time>2011-04-16T07:53:39Z</time>
      </trkpt>
      <trkpt lat="45.70323" lon="6.22574">
        <ele>1500.7553710938</ele>
        <time>2011-04-16T07:53:44Z</time>
      </trkpt>
      <trkpt lat="45.70322" lon="6.22572">
        <ele>1500.2749023438</ele>
        <time>2011-04-16T07:53:46Z</time>
      </trkpt>
      <trkpt lat="45.70317" lon="6.22569">
        <ele>1499.7939453125</ele>
        <time>2011-04-16T07:53:54Z</time>
      </trkpt>
      <trkpt lat="45.70313" lon="6.22566">
        <ele>1500.7553710938</ele>
        <time>2011-04-16T07:53:59Z</time>
      </trkpt>
      <trkpt lat="45.70309" lon="6.2256">
        <ele>1502.6779785156</ele>
        <time>2011-04-16T07:54:05Z</time>
      </trkpt>
      <trkpt lat="45.70305" lon="6.22555">
        <ele>1505.0812988281</ele>
        <time>2011-04-16T07:54:12Z</time>
      </trkpt>
      <trkpt lat="45.70301" lon="6.2255">
        <ele>1507.9653320312</ele>
        <time>2011-04-16T07:54:19Z</time>
      </trkpt>
      <trkpt lat="45.70298" lon="6.22548">
        <ele>1509.4072265625</ele>
        <time>2011-04-16T07:54:23Z</time>
      </trkpt>
      <trkpt lat="45.70296" lon="6.22546">
        <ele>1510.8491210938</ele>
        <time>2011-04-16T07:54:29Z</time>
      </trkpt>
      <trkpt lat="45.70294" lon="6.22543">
        <ele>1510.8491210938</ele>
        <time>2011-04-16T07:54:40Z</time>
      </trkpt>
      <trkpt lat="45.70291" lon="6.22539">
        <ele>1511.3298339844</ele>
        <time>2011-04-16T07:54:47Z</time>
      </trkpt>
      <trkpt lat="45.70289" lon="6.22538">
        <ele>1512.291015625</ele>
        <time>2011-04-16T07:54:58Z</time>
      </trkpt>
      <trkpt lat="45.70289" lon="6.22541">
        <ele>1514.2136230469</ele>
        <time>2011-04-16T07:55:10Z</time>
      </trkpt>
      <trkpt lat="45.70289" lon="6.22538">
        <ele>1517.0979003906</ele>
        <time>2011-04-16T07:55:17Z</time>
      </trkpt>
      <trkpt lat="45.70289" lon="6.22537">
        <ele>1518.0590820312</ele>
        <time>2011-04-16T07:55:22Z</time>
      </trkpt>
      <trkpt lat="45.70288" lon="6.22537">
        <ele>1518.0590820312</ele>
        <time>2011-04-16T07:55:26Z</time>
      </trkpt>
      <trkpt lat="45.70289" lon="6.22541">
        <ele>1513.7329101562</ele>
        <time>2011-04-16T07:55:33Z</time>
      </trkpt>
      <trkpt lat="45.70289" lon="6.22541">
        <ele>1513.7329101562</ele>
        <time>2011-04-16T07:55:36Z</time>
      </trkpt>
      <trkpt lat="45.70289" lon="6.22541">
        <ele>1512.7717285156</ele>
        <time>2011-04-16T07:55:44Z</time>
      </trkpt>
      <trkpt lat="45.70289" lon="6.22546">
        <ele>1509.8876953125</ele>
        <time>2011-04-16T07:55:58Z</time>
      </trkpt>
      <trkpt lat="45.7029" lon="6.22552">
        <ele>1508.4458007812</ele>
        <time>2011-04-16T07:56:04Z</time>
      </trkpt>
      <trkpt lat="45.70292" lon="6.22559">
        <ele>1509.4072265625</ele>
        <time>2011-04-16T07:56:10Z</time>
      </trkpt>
      <trkpt lat="45.70293" lon="6.22566">
        <ele>1508.4458007812</ele>
        <time>2011-04-16T07:56:17Z</time>
      </trkpt>
      <trkpt lat="45.70296" lon="6.22571">
        <ele>1509.8876953125</ele>
        <time>2011-04-16T07:56:22Z</time>
      </trkpt>
      <trkpt lat="45.70298" lon="6.22579">
        <ele>1511.810546875</ele>
        <time>2011-04-16T07:56:30Z</time>
      </trkpt>
      <trkpt lat="45.70302" lon="6.22591">
        <ele>1514.6943359375</ele>
        <time>2011-04-16T07:56:41Z</time>
      </trkpt>
      <trkpt lat="45.70302" lon="6.22592">
        <ele>1512.291015625</ele>
        <time>2011-04-16T07:56:50Z</time>
      </trkpt>
      <trkpt lat="45.70301" lon="6.22601">
        <ele>1510.8491210938</ele>
        <time>2011-04-16T07:56:57Z</time>
      </trkpt>
      <trkpt lat="45.703" lon="6.22605">
        <ele>1511.3298339844</ele>
        <time>2011-04-16T07:57:03Z</time>
      </trkpt>
      <trkpt lat="45.70301" lon="6.22605">
        <ele>1512.291015625</ele>
        <time>2011-04-16T07:57:09Z</time>
      </trkpt>
      <trkpt lat="45.70301" lon="6.22611">
        <ele>1512.291015625</ele>
        <time>2011-04-16T07:57:17Z</time>
      </trkpt>
      <trkpt lat="45.70304" lon="6.22618">
        <ele>1512.291015625</ele>
        <time>2011-04-16T07:57:25Z</time>
      </trkpt>
      <trkpt lat="45.70302" lon="6.22625">
        <ele>1515.6557617188</ele>
        <time>2011-04-16T07:57:47Z</time>
      </trkpt>
      <trkpt lat="45.70302" lon="6.22625">
        <ele>1516.1364746094</ele>
        <time>2011-04-16T07:57:51Z</time>
      </trkpt>
      <trkpt lat="45.70302" lon="6.22625">
        <ele>1516.1364746094</ele>
        <time>2011-04-16T07:57:53Z</time>
      </trkpt>
      <trkpt lat="45.70302" lon="6.22625">
        <ele>1516.1364746094</ele>
        <time>2011-04-16T07:57:54Z</time>
      </trkpt>
      <trkpt lat="45.703" lon="6.22625">
        <ele>1519.9816894531</ele>
        <time>2011-04-16T07:58:25Z</time>
      </trkpt>
      <trkpt lat="45.70299" lon="6.22623">
        <ele>1524.7883300781</ele>
        <time>2011-04-16T07:58:28Z</time>
      </trkpt>
      <trkpt lat="45.703" lon="6.22621">
        <ele>1533.4401855469</ele>
        <time>2011-04-16T07:58:41Z</time>
      </trkpt>
      <trkpt lat="45.703" lon="6.22621">
        <ele>1533.9208984375</ele>
        <time>2011-04-16T07:58:59Z</time>
      </trkpt>
      <trkpt lat="45.70301" lon="6.22618">
        <ele>1534.4016113281</ele>
        <time>2011-04-16T07:59:03Z</time>
      </trkpt>
      <trkpt lat="45.70302" lon="6.22618">
        <ele>1531.998046875</ele>
        <time>2011-04-16T07:59:11Z</time>
      </trkpt>
      <trkpt lat="45.70306" lon="6.22618">
        <ele>1528.1528320312</ele>
        <time>2011-04-16T07:59:27Z</time>
      </trkpt>
      <trkpt lat="45.70307" lon="6.22619">
        <ele>1526.2302246094</ele>
        <time>2011-04-16T07:59:31Z</time>
      </trkpt>
      <trkpt lat="45.7031" lon="6.22623">
        <ele>1523.8269042969</ele>
        <time>2011-04-16T07:59:37Z</time>
      </trkpt>
      <trkpt lat="45.70313" lon="6.2263">
        <ele>1521.4235839844</ele>
        <time>2011-04-16T07:59:45Z</time>
      </trkpt>
      <trkpt lat="45.70316" lon="6.22639">
        <ele>1519.5012207031</ele>
        <time>2011-04-16T07:59:52Z</time>
      </trkpt>
      <trkpt lat="45.70317" lon="6.22648">
        <ele>1519.5012207031</ele>
        <time>2011-04-16T07:59:59Z</time>
      </trkpt>
      <trkpt lat="45.70319" lon="6.22651">
        <ele>1519.5012207031</ele>
        <time>2011-04-16T08:00:03Z</time>
      </trkpt>
      <trkpt lat="45.70321" lon="6.22653">
        <ele>1519.9816894531</ele>
        <time>2011-04-16T08:00:06Z</time>
      </trkpt>
      <trkpt lat="45.70321" lon="6.22653">
        <ele>1519.9816894531</ele>
        <time>2011-04-16T08:00:09Z</time>
      </trkpt>
      <trkpt lat="45.70321" lon="6.22653">
        <ele>1519.9816894531</ele>
        <time>2011-04-16T08:00:12Z</time>
      </trkpt>
      <trkpt lat="45.70323" lon="6.22658">
        <ele>1522.8657226562</ele>
        <time>2011-04-16T08:00:21Z</time>
      </trkpt>
      <trkpt lat="45.70321" lon="6.22658">
        <ele>1521.904296875</ele>
        <time>2011-04-16T08:00:26Z</time>
      </trkpt>
      <trkpt lat="45.70319" lon="6.22659">
        <ele>1520.4624023438</ele>
        <time>2011-04-16T08:00:30Z</time>
      </trkpt>
      <trkpt lat="45.7032" lon="6.22665">
        <ele>1519.9816894531</ele>
        <time>2011-04-16T08:00:40Z</time>
      </trkpt>
      <trkpt lat="45.70322" lon="6.2267">
        <ele>1521.4235839844</ele>
        <time>2011-04-16T08:00:51Z</time>
      </trkpt>
      <trkpt lat="45.70326" lon="6.2267">
        <ele>1525.7495117188</ele>
        <time>2011-04-16T08:00:58Z</time>
      </trkpt>
      <trkpt lat="45.70326" lon="6.22673">
        <ele>1529.1140136719</ele>
        <time>2011-04-16T08:01:05Z</time>
      </trkpt>
      <trkpt lat="45.70324" lon="6.22676">
        <ele>1536.32421875</ele>
        <time>2011-04-16T08:01:21Z</time>
      </trkpt>
      <trkpt lat="45.7033" lon="6.22688">
        <ele>1537.2854003906</ele>
        <time>2011-04-16T08:01:46Z</time>
      </trkpt>
      <trkpt lat="45.70328" lon="6.22692">
        <ele>1533.9208984375</ele>
        <time>2011-04-16T08:01:56Z</time>
      </trkpt>
      <trkpt lat="45.70327" lon="6.22689">
        <ele>1536.8046875</ele>
        <time>2011-04-16T08:02:05Z</time>
      </trkpt>
      <trkpt lat="45.70328" lon="6.22687">
        <ele>1541.611328125</ele>
        <time>2011-04-16T08:02:14Z</time>
      </trkpt>
      <trkpt lat="45.70333" lon="6.22691">
        <ele>1545.9372558594</ele>
        <time>2011-04-16T08:02:24Z</time>
      </trkpt>
      <trkpt lat="45.70333" lon="6.22693">
        <ele>1545.4565429688</ele>
        <time>2011-04-16T08:02:32Z</time>
      </trkpt>
      <trkpt lat="45.70332" lon="6.22696">
        <ele>1539.6887207031</ele>
        <time>2011-04-16T08:02:41Z</time>
      </trkpt>
      <trkpt lat="45.70335" lon="6.227">
        <ele>1538.2468261719</ele>
        <time>2011-04-16T08:02:49Z</time>
      </trkpt>
      <trkpt lat="45.70335" lon="6.22703">
        <ele>1539.2080078125</ele>
        <time>2011-04-16T08:02:56Z</time>
      </trkpt>
      <trkpt lat="45.70336" lon="6.22708">
        <ele>1540.6499023438</ele>
        <time>2011-04-16T08:03:03Z</time>
      </trkpt>
      <trkpt lat="45.70337" lon="6.22713">
        <ele>1536.8046875</ele>
        <time>2011-04-16T08:03:09Z</time>
      </trkpt>
      <trkpt lat="45.70337" lon="6.22718">
        <ele>1535.3627929688</ele>
        <time>2011-04-16T08:03:14Z</time>
      </trkpt>
      <trkpt lat="45.7034" lon="6.22722">
        <ele>1537.7661132812</ele>
        <time>2011-04-16T08:03:20Z</time>
      </trkpt>
      <trkpt lat="45.70345" lon="6.22726">
        <ele>1541.1306152344</ele>
        <time>2011-04-16T08:03:28Z</time>
      </trkpt>
      <trkpt lat="45.70346" lon="6.22729">
        <ele>1543.0532226562</ele>
        <time>2011-04-16T08:03:34Z</time>
      </trkpt>
      <trkpt lat="45.7035" lon="6.22734">
        <ele>1544.0146484375</ele>
        <time>2011-04-16T08:03:40Z</time>
      </trkpt>
      <trkpt lat="45.70353" lon="6.22743">
        <ele>1545.4565429688</ele>
        <time>2011-04-16T08:03:47Z</time>
      </trkpt>
      <trkpt lat="45.7036" lon="6.2275">
        <ele>1545.9372558594</ele>
        <time>2011-04-16T08:03:54Z</time>
      </trkpt>
      <trkpt lat="45.70363" lon="6.22749">
        <ele>1547.3791503906</ele>
        <time>2011-04-16T08:04:00Z</time>
      </trkpt>
      <trkpt lat="45.70366" lon="6.22753">
        <ele>1545.4565429688</ele>
        <time>2011-04-16T08:04:05Z</time>
      </trkpt>
      <trkpt lat="45.70372" lon="6.22757">
        <ele>1547.8598632812</ele>
        <time>2011-04-16T08:04:10Z</time>
      </trkpt>
      <trkpt lat="45.70377" lon="6.22763">
        <ele>1547.8598632812</ele>
        <time>2011-04-16T08:04:15Z</time>
      </trkpt>
      <trkpt lat="45.7038" lon="6.22763">
        <ele>1550.7438964844</ele>
        <time>2011-04-16T08:04:23Z</time>
      </trkpt>
      <trkpt lat="45.7038" lon="6.22763">
        <ele>1551.224609375</ele>
        <time>2011-04-16T08:04:30Z</time>
      </trkpt>
      <trkpt lat="45.70381" lon="6.22762">
        <ele>1549.3020019531</ele>
        <time>2011-04-16T08:04:36Z</time>
      </trkpt>
      <trkpt lat="45.7038" lon="6.22765">
        <ele>1549.7827148438</ele>
        <time>2011-04-16T08:04:42Z</time>
      </trkpt>
      <trkpt lat="45.70381" lon="6.22774">
        <ele>1545.4565429688</ele>
        <time>2011-04-16T08:04:50Z</time>
      </trkpt>
      <trkpt lat="45.70381" lon="6.22781">
        <ele>1541.611328125</ele>
        <time>2011-04-16T08:04:56Z</time>
      </trkpt>
      <trkpt lat="45.70381" lon="6.22794">
        <ele>1537.7661132812</ele>
        <time>2011-04-16T08:05:04Z</time>
      </trkpt>
      <trkpt lat="45.7038" lon="6.22806">
        <ele>1537.7661132812</ele>
        <time>2011-04-16T08:05:12Z</time>
      </trkpt>
      <trkpt lat="45.70381" lon="6.22809">
        <ele>1540.1694335938</ele>
        <time>2011-04-16T08:05:18Z</time>
      </trkpt>
      <trkpt lat="45.70381" lon="6.2281">
        <ele>1542.5727539062</ele>
        <time>2011-04-16T08:05:24Z</time>
      </trkpt>
      <trkpt lat="45.70382" lon="6.22811">
        <ele>1542.5727539062</ele>
        <time>2011-04-16T08:05:36Z</time>
      </trkpt>
      <trkpt lat="45.70383" lon="6.2281">
        <ele>1540.6499023438</ele>
        <time>2011-04-16T08:05:40Z</time>
      </trkpt>
      <trkpt lat="45.70385" lon="6.22812">
        <ele>1537.7661132812</ele>
        <time>2011-04-16T08:05:50Z</time>
      </trkpt>
      <trkpt lat="45.70388" lon="6.22819">
        <ele>1535.3627929688</ele>
        <time>2011-04-16T08:06:00Z</time>
      </trkpt>
      <trkpt lat="45.70391" lon="6.22834">
        <ele>1535.8435058594</ele>
        <time>2011-04-16T08:06:08Z</time>
      </trkpt>
      <trkpt lat="45.70392" lon="6.22837">
        <ele>1536.32421875</ele>
        <time>2011-04-16T08:06:14Z</time>
      </trkpt>
      <trkpt lat="45.70391" lon="6.22836">
        <ele>1535.3627929688</ele>
        <time>2011-04-16T08:06:22Z</time>
      </trkpt>
      <trkpt lat="45.7039" lon="6.22837">
        <ele>1537.7661132812</ele>
        <time>2011-04-16T08:06:36Z</time>
      </trkpt>
      <trkpt lat="45.7039" lon="6.22835">
        <ele>1536.32421875</ele>
        <time>2011-04-16T08:06:50Z</time>
      </trkpt>
      <trkpt lat="45.7039" lon="6.22835">
        <ele>1533.4401855469</ele>
        <time>2011-04-16T08:06:56Z</time>
      </trkpt>
      <trkpt lat="45.7039" lon="6.22836">
        <ele>1532.4790039062</ele>
        <time>2011-04-16T08:06:59Z</time>
      </trkpt>
      <trkpt lat="45.70394" lon="6.22853">
        <ele>1533.9208984375</ele>
        <time>2011-04-16T08:07:09Z</time>
      </trkpt>
      <trkpt lat="45.70396" lon="6.22863">
        <ele>1537.2854003906</ele>
        <time>2011-04-16T08:07:17Z</time>
      </trkpt>
      <trkpt lat="45.70401" lon="6.22868">
        <ele>1538.7275390625</ele>
        <time>2011-04-16T08:07:24Z</time>
      </trkpt>
      <trkpt lat="45.70402" lon="6.22871">
        <ele>1538.2468261719</ele>
        <time>2011-04-16T08:07:27Z</time>
      </trkpt>
      <trkpt lat="45.70406" lon="6.22872">
        <ele>1540.1694335938</ele>
        <time>2011-04-16T08:07:34Z</time>
      </trkpt>
      <trkpt lat="45.70411" lon="6.22877">
        <ele>1541.1306152344</ele>
        <time>2011-04-16T08:07:40Z</time>
      </trkpt>
      <trkpt lat="45.70415" lon="6.22882">
        <ele>1542.0920410156</ele>
        <time>2011-04-16T08:07:45Z</time>
      </trkpt>
      <trkpt lat="45.7042" lon="6.22886">
        <ele>1544.0146484375</ele>
        <time>2011-04-16T08:07:51Z</time>
      </trkpt>
      <trkpt lat="45.70424" lon="6.22888">
        <ele>1545.9372558594</ele>
        <time>2011-04-16T08:07:56Z</time>
      </trkpt>
      <trkpt lat="45.70432" lon="6.2289">
        <ele>1549.7827148438</ele>
        <time>2011-04-16T08:08:05Z</time>
      </trkpt>
      <trkpt lat="45.70439" lon="6.2289">
        <ele>1554.5891113281</ele>
        <time>2011-04-16T08:08:14Z</time>
      </trkpt>
      <trkpt lat="45.70439" lon="6.2289">
        <ele>1555.5505371094</ele>
        <time>2011-04-16T08:08:22Z</time>
      </trkpt>
      <trkpt lat="45.7044" lon="6.22892">
        <ele>1553.1472167969</ele>
        <time>2011-04-16T08:08:42Z</time>
      </trkpt>
      <trkpt lat="45.7044" lon="6.22892">
        <ele>1552.6665039062</ele>
        <time>2011-04-16T08:08:44Z</time>
      </trkpt>
      <trkpt lat="45.70441" lon="6.22891">
        <ele>1551.224609375</ele>
        <time>2011-04-16T08:08:54Z</time>
      </trkpt>
      <trkpt lat="45.70439" lon="6.22889">
        <ele>1550.2634277344</ele>
        <time>2011-04-16T08:09:10Z</time>
      </trkpt>
      <trkpt lat="45.70438" lon="6.22889">
        <ele>1550.7438964844</ele>
        <time>2011-04-16T08:09:11Z</time>
      </trkpt>
      <trkpt lat="45.70437" lon="6.22887">
        <ele>1552.1857910156</ele>
        <time>2011-04-16T08:09:20Z</time>
      </trkpt>
      <trkpt lat="45.70437" lon="6.22887">
        <ele>1552.1857910156</ele>
        <time>2011-04-16T08:09:27Z</time>
      </trkpt>
      <trkpt lat="45.70437" lon="6.22887">
        <ele>1553.1472167969</ele>
        <time>2011-04-16T08:09:28Z</time>
      </trkpt>
      <trkpt lat="45.7044" lon="6.22889">
        <ele>1555.5505371094</ele>
        <time>2011-04-16T08:09:40Z</time>
      </trkpt>
      <trkpt lat="45.7044" lon="6.22889">
        <ele>1558.9150390625</ele>
        <time>2011-04-16T08:09:54Z</time>
      </trkpt>
      <trkpt lat="45.70442" lon="6.2289">
        <ele>1558.9150390625</ele>
        <time>2011-04-16T08:09:59Z</time>
      </trkpt>
      <trkpt lat="45.70442" lon="6.22891">
        <ele>1559.8762207031</ele>
        <time>2011-04-16T08:10:08Z</time>
      </trkpt>
      <trkpt lat="45.7044" lon="6.22889">
        <ele>1562.2795410156</ele>
        <time>2011-04-16T08:10:14Z</time>
      </trkpt>
      <trkpt lat="45.70438" lon="6.22888">
        <ele>1564.6831054688</ele>
        <time>2011-04-16T08:10:27Z</time>
      </trkpt>
      <trkpt lat="45.70438" lon="6.22887">
        <ele>1566.125</ele>
        <time>2011-04-16T08:10:39Z</time>
      </trkpt>
      <trkpt lat="45.70441" lon="6.22889">
        <ele>1569.4897460938</ele>
        <time>2011-04-16T08:11:02Z</time>
      </trkpt>
      <trkpt lat="45.7044" lon="6.2289">
        <ele>1570.4509277344</ele>
        <time>2011-04-16T08:11:09Z</time>
      </trkpt>
      <trkpt lat="45.70441" lon="6.22893">
        <ele>1565.1638183594</ele>
        <time>2011-04-16T08:11:34Z</time>
      </trkpt>
      <trkpt lat="45.70446" lon="6.22898">
        <ele>1566.6057128906</ele>
        <time>2011-04-16T08:11:41Z</time>
      </trkpt>
      <trkpt lat="45.7045" lon="6.22902">
        <ele>1568.0476074219</ele>
        <time>2011-04-16T08:11:47Z</time>
      </trkpt>
      <trkpt lat="45.70453" lon="6.22904">
        <ele>1569.0090332031</ele>
        <time>2011-04-16T08:11:51Z</time>
      </trkpt>
      <trkpt lat="45.70455" lon="6.22905">
        <ele>1569.0090332031</ele>
        <time>2011-04-16T08:11:54Z</time>
      </trkpt>
      <trkpt lat="45.70456" lon="6.22906">
        <ele>1569.0090332031</ele>
        <time>2011-04-16T08:11:55Z</time>
      </trkpt>
      <trkpt lat="45.70457" lon="6.2291">
        <ele>1570.4509277344</ele>
        <time>2011-04-16T08:11:59Z</time>
      </trkpt>
      <trkpt lat="45.70456" lon="6.22913">
        <ele>1571.8928222656</ele>
        <time>2011-04-16T08:12:02Z</time>
      </trkpt>
      <trkpt lat="45.70453" lon="6.22918">
        <ele>1573.8154296875</ele>
        <time>2011-04-16T08:12:09Z</time>
      </trkpt>
      <trkpt lat="45.7045" lon="6.22925">
        <ele>1576.21875</ele>
        <time>2011-04-16T08:12:28Z</time>
      </trkpt>
      <trkpt lat="45.70446" lon="6.2293">
        <ele>1579.5832519531</ele>
        <time>2011-04-16T08:12:36Z</time>
      </trkpt>
      <trkpt lat="45.70445" lon="6.22935">
        <ele>1579.1025390625</ele>
        <time>2011-04-16T08:12:42Z</time>
      </trkpt>
      <trkpt lat="45.70445" lon="6.22939">
        <ele>1579.5832519531</ele>
        <time>2011-04-16T08:12:48Z</time>
      </trkpt>
      <trkpt lat="45.70444" lon="6.22941">
        <ele>1581.9868164062</ele>
        <time>2011-04-16T08:12:53Z</time>
      </trkpt>
      <trkpt lat="45.70443" lon="6.22945">
        <ele>1585.83203125</ele>
        <time>2011-04-16T08:12:59Z</time>
      </trkpt>
      <trkpt lat="45.70439" lon="6.22949">
        <ele>1583.9094238281</ele>
        <time>2011-04-16T08:13:06Z</time>
      </trkpt>
      <trkpt lat="45.70435" lon="6.22949">
        <ele>1582.9479980469</ele>
        <time>2011-04-16T08:13:13Z</time>
      </trkpt>
      <trkpt lat="45.70429" lon="6.22954">
        <ele>1583.9094238281</ele>
        <time>2011-04-16T08:13:21Z</time>
      </trkpt>
      <trkpt lat="45.70424" lon="6.22958">
        <ele>1583.9094238281</ele>
        <time>2011-04-16T08:13:29Z</time>
      </trkpt>
      <trkpt lat="45.70419" lon="6.22962">
        <ele>1584.8708496094</ele>
        <time>2011-04-16T08:13:36Z</time>
      </trkpt>
      <trkpt lat="45.70416" lon="6.22965">
        <ele>1586.7932128906</ele>
        <time>2011-04-16T08:13:43Z</time>
      </trkpt>
      <trkpt lat="45.70413" lon="6.22967">
        <ele>1593.5224609375</ele>
        <time>2011-04-16T08:13:51Z</time>
      </trkpt>
      <trkpt lat="45.70406" lon="6.22969">
        <ele>1597.8486328125</ele>
        <time>2011-04-16T08:13:58Z</time>
      </trkpt>
      <trkpt lat="45.70404" lon="6.22971">
        <ele>1597.3679199219</ele>
        <time>2011-04-16T08:14:03Z</time>
      </trkpt>
      <trkpt lat="45.70404" lon="6.22976">
        <ele>1591.5998535156</ele>
        <time>2011-04-16T08:14:14Z</time>
      </trkpt>
      <trkpt lat="45.704" lon="6.22981">
        <ele>1591.119140625</ele>
        <time>2011-04-16T08:14:21Z</time>
      </trkpt>
      <trkpt lat="45.70395" lon="6.22984">
        <ele>1595.4450683594</ele>
        <time>2011-04-16T08:14:28Z</time>
      </trkpt>
      <trkpt lat="45.70387" lon="6.22987">
        <ele>1598.3291015625</ele>
        <time>2011-04-16T08:14:36Z</time>
      </trkpt>
      <trkpt lat="45.70382" lon="6.22992">
        <ele>1599.7712402344</ele>
        <time>2011-04-16T08:14:44Z</time>
      </trkpt>
      <trkpt lat="45.70377" lon="6.22995">
        <ele>1603.6164550781</ele>
        <time>2011-04-16T08:14:51Z</time>
      </trkpt>
      <trkpt lat="45.70372" lon="6.22998">
        <ele>1606.5002441406</ele>
        <time>2011-04-16T08:14:58Z</time>
      </trkpt>
      <trkpt lat="45.70366" lon="6.23">
        <ele>1611.3068847656</ele>
        <time>2011-04-16T08:15:08Z</time>
      </trkpt>
      <trkpt lat="45.70361" lon="6.23003">
        <ele>1611.3068847656</ele>
        <time>2011-04-16T08:15:15Z</time>
      </trkpt>
      <trkpt lat="45.70357" lon="6.23008">
        <ele>1611.7875976562</ele>
        <time>2011-04-16T08:15:22Z</time>
      </trkpt>
      <trkpt lat="45.70354" lon="6.23011">
        <ele>1610.3454589844</ele>
        <time>2011-04-16T08:15:28Z</time>
      </trkpt>
      <trkpt lat="45.70353" lon="6.23016">
        <ele>1607.9423828125</ele>
        <time>2011-04-16T08:15:51Z</time>
      </trkpt>
      <trkpt lat="45.70352" lon="6.23016">
        <ele>1606.9809570312</ele>
        <time>2011-04-16T08:15:57Z</time>
      </trkpt>
      <trkpt lat="45.7035" lon="6.23016">
        <ele>1606.9809570312</ele>
        <time>2011-04-16T08:16:05Z</time>
      </trkpt>
      <trkpt lat="45.70348" lon="6.23016">
        <ele>1608.4228515625</ele>
        <time>2011-04-16T08:16:09Z</time>
      </trkpt>
      <trkpt lat="45.70345" lon="6.23022">
        <ele>1606.5002441406</ele>
        <time>2011-04-16T08:16:17Z</time>
      </trkpt>
      <trkpt lat="45.70339" lon="6.23026">
        <ele>1606.9809570312</ele>
        <time>2011-04-16T08:16:25Z</time>
      </trkpt>
      <trkpt lat="45.70332" lon="6.23027">
        <ele>1606.9809570312</ele>
        <time>2011-04-16T08:16:34Z</time>
      </trkpt>
      <trkpt lat="45.70326" lon="6.23028">
        <ele>1606.9809570312</ele>
        <time>2011-04-16T08:16:41Z</time>
      </trkpt>
      <trkpt lat="45.70323" lon="6.23028">
        <ele>1607.9423828125</ele>
        <time>2011-04-16T08:16:46Z</time>
      </trkpt>
      <trkpt lat="45.7032" lon="6.23031">
        <ele>1609.8647460938</ele>
        <time>2011-04-16T08:16:52Z</time>
      </trkpt>
      <trkpt lat="45.70315" lon="6.23032">
        <ele>1614.1909179688</ele>
        <time>2011-04-16T08:17:01Z</time>
      </trkpt>
      <trkpt lat="45.70311" lon="6.23033">
        <ele>1618.5168457031</ele>
        <time>2011-04-16T08:17:07Z</time>
      </trkpt>
      <trkpt lat="45.70305" lon="6.23032">
        <ele>1622.8427734375</ele>
        <time>2011-04-16T08:17:14Z</time>
      </trkpt>
      <trkpt lat="45.70301" lon="6.23031">
        <ele>1623.8039550781</ele>
        <time>2011-04-16T08:17:20Z</time>
      </trkpt>
      <trkpt lat="45.70296" lon="6.2303">
        <ele>1624.2846679688</ele>
        <time>2011-04-16T08:17:27Z</time>
      </trkpt>
      <trkpt lat="45.70293" lon="6.23028">
        <ele>1624.2846679688</ele>
        <time>2011-04-16T08:17:33Z</time>
      </trkpt>
      <trkpt lat="45.70288" lon="6.23027">
        <ele>1623.8039550781</ele>
        <time>2011-04-16T08:17:40Z</time>
      </trkpt>
      <trkpt lat="45.70282" lon="6.23027">
        <ele>1618.5168457031</ele>
        <time>2011-04-16T08:17:48Z</time>
      </trkpt>
      <trkpt lat="45.70279" lon="6.23027">
        <ele>1619.9587402344</ele>
        <time>2011-04-16T08:17:55Z</time>
      </trkpt>
      <trkpt lat="45.70276" lon="6.23028">
        <ele>1618.5168457031</ele>
        <time>2011-04-16T08:18:15Z</time>
      </trkpt>
      <trkpt lat="45.70276" lon="6.23029">
        <ele>1617.0749511719</ele>
        <time>2011-04-16T08:18:21Z</time>
      </trkpt>
      <trkpt lat="45.70274" lon="6.23031">
        <ele>1613.7102050781</ele>
        <time>2011-04-16T08:18:29Z</time>
      </trkpt>
      <trkpt lat="45.70274" lon="6.23031">
        <ele>1613.2297363281</ele>
        <time>2011-04-16T08:18:35Z</time>
      </trkpt>
      <trkpt lat="45.70276" lon="6.23031">
        <ele>1615.6330566406</ele>
        <time>2011-04-16T08:18:39Z</time>
      </trkpt>
      <trkpt lat="45.70277" lon="6.2303">
        <ele>1617.0749511719</ele>
        <time>2011-04-16T08:18:41Z</time>
      </trkpt>
      <trkpt lat="45.70277" lon="6.23032">
        <ele>1615.15234375</ele>
        <time>2011-04-16T08:18:48Z</time>
      </trkpt>
      <trkpt lat="45.70276" lon="6.23034">
        <ele>1612.7490234375</ele>
        <time>2011-04-16T08:19:01Z</time>
      </trkpt>
      <trkpt lat="45.70275" lon="6.23033">
        <ele>1612.2683105469</ele>
        <time>2011-04-16T08:19:14Z</time>
      </trkpt>
      <trkpt lat="45.70274" lon="6.23042">
        <ele>1599.2905273438</ele>
        <time>2011-04-16T08:19:31Z</time>
      </trkpt>
      <trkpt lat="45.70274" lon="6.23043">
        <ele>1597.3679199219</ele>
        <time>2011-04-16T08:19:39Z</time>
      </trkpt>
      <trkpt lat="45.70272" lon="6.23036">
        <ele>1614.6716308594</ele>
        <time>2011-04-16T08:20:00Z</time>
      </trkpt>
      <trkpt lat="45.70268" lon="6.23034">
        <ele>1616.1135253906</ele>
        <time>2011-04-16T08:20:08Z</time>
      </trkpt>
      <trkpt lat="45.70266" lon="6.23034">
        <ele>1615.6330566406</ele>
        <time>2011-04-16T08:20:15Z</time>
      </trkpt>
      <trkpt lat="45.70261" lon="6.23035">
        <ele>1617.5554199219</ele>
        <time>2011-04-16T08:20:31Z</time>
      </trkpt>
      <trkpt lat="45.70261" lon="6.2303">
        <ele>1611.3068847656</ele>
        <time>2011-04-16T08:20:54Z</time>
      </trkpt>
      <trkpt lat="45.70261" lon="6.2303">
        <ele>1609.8647460938</ele>
        <time>2011-04-16T08:20:59Z</time>
      </trkpt>
      <trkpt lat="45.70263" lon="6.2303">
        <ele>1605.5390625</ele>
        <time>2011-04-16T08:21:11Z</time>
      </trkpt>
      <trkpt lat="45.7026" lon="6.23035">
        <ele>1604.5776367188</ele>
        <time>2011-04-16T08:21:36Z</time>
      </trkpt>
      <trkpt lat="45.70259" lon="6.23041">
        <ele>1606.5002441406</ele>
        <time>2011-04-16T08:22:01Z</time>
      </trkpt>
      <trkpt lat="45.70258" lon="6.23038">
        <ele>1607.4616699219</ele>
        <time>2011-04-16T08:22:07Z</time>
      </trkpt>
      <trkpt lat="45.70258" lon="6.23038">
        <ele>1609.3842773438</ele>
        <time>2011-04-16T08:22:17Z</time>
      </trkpt>
      <trkpt lat="45.70257" lon="6.23036">
        <ele>1613.7102050781</ele>
        <time>2011-04-16T08:22:26Z</time>
      </trkpt>
      <trkpt lat="45.70258" lon="6.23034">
        <ele>1615.6330566406</ele>
        <time>2011-04-16T08:22:30Z</time>
      </trkpt>
      <trkpt lat="45.70258" lon="6.23033">
        <ele>1616.5942382812</ele>
        <time>2011-04-16T08:22:32Z</time>
      </trkpt>
      <trkpt lat="45.70258" lon="6.23033">
        <ele>1617.5554199219</ele>
        <time>2011-04-16T08:22:33Z</time>
      </trkpt>
      <trkpt lat="45.70258" lon="6.23032">
        <ele>1620.439453125</ele>
        <time>2011-04-16T08:22:39Z</time>
      </trkpt>
      <trkpt lat="45.70256" lon="6.23031">
        <ele>1621.4006347656</ele>
        <time>2011-04-16T08:22:43Z</time>
      </trkpt>
      <trkpt lat="45.70254" lon="6.2303">
        <ele>1620.439453125</ele>
        <time>2011-04-16T08:22:51Z</time>
      </trkpt>
      <trkpt lat="45.70251" lon="6.2303">
        <ele>1619.9587402344</ele>
        <time>2011-04-16T08:22:58Z</time>
      </trkpt>
      <trkpt lat="45.7025" lon="6.23029">
        <ele>1619.4782714844</ele>
        <time>2011-04-16T08:23:08Z</time>
      </trkpt>
      <trkpt lat="45.70247" lon="6.23029">
        <ele>1619.9587402344</ele>
        <time>2011-04-16T08:23:15Z</time>
      </trkpt>
      <trkpt lat="45.70246" lon="6.23027">
        <ele>1622.8427734375</ele>
        <time>2011-04-16T08:23:23Z</time>
      </trkpt>
      <trkpt lat="45.70243" lon="6.23026">
        <ele>1624.2846679688</ele>
        <time>2011-04-16T08:23:31Z</time>
      </trkpt>
      <trkpt lat="45.70238" lon="6.23027">
        <ele>1625.7265625</ele>
        <time>2011-04-16T08:23:40Z</time>
      </trkpt>
      <trkpt lat="45.70236" lon="6.23027">
        <ele>1625.2458496094</ele>
        <time>2011-04-16T08:23:48Z</time>
      </trkpt>
      <trkpt lat="45.70237" lon="6.23025">
        <ele>1629.5720214844</ele>
        <time>2011-04-16T08:23:55Z</time>
      </trkpt>
      <trkpt lat="45.70238" lon="6.23028">
        <ele>1632.9365234375</ele>
        <time>2011-04-16T08:24:08Z</time>
      </trkpt>
      <trkpt lat="45.70233" lon="6.23027">
        <ele>1630.5334472656</ele>
        <time>2011-04-16T08:24:15Z</time>
      </trkpt>
      <trkpt lat="45.70232" lon="6.23027">
        <ele>1630.052734375</ele>
        <time>2011-04-16T08:24:21Z</time>
      </trkpt>
      <trkpt lat="45.70231" lon="6.23027">
        <ele>1629.5720214844</ele>
        <time>2011-04-16T08:24:29Z</time>
      </trkpt>
      <trkpt lat="45.70228" lon="6.23026">
        <ele>1631.9753417969</ele>
        <time>2011-04-16T08:24:37Z</time>
      </trkpt>
      <trkpt lat="45.70226" lon="6.23024">
        <ele>1635.8205566406</ele>
        <time>2011-04-16T08:24:44Z</time>
      </trkpt>
      <trkpt lat="45.70223" lon="6.23024">
        <ele>1637.2624511719</ele>
        <time>2011-04-16T08:24:53Z</time>
      </trkpt>
      <trkpt lat="45.70222" lon="6.23025">
        <ele>1634.859375</ele>
        <time>2011-04-16T08:25:02Z</time>
      </trkpt>
      <trkpt lat="45.70222" lon="6.23025">
        <ele>1634.3786621094</ele>
        <time>2011-04-16T08:25:06Z</time>
      </trkpt>
      <trkpt lat="45.70221" lon="6.23025">
        <ele>1633.4172363281</ele>
        <time>2011-04-16T08:25:35Z</time>
      </trkpt>
      <trkpt lat="45.70221" lon="6.23026">
        <ele>1632.4560546875</ele>
        <time>2011-04-16T08:25:42Z</time>
      </trkpt>
      <trkpt lat="45.70221" lon="6.23026">
        <ele>1629.0913085938</ele>
        <time>2011-04-16T08:25:59Z</time>
      </trkpt>
      <trkpt lat="45.70221" lon="6.23025">
        <ele>1629.5720214844</ele>
        <time>2011-04-16T08:26:19Z</time>
      </trkpt>
      <trkpt lat="45.70221" lon="6.23025">
        <ele>1628.1301269531</ele>
        <time>2011-04-16T08:26:22Z</time>
      </trkpt>
      <trkpt lat="45.70221" lon="6.23025">
        <ele>1628.1301269531</ele>
        <time>2011-04-16T08:26:24Z</time>
      </trkpt>
      <trkpt lat="45.70221" lon="6.23026">
        <ele>1629.5720214844</ele>
        <time>2011-04-16T08:26:34Z</time>
      </trkpt>
      <trkpt lat="45.7022" lon="6.23028">
        <ele>1630.052734375</ele>
        <time>2011-04-16T08:26:52Z</time>
      </trkpt>
      <trkpt lat="45.70219" lon="6.23029">
        <ele>1632.4560546875</ele>
        <time>2011-04-16T08:27:05Z</time>
      </trkpt>
      <trkpt lat="45.70219" lon="6.23028">
        <ele>1624.2846679688</ele>
        <time>2011-04-16T08:27:18Z</time>
      </trkpt>
      <trkpt lat="45.70219" lon="6.23027">
        <ele>1623.8039550781</ele>
        <time>2011-04-16T08:27:27Z</time>
      </trkpt>
      <trkpt lat="45.7022" lon="6.23027">
        <ele>1623.8039550781</ele>
        <time>2011-04-16T08:27:44Z</time>
      </trkpt>
      <trkpt lat="45.7022" lon="6.23026">
        <ele>1627.1687011719</ele>
        <time>2011-04-16T08:27:51Z</time>
      </trkpt>
      <trkpt lat="45.7022" lon="6.23027">
        <ele>1629.5720214844</ele>
        <time>2011-04-16T08:27:55Z</time>
      </trkpt>
      <trkpt lat="45.7022" lon="6.23027">
        <ele>1632.4560546875</ele>
        <time>2011-04-16T08:28:02Z</time>
      </trkpt>
      <trkpt lat="45.70219" lon="6.23027">
        <ele>1631.9753417969</ele>
        <time>2011-04-16T08:28:11Z</time>
      </trkpt>
      <trkpt lat="45.70218" lon="6.23025">
        <ele>1630.052734375</ele>
        <time>2011-04-16T08:28:21Z</time>
      </trkpt>
      <trkpt lat="45.70219" lon="6.23024">
        <ele>1629.0913085938</ele>
        <time>2011-04-16T08:28:27Z</time>
      </trkpt>
      <trkpt lat="45.70219" lon="6.23024">
        <ele>1629.0913085938</ele>
        <time>2011-04-16T08:28:31Z</time>
      </trkpt>
      <trkpt lat="45.70216" lon="6.23024">
        <ele>1629.5720214844</ele>
        <time>2011-04-16T08:28:36Z</time>
      </trkpt>
      <trkpt lat="45.70213" lon="6.23024">
        <ele>1629.5720214844</ele>
        <time>2011-04-16T08:28:39Z</time>
      </trkpt>
      <trkpt lat="45.70208" lon="6.23023">
        <ele>1629.5720214844</ele>
        <time>2011-04-16T08:28:45Z</time>
      </trkpt>
      <trkpt lat="45.70203" lon="6.23021">
        <ele>1630.052734375</ele>
        <time>2011-04-16T08:28:52Z</time>
      </trkpt>
      <trkpt lat="45.70201" lon="6.2302">
        <ele>1631.0141601562</ele>
        <time>2011-04-16T08:28:58Z</time>
      </trkpt>
      <trkpt lat="45.702" lon="6.23019">
        <ele>1631.4946289062</ele>
        <time>2011-04-16T08:29:05Z</time>
      </trkpt>
      <trkpt lat="45.70196" lon="6.23018">
        <ele>1631.4946289062</ele>
        <time>2011-04-16T08:29:31Z</time>
      </trkpt>
      <trkpt lat="45.70191" lon="6.23016">
        <ele>1631.9753417969</ele>
        <time>2011-04-16T08:29:36Z</time>
      </trkpt>
      <trkpt lat="45.7019" lon="6.23015">
        <ele>1633.8979492188</ele>
        <time>2011-04-16T08:29:44Z</time>
      </trkpt>
      <trkpt lat="45.7019" lon="6.23016">
        <ele>1633.8979492188</ele>
        <time>2011-04-16T08:29:55Z</time>
      </trkpt>
      <trkpt lat="45.70188" lon="6.23017">
        <ele>1632.9365234375</ele>
        <time>2011-04-16T08:30:15Z</time>
      </trkpt>
      <trkpt lat="45.7019" lon="6.23017">
        <ele>1632.4560546875</ele>
        <time>2011-04-16T08:30:27Z</time>
      </trkpt>
      <trkpt lat="45.70188" lon="6.23016">
        <ele>1632.4560546875</ele>
        <time>2011-04-16T08:30:38Z</time>
      </trkpt>
      <trkpt lat="45.70185" lon="6.23014">
        <ele>1632.4560546875</ele>
        <time>2011-04-16T08:30:43Z</time>
      </trkpt>
      <trkpt lat="45.70182" lon="6.2301">
        <ele>1632.9365234375</ele>
        <time>2011-04-16T08:30:48Z</time>
      </trkpt>
      <trkpt lat="45.7018" lon="6.23009">
        <ele>1633.4172363281</ele>
        <time>2011-04-16T08:30:53Z</time>
      </trkpt>
      <trkpt lat="45.70178" lon="6.23006">
        <ele>1632.9365234375</ele>
        <time>2011-04-16T08:30:58Z</time>
      </trkpt>
      <trkpt lat="45.70176" lon="6.23003">
        <ele>1634.3786621094</ele>
        <time>2011-04-16T08:31:03Z</time>
      </trkpt>
      <trkpt lat="45.70174" lon="6.22998">
        <ele>1634.859375</ele>
        <time>2011-04-16T08:31:10Z</time>
      </trkpt>
      <trkpt lat="45.70171" lon="6.22995">
        <ele>1634.859375</ele>
        <time>2011-04-16T08:31:15Z</time>
      </trkpt>
      <trkpt lat="45.70168" lon="6.22991">
        <ele>1634.859375</ele>
        <time>2011-04-16T08:31:21Z</time>
      </trkpt>
      <trkpt lat="45.70168" lon="6.22992">
        <ele>1633.4172363281</ele>
        <time>2011-04-16T08:31:29Z</time>
      </trkpt>
      <trkpt lat="45.70166" lon="6.2299">
        <ele>1634.3786621094</ele>
        <time>2011-04-16T08:31:31Z</time>
      </trkpt>
      <trkpt lat="45.70158" lon="6.22981">
        <ele>1637.2624511719</ele>
        <time>2011-04-16T08:31:39Z</time>
      </trkpt>
      <trkpt lat="45.70151" lon="6.22974">
        <ele>1639.1850585938</ele>
        <time>2011-04-16T08:31:47Z</time>
      </trkpt>
      <trkpt lat="45.70147" lon="6.22969">
        <ele>1640.626953125</ele>
        <time>2011-04-16T08:31:53Z</time>
      </trkpt>
      <trkpt lat="45.70147" lon="6.22968">
        <ele>1639.1850585938</ele>
        <time>2011-04-16T08:32:04Z</time>
      </trkpt>
      <trkpt lat="45.7014" lon="6.22964">
        <ele>1641.1076660156</ele>
        <time>2011-04-16T08:32:12Z</time>
      </trkpt>
      <trkpt lat="45.70138" lon="6.22963">
        <ele>1641.5883789062</ele>
        <time>2011-04-16T08:32:14Z</time>
      </trkpt>
      <trkpt lat="45.70129" lon="6.2296">
        <ele>1643.5109863281</ele>
        <time>2011-04-16T08:32:21Z</time>
      </trkpt>
      <trkpt lat="45.70128" lon="6.2296">
        <ele>1643.9916992188</ele>
        <time>2011-04-16T08:32:22Z</time>
      </trkpt>
      <trkpt lat="45.70124" lon="6.22959">
        <ele>1644.4724121094</ele>
        <time>2011-04-16T08:32:26Z</time>
      </trkpt>
      <trkpt lat="45.70116" lon="6.22954">
        <ele>1646.3952636719</ele>
        <time>2011-04-16T08:32:33Z</time>
      </trkpt>
      <trkpt lat="45.70111" lon="6.2295">
        <ele>1646.8757324219</ele>
        <time>2011-04-16T08:32:39Z</time>
      </trkpt>
      <trkpt lat="45.70108" lon="6.2295">
        <ele>1646.3952636719</ele>
        <time>2011-04-16T08:32:53Z</time>
      </trkpt>
      <trkpt lat="45.70106" lon="6.22951">
        <ele>1647.3564453125</ele>
        <time>2011-04-16T08:32:57Z</time>
      </trkpt>
      <trkpt lat="45.70105" lon="6.22951">
        <ele>1645.9145507812</ele>
        <time>2011-04-16T08:33:08Z</time>
      </trkpt>
      <trkpt lat="45.70104" lon="6.2295">
        <ele>1644.4724121094</ele>
        <time>2011-04-16T08:33:23Z</time>
      </trkpt>
      <trkpt lat="45.70105" lon="6.22949">
        <ele>1642.5498046875</ele>
        <time>2011-04-16T08:33:39Z</time>
      </trkpt>
      <trkpt lat="45.70105" lon="6.2295">
        <ele>1642.5498046875</ele>
        <time>2011-04-16T08:33:43Z</time>
      </trkpt>
      <trkpt lat="45.70105" lon="6.22951">
        <ele>1643.5109863281</ele>
        <time>2011-04-16T08:33:56Z</time>
      </trkpt>
      <trkpt lat="45.70107" lon="6.22953">
        <ele>1643.5109863281</ele>
        <time>2011-04-16T08:34:04Z</time>
      </trkpt>
      <trkpt lat="45.7011" lon="6.22959">
        <ele>1643.0302734375</ele>
        <time>2011-04-16T08:34:10Z</time>
      </trkpt>
      <trkpt lat="45.70111" lon="6.22966">
        <ele>1643.5109863281</ele>
        <time>2011-04-16T08:34:16Z</time>
      </trkpt>
      <trkpt lat="45.70114" lon="6.2297">
        <ele>1643.0302734375</ele>
        <time>2011-04-16T08:34:21Z</time>
      </trkpt>
      <trkpt lat="45.70119" lon="6.22975">
        <ele>1643.5109863281</ele>
        <time>2011-04-16T08:34:28Z</time>
      </trkpt>
      <trkpt lat="45.70121" lon="6.22977">
        <ele>1643.5109863281</ele>
        <time>2011-04-16T08:34:30Z</time>
      </trkpt>
      <trkpt lat="45.70124" lon="6.22979">
        <ele>1643.5109863281</ele>
        <time>2011-04-16T08:34:33Z</time>
      </trkpt>
      <trkpt lat="45.70129" lon="6.22984">
        <ele>1643.0302734375</ele>
        <time>2011-04-16T08:34:37Z</time>
      </trkpt>
      <trkpt lat="45.7013" lon="6.22989">
        <ele>1644.4724121094</ele>
        <time>2011-04-16T08:34:40Z</time>
      </trkpt>
      <trkpt lat="45.70134" lon="6.22993">
        <ele>1645.9145507812</ele>
        <time>2011-04-16T08:34:44Z</time>
      </trkpt>
      <trkpt lat="45.70134" lon="6.22999">
        <ele>1646.8757324219</ele>
        <time>2011-04-16T08:34:47Z</time>
      </trkpt>
      <trkpt lat="45.70137" lon="6.23004">
        <ele>1648.3176269531</ele>
        <time>2011-04-16T08:34:52Z</time>
      </trkpt>
      <trkpt lat="45.70138" lon="6.23006">
        <ele>1647.8371582031</ele>
        <time>2011-04-16T08:34:53Z</time>
      </trkpt>
      <trkpt lat="45.70142" lon="6.23012">
        <ele>1649.2790527344</ele>
        <time>2011-04-16T08:34:58Z</time>
      </trkpt>
      <trkpt lat="45.70145" lon="6.23018">
        <ele>1650.2404785156</ele>
        <time>2011-04-16T08:35:02Z</time>
      </trkpt>
      <trkpt lat="45.70148" lon="6.23027">
        <ele>1650.7209472656</ele>
        <time>2011-04-16T08:35:08Z</time>
      </trkpt>
      <trkpt lat="45.70148" lon="6.23028">
        <ele>1651.2016601562</ele>
        <time>2011-04-16T08:35:12Z</time>
      </trkpt>
      <trkpt lat="45.70148" lon="6.23029">
        <ele>1651.2016601562</ele>
        <time>2011-04-16T08:35:30Z</time>
      </trkpt>
      <trkpt lat="45.7015" lon="6.23034">
        <ele>1651.2016601562</ele>
        <time>2011-04-16T08:35:35Z</time>
      </trkpt>
      <trkpt lat="45.70152" lon="6.23039">
        <ele>1651.6823730469</ele>
        <time>2011-04-16T08:35:40Z</time>
      </trkpt>
      <trkpt lat="45.70152" lon="6.23045">
        <ele>1651.6823730469</ele>
        <time>2011-04-16T08:35:45Z</time>
      </trkpt>
      <trkpt lat="45.70153" lon="6.23051">
        <ele>1652.1628417969</ele>
        <time>2011-04-16T08:35:51Z</time>
      </trkpt>
      <trkpt lat="45.70155" lon="6.23056">
        <ele>1652.6435546875</ele>
        <time>2011-04-16T08:35:57Z</time>
      </trkpt>
      <trkpt lat="45.70156" lon="6.23062">
        <ele>1652.6435546875</ele>
        <time>2011-04-16T08:36:03Z</time>
      </trkpt>
      <trkpt lat="45.70158" lon="6.23068">
        <ele>1653.1242675781</ele>
        <time>2011-04-16T08:36:08Z</time>
      </trkpt>
      <trkpt lat="45.7016" lon="6.23073">
        <ele>1654.5661621094</ele>
        <time>2011-04-16T08:36:12Z</time>
      </trkpt>
      <trkpt lat="45.7016" lon="6.23076">
        <ele>1655.5275878906</ele>
        <time>2011-04-16T08:36:17Z</time>
      </trkpt>
      <trkpt lat="45.7016" lon="6.23077">
        <ele>1657.4501953125</ele>
        <time>2011-04-16T08:36:22Z</time>
      </trkpt>
      <trkpt lat="45.70161" lon="6.2308">
        <ele>1659.8532714844</ele>
        <time>2011-04-16T08:36:26Z</time>
      </trkpt>
      <trkpt lat="45.70163" lon="6.23084">
        <ele>1662.7375488281</ele>
        <time>2011-04-16T08:36:31Z</time>
      </trkpt>
      <trkpt lat="45.70167" lon="6.23091">
        <ele>1665.6215820312</ele>
        <time>2011-04-16T08:36:37Z</time>
      </trkpt>
      <trkpt lat="45.70169" lon="6.23093">
        <ele>1667.5439453125</ele>
        <time>2011-04-16T08:36:43Z</time>
      </trkpt>
      <trkpt lat="45.70171" lon="6.23094">
        <ele>1667.0634765625</ele>
        <time>2011-04-16T08:36:47Z</time>
      </trkpt>
      <trkpt lat="45.70175" lon="6.23099">
        <ele>1666.5827636719</ele>
        <time>2011-04-16T08:36:53Z</time>
      </trkpt>
      <trkpt lat="45.70178" lon="6.23104">
        <ele>1667.0634765625</ele>
        <time>2011-04-16T08:37:00Z</time>
      </trkpt>
      <trkpt lat="45.7018" lon="6.23108">
        <ele>1668.0246582031</ele>
        <time>2011-04-16T08:37:06Z</time>
      </trkpt>
      <trkpt lat="45.70184" lon="6.23113">
        <ele>1669.466796875</ele>
        <time>2011-04-16T08:37:12Z</time>
      </trkpt>
      <trkpt lat="45.70187" lon="6.23117">
        <ele>1669.466796875</ele>
        <time>2011-04-16T08:37:17Z</time>
      </trkpt>
      <trkpt lat="45.70187" lon="6.23121">
        <ele>1669.466796875</ele>
        <time>2011-04-16T08:37:22Z</time>
      </trkpt>
      <trkpt lat="45.70187" lon="6.23128">
        <ele>1668.0246582031</ele>
        <time>2011-04-16T08:37:30Z</time>
      </trkpt>
      <trkpt lat="45.70192" lon="6.23133">
        <ele>1672.3505859375</ele>
        <time>2011-04-16T08:37:36Z</time>
      </trkpt>
      <trkpt lat="45.70197" lon="6.23138">
        <ele>1675.7150878906</ele>
        <time>2011-04-16T08:37:43Z</time>
      </trkpt>
      <trkpt lat="45.702" lon="6.2314">
        <ele>1678.1186523438</ele>
        <time>2011-04-16T08:37:49Z</time>
      </trkpt>
      <trkpt lat="45.70198" lon="6.23141">
        <ele>1679.0798339844</ele>
        <time>2011-04-16T08:37:53Z</time>
      </trkpt>
      <trkpt lat="45.70198" lon="6.23142">
        <ele>1679.0798339844</ele>
        <time>2011-04-16T08:37:58Z</time>
      </trkpt>
      <trkpt lat="45.70195" lon="6.23143">
        <ele>1679.560546875</ele>
        <time>2011-04-16T08:38:04Z</time>
      </trkpt>
      <trkpt lat="45.70195" lon="6.23144">
        <ele>1681.0026855469</ele>
        <time>2011-04-16T08:38:10Z</time>
      </trkpt>
      <trkpt lat="45.70195" lon="6.23148">
        <ele>1681.0026855469</ele>
        <time>2011-04-16T08:38:15Z</time>
      </trkpt>
      <trkpt lat="45.70195" lon="6.2315">
        <ele>1680.5219726562</ele>
        <time>2011-04-16T08:38:19Z</time>
      </trkpt>
      <trkpt lat="45.70197" lon="6.23152">
        <ele>1679.560546875</ele>
        <time>2011-04-16T08:38:23Z</time>
      </trkpt>
      <trkpt lat="45.70198" lon="6.23156">
        <ele>1678.5993652344</ele>
        <time>2011-04-16T08:38:28Z</time>
      </trkpt>
      <trkpt lat="45.702" lon="6.23159">
        <ele>1678.1186523438</ele>
        <time>2011-04-16T08:38:33Z</time>
      </trkpt>
      <trkpt lat="45.70203" lon="6.23164">
        <ele>1678.5993652344</ele>
        <time>2011-04-16T08:38:39Z</time>
      </trkpt>
      <trkpt lat="45.70205" lon="6.23169">
        <ele>1680.0412597656</ele>
        <time>2011-04-16T08:38:46Z</time>
      </trkpt>
      <trkpt lat="45.70208" lon="6.23175">
        <ele>1680.5219726562</ele>
        <time>2011-04-16T08:38:53Z</time>
      </trkpt>
      <trkpt lat="45.70209" lon="6.23178">
        <ele>1680.5219726562</ele>
        <time>2011-04-16T08:38:58Z</time>
      </trkpt>
      <trkpt lat="45.70211" lon="6.23182">
        <ele>1681.4831542969</ele>
        <time>2011-04-16T08:39:05Z</time>
      </trkpt>
      <trkpt lat="45.70212" lon="6.23184">
        <ele>1681.0026855469</ele>
        <time>2011-04-16T08:39:12Z</time>
      </trkpt>
      <trkpt lat="45.70212" lon="6.23185">
        <ele>1679.560546875</ele>
        <time>2011-04-16T08:39:23Z</time>
      </trkpt>
      <trkpt lat="45.70211" lon="6.23187">
        <ele>1677.1574707031</ele>
        <time>2011-04-16T08:39:30Z</time>
      </trkpt>
      <trkpt lat="45.70211" lon="6.23187">
        <ele>1677.1574707031</ele>
        <time>2011-04-16T08:39:36Z</time>
      </trkpt>
      <trkpt lat="45.7021" lon="6.23191">
        <ele>1681.4831542969</ele>
        <time>2011-04-16T08:39:52Z</time>
      </trkpt>
      <trkpt lat="45.70205" lon="6.23192">
        <ele>1679.0798339844</ele>
        <time>2011-04-16T08:39:58Z</time>
      </trkpt>
      <trkpt lat="45.70204" lon="6.23192">
        <ele>1678.1186523438</ele>
        <time>2011-04-16T08:40:01Z</time>
      </trkpt>
      <trkpt lat="45.70204" lon="6.23193">
        <ele>1678.1186523438</ele>
        <time>2011-04-16T08:40:04Z</time>
      </trkpt>
      <trkpt lat="45.70201" lon="6.23193">
        <ele>1677.1574707031</ele>
        <time>2011-04-16T08:40:10Z</time>
      </trkpt>
      <trkpt lat="45.70197" lon="6.23194">
        <ele>1676.1960449219</ele>
        <time>2011-04-16T08:40:18Z</time>
      </trkpt>
      <trkpt lat="45.70195" lon="6.23194">
        <ele>1675.234375</ele>
        <time>2011-04-16T08:40:24Z</time>
      </trkpt>
      <trkpt lat="45.70195" lon="6.23194">
        <ele>1675.234375</ele>
        <time>2011-04-16T08:40:26Z</time>
      </trkpt>
      <trkpt lat="45.70195" lon="6.23194">
        <ele>1675.234375</ele>
        <time>2011-04-16T08:40:27Z</time>
      </trkpt>
      <trkpt lat="45.70195" lon="6.23194">
        <ele>1675.234375</ele>
        <time>2011-04-16T08:40:40Z</time>
      </trkpt>
      <trkpt lat="45.70192" lon="6.23195">
        <ele>1673.3120117188</ele>
        <time>2011-04-16T08:40:51Z</time>
      </trkpt>
      <trkpt lat="45.70189" lon="6.23196">
        <ele>1672.3505859375</ele>
        <time>2011-04-16T08:40:54Z</time>
      </trkpt>
      <trkpt lat="45.70187" lon="6.23196">
        <ele>1672.8312988281</ele>
        <time>2011-04-16T08:41:00Z</time>
      </trkpt>
      <trkpt lat="45.70184" lon="6.23196">
        <ele>1671.8698730469</ele>
        <time>2011-04-16T08:41:07Z</time>
      </trkpt>
      <trkpt lat="45.70183" lon="6.23196">
        <ele>1673.3120117188</ele>
        <time>2011-04-16T08:41:29Z</time>
      </trkpt>
      <trkpt lat="45.70182" lon="6.23196">
        <ele>1673.3120117188</ele>
        <time>2011-04-16T08:41:35Z</time>
      </trkpt>
      <trkpt lat="45.70181" lon="6.23197">
        <ele>1673.7924804688</ele>
        <time>2011-04-16T08:41:45Z</time>
      </trkpt>
      <trkpt lat="45.70184" lon="6.23199">
        <ele>1671.8698730469</ele>
        <time>2011-04-16T08:42:00Z</time>
      </trkpt>
      <trkpt lat="45.70185" lon="6.23203">
        <ele>1669.947265625</ele>
        <time>2011-04-16T08:42:03Z</time>
      </trkpt>
      <trkpt lat="45.70188" lon="6.23205">
        <ele>1669.466796875</ele>
        <time>2011-04-16T08:42:05Z</time>
      </trkpt>
      <trkpt lat="45.70195" lon="6.23205">
        <ele>1667.5439453125</ele>
        <time>2011-04-16T08:42:10Z</time>
      </trkpt>
      <trkpt lat="45.70199" lon="6.23208">
        <ele>1665.6215820312</ele>
        <time>2011-04-16T08:42:16Z</time>
      </trkpt>
      <trkpt lat="45.702" lon="6.23213">
        <ele>1665.6215820312</ele>
        <time>2011-04-16T08:42:23Z</time>
      </trkpt>
      <trkpt lat="45.702" lon="6.23213">
        <ele>1668.0246582031</ele>
        <time>2011-04-16T08:42:30Z</time>
      </trkpt>
      <trkpt lat="45.70198" lon="6.23213">
        <ele>1667.0634765625</ele>
        <time>2011-04-16T08:42:39Z</time>
      </trkpt>
      <trkpt lat="45.70192" lon="6.23214">
        <ele>1665.6215820312</ele>
        <time>2011-04-16T08:42:47Z</time>
      </trkpt>
      <trkpt lat="45.70192" lon="6.23214">
        <ele>1666.5827636719</ele>
        <time>2011-04-16T08:42:52Z</time>
      </trkpt>
      <trkpt lat="45.7019" lon="6.23215">
        <ele>1666.1020507812</ele>
        <time>2011-04-16T08:43:01Z</time>
      </trkpt>
      <trkpt lat="45.7019" lon="6.23215">
        <ele>1666.5827636719</ele>
        <time>2011-04-16T08:43:09Z</time>
      </trkpt>
      <trkpt lat="45.70188" lon="6.2322">
        <ele>1669.947265625</ele>
        <time>2011-04-16T08:43:35Z</time>
      </trkpt>
      <trkpt lat="45.70187" lon="6.2322">
        <ele>1669.466796875</ele>
        <time>2011-04-16T08:43:42Z</time>
      </trkpt>
      <trkpt lat="45.70184" lon="6.23217">
        <ele>1669.947265625</ele>
        <time>2011-04-16T08:43:52Z</time>
      </trkpt>
      <trkpt lat="45.70184" lon="6.23216">
        <ele>1669.466796875</ele>
        <time>2011-04-16T08:43:57Z</time>
      </trkpt>
      <trkpt lat="45.70184" lon="6.23214">
        <ele>1668.5053710938</ele>
        <time>2011-04-16T08:44:03Z</time>
      </trkpt>
      <trkpt lat="45.70184" lon="6.23213">
        <ele>1667.0634765625</ele>
        <time>2011-04-16T08:44:13Z</time>
      </trkpt>
      <trkpt lat="45.70179" lon="6.23216">
        <ele>1671.8698730469</ele>
        <time>2011-04-16T08:45:02Z</time>
      </trkpt>
      <trkpt lat="45.7018" lon="6.23216">
        <ele>1670.9086914062</ele>
        <time>2011-04-16T08:45:11Z</time>
      </trkpt>
      <trkpt lat="45.70181" lon="6.23216">
        <ele>1669.466796875</ele>
        <time>2011-04-16T08:45:15Z</time>
      </trkpt>
      <trkpt lat="45.70181" lon="6.23216">
        <ele>1668.0246582031</ele>
        <time>2011-04-16T08:45:25Z</time>
      </trkpt>
      <trkpt lat="45.70181" lon="6.23215">
        <ele>1666.5827636719</ele>
        <time>2011-04-16T08:45:42Z</time>
      </trkpt>
      <trkpt lat="45.70181" lon="6.23215">
        <ele>1666.5827636719</ele>
        <time>2011-04-16T08:46:11Z</time>
      </trkpt>
      <trkpt lat="45.7018" lon="6.23214">
        <ele>1668.0246582031</ele>
        <time>2011-04-16T08:46:33Z</time>
      </trkpt>
      <trkpt lat="45.70181" lon="6.23214">
        <ele>1667.5439453125</ele>
        <time>2011-04-16T08:46:52Z</time>
      </trkpt>
      <trkpt lat="45.70181" lon="6.23215">
        <ele>1666.5827636719</ele>
        <time>2011-04-16T08:47:01Z</time>
      </trkpt>
      <trkpt lat="45.70181" lon="6.23215">
        <ele>1666.1020507812</ele>
        <time>2011-04-16T08:47:08Z</time>
      </trkpt>
      <trkpt lat="45.70183" lon="6.23215">
        <ele>1664.66015625</ele>
        <time>2011-04-16T08:47:32Z</time>
      </trkpt>
      <trkpt lat="45.70184" lon="6.23216">
        <ele>1663.2182617188</ele>
        <time>2011-04-16T08:48:08Z</time>
      </trkpt>
      <trkpt lat="45.70184" lon="6.23216">
        <ele>1663.6987304688</ele>
        <time>2011-04-16T08:48:33Z</time>
      </trkpt>
      <trkpt lat="45.70186" lon="6.23217">
        <ele>1663.6987304688</ele>
        <time>2011-04-16T08:48:37Z</time>
      </trkpt>
      <trkpt lat="45.70187" lon="6.23217">
        <ele>1663.2182617188</ele>
        <time>2011-04-16T08:48:40Z</time>
      </trkpt>
      <trkpt lat="45.70187" lon="6.23217">
        <ele>1662.7375488281</ele>
        <time>2011-04-16T08:48:41Z</time>
      </trkpt>
      <trkpt lat="45.70193" lon="6.23214">
        <ele>1662.7375488281</ele>
        <time>2011-04-16T08:48:48Z</time>
      </trkpt>
      <trkpt lat="45.70197" lon="6.23214">
        <ele>1662.7375488281</ele>
        <time>2011-04-16T08:48:54Z</time>
      </trkpt>
      <trkpt lat="45.70199" lon="6.23213">
        <ele>1664.1794433594</ele>
        <time>2011-04-16T08:49:00Z</time>
      </trkpt>
      <trkpt lat="45.70197" lon="6.2321">
        <ele>1666.1020507812</ele>
        <time>2011-04-16T08:49:05Z</time>
      </trkpt>
      <trkpt lat="45.70197" lon="6.2321">
        <ele>1666.5827636719</ele>
        <time>2011-04-16T08:49:11Z</time>
      </trkpt>
      <trkpt lat="45.70198" lon="6.23209">
        <ele>1666.5827636719</ele>
        <time>2011-04-16T08:49:24Z</time>
      </trkpt>
      <trkpt lat="45.70197" lon="6.23206">
        <ele>1666.1020507812</ele>
        <time>2011-04-16T08:49:46Z</time>
      </trkpt>
      <trkpt lat="45.70196" lon="6.23207">
        <ele>1666.1020507812</ele>
        <time>2011-04-16T08:49:55Z</time>
      </trkpt>
      <trkpt lat="45.70192" lon="6.23204">
        <ele>1667.0634765625</ele>
        <time>2011-04-16T08:50:01Z</time>
      </trkpt>
      <trkpt lat="45.7019" lon="6.23202">
        <ele>1667.0634765625</ele>
        <time>2011-04-16T08:50:08Z</time>
      </trkpt>
      <trkpt lat="45.7019" lon="6.23203">
        <ele>1667.0634765625</ele>
        <time>2011-04-16T08:50:15Z</time>
      </trkpt>
      <trkpt lat="45.70188" lon="6.23202">
        <ele>1667.5439453125</ele>
        <time>2011-04-16T08:50:22Z</time>
      </trkpt>
      <trkpt lat="45.70187" lon="6.23202">
        <ele>1668.0246582031</ele>
        <time>2011-04-16T08:50:33Z</time>
      </trkpt>
      <trkpt lat="45.70187" lon="6.23203">
        <ele>1668.9860839844</ele>
        <time>2011-04-16T08:50:45Z</time>
      </trkpt>
      <trkpt lat="45.70185" lon="6.232">
        <ele>1668.9860839844</ele>
        <time>2011-04-16T08:50:55Z</time>
      </trkpt>
      <trkpt lat="45.70185" lon="6.232">
        <ele>1668.9860839844</ele>
        <time>2011-04-16T08:51:00Z</time>
      </trkpt>
      <trkpt lat="45.70185" lon="6.232">
        <ele>1670.4279785156</ele>
        <time>2011-04-16T08:51:08Z</time>
      </trkpt>
      <trkpt lat="45.70185" lon="6.23199">
        <ele>1669.466796875</ele>
        <time>2011-04-16T08:51:15Z</time>
      </trkpt>
      <trkpt lat="45.70188" lon="6.23199">
        <ele>1668.0246582031</ele>
        <time>2011-04-16T08:51:27Z</time>
      </trkpt>
      <trkpt lat="45.70192" lon="6.23198">
        <ele>1668.0246582031</ele>
        <time>2011-04-16T08:51:33Z</time>
      </trkpt>
      <trkpt lat="45.70199" lon="6.23195">
        <ele>1671.8698730469</ele>
        <time>2011-04-16T08:51:40Z</time>
      </trkpt>
      <trkpt lat="45.70203" lon="6.23193">
        <ele>1673.7924804688</ele>
        <time>2011-04-16T08:51:44Z</time>
      </trkpt>
      <trkpt lat="45.70207" lon="6.2319">
        <ele>1675.234375</ele>
        <time>2011-04-16T08:51:50Z</time>
      </trkpt>
      <trkpt lat="45.70209" lon="6.2319">
        <ele>1675.7150878906</ele>
        <time>2011-04-16T08:51:55Z</time>
      </trkpt>
      <trkpt lat="45.7021" lon="6.23191">
        <ele>1675.234375</ele>
        <time>2011-04-16T08:52:00Z</time>
      </trkpt>
      <trkpt lat="45.7021" lon="6.23191">
        <ele>1674.75390625</ele>
        <time>2011-04-16T08:52:02Z</time>
      </trkpt>
      <trkpt lat="45.70205" lon="6.23193">
        <ele>1672.8312988281</ele>
        <time>2011-04-16T08:52:09Z</time>
      </trkpt>
      <trkpt lat="45.70206" lon="6.23194">
        <ele>1675.7150878906</ele>
        <time>2011-04-16T08:52:24Z</time>
      </trkpt>
      <trkpt lat="45.70211" lon="6.23191">
        <ele>1676.1960449219</ele>
        <time>2011-04-16T08:52:30Z</time>
      </trkpt>
      <trkpt lat="45.70216" lon="6.23185">
        <ele>1675.7150878906</ele>
        <time>2011-04-16T08:52:36Z</time>
      </trkpt>
      <trkpt lat="45.70221" lon="6.23178">
        <ele>1675.7150878906</ele>
        <time>2011-04-16T08:52:42Z</time>
      </trkpt>
      <trkpt lat="45.70228" lon="6.23176">
        <ele>1675.234375</ele>
        <time>2011-04-16T08:52:48Z</time>
      </trkpt>
      <trkpt lat="45.7023" lon="6.23178">
        <ele>1674.75390625</ele>
        <time>2011-04-16T08:52:55Z</time>
      </trkpt>
      <trkpt lat="45.7023" lon="6.23178">
        <ele>1673.3120117188</ele>
        <time>2011-04-16T08:53:03Z</time>
      </trkpt>
      <trkpt lat="45.70231" lon="6.23179">
        <ele>1670.9086914062</ele>
        <time>2011-04-16T08:53:10Z</time>
      </trkpt>
      <trkpt lat="45.70235" lon="6.23178">
        <ele>1669.947265625</ele>
        <time>2011-04-16T08:53:16Z</time>
      </trkpt>
      <trkpt lat="45.70237" lon="6.23178">
        <ele>1669.947265625</ele>
        <time>2011-04-16T08:53:17Z</time>
      </trkpt>
      <trkpt lat="45.7024" lon="6.23181">
        <ele>1668.9860839844</ele>
        <time>2011-04-16T08:53:23Z</time>
      </trkpt>
      <trkpt lat="45.70243" lon="6.23182">
        <ele>1667.5439453125</ele>
        <time>2011-04-16T08:53:29Z</time>
      </trkpt>
      <trkpt lat="45.70245" lon="6.23181">
        <ele>1667.0634765625</ele>
        <time>2011-04-16T08:53:35Z</time>
      </trkpt>
      <trkpt lat="45.70245" lon="6.2318">
        <ele>1667.5439453125</ele>
        <time>2011-04-16T08:53:41Z</time>
      </trkpt>
      <trkpt lat="45.70244" lon="6.23179">
        <ele>1667.5439453125</ele>
        <time>2011-04-16T08:53:47Z</time>
      </trkpt>
      <trkpt lat="45.7024" lon="6.23179">
        <ele>1669.947265625</ele>
        <time>2011-04-16T08:53:53Z</time>
      </trkpt>
      <trkpt lat="45.70235" lon="6.23178">
        <ele>1670.9086914062</ele>
        <time>2011-04-16T08:53:58Z</time>
      </trkpt>
      <trkpt lat="45.70233" lon="6.23179">
        <ele>1671.3891601562</ele>
        <time>2011-04-16T08:54:00Z</time>
      </trkpt>
      <trkpt lat="45.70226" lon="6.23177">
        <ele>1672.8312988281</ele>
        <time>2011-04-16T08:54:06Z</time>
      </trkpt>
      <trkpt lat="45.70224" lon="6.23177">
        <ele>1674.75390625</ele>
        <time>2011-04-16T08:54:19Z</time>
      </trkpt>
      <trkpt lat="45.70224" lon="6.23177">
        <ele>1675.7150878906</ele>
        <time>2011-04-16T08:54:24Z</time>
      </trkpt>
      <trkpt lat="45.70225" lon="6.23177">
        <ele>1675.7150878906</ele>
        <time>2011-04-16T08:54:39Z</time>
      </trkpt>
      <trkpt lat="45.70226" lon="6.23177">
        <ele>1675.7150878906</ele>
        <time>2011-04-16T08:54:43Z</time>
      </trkpt>
      <trkpt lat="45.70226" lon="6.23176">
        <ele>1676.6767578125</ele>
        <time>2011-04-16T08:54:47Z</time>
      </trkpt>
      <trkpt lat="45.70226" lon="6.23176">
        <ele>1677.1574707031</ele>
        <time>2011-04-16T08:55:14Z</time>
      </trkpt>
      <trkpt lat="45.70224" lon="6.23177">
        <ele>1677.6379394531</ele>
        <time>2011-04-16T08:55:16Z</time>
      </trkpt>
      <trkpt lat="45.70218" lon="6.23178">
        <ele>1676.6767578125</ele>
        <time>2011-04-16T08:55:21Z</time>
      </trkpt>
      <trkpt lat="45.70216" lon="6.23181">
        <ele>1676.1960449219</ele>
        <time>2011-04-16T08:55:24Z</time>
      </trkpt>
      <trkpt lat="45.70209" lon="6.2318">
        <ele>1674.75390625</ele>
        <time>2011-04-16T08:55:30Z</time>
      </trkpt>
      <trkpt lat="45.70208" lon="6.23176">
        <ele>1673.7924804688</ele>
        <time>2011-04-16T08:55:32Z</time>
      </trkpt>
      <trkpt lat="45.70206" lon="6.23166">
        <ele>1672.3505859375</ele>
        <time>2011-04-16T08:55:38Z</time>
      </trkpt>
      <trkpt lat="45.702" lon="6.23156">
        <ele>1671.3891601562</ele>
        <time>2011-04-16T08:55:45Z</time>
      </trkpt>
      <trkpt lat="45.70194" lon="6.23148">
        <ele>1672.3505859375</ele>
        <time>2011-04-16T08:55:51Z</time>
      </trkpt>
      <trkpt lat="45.70193" lon="6.23145">
        <ele>1671.3891601562</ele>
        <time>2011-04-16T08:55:53Z</time>
      </trkpt>
      <trkpt lat="45.70197" lon="6.23145">
        <ele>1669.466796875</ele>
        <time>2011-04-16T08:55:58Z</time>
      </trkpt>
      <trkpt lat="45.70198" lon="6.23142">
        <ele>1667.0634765625</ele>
        <time>2011-04-16T08:56:04Z</time>
      </trkpt>
      <trkpt lat="45.70197" lon="6.23137">
        <ele>1666.1020507812</ele>
        <time>2011-04-16T08:56:07Z</time>
      </trkpt>
      <trkpt lat="45.70195" lon="6.23133">
        <ele>1666.1020507812</ele>
        <time>2011-04-16T08:56:09Z</time>
      </trkpt>
      <trkpt lat="45.7019" lon="6.23125">
        <ele>1665.6215820312</ele>
        <time>2011-04-16T08:56:14Z</time>
      </trkpt>
      <trkpt lat="45.70186" lon="6.23118">
        <ele>1666.1020507812</ele>
        <time>2011-04-16T08:56:18Z</time>
      </trkpt>
      <trkpt lat="45.7018" lon="6.23113">
        <ele>1665.1408691406</ele>
        <time>2011-04-16T08:56:24Z</time>
      </trkpt>
      <trkpt lat="45.70178" lon="6.2311">
        <ele>1665.6215820312</ele>
        <time>2011-04-16T08:56:28Z</time>
      </trkpt>
      <trkpt lat="45.70177" lon="6.23107">
        <ele>1666.5827636719</ele>
        <time>2011-04-16T08:56:36Z</time>
      </trkpt>
      <trkpt lat="45.70173" lon="6.23102">
        <ele>1665.1408691406</ele>
        <time>2011-04-16T08:56:41Z</time>
      </trkpt>
      <trkpt lat="45.70166" lon="6.23096">
        <ele>1662.7375488281</ele>
        <time>2011-04-16T08:56:48Z</time>
      </trkpt>
      <trkpt lat="45.70165" lon="6.23095">
        <ele>1662.2568359375</ele>
        <time>2011-04-16T08:56:49Z</time>
      </trkpt>
      <trkpt lat="45.7016" lon="6.23088">
        <ele>1660.3342285156</ele>
        <time>2011-04-16T08:56:55Z</time>
      </trkpt>
      <trkpt lat="45.7016" lon="6.23081">
        <ele>1658.8920898438</ele>
        <time>2011-04-16T08:56:59Z</time>
      </trkpt>
      <trkpt lat="45.7016" lon="6.23077">
        <ele>1658.4113769531</ele>
        <time>2011-04-16T08:57:03Z</time>
      </trkpt>
      <trkpt lat="45.70158" lon="6.23071">
        <ele>1656.9694824219</ele>
        <time>2011-04-16T08:57:11Z</time>
      </trkpt>
      <trkpt lat="45.70157" lon="6.23064">
        <ele>1656.4887695312</ele>
        <time>2011-04-16T08:57:17Z</time>
      </trkpt>
      <trkpt lat="45.70155" lon="6.23058">
        <ele>1655.5275878906</ele>
        <time>2011-04-16T08:57:25Z</time>
      </trkpt>
      <trkpt lat="45.70153" lon="6.23055">
        <ele>1655.046875</ele>
        <time>2011-04-16T08:57:30Z</time>
      </trkpt>
      <trkpt lat="45.70152" lon="6.23049">
        <ele>1655.046875</ele>
        <time>2011-04-16T08:57:37Z</time>
      </trkpt>
      <trkpt lat="45.7015" lon="6.23043">
        <ele>1655.5275878906</ele>
        <time>2011-04-16T08:57:43Z</time>
      </trkpt>
      <trkpt lat="45.7015" lon="6.23038">
        <ele>1655.5275878906</ele>
        <time>2011-04-16T08:57:47Z</time>
      </trkpt>
      <trkpt lat="45.70148" lon="6.23031">
        <ele>1655.046875</ele>
        <time>2011-04-16T08:57:54Z</time>
      </trkpt>
      <trkpt lat="45.70144" lon="6.23026">
        <ele>1652.1628417969</ele>
        <time>2011-04-16T08:57:59Z</time>
      </trkpt>
      <trkpt lat="45.70137" lon="6.23018">
        <ele>1648.7983398438</ele>
        <time>2011-04-16T08:58:05Z</time>
      </trkpt>
      <trkpt lat="45.70134" lon="6.23014">
        <ele>1646.8757324219</ele>
        <time>2011-04-16T08:58:09Z</time>
      </trkpt>
      <trkpt lat="45.70132" lon="6.23008">
        <ele>1645.9145507812</ele>
        <time>2011-04-16T08:58:13Z</time>
      </trkpt>
      <trkpt lat="45.70129" lon="6.23002">
        <ele>1645.9145507812</ele>
        <time>2011-04-16T08:58:17Z</time>
      </trkpt>
      <trkpt lat="45.70129" lon="6.23">
        <ele>1645.4338378906</ele>
        <time>2011-04-16T08:58:18Z</time>
      </trkpt>
      <trkpt lat="45.70125" lon="6.22992">
        <ele>1643.9916992188</ele>
        <time>2011-04-16T08:58:24Z</time>
      </trkpt>
      <trkpt lat="45.70123" lon="6.2299">
        <ele>1643.9916992188</ele>
        <time>2011-04-16T08:58:26Z</time>
      </trkpt>
      <trkpt lat="45.70119" lon="6.22983">
        <ele>1644.953125</ele>
        <time>2011-04-16T08:58:32Z</time>
      </trkpt>
      <trkpt lat="45.70116" lon="6.2298">
        <ele>1645.9145507812</ele>
        <time>2011-04-16T08:58:35Z</time>
      </trkpt>
      <trkpt lat="45.70113" lon="6.22974">
        <ele>1646.8757324219</ele>
        <time>2011-04-16T08:58:42Z</time>
      </trkpt>
      <trkpt lat="45.7011" lon="6.22969">
        <ele>1647.3564453125</ele>
        <time>2011-04-16T08:58:48Z</time>
      </trkpt>
      <trkpt lat="45.7011" lon="6.22968">
        <ele>1647.3564453125</ele>
        <time>2011-04-16T08:58:53Z</time>
      </trkpt>
      <trkpt lat="45.70109" lon="6.22965">
        <ele>1646.8757324219</ele>
        <time>2011-04-16T08:58:59Z</time>
      </trkpt>
      <trkpt lat="45.70108" lon="6.22959">
        <ele>1646.8757324219</ele>
        <time>2011-04-16T08:59:06Z</time>
      </trkpt>
      <trkpt lat="45.70107" lon="6.22956">
        <ele>1646.8757324219</ele>
        <time>2011-04-16T08:59:12Z</time>
      </trkpt>
      <trkpt lat="45.70105" lon="6.22952">
        <ele>1645.9145507812</ele>
        <time>2011-04-16T08:59:18Z</time>
      </trkpt>
      <trkpt lat="45.70105" lon="6.22951">
        <ele>1643.9916992188</ele>
        <time>2011-04-16T08:59:25Z</time>
      </trkpt>
      <trkpt lat="45.70108" lon="6.22952">
        <ele>1643.0302734375</ele>
        <time>2011-04-16T08:59:28Z</time>
      </trkpt>
      <trkpt lat="45.70117" lon="6.22959">
        <ele>1640.626953125</ele>
        <time>2011-04-16T08:59:36Z</time>
      </trkpt>
      <trkpt lat="45.70123" lon="6.22962">
        <ele>1638.7045898438</ele>
        <time>2011-04-16T08:59:43Z</time>
      </trkpt>
      <trkpt lat="45.70132" lon="6.22965">
        <ele>1636.3012695312</ele>
        <time>2011-04-16T08:59:54Z</time>
      </trkpt>
      <trkpt lat="45.70136" lon="6.22966">
        <ele>1636.7817382812</ele>
        <time>2011-04-16T09:00:00Z</time>
      </trkpt>
      <trkpt lat="45.70145" lon="6.2297">
        <ele>1634.859375</ele>
        <time>2011-04-16T09:00:08Z</time>
      </trkpt>
      <trkpt lat="45.70148" lon="6.22972">
        <ele>1634.3786621094</ele>
        <time>2011-04-16T09:00:11Z</time>
      </trkpt>
      <trkpt lat="45.70154" lon="6.22978">
        <ele>1633.8979492188</ele>
        <time>2011-04-16T09:00:17Z</time>
      </trkpt>
      <trkpt lat="45.70158" lon="6.22982">
        <ele>1633.4172363281</ele>
        <time>2011-04-16T09:00:21Z</time>
      </trkpt>
      <trkpt lat="45.70164" lon="6.22988">
        <ele>1632.4560546875</ele>
        <time>2011-04-16T09:00:27Z</time>
      </trkpt>
      <trkpt lat="45.70171" lon="6.22994">
        <ele>1631.0141601562</ele>
        <time>2011-04-16T09:00:33Z</time>
      </trkpt>
      <trkpt lat="45.70172" lon="6.22995">
        <ele>1630.5334472656</ele>
        <time>2011-04-16T09:00:35Z</time>
      </trkpt>
      <trkpt lat="45.70175" lon="6.23002">
        <ele>1629.0913085938</ele>
        <time>2011-04-16T09:00:43Z</time>
      </trkpt>
      <trkpt lat="45.70177" lon="6.23005">
        <ele>1628.6108398438</ele>
        <time>2011-04-16T09:00:46Z</time>
      </trkpt>
      <trkpt lat="45.7018" lon="6.23008">
        <ele>1627.6491699219</ele>
        <time>2011-04-16T09:00:52Z</time>
      </trkpt>
      <trkpt lat="45.70184" lon="6.23011">
        <ele>1628.6108398438</ele>
        <time>2011-04-16T09:00:57Z</time>
      </trkpt>
      <trkpt lat="45.70187" lon="6.23014">
        <ele>1628.1301269531</ele>
        <time>2011-04-16T09:01:03Z</time>
      </trkpt>
      <trkpt lat="45.70189" lon="6.23016">
        <ele>1627.6491699219</ele>
        <time>2011-04-16T09:01:09Z</time>
      </trkpt>
      <trkpt lat="45.70193" lon="6.23016">
        <ele>1627.6491699219</ele>
        <time>2011-04-16T09:01:14Z</time>
      </trkpt>
      <trkpt lat="45.70197" lon="6.23017">
        <ele>1628.1301269531</ele>
        <time>2011-04-16T09:01:18Z</time>
      </trkpt>
      <trkpt lat="45.70202" lon="6.23021">
        <ele>1626.6879882812</ele>
        <time>2011-04-16T09:01:22Z</time>
      </trkpt>
      <trkpt lat="45.7021" lon="6.23024">
        <ele>1626.2072753906</ele>
        <time>2011-04-16T09:01:29Z</time>
      </trkpt>
      <trkpt lat="45.70216" lon="6.23025">
        <ele>1624.7653808594</ele>
        <time>2011-04-16T09:01:34Z</time>
      </trkpt>
      <trkpt lat="45.70223" lon="6.23026">
        <ele>1623.3234863281</ele>
        <time>2011-04-16T09:01:40Z</time>
      </trkpt>
      <trkpt lat="45.70228" lon="6.23028">
        <ele>1622.3620605469</ele>
        <time>2011-04-16T09:01:44Z</time>
      </trkpt>
      <trkpt lat="45.70239" lon="6.23028">
        <ele>1618.9975585938</ele>
        <time>2011-04-16T09:01:53Z</time>
      </trkpt>
      <trkpt lat="45.70247" lon="6.23029">
        <ele>1617.0749511719</ele>
        <time>2011-04-16T09:02:00Z</time>
      </trkpt>
      <trkpt lat="45.7025" lon="6.23029">
        <ele>1616.1135253906</ele>
        <time>2011-04-16T09:02:04Z</time>
      </trkpt>
      <trkpt lat="45.70258" lon="6.23031">
        <ele>1617.0749511719</ele>
        <time>2011-04-16T09:02:12Z</time>
      </trkpt>
      <trkpt lat="45.70262" lon="6.23031">
        <ele>1618.0361328125</ele>
        <time>2011-04-16T09:02:18Z</time>
      </trkpt>
      <trkpt lat="45.70265" lon="6.23032">
        <ele>1617.0749511719</ele>
        <time>2011-04-16T09:02:26Z</time>
      </trkpt>
      <trkpt lat="45.70273" lon="6.23032">
        <ele>1615.6330566406</ele>
        <time>2011-04-16T09:02:31Z</time>
      </trkpt>
      <trkpt lat="45.70279" lon="6.23032">
        <ele>1613.2297363281</ele>
        <time>2011-04-16T09:02:36Z</time>
      </trkpt>
      <trkpt lat="45.70281" lon="6.23036">
        <ele>1610.826171875</ele>
        <time>2011-04-16T09:02:44Z</time>
      </trkpt>
      <trkpt lat="45.70287" lon="6.23035">
        <ele>1615.6330566406</ele>
        <time>2011-04-16T09:02:53Z</time>
      </trkpt>
      <trkpt lat="45.70296" lon="6.23038">
        <ele>1613.7102050781</ele>
        <time>2011-04-16T09:02:57Z</time>
      </trkpt>
      <trkpt lat="45.70301" lon="6.2304">
        <ele>1611.7875976562</ele>
        <time>2011-04-16T09:03:01Z</time>
      </trkpt>
      <trkpt lat="45.70309" lon="6.23038">
        <ele>1608.9035644531</ele>
        <time>2011-04-16T09:03:05Z</time>
      </trkpt>
      <trkpt lat="45.70314" lon="6.23035">
        <ele>1606.9809570312</ele>
        <time>2011-04-16T09:03:10Z</time>
      </trkpt>
      <trkpt lat="45.70318" lon="6.23035">
        <ele>1606.9809570312</ele>
        <time>2011-04-16T09:03:12Z</time>
      </trkpt>
      <trkpt lat="45.70327" lon="6.23035">
        <ele>1604.0971679688</ele>
        <time>2011-04-16T09:03:18Z</time>
      </trkpt>
      <trkpt lat="45.70332" lon="6.23032">
        <ele>1606.5002441406</ele>
        <time>2011-04-16T09:03:27Z</time>
      </trkpt>
      <trkpt lat="45.70331" lon="6.23033">
        <ele>1604.0971679688</ele>
        <time>2011-04-16T09:03:31Z</time>
      </trkpt>
      <trkpt lat="45.70333" lon="6.23033">
        <ele>1604.0971679688</ele>
        <time>2011-04-16T09:03:42Z</time>
      </trkpt>
      <trkpt lat="45.70335" lon="6.23033">
        <ele>1604.0971679688</ele>
        <time>2011-04-16T09:03:43Z</time>
      </trkpt>
      <trkpt lat="45.70347" lon="6.23027">
        <ele>1607.9423828125</ele>
        <time>2011-04-16T09:03:48Z</time>
      </trkpt>
      <trkpt lat="45.70354" lon="6.23022">
        <ele>1604.5776367188</ele>
        <time>2011-04-16T09:03:52Z</time>
      </trkpt>
      <trkpt lat="45.70366" lon="6.23012">
        <ele>1598.8098144531</ele>
        <time>2011-04-16T09:03:58Z</time>
      </trkpt>
      <trkpt lat="45.7038" lon="6.23003">
        <ele>1594.4836425781</ele>
        <time>2011-04-16T09:04:04Z</time>
      </trkpt>
      <trkpt lat="45.7039" lon="6.22993">
        <ele>1591.5998535156</ele>
        <time>2011-04-16T09:04:09Z</time>
      </trkpt>
      <trkpt lat="45.70402" lon="6.22986">
        <ele>1583.9094238281</ele>
        <time>2011-04-16T09:04:14Z</time>
      </trkpt>
      <trkpt lat="45.70411" lon="6.22979">
        <ele>1585.83203125</ele>
        <time>2011-04-16T09:04:19Z</time>
      </trkpt>
      <trkpt lat="45.70419" lon="6.22971">
        <ele>1589.6772460938</ele>
        <time>2011-04-16T09:04:22Z</time>
      </trkpt>
      <trkpt lat="45.70432" lon="6.22955">
        <ele>1596.8872070312</ele>
        <time>2011-04-16T09:04:28Z</time>
      </trkpt>
      <trkpt lat="45.70444" lon="6.2295">
        <ele>1591.5998535156</ele>
        <time>2011-04-16T09:04:34Z</time>
      </trkpt>
      <trkpt lat="45.70444" lon="6.22943">
        <ele>1592.0805664062</ele>
        <time>2011-04-16T09:04:38Z</time>
      </trkpt>
      <trkpt lat="45.70446" lon="6.22939">
        <ele>1587.7546386719</ele>
        <time>2011-04-16T09:04:45Z</time>
      </trkpt>
      <trkpt lat="45.70447" lon="6.22934">
        <ele>1583.9094238281</ele>
        <time>2011-04-16T09:04:52Z</time>
      </trkpt>
      <trkpt lat="45.70449" lon="6.22932">
        <ele>1579.5832519531</ele>
        <time>2011-04-16T09:04:58Z</time>
      </trkpt>
      <trkpt lat="45.7045" lon="6.22929">
        <ele>1577.1801757812</ele>
        <time>2011-04-16T09:05:02Z</time>
      </trkpt>
      <trkpt lat="45.70452" lon="6.22926">
        <ele>1575.2573242188</ele>
        <time>2011-04-16T09:05:07Z</time>
      </trkpt>
      <trkpt lat="45.70457" lon="6.22919">
        <ele>1572.3735351562</ele>
        <time>2011-04-16T09:05:10Z</time>
      </trkpt>
      <trkpt lat="45.70453" lon="6.22907">
        <ele>1567.0864257812</ele>
        <time>2011-04-16T09:05:15Z</time>
      </trkpt>
      <trkpt lat="45.70439" lon="6.22895">
        <ele>1556.51171875</ele>
        <time>2011-04-16T09:05:22Z</time>
      </trkpt>
      <trkpt lat="45.70425" lon="6.22893">
        <ele>1553.1472167969</ele>
        <time>2011-04-16T09:05:27Z</time>
      </trkpt>
      <trkpt lat="45.70422" lon="6.22893">
        <ele>1552.6665039062</ele>
        <time>2011-04-16T09:05:28Z</time>
      </trkpt>
      <trkpt lat="45.70411" lon="6.22884">
        <ele>1549.3020019531</ele>
        <time>2011-04-16T09:05:33Z</time>
      </trkpt>
      <trkpt lat="45.70405" lon="6.22878">
        <ele>1548.8212890625</ele>
        <time>2011-04-16T09:05:35Z</time>
      </trkpt>
      <trkpt lat="45.70395" lon="6.22872">
        <ele>1544.4951171875</ele>
        <time>2011-04-16T09:05:40Z</time>
      </trkpt>
      <trkpt lat="45.70389" lon="6.22858">
        <ele>1543.0532226562</ele>
        <time>2011-04-16T09:05:44Z</time>
      </trkpt>
      <trkpt lat="45.70388" lon="6.22847">
        <ele>1545.4565429688</ele>
        <time>2011-04-16T09:05:46Z</time>
      </trkpt>
      <trkpt lat="45.70382" lon="6.22804">
        <ele>1542.0920410156</ele>
        <time>2011-04-16T09:05:53Z</time>
      </trkpt>
      <trkpt lat="45.70381" lon="6.22791">
        <ele>1540.6499023438</ele>
        <time>2011-04-16T09:05:57Z</time>
      </trkpt>
      <trkpt lat="45.70381" lon="6.22782">
        <ele>1541.1306152344</ele>
        <time>2011-04-16T09:06:01Z</time>
      </trkpt>
      <trkpt lat="45.70381" lon="6.22781">
        <ele>1542.0920410156</ele>
        <time>2011-04-16T09:06:02Z</time>
      </trkpt>
      <trkpt lat="45.7038" lon="6.22775">
        <ele>1544.4951171875</ele>
        <time>2011-04-16T09:06:06Z</time>
      </trkpt>
      <trkpt lat="45.70379" lon="6.22769">
        <ele>1544.9758300781</ele>
        <time>2011-04-16T09:06:10Z</time>
      </trkpt>
      <trkpt lat="45.70379" lon="6.22766">
        <ele>1545.4565429688</ele>
        <time>2011-04-16T09:06:12Z</time>
      </trkpt>
      <trkpt lat="45.70375" lon="6.22761">
        <ele>1544.0146484375</ele>
        <time>2011-04-16T09:06:17Z</time>
      </trkpt>
      <trkpt lat="45.70367" lon="6.22752">
        <ele>1542.5727539062</ele>
        <time>2011-04-16T09:06:21Z</time>
      </trkpt>
      <trkpt lat="45.70361" lon="6.22747">
        <ele>1538.7275390625</ele>
        <time>2011-04-16T09:06:27Z</time>
      </trkpt>
      <trkpt lat="45.70354" lon="6.22736">
        <ele>1539.6887207031</ele>
        <time>2011-04-16T09:06:33Z</time>
      </trkpt>
      <trkpt lat="45.70348" lon="6.22725">
        <ele>1539.6887207031</ele>
        <time>2011-04-16T09:06:38Z</time>
      </trkpt>
      <trkpt lat="45.70344" lon="6.2272">
        <ele>1539.6887207031</ele>
        <time>2011-04-16T09:06:47Z</time>
      </trkpt>
      <trkpt lat="45.70341" lon="6.22713">
        <ele>1539.2080078125</ele>
        <time>2011-04-16T09:06:53Z</time>
      </trkpt>
      <trkpt lat="45.70338" lon="6.22707">
        <ele>1538.7275390625</ele>
        <time>2011-04-16T09:06:59Z</time>
      </trkpt>
      <trkpt lat="45.70336" lon="6.22708">
        <ele>1533.9208984375</ele>
        <time>2011-04-16T09:07:06Z</time>
      </trkpt>
      <trkpt lat="45.70334" lon="6.2271">
        <ele>1528.1528320312</ele>
        <time>2011-04-16T09:07:12Z</time>
      </trkpt>
      <trkpt lat="45.70331" lon="6.22705">
        <ele>1528.1528320312</ele>
        <time>2011-04-16T09:07:18Z</time>
      </trkpt>
      <trkpt lat="45.70327" lon="6.22698">
        <ele>1527.6721191406</ele>
        <time>2011-04-16T09:07:27Z</time>
      </trkpt>
      <trkpt lat="45.70325" lon="6.22692">
        <ele>1527.1916503906</ele>
        <time>2011-04-16T09:07:34Z</time>
      </trkpt>
      <trkpt lat="45.70325" lon="6.22687">
        <ele>1525.2687988281</ele>
        <time>2011-04-16T09:07:41Z</time>
      </trkpt>
      <trkpt lat="45.70325" lon="6.22687">
        <ele>1525.2687988281</ele>
        <time>2011-04-16T09:07:46Z</time>
      </trkpt>
      <trkpt lat="45.70325" lon="6.22686">
        <ele>1524.3076171875</ele>
        <time>2011-04-16T09:07:52Z</time>
      </trkpt>
      <trkpt lat="45.70325" lon="6.22679">
        <ele>1521.4235839844</ele>
        <time>2011-04-16T09:07:59Z</time>
      </trkpt>
      <trkpt lat="45.70322" lon="6.22672">
        <ele>1517.0979003906</ele>
        <time>2011-04-16T09:08:07Z</time>
      </trkpt>
      <trkpt lat="45.70319" lon="6.22665">
        <ele>1515.1750488281</ele>
        <time>2011-04-16T09:08:14Z</time>
      </trkpt>
      <trkpt lat="45.70319" lon="6.22661">
        <ele>1514.6943359375</ele>
        <time>2011-04-16T09:08:20Z</time>
      </trkpt>
      <trkpt lat="45.70318" lon="6.22659">
        <ele>1514.2136230469</ele>
        <time>2011-04-16T09:08:26Z</time>
      </trkpt>
      <trkpt lat="45.70316" lon="6.22652">
        <ele>1516.1364746094</ele>
        <time>2011-04-16T09:08:33Z</time>
      </trkpt>
      <trkpt lat="45.70313" lon="6.22643">
        <ele>1516.1364746094</ele>
        <time>2011-04-16T09:08:40Z</time>
      </trkpt>
      <trkpt lat="45.70313" lon="6.22641">
        <ele>1515.6557617188</ele>
        <time>2011-04-16T09:08:41Z</time>
      </trkpt>
      <trkpt lat="45.70308" lon="6.22627">
        <ele>1514.2136230469</ele>
        <time>2011-04-16T09:08:50Z</time>
      </trkpt>
      <trkpt lat="45.70306" lon="6.22626">
        <ele>1513.2524414062</ele>
        <time>2011-04-16T09:08:56Z</time>
      </trkpt>
      <trkpt lat="45.70304" lon="6.2262">
        <ele>1513.2524414062</ele>
        <time>2011-04-16T09:09:04Z</time>
      </trkpt>
      <trkpt lat="45.70301" lon="6.2261">
        <ele>1513.7329101562</ele>
        <time>2011-04-16T09:09:10Z</time>
      </trkpt>
      <trkpt lat="45.703" lon="6.22597">
        <ele>1512.7717285156</ele>
        <time>2011-04-16T09:09:18Z</time>
      </trkpt>
      <trkpt lat="45.70299" lon="6.22588">
        <ele>1511.810546875</ele>
        <time>2011-04-16T09:09:24Z</time>
      </trkpt>
      <trkpt lat="45.70298" lon="6.22586">
        <ele>1511.810546875</ele>
        <time>2011-04-16T09:09:27Z</time>
      </trkpt>
      <trkpt lat="45.70292" lon="6.22567">
        <ele>1509.4072265625</ele>
        <time>2011-04-16T09:09:34Z</time>
      </trkpt>
      <trkpt lat="45.7029" lon="6.22559">
        <ele>1507.9653320312</ele>
        <time>2011-04-16T09:09:37Z</time>
      </trkpt>
      <trkpt lat="45.70288" lon="6.22554">
        <ele>1507.4846191406</ele>
        <time>2011-04-16T09:09:43Z</time>
      </trkpt>
      <trkpt lat="45.70286" lon="6.22548">
        <ele>1507.4846191406</ele>
        <time>2011-04-16T09:09:50Z</time>
      </trkpt>
      <trkpt lat="45.70286" lon="6.22548">
        <ele>1507.00390625</ele>
        <time>2011-04-16T09:10:00Z</time>
      </trkpt>
      <trkpt lat="45.70284" lon="6.22547">
        <ele>1503.6394042969</ele>
        <time>2011-04-16T09:10:12Z</time>
      </trkpt>
      <trkpt lat="45.70284" lon="6.22542">
        <ele>1503.1586914062</ele>
        <time>2011-04-16T09:10:17Z</time>
      </trkpt>
      <trkpt lat="45.70284" lon="6.22541">
        <ele>1503.1586914062</ele>
        <time>2011-04-16T09:10:19Z</time>
      </trkpt>
      <trkpt lat="45.70283" lon="6.22541">
        <ele>1503.1586914062</ele>
        <time>2011-04-16T09:10:20Z</time>
      </trkpt>
      <trkpt lat="45.70282" lon="6.22536">
        <ele>1504.6005859375</ele>
        <time>2011-04-16T09:10:26Z</time>
      </trkpt>
      <trkpt lat="45.70282" lon="6.22529">
        <ele>1504.6005859375</ele>
        <time>2011-04-16T09:10:32Z</time>
      </trkpt>
      <trkpt lat="45.70282" lon="6.22524">
        <ele>1505.0812988281</ele>
        <time>2011-04-16T09:10:38Z</time>
      </trkpt>
      <trkpt lat="45.7028" lon="6.22517">
        <ele>1504.6005859375</ele>
        <time>2011-04-16T09:10:45Z</time>
      </trkpt>
      <trkpt lat="45.7028" lon="6.22512">
        <ele>1504.6005859375</ele>
        <time>2011-04-16T09:10:51Z</time>
      </trkpt>
      <trkpt lat="45.70279" lon="6.22512">
        <ele>1505.0812988281</ele>
        <time>2011-04-16T09:10:55Z</time>
      </trkpt>
      <trkpt lat="45.70277" lon="6.22507">
        <ele>1505.0812988281</ele>
        <time>2011-04-16T09:11:00Z</time>
      </trkpt>
      <trkpt lat="45.70277" lon="6.22501">
        <ele>1505.0812988281</ele>
        <time>2011-04-16T09:11:04Z</time>
      </trkpt>
      <trkpt lat="45.70276" lon="6.22498">
        <ele>1506.0424804688</ele>
        <time>2011-04-16T09:11:09Z</time>
      </trkpt>
      <trkpt lat="45.70274" lon="6.2249">
        <ele>1506.5231933594</ele>
        <time>2011-04-16T09:11:16Z</time>
      </trkpt>
      <trkpt lat="45.70273" lon="6.22486">
        <ele>1506.5231933594</ele>
        <time>2011-04-16T09:11:23Z</time>
      </trkpt>
      <trkpt lat="45.70272" lon="6.22484">
        <ele>1506.5231933594</ele>
        <time>2011-04-16T09:11:28Z</time>
      </trkpt>
      <trkpt lat="45.70272" lon="6.22484">
        <ele>1507.00390625</ele>
        <time>2011-04-16T09:11:34Z</time>
      </trkpt>
      <trkpt lat="45.70272" lon="6.22483">
        <ele>1507.00390625</ele>
        <time>2011-04-16T09:11:40Z</time>
      </trkpt>
      <trkpt lat="45.70272" lon="6.22482">
        <ele>1507.9653320312</ele>
        <time>2011-04-16T09:11:55Z</time>
      </trkpt>
      <trkpt lat="45.70272" lon="6.2248">
        <ele>1508.9265136719</ele>
        <time>2011-04-16T09:12:07Z</time>
      </trkpt>
      <trkpt lat="45.70273" lon="6.22478">
        <ele>1510.3684082031</ele>
        <time>2011-04-16T09:12:15Z</time>
      </trkpt>
      <trkpt lat="45.70274" lon="6.22472">
        <ele>1510.3684082031</ele>
        <time>2011-04-16T09:12:21Z</time>
      </trkpt>
      <trkpt lat="45.70274" lon="6.22471">
        <ele>1510.8491210938</ele>
        <time>2011-04-16T09:12:31Z</time>
      </trkpt>
      <trkpt lat="45.70274" lon="6.22472">
        <ele>1511.810546875</ele>
        <time>2011-04-16T09:12:38Z</time>
      </trkpt>
      <trkpt lat="45.70274" lon="6.22472">
        <ele>1511.3298339844</ele>
        <time>2011-04-16T09:12:45Z</time>
      </trkpt>
      <trkpt lat="45.70274" lon="6.22469">
        <ele>1511.3298339844</ele>
        <time>2011-04-16T09:12:52Z</time>
      </trkpt>
      <trkpt lat="45.70273" lon="6.22463">
        <ele>1510.3684082031</ele>
        <time>2011-04-16T09:12:57Z</time>
      </trkpt>
      <trkpt lat="45.70273" lon="6.2246">
        <ele>1510.3684082031</ele>
        <time>2011-04-16T09:12:59Z</time>
      </trkpt>
      <trkpt lat="45.70273" lon="6.2246">
        <ele>1510.3684082031</ele>
        <time>2011-04-16T09:13:00Z</time>
      </trkpt>
      <trkpt lat="45.70272" lon="6.22456">
        <ele>1511.3298339844</ele>
        <time>2011-04-16T09:13:06Z</time>
      </trkpt>
      <trkpt lat="45.70274" lon="6.22452">
        <ele>1512.291015625</ele>
        <time>2011-04-16T09:13:11Z</time>
      </trkpt>
      <trkpt lat="45.70276" lon="6.22446">
        <ele>1513.7329101562</ele>
        <time>2011-04-16T09:13:16Z</time>
      </trkpt>
      <trkpt lat="45.70275" lon="6.22441">
        <ele>1513.2524414062</ele>
        <time>2011-04-16T09:13:21Z</time>
      </trkpt>
      <trkpt lat="45.70274" lon="6.22434">
        <ele>1512.291015625</ele>
        <time>2011-04-16T09:13:29Z</time>
      </trkpt>
      <trkpt lat="45.70272" lon="6.22432">
        <ele>1512.291015625</ele>
        <time>2011-04-16T09:13:38Z</time>
      </trkpt>
      <trkpt lat="45.70271" lon="6.22432">
        <ele>1511.3298339844</ele>
        <time>2011-04-16T09:13:52Z</time>
      </trkpt>
      <trkpt lat="45.70271" lon="6.22432">
        <ele>1511.3298339844</ele>
        <time>2011-04-16T09:13:59Z</time>
      </trkpt>
      <trkpt lat="45.70271" lon="6.22432">
        <ele>1510.8491210938</ele>
        <time>2011-04-16T09:14:01Z</time>
      </trkpt>
      <trkpt lat="45.70271" lon="6.22432">
        <ele>1510.8491210938</ele>
        <time>2011-04-16T09:14:04Z</time>
      </trkpt>
      <trkpt lat="45.70268" lon="6.2243">
        <ele>1509.8876953125</ele>
        <time>2011-04-16T09:14:18Z</time>
      </trkpt>
      <trkpt lat="45.70266" lon="6.22425">
        <ele>1510.3684082031</ele>
        <time>2011-04-16T09:14:27Z</time>
      </trkpt>
      <trkpt lat="45.70267" lon="6.22415">
        <ele>1511.3298339844</ele>
        <time>2011-04-16T09:14:34Z</time>
      </trkpt>
      <trkpt lat="45.70265" lon="6.22401">
        <ele>1512.291015625</ele>
        <time>2011-04-16T09:14:42Z</time>
      </trkpt>
      <trkpt lat="45.70261" lon="6.22388">
        <ele>1512.7717285156</ele>
        <time>2011-04-16T09:14:50Z</time>
      </trkpt>
      <trkpt lat="45.70259" lon="6.22374">
        <ele>1511.3298339844</ele>
        <time>2011-04-16T09:14:58Z</time>
      </trkpt>
      <trkpt lat="45.70258" lon="6.22365">
        <ele>1511.3298339844</ele>
        <time>2011-04-16T09:15:04Z</time>
      </trkpt>
      <trkpt lat="45.70258" lon="6.22361">
        <ele>1510.8491210938</ele>
        <time>2011-04-16T09:15:07Z</time>
      </trkpt>
      <trkpt lat="45.70258" lon="6.22356">
        <ele>1510.8491210938</ele>
        <time>2011-04-16T09:15:10Z</time>
      </trkpt>
      <trkpt lat="45.70258" lon="6.22344">
        <ele>1510.8491210938</ele>
        <time>2011-04-16T09:15:17Z</time>
      </trkpt>
      <trkpt lat="45.70255" lon="6.22338">
        <ele>1509.8876953125</ele>
        <time>2011-04-16T09:15:22Z</time>
      </trkpt>
      <trkpt lat="45.70243" lon="6.22323">
        <ele>1507.4846191406</ele>
        <time>2011-04-16T09:15:27Z</time>
      </trkpt>
      <trkpt lat="45.70227" lon="6.22306">
        <ele>1505.0812988281</ele>
        <time>2011-04-16T09:15:33Z</time>
      </trkpt>
      <trkpt lat="45.70215" lon="6.22296">
        <ele>1502.197265625</ele>
        <time>2011-04-16T09:15:39Z</time>
      </trkpt>
      <trkpt lat="45.70214" lon="6.22295">
        <ele>1502.197265625</ele>
        <time>2011-04-16T09:15:43Z</time>
      </trkpt>
      <trkpt lat="45.70213" lon="6.22294">
        <ele>1501.716796875</ele>
        <time>2011-04-16T09:15:44Z</time>
      </trkpt>
      <trkpt lat="45.70206" lon="6.22281">
        <ele>1496.9099121094</ele>
        <time>2011-04-16T09:15:51Z</time>
      </trkpt>
      <trkpt lat="45.70198" lon="6.2226">
        <ele>1496.4294433594</ele>
        <time>2011-04-16T09:15:56Z</time>
      </trkpt>
      <trkpt lat="45.70193" lon="6.22245">
        <ele>1496.9099121094</ele>
        <time>2011-04-16T09:16:00Z</time>
      </trkpt>
      <trkpt lat="45.70182" lon="6.22217">
        <ele>1496.9099121094</ele>
        <time>2011-04-16T09:16:06Z</time>
      </trkpt>
      <trkpt lat="45.70171" lon="6.22199">
        <ele>1497.8713378906</ele>
        <time>2011-04-16T09:16:12Z</time>
      </trkpt>
      <trkpt lat="45.7016" lon="6.22184">
        <ele>1496.9099121094</ele>
        <time>2011-04-16T09:16:20Z</time>
      </trkpt>
      <trkpt lat="45.70152" lon="6.22171">
        <ele>1496.9099121094</ele>
        <time>2011-04-16T09:16:24Z</time>
      </trkpt>
      <trkpt lat="45.70145" lon="6.22164">
        <ele>1496.4294433594</ele>
        <time>2011-04-16T09:16:28Z</time>
      </trkpt>
      <trkpt lat="45.70135" lon="6.22154">
        <ele>1492.5842285156</ele>
        <time>2011-04-16T09:16:33Z</time>
      </trkpt>
      <trkpt lat="45.70128" lon="6.22147">
        <ele>1490.1809082031</ele>
        <time>2011-04-16T09:16:36Z</time>
      </trkpt>
      <trkpt lat="45.70127" lon="6.22144">
        <ele>1490.1809082031</ele>
        <time>2011-04-16T09:16:42Z</time>
      </trkpt>
      <trkpt lat="45.70123" lon="6.22141">
        <ele>1488.2583007812</ele>
        <time>2011-04-16T09:16:47Z</time>
      </trkpt>
      <trkpt lat="45.70118" lon="6.22133">
        <ele>1486.3356933594</ele>
        <time>2011-04-16T09:16:53Z</time>
      </trkpt>
      <trkpt lat="45.70115" lon="6.22131">
        <ele>1485.3742675781</ele>
        <time>2011-04-16T09:16:56Z</time>
      </trkpt>
      <trkpt lat="45.70111" lon="6.22128">
        <ele>1483.9321289062</ele>
        <time>2011-04-16T09:17:00Z</time>
      </trkpt>
      <trkpt lat="45.70095" lon="6.22114">
        <ele>1483.4514160156</ele>
        <time>2011-04-16T09:17:07Z</time>
      </trkpt>
      <trkpt lat="45.70087" lon="6.22105">
        <ele>1482.970703125</ele>
        <time>2011-04-16T09:17:11Z</time>
      </trkpt>
      <trkpt lat="45.70078" lon="6.22093">
        <ele>1480.5676269531</ele>
        <time>2011-04-16T09:17:15Z</time>
      </trkpt>
      <trkpt lat="45.70064" lon="6.2208">
        <ele>1478.1643066406</ele>
        <time>2011-04-16T09:17:20Z</time>
      </trkpt>
      <trkpt lat="45.70056" lon="6.22075">
        <ele>1479.1254882812</ele>
        <time>2011-04-16T09:17:25Z</time>
      </trkpt>
      <trkpt lat="45.70053" lon="6.22073">
        <ele>1479.6062011719</ele>
        <time>2011-04-16T09:17:30Z</time>
      </trkpt>
      <trkpt lat="45.7005" lon="6.22071">
        <ele>1480.0869140625</ele>
        <time>2011-04-16T09:17:33Z</time>
      </trkpt>
      <trkpt lat="45.7004" lon="6.2206">
        <ele>1479.6062011719</ele>
        <time>2011-04-16T09:17:39Z</time>
      </trkpt>
      <trkpt lat="45.70027" lon="6.22047">
        <ele>1476.2416992188</ele>
        <time>2011-04-16T09:17:45Z</time>
      </trkpt>
      <trkpt lat="45.70018" lon="6.22042">
        <ele>1473.3579101562</ele>
        <time>2011-04-16T09:17:50Z</time>
      </trkpt>
      <trkpt lat="45.70017" lon="6.22041">
        <ele>1472.396484375</ele>
        <time>2011-04-16T09:17:52Z</time>
      </trkpt>
      <trkpt lat="45.70011" lon="6.22035">
        <ele>1469.9931640625</ele>
        <time>2011-04-16T09:17:58Z</time>
      </trkpt>
      <trkpt lat="45.70005" lon="6.2203">
        <ele>1469.0319824219</ele>
        <time>2011-04-16T09:18:02Z</time>
      </trkpt>
      <trkpt lat="45.70002" lon="6.22028">
        <ele>1468.5512695312</ele>
        <time>2011-04-16T09:18:08Z</time>
      </trkpt>
      <trkpt lat="45.69999" lon="6.22027">
        <ele>1467.5895996094</ele>
        <time>2011-04-16T09:18:15Z</time>
      </trkpt>
      <trkpt lat="45.69999" lon="6.22025">
        <ele>1467.1091308594</ele>
        <time>2011-04-16T09:18:16Z</time>
      </trkpt>
      <trkpt lat="45.69992" lon="6.22019">
        <ele>1466.6284179688</ele>
        <time>2011-04-16T09:18:21Z</time>
      </trkpt>
      <trkpt lat="45.69984" lon="6.22012">
        <ele>1465.6672363281</ele>
        <time>2011-04-16T09:18:27Z</time>
      </trkpt>
      <trkpt lat="45.69972" lon="6.22003">
        <ele>1464.2250976562</ele>
        <time>2011-04-16T09:18:33Z</time>
      </trkpt>
      <trkpt lat="45.69961" lon="6.21997">
        <ele>1462.783203125</ele>
        <time>2011-04-16T09:18:38Z</time>
      </trkpt>
      <trkpt lat="45.6995" lon="6.2199">
        <ele>1461.3413085938</ele>
        <time>2011-04-16T09:18:42Z</time>
      </trkpt>
      <trkpt lat="45.69936" lon="6.21982">
        <ele>1459.8991699219</ele>
        <time>2011-04-16T09:18:48Z</time>
      </trkpt>
      <trkpt lat="45.6992" lon="6.21977">
        <ele>1459.4187011719</ele>
        <time>2011-04-16T09:18:53Z</time>
      </trkpt>
      <trkpt lat="45.69901" lon="6.21972">
        <ele>1457.0153808594</ele>
        <time>2011-04-16T09:18:59Z</time>
      </trkpt>
      <trkpt lat="45.69884" lon="6.21968">
        <ele>1457.49609375</ele>
        <time>2011-04-16T09:19:05Z</time>
      </trkpt>
      <trkpt lat="45.69872" lon="6.21959">
        <ele>1458.9379882812</ele>
        <time>2011-04-16T09:19:10Z</time>
      </trkpt>
      <trkpt lat="45.69861" lon="6.21951">
        <ele>1458.4572753906</ele>
        <time>2011-04-16T09:19:15Z</time>
      </trkpt>
      <trkpt lat="45.69849" lon="6.21943">
        <ele>1456.0539550781</ele>
        <time>2011-04-16T09:19:21Z</time>
      </trkpt>
      <trkpt lat="45.69834" lon="6.2194">
        <ele>1453.1701660156</ele>
        <time>2011-04-16T09:19:27Z</time>
      </trkpt>
      <trkpt lat="45.69828" lon="6.21933">
        <ele>1452.689453125</ele>
        <time>2011-04-16T09:19:32Z</time>
      </trkpt>
      <trkpt lat="45.69827" lon="6.21935">
        <ele>1450.2861328125</ele>
        <time>2011-04-16T09:19:41Z</time>
      </trkpt>
      <trkpt lat="45.69825" lon="6.21936">
        <ele>1449.3247070312</ele>
        <time>2011-04-16T09:19:55Z</time>
      </trkpt>
      <trkpt lat="45.69823" lon="6.21933">
        <ele>1451.2473144531</ele>
        <time>2011-04-16T09:20:03Z</time>
      </trkpt>
      <trkpt lat="45.69821" lon="6.21932">
        <ele>1452.689453125</ele>
        <time>2011-04-16T09:20:07Z</time>
      </trkpt>
      <trkpt lat="45.69823" lon="6.21931">
        <ele>1455.0927734375</ele>
        <time>2011-04-16T09:20:24Z</time>
      </trkpt>
      <trkpt lat="45.69823" lon="6.21933">
        <ele>1453.1701660156</ele>
        <time>2011-04-16T09:20:34Z</time>
      </trkpt>
      <trkpt lat="45.69822" lon="6.21933">
        <ele>1452.689453125</ele>
        <time>2011-04-16T09:20:38Z</time>
      </trkpt>
      <trkpt lat="45.69822" lon="6.21934">
        <ele>1451.2473144531</ele>
        <time>2011-04-16T09:20:47Z</time>
      </trkpt>
      <trkpt lat="45.69815" lon="6.21931">
        <ele>1451.7280273438</ele>
        <time>2011-04-16T09:20:57Z</time>
      </trkpt>
      <trkpt lat="45.69814" lon="6.21931">
        <ele>1452.2087402344</ele>
        <time>2011-04-16T09:21:00Z</time>
      </trkpt>
      <trkpt lat="45.69811" lon="6.21929">
        <ele>1452.689453125</ele>
        <time>2011-04-16T09:21:06Z</time>
      </trkpt>
      <trkpt lat="45.69801" lon="6.21926">
        <ele>1450.2861328125</ele>
        <time>2011-04-16T09:21:12Z</time>
      </trkpt>
      <trkpt lat="45.69796" lon="6.21924">
        <ele>1454.1315917969</ele>
        <time>2011-04-16T09:21:17Z</time>
      </trkpt>
      <trkpt lat="45.69791" lon="6.21924">
        <ele>1454.1315917969</ele>
        <time>2011-04-16T09:21:27Z</time>
      </trkpt>
      <trkpt lat="45.69789" lon="6.21922">
        <ele>1453.6508789062</ele>
        <time>2011-04-16T09:21:32Z</time>
      </trkpt>
      <trkpt lat="45.69784" lon="6.21921">
        <ele>1447.8828125</ele>
        <time>2011-04-16T09:21:37Z</time>
      </trkpt>
      <trkpt lat="45.69778" lon="6.21919">
        <ele>1441.6342773438</ele>
        <time>2011-04-16T09:21:43Z</time>
      </trkpt>
      <trkpt lat="45.69776" lon="6.21917">
        <ele>1441.1535644531</ele>
        <time>2011-04-16T09:21:44Z</time>
      </trkpt>
      <trkpt lat="45.69768" lon="6.21919">
        <ele>1436.8276367188</ele>
        <time>2011-04-16T09:21:47Z</time>
      </trkpt>
      <trkpt lat="45.69762" lon="6.21921">
        <ele>1438.2697753906</ele>
        <time>2011-04-16T09:21:51Z</time>
      </trkpt>
      <trkpt lat="45.69758" lon="6.21923">
        <ele>1438.7504882812</ele>
        <time>2011-04-16T09:21:58Z</time>
      </trkpt>
      <trkpt lat="45.69753" lon="6.21926">
        <ele>1436.8276367188</ele>
        <time>2011-04-16T09:22:02Z</time>
      </trkpt>
      <trkpt lat="45.69748" lon="6.21932">
        <ele>1432.5017089844</ele>
        <time>2011-04-16T09:22:07Z</time>
      </trkpt>
      <trkpt lat="45.69744" lon="6.21933">
        <ele>1432.0209960938</ele>
        <time>2011-04-16T09:22:12Z</time>
      </trkpt>
      <trkpt lat="45.69737" lon="6.21932">
        <ele>1432.9821777344</ele>
        <time>2011-04-16T09:22:31Z</time>
      </trkpt>
      <trkpt lat="45.69736" lon="6.2193">
        <ele>1433.9436035156</ele>
        <time>2011-04-16T09:22:32Z</time>
      </trkpt>
      <trkpt lat="45.6973" lon="6.21926">
        <ele>1431.5402832031</ele>
        <time>2011-04-16T09:22:36Z</time>
      </trkpt>
      <trkpt lat="45.69727" lon="6.21929">
        <ele>1427.2145996094</ele>
        <time>2011-04-16T09:22:42Z</time>
      </trkpt>
      <trkpt lat="45.69725" lon="6.21932">
        <ele>1423.3693847656</ele>
        <time>2011-04-16T09:22:48Z</time>
      </trkpt>
      <trkpt lat="45.69723" lon="6.21934">
        <ele>1421.4465332031</ele>
        <time>2011-04-16T09:22:53Z</time>
      </trkpt>
      <trkpt lat="45.69718" lon="6.21934">
        <ele>1420.4853515625</ele>
        <time>2011-04-16T09:22:59Z</time>
      </trkpt>
      <trkpt lat="45.69703" lon="6.21934">
        <ele>1417.6010742188</ele>
        <time>2011-04-16T09:23:06Z</time>
      </trkpt>
      <trkpt lat="45.69701" lon="6.21934">
        <ele>1416.6398925781</ele>
        <time>2011-04-16T09:23:07Z</time>
      </trkpt>
      <trkpt lat="45.69688" lon="6.21932">
        <ele>1411.3527832031</ele>
        <time>2011-04-16T09:23:13Z</time>
      </trkpt>
      <trkpt lat="45.69682" lon="6.21932">
        <ele>1408.9494628906</ele>
        <time>2011-04-16T09:23:16Z</time>
      </trkpt>
      <trkpt lat="45.69682" lon="6.21929">
        <ele>1411.8334960938</ele>
        <time>2011-04-16T09:23:22Z</time>
      </trkpt>
      <trkpt lat="45.69682" lon="6.21932">
        <ele>1410.8720703125</ele>
        <time>2011-04-16T09:23:33Z</time>
      </trkpt>
      <trkpt lat="45.69681" lon="6.21932">
        <ele>1407.98828125</ele>
        <time>2011-04-16T09:23:56Z</time>
      </trkpt>
      <trkpt lat="45.69676" lon="6.21929">
        <ele>1405.1042480469</ele>
        <time>2011-04-16T09:24:03Z</time>
      </trkpt>
      <trkpt lat="45.69672" lon="6.21926">
        <ele>1402.7006835938</ele>
        <time>2011-04-16T09:24:09Z</time>
      </trkpt>
      <trkpt lat="45.69667" lon="6.21922">
        <ele>1399.8168945312</ele>
        <time>2011-04-16T09:24:16Z</time>
      </trkpt>
      <trkpt lat="45.69662" lon="6.21916">
        <ele>1395.9716796875</ele>
        <time>2011-04-16T09:24:23Z</time>
      </trkpt>
      <trkpt lat="45.69659" lon="6.21916">
        <ele>1395.0102539062</ele>
        <time>2011-04-16T09:24:26Z</time>
      </trkpt>
      <trkpt lat="45.69653" lon="6.21912">
        <ele>1393.0876464844</ele>
        <time>2011-04-16T09:24:32Z</time>
      </trkpt>
      <trkpt lat="45.69647" lon="6.21906">
        <ele>1390.2038574219</ele>
        <time>2011-04-16T09:24:38Z</time>
      </trkpt>
      <trkpt lat="45.69647" lon="6.21903">
        <ele>1388.7619628906</ele>
        <time>2011-04-16T09:24:40Z</time>
      </trkpt>
      <trkpt lat="45.69644" lon="6.21901">
        <ele>1384.9165039062</ele>
        <time>2011-04-16T09:24:45Z</time>
      </trkpt>
      <trkpt lat="45.69641" lon="6.21899">
        <ele>1384.4357910156</ele>
        <time>2011-04-16T09:24:52Z</time>
      </trkpt>
      <trkpt lat="45.69641" lon="6.219">
        <ele>1383.955078125</ele>
        <time>2011-04-16T09:25:08Z</time>
      </trkpt>
      <trkpt lat="45.69641" lon="6.21899">
        <ele>1384.9165039062</ele>
        <time>2011-04-16T09:25:28Z</time>
      </trkpt>
      <trkpt lat="45.69639" lon="6.219">
        <ele>1388.28125</ele>
        <time>2011-04-16T09:25:38Z</time>
      </trkpt>
      <trkpt lat="45.69641" lon="6.21899">
        <ele>1387.8002929688</ele>
        <time>2011-04-16T09:25:48Z</time>
      </trkpt>
      <trkpt lat="45.69641" lon="6.21896">
        <ele>1390.6843261719</ele>
        <time>2011-04-16T09:26:05Z</time>
      </trkpt>
      <trkpt lat="45.6964" lon="6.21896">
        <ele>1390.2038574219</ele>
        <time>2011-04-16T09:26:09Z</time>
      </trkpt>
      <trkpt lat="45.69633" lon="6.21892">
        <ele>1390.6843261719</ele>
        <time>2011-04-16T09:26:16Z</time>
      </trkpt>
      <trkpt lat="45.69633" lon="6.21891">
        <ele>1389.2424316406</ele>
        <time>2011-04-16T09:26:23Z</time>
      </trkpt>
      <trkpt lat="45.69632" lon="6.21889">
        <ele>1387.8002929688</ele>
        <time>2011-04-16T09:26:29Z</time>
      </trkpt>
      <trkpt lat="45.69632" lon="6.21887">
        <ele>1386.3583984375</ele>
        <time>2011-04-16T09:26:33Z</time>
      </trkpt>
      <trkpt lat="45.69633" lon="6.21875">
        <ele>1383.955078125</ele>
        <time>2011-04-16T09:26:40Z</time>
      </trkpt>
      <trkpt lat="45.6963" lon="6.21869">
        <ele>1381.5517578125</ele>
        <time>2011-04-16T09:26:44Z</time>
      </trkpt>
      <trkpt lat="45.69625" lon="6.21857">
        <ele>1377.2260742188</ele>
        <time>2011-04-16T09:26:52Z</time>
      </trkpt>
      <trkpt lat="45.69621" lon="6.21855">
        <ele>1374.8227539062</ele>
        <time>2011-04-16T09:26:56Z</time>
      </trkpt>
      <trkpt lat="45.6962" lon="6.21851">
        <ele>1373.380859375</ele>
        <time>2011-04-16T09:26:59Z</time>
      </trkpt>
      <trkpt lat="45.69613" lon="6.21844">
        <ele>1370.9772949219</ele>
        <time>2011-04-16T09:27:06Z</time>
      </trkpt>
      <trkpt lat="45.69613" lon="6.21833">
        <ele>1370.9772949219</ele>
        <time>2011-04-16T09:27:11Z</time>
      </trkpt>
      <trkpt lat="45.69613" lon="6.21831">
        <ele>1370.9772949219</ele>
        <time>2011-04-16T09:27:12Z</time>
      </trkpt>
      <trkpt lat="45.69613" lon="6.21827">
        <ele>1370.9772949219</ele>
        <time>2011-04-16T09:27:14Z</time>
      </trkpt>
      <trkpt lat="45.69612" lon="6.21815">
        <ele>1370.0158691406</ele>
        <time>2011-04-16T09:27:22Z</time>
      </trkpt>
      <trkpt lat="45.69612" lon="6.21805">
        <ele>1367.6125488281</ele>
        <time>2011-04-16T09:27:29Z</time>
      </trkpt>
      <trkpt lat="45.69611" lon="6.21792">
        <ele>1369.5354003906</ele>
        <time>2011-04-16T09:27:35Z</time>
      </trkpt>
      <trkpt lat="45.69607" lon="6.21783">
        <ele>1364.248046875</ele>
        <time>2011-04-16T09:27:43Z</time>
      </trkpt>
      <trkpt lat="45.69606" lon="6.21778">
        <ele>1365.6901855469</ele>
        <time>2011-04-16T09:27:45Z</time>
      </trkpt>
      <trkpt lat="45.69598" lon="6.21768">
        <ele>1362.3254394531</ele>
        <time>2011-04-16T09:27:54Z</time>
      </trkpt>
      <trkpt lat="45.69592" lon="6.21756">
        <ele>1360.4028320312</ele>
        <time>2011-04-16T09:27:59Z</time>
      </trkpt>
      <trkpt lat="45.69588" lon="6.2175">
        <ele>1359.4416503906</ele>
        <time>2011-04-16T09:28:02Z</time>
      </trkpt>
      <trkpt lat="45.69582" lon="6.21738">
        <ele>1357.5190429688</ele>
        <time>2011-04-16T09:28:08Z</time>
      </trkpt>
      <trkpt lat="45.69581" lon="6.21729">
        <ele>1355.1154785156</ele>
        <time>2011-04-16T09:28:13Z</time>
      </trkpt>
      <trkpt lat="45.69582" lon="6.21726">
        <ele>1356.0769042969</ele>
        <time>2011-04-16T09:28:15Z</time>
      </trkpt>
      <trkpt lat="45.69577" lon="6.21711">
        <ele>1353.6735839844</ele>
        <time>2011-04-16T09:28:21Z</time>
      </trkpt>
      <trkpt lat="45.69571" lon="6.21694">
        <ele>1352.7121582031</ele>
        <time>2011-04-16T09:28:26Z</time>
      </trkpt>
      <trkpt lat="45.69566" lon="6.21673">
        <ele>1351.2702636719</ele>
        <time>2011-04-16T09:28:32Z</time>
      </trkpt>
      <trkpt lat="45.69554" lon="6.21675">
        <ele>1346.9443359375</ele>
        <time>2011-04-16T09:28:38Z</time>
      </trkpt>
      <trkpt lat="45.69543" lon="6.21665">
        <ele>1344.541015625</ele>
        <time>2011-04-16T09:28:43Z</time>
      </trkpt>
      <trkpt lat="45.69546" lon="6.21647">
        <ele>1343.5798339844</ele>
        <time>2011-04-16T09:28:48Z</time>
      </trkpt>
      <trkpt lat="45.69558" lon="6.21621">
        <ele>1338.2924804688</ele>
        <time>2011-04-16T09:28:54Z</time>
      </trkpt>
      <trkpt lat="45.69569" lon="6.21599">
        <ele>1336.8503417969</ele>
        <time>2011-04-16T09:28:59Z</time>
      </trkpt>
      <trkpt lat="45.6957" lon="6.21595">
        <ele>1337.3310546875</ele>
        <time>2011-04-16T09:29:00Z</time>
      </trkpt>
      <trkpt lat="45.69558" lon="6.21593">
        <ele>1335.4084472656</ele>
        <time>2011-04-16T09:29:04Z</time>
      </trkpt>
      <trkpt lat="45.6954" lon="6.21592">
        <ele>1333.9665527344</ele>
        <time>2011-04-16T09:29:07Z</time>
      </trkpt>
      <trkpt lat="45.69529" lon="6.21588">
        <ele>1336.8503417969</ele>
        <time>2011-04-16T09:29:11Z</time>
      </trkpt>
      <trkpt lat="45.69522" lon="6.21583">
        <ele>1337.8117675781</ele>
        <time>2011-04-16T09:29:14Z</time>
      </trkpt>
      <trkpt lat="45.69517" lon="6.21578">
        <ele>1337.3310546875</ele>
        <time>2011-04-16T09:29:17Z</time>
      </trkpt>
      <trkpt lat="45.69513" lon="6.21574">
        <ele>1337.3310546875</ele>
        <time>2011-04-16T09:29:20Z</time>
      </trkpt>
      <trkpt lat="45.6951" lon="6.21563">
        <ele>1338.7731933594</ele>
        <time>2011-04-16T09:29:26Z</time>
      </trkpt>
      <trkpt lat="45.69498" lon="6.21549">
        <ele>1340.6958007812</ele>
        <time>2011-04-16T09:29:34Z</time>
      </trkpt>
      <trkpt lat="45.69489" lon="6.21541">
        <ele>1344.541015625</ele>
        <time>2011-04-16T09:29:40Z</time>
      </trkpt>
      <trkpt lat="45.6948" lon="6.21534">
        <ele>1347.9057617188</ele>
        <time>2011-04-16T09:29:46Z</time>
      </trkpt>
      <trkpt lat="45.69466" lon="6.2152">
        <ele>1353.1928710938</ele>
        <time>2011-04-16T09:29:55Z</time>
      </trkpt>
      <trkpt lat="45.69461" lon="6.21514">
        <ele>1355.1154785156</ele>
        <time>2011-04-16T09:30:00Z</time>
      </trkpt>
      <trkpt lat="45.69455" lon="6.21506">
        <ele>1356.0769042969</ele>
        <time>2011-04-16T09:30:05Z</time>
      </trkpt>
      <trkpt lat="45.69452" lon="6.21503">
        <ele>1355.1154785156</ele>
        <time>2011-04-16T09:30:07Z</time>
      </trkpt>
      <trkpt lat="45.69451" lon="6.21503">
        <ele>1350.7895507812</ele>
        <time>2011-04-16T09:30:12Z</time>
      </trkpt>
      <trkpt lat="45.69448" lon="6.21499">
        <ele>1348.8669433594</ele>
        <time>2011-04-16T09:30:19Z</time>
      </trkpt>
      <trkpt lat="45.69442" lon="6.21491">
        <ele>1347.4250488281</ele>
        <time>2011-04-16T09:30:26Z</time>
      </trkpt>
      <trkpt lat="45.69433" lon="6.21478">
        <ele>1347.9057617188</ele>
        <time>2011-04-16T09:30:33Z</time>
      </trkpt>
      <trkpt lat="45.69424" lon="6.21465">
        <ele>1349.34765625</ele>
        <time>2011-04-16T09:30:40Z</time>
      </trkpt>
      <trkpt lat="45.69414" lon="6.21446">
        <ele>1352.2314453125</ele>
        <time>2011-04-16T09:30:49Z</time>
      </trkpt>
      <trkpt lat="45.69407" lon="6.21434">
        <ele>1355.5961914062</ele>
        <time>2011-04-16T09:30:56Z</time>
      </trkpt>
      <trkpt lat="45.69397" lon="6.21419">
        <ele>1366.1706542969</ele>
        <time>2011-04-16T09:31:04Z</time>
      </trkpt>
      <trkpt lat="45.69387" lon="6.21411">
        <ele>1375.7839355469</ele>
        <time>2011-04-16T09:31:11Z</time>
      </trkpt>
      <trkpt lat="45.69386" lon="6.2141">
        <ele>1377.2260742188</ele>
        <time>2011-04-16T09:31:12Z</time>
      </trkpt>
      <trkpt lat="45.69379" lon="6.21408">
        <ele>1374.3420410156</ele>
        <time>2011-04-16T09:31:16Z</time>
      </trkpt>
      <trkpt lat="45.69364" lon="6.21399">
        <ele>1367.1320800781</ele>
        <time>2011-04-16T09:31:25Z</time>
      </trkpt>
      <trkpt lat="45.69349" lon="6.2139">
        <ele>1360.4028320312</ele>
        <time>2011-04-16T09:31:33Z</time>
      </trkpt>
      <trkpt lat="45.69336" lon="6.21377">
        <ele>1359.9221191406</ele>
        <time>2011-04-16T09:31:41Z</time>
      </trkpt>
      <trkpt lat="45.69328" lon="6.21359">
        <ele>1359.4416503906</ele>
        <time>2011-04-16T09:31:50Z</time>
      </trkpt>
      <trkpt lat="45.69319" lon="6.21344">
        <ele>1360.8835449219</ele>
        <time>2011-04-16T09:31:58Z</time>
      </trkpt>
      <trkpt lat="45.69308" lon="6.21331">
        <ele>1362.3254394531</ele>
        <time>2011-04-16T09:32:06Z</time>
      </trkpt>
      <trkpt lat="45.69296" lon="6.21323">
        <ele>1361.8449707031</ele>
        <time>2011-04-16T09:32:14Z</time>
      </trkpt>
      <trkpt lat="45.69281" lon="6.21317">
        <ele>1361.3642578125</ele>
        <time>2011-04-16T09:32:22Z</time>
      </trkpt>
      <trkpt lat="45.6927" lon="6.21305">
        <ele>1360.4028320312</ele>
        <time>2011-04-16T09:32:29Z</time>
      </trkpt>
      <trkpt lat="45.69261" lon="6.21289">
        <ele>1361.8449707031</ele>
        <time>2011-04-16T09:32:37Z</time>
      </trkpt>
      <trkpt lat="45.6925" lon="6.21268">
        <ele>1365.6901855469</ele>
        <time>2011-04-16T09:32:47Z</time>
      </trkpt>
      <trkpt lat="45.69239" lon="6.21248">
        <ele>1367.1320800781</ele>
        <time>2011-04-16T09:32:56Z</time>
      </trkpt>
      <trkpt lat="45.6923" lon="6.21229">
        <ele>1367.6125488281</ele>
        <time>2011-04-16T09:33:05Z</time>
      </trkpt>
      <trkpt lat="45.69216" lon="6.21206">
        <ele>1370.0158691406</ele>
        <time>2011-04-16T09:33:16Z</time>
      </trkpt>
      <trkpt lat="45.69211" lon="6.21203">
        <ele>1370.0158691406</ele>
        <time>2011-04-16T09:33:19Z</time>
      </trkpt>
      <trkpt lat="45.69204" lon="6.2121">
        <ele>1371.9384765625</ele>
        <time>2011-04-16T09:33:24Z</time>
      </trkpt>
      <trkpt lat="45.69207" lon="6.21226">
        <ele>1372.9001464844</ele>
        <time>2011-04-16T09:33:30Z</time>
      </trkpt>
      <trkpt lat="45.6921" lon="6.2123">
        <ele>1373.380859375</ele>
        <time>2011-04-16T09:33:32Z</time>
      </trkpt>
      <trkpt lat="45.69226" lon="6.21248">
        <ele>1375.3032226562</ele>
        <time>2011-04-16T09:33:42Z</time>
      </trkpt>
      <trkpt lat="45.69234" lon="6.21262">
        <ele>1376.7453613281</ele>
        <time>2011-04-16T09:33:48Z</time>
      </trkpt>
      <trkpt lat="45.69241" lon="6.21286">
        <ele>1378.66796875</ele>
        <time>2011-04-16T09:33:57Z</time>
      </trkpt>
      <trkpt lat="45.69244" lon="6.21308">
        <ele>1379.6291503906</ele>
        <time>2011-04-16T09:34:05Z</time>
      </trkpt>
      <trkpt lat="45.69247" lon="6.21331">
        <ele>1382.0324707031</ele>
        <time>2011-04-16T09:34:13Z</time>
      </trkpt>
      <trkpt lat="45.6925" lon="6.2134">
        <ele>1382.5131835938</ele>
        <time>2011-04-16T09:34:17Z</time>
      </trkpt>
      <trkpt lat="45.69264" lon="6.21358">
        <ele>1382.9936523438</ele>
        <time>2011-04-16T09:34:27Z</time>
      </trkpt>
      <trkpt lat="45.69279" lon="6.21375">
        <ele>1383.955078125</ele>
        <time>2011-04-16T09:34:36Z</time>
      </trkpt>
      <trkpt lat="45.69284" lon="6.21383">
        <ele>1384.9165039062</ele>
        <time>2011-04-16T09:34:40Z</time>
      </trkpt>
      <trkpt lat="45.69283" lon="6.21384">
        <ele>1385.3969726562</ele>
        <time>2011-04-16T09:34:47Z</time>
      </trkpt>
      <trkpt lat="45.69278" lon="6.21384">
        <ele>1385.3969726562</ele>
        <time>2011-04-16T09:34:53Z</time>
      </trkpt>
      <trkpt lat="45.69275" lon="6.21385">
        <ele>1386.3583984375</ele>
        <time>2011-04-16T09:34:58Z</time>
      </trkpt>
      <trkpt lat="45.69273" lon="6.21385">
        <ele>1387.3195800781</ele>
        <time>2011-04-16T09:35:03Z</time>
      </trkpt>
      <trkpt lat="45.69268" lon="6.21385">
        <ele>1388.7619628906</ele>
        <time>2011-04-16T09:35:10Z</time>
      </trkpt>
      <trkpt lat="45.69262" lon="6.21379">
        <ele>1390.2038574219</ele>
        <time>2011-04-16T09:35:19Z</time>
      </trkpt>
      <trkpt lat="45.69258" lon="6.21377">
        <ele>1389.2424316406</ele>
        <time>2011-04-16T09:35:26Z</time>
      </trkpt>
      <trkpt lat="45.69256" lon="6.21375">
        <ele>1387.8002929688</ele>
        <time>2011-04-16T09:35:32Z</time>
      </trkpt>
      <trkpt lat="45.6925" lon="6.2137">
        <ele>1386.3583984375</ele>
        <time>2011-04-16T09:35:37Z</time>
      </trkpt>
      <trkpt lat="45.69239" lon="6.21361">
        <ele>1385.8776855469</ele>
        <time>2011-04-16T09:35:45Z</time>
      </trkpt>
      <trkpt lat="45.69226" lon="6.21351">
        <ele>1387.8002929688</ele>
        <time>2011-04-16T09:35:54Z</time>
      </trkpt>
      <trkpt lat="45.69218" lon="6.21336">
        <ele>1389.7231445312</ele>
        <time>2011-04-16T09:36:03Z</time>
      </trkpt>
      <trkpt lat="45.6921" lon="6.21319">
        <ele>1390.2038574219</ele>
        <time>2011-04-16T09:36:12Z</time>
      </trkpt>
      <trkpt lat="45.69197" lon="6.21304">
        <ele>1391.6457519531</ele>
        <time>2011-04-16T09:36:23Z</time>
      </trkpt>
      <trkpt lat="45.69187" lon="6.21297">
        <ele>1392.6071777344</ele>
        <time>2011-04-16T09:36:30Z</time>
      </trkpt>
      <trkpt lat="45.69174" lon="6.21285">
        <ele>1395.9716796875</ele>
        <time>2011-04-16T09:36:39Z</time>
      </trkpt>
      <trkpt lat="45.69165" lon="6.21275">
        <ele>1397.4135742188</ele>
        <time>2011-04-16T09:36:46Z</time>
      </trkpt>
      <trkpt lat="45.69155" lon="6.21264">
        <ele>1398.85546875</ele>
        <time>2011-04-16T09:36:55Z</time>
      </trkpt>
      <trkpt lat="45.69144" lon="6.21252">
        <ele>1400.7780761719</ele>
        <time>2011-04-16T09:37:04Z</time>
      </trkpt>
      <trkpt lat="45.69135" lon="6.2124">
        <ele>1403.1813964844</ele>
        <time>2011-04-16T09:37:13Z</time>
      </trkpt>
      <trkpt lat="45.69124" lon="6.21228">
        <ele>1404.6235351562</ele>
        <time>2011-04-16T09:37:23Z</time>
      </trkpt>
      <trkpt lat="45.69118" lon="6.2122">
        <ele>1405.1042480469</ele>
        <time>2011-04-16T09:37:29Z</time>
      </trkpt>
      <trkpt lat="45.69106" lon="6.21211">
        <ele>1407.5075683594</ele>
        <time>2011-04-16T09:37:38Z</time>
      </trkpt>
      <trkpt lat="45.69094" lon="6.21202">
        <ele>1410.3913574219</ele>
        <time>2011-04-16T09:37:46Z</time>
      </trkpt>
      <trkpt lat="45.69078" lon="6.21195">
        <ele>1413.275390625</ele>
        <time>2011-04-16T09:37:56Z</time>
      </trkpt>
      <trkpt lat="45.6907" lon="6.21189">
        <ele>1415.1979980469</ele>
        <time>2011-04-16T09:38:03Z</time>
      </trkpt>
      <trkpt lat="45.6906" lon="6.21178">
        <ele>1416.1591796875</ele>
        <time>2011-04-16T09:38:10Z</time>
      </trkpt>
      <trkpt lat="45.69051" lon="6.21166">
        <ele>1419.0432128906</ele>
        <time>2011-04-16T09:38:18Z</time>
      </trkpt>
      <trkpt lat="45.69039" lon="6.21164">
        <ele>1417.1206054688</ele>
        <time>2011-04-16T09:38:25Z</time>
      </trkpt>
      <trkpt lat="45.69032" lon="6.21176">
        <ele>1417.1206054688</ele>
        <time>2011-04-16T09:38:31Z</time>
      </trkpt>
      <trkpt lat="45.69034" lon="6.21191">
        <ele>1417.6010742188</ele>
        <time>2011-04-16T09:38:38Z</time>
      </trkpt>
      <trkpt lat="45.69043" lon="6.21205">
        <ele>1419.0432128906</ele>
        <time>2011-04-16T09:38:46Z</time>
      </trkpt>
      <trkpt lat="45.69056" lon="6.21224">
        <ele>1420.9660644531</ele>
        <time>2011-04-16T09:38:56Z</time>
      </trkpt>
      <trkpt lat="45.69067" lon="6.21236">
        <ele>1422.4079589844</ele>
        <time>2011-04-16T09:39:04Z</time>
      </trkpt>
      <trkpt lat="45.6908" lon="6.21252">
        <ele>1423.8498535156</ele>
        <time>2011-04-16T09:39:13Z</time>
      </trkpt>
      <trkpt lat="45.69083" lon="6.21256">
        <ele>1424.3305664062</ele>
        <time>2011-04-16T09:39:15Z</time>
      </trkpt>
      <trkpt lat="45.6908" lon="6.21274">
        <ele>1425.2917480469</ele>
        <time>2011-04-16T09:39:22Z</time>
      </trkpt>
      <trkpt lat="45.6907" lon="6.21274">
        <ele>1426.2531738281</ele>
        <time>2011-04-16T09:39:27Z</time>
      </trkpt>
      <trkpt lat="45.69065" lon="6.21267">
        <ele>1426.2531738281</ele>
        <time>2011-04-16T09:39:31Z</time>
      </trkpt>
      <trkpt lat="45.69054" lon="6.21251">
        <ele>1426.2531738281</ele>
        <time>2011-04-16T09:39:39Z</time>
      </trkpt>
      <trkpt lat="45.69037" lon="6.21235">
        <ele>1427.2145996094</ele>
        <time>2011-04-16T09:39:50Z</time>
      </trkpt>
      <trkpt lat="45.69025" lon="6.21223">
        <ele>1428.17578125</ele>
        <time>2011-04-16T09:39:58Z</time>
      </trkpt>
      <trkpt lat="45.6901" lon="6.21209">
        <ele>1428.6564941406</ele>
        <time>2011-04-16T09:40:08Z</time>
      </trkpt>
      <trkpt lat="45.69009" lon="6.21209">
        <ele>1428.6564941406</ele>
        <time>2011-04-16T09:40:14Z</time>
      </trkpt>
      <trkpt lat="45.69009" lon="6.21211">
        <ele>1429.1369628906</ele>
        <time>2011-04-16T09:40:28Z</time>
      </trkpt>
      <trkpt lat="45.69007" lon="6.2121">
        <ele>1428.6564941406</ele>
        <time>2011-04-16T09:40:35Z</time>
      </trkpt>
      <trkpt lat="45.69006" lon="6.2121">
        <ele>1429.6176757812</ele>
        <time>2011-04-16T09:40:47Z</time>
      </trkpt>
      <trkpt lat="45.69006" lon="6.2121">
        <ele>1430.0983886719</ele>
        <time>2011-04-16T09:40:49Z</time>
      </trkpt>
      <trkpt lat="45.69006" lon="6.21211">
        <ele>1429.6176757812</ele>
        <time>2011-04-16T09:40:53Z</time>
      </trkpt>
      <trkpt lat="45.69006" lon="6.21211">
        <ele>1428.17578125</ele>
        <time>2011-04-16T09:41:02Z</time>
      </trkpt>
      <trkpt lat="45.69007" lon="6.21211">
        <ele>1428.17578125</ele>
        <time>2011-04-16T09:41:05Z</time>
      </trkpt>
      <trkpt lat="45.69007" lon="6.21211">
        <ele>1429.1369628906</ele>
        <time>2011-04-16T09:41:10Z</time>
      </trkpt>
      <trkpt lat="45.69006" lon="6.2121">
        <ele>1429.1369628906</ele>
        <time>2011-04-16T09:41:20Z</time>
      </trkpt>
      <trkpt lat="45.69007" lon="6.21208">
        <ele>1429.1369628906</ele>
        <time>2011-04-16T09:41:24Z</time>
      </trkpt>
      <trkpt lat="45.69007" lon="6.21209">
        <ele>1429.6176757812</ele>
        <time>2011-04-16T09:41:34Z</time>
      </trkpt>
      <trkpt lat="45.69004" lon="6.21206">
        <ele>1430.0983886719</ele>
        <time>2011-04-16T09:41:37Z</time>
      </trkpt>
      <trkpt lat="45.68999" lon="6.21201">
        <ele>1431.5402832031</ele>
        <time>2011-04-16T09:41:41Z</time>
      </trkpt>
      <trkpt lat="45.68988" lon="6.21189">
        <ele>1433.462890625</ele>
        <time>2011-04-16T09:41:48Z</time>
      </trkpt>
      <trkpt lat="45.68978" lon="6.21178">
        <ele>1437.3083496094</ele>
        <time>2011-04-16T09:41:55Z</time>
      </trkpt>
      <trkpt lat="45.68967" lon="6.21167">
        <ele>1441.6342773438</ele>
        <time>2011-04-16T09:42:03Z</time>
      </trkpt>
      <trkpt lat="45.68961" lon="6.21158">
        <ele>1442.595703125</ele>
        <time>2011-04-16T09:42:10Z</time>
      </trkpt>
      <trkpt lat="45.68956" lon="6.21152">
        <ele>1443.076171875</ele>
        <time>2011-04-16T09:42:16Z</time>
      </trkpt>
      <trkpt lat="45.68954" lon="6.21154">
        <ele>1443.076171875</ele>
        <time>2011-04-16T09:42:19Z</time>
      </trkpt>
      <trkpt lat="45.68959" lon="6.21159">
        <ele>1442.595703125</ele>
        <time>2011-04-16T09:42:23Z</time>
      </trkpt>
      <trkpt lat="45.68971" lon="6.21172">
        <ele>1434.9050292969</ele>
        <time>2011-04-16T09:42:29Z</time>
      </trkpt>
      <trkpt lat="45.68976" lon="6.2117">
        <ele>1429.6176757812</ele>
        <time>2011-04-16T09:42:34Z</time>
      </trkpt>
      <trkpt lat="45.68969" lon="6.21162">
        <ele>1431.0598144531</ele>
        <time>2011-04-16T09:42:39Z</time>
      </trkpt>
      <trkpt lat="45.68955" lon="6.21148">
        <ele>1434.4243164062</ele>
        <time>2011-04-16T09:42:47Z</time>
      </trkpt>
      <trkpt lat="45.6894" lon="6.21145">
        <ele>1436.3471679688</ele>
        <time>2011-04-16T09:42:55Z</time>
      </trkpt>
      <trkpt lat="45.68928" lon="6.21151">
        <ele>1438.2697753906</ele>
        <time>2011-04-16T09:43:02Z</time>
      </trkpt>
      <trkpt lat="45.68924" lon="6.21166">
        <ele>1439.2309570312</ele>
        <time>2011-04-16T09:43:08Z</time>
      </trkpt>
      <trkpt lat="45.68928" lon="6.2118">
        <ele>1439.2309570312</ele>
        <time>2011-04-16T09:43:14Z</time>
      </trkpt>
      <trkpt lat="45.68936" lon="6.21191">
        <ele>1441.1535644531</ele>
        <time>2011-04-16T09:43:20Z</time>
      </trkpt>
      <trkpt lat="45.68945" lon="6.21206">
        <ele>1447.8828125</ele>
        <time>2011-04-16T09:43:28Z</time>
      </trkpt>
      <trkpt lat="45.68953" lon="6.2122">
        <ele>1448.36328125</ele>
        <time>2011-04-16T09:43:34Z</time>
      </trkpt>
      <trkpt lat="45.68951" lon="6.21235">
        <ele>1446.9213867188</ele>
        <time>2011-04-16T09:43:40Z</time>
      </trkpt>
      <trkpt lat="45.68948" lon="6.21238">
        <ele>1446.9213867188</ele>
        <time>2011-04-16T09:43:42Z</time>
      </trkpt>
      <trkpt lat="45.68934" lon="6.21235">
        <ele>1446.4409179688</ele>
        <time>2011-04-16T09:43:49Z</time>
      </trkpt>
      <trkpt lat="45.6892" lon="6.21218">
        <ele>1446.9213867188</ele>
        <time>2011-04-16T09:43:59Z</time>
      </trkpt>
      <trkpt lat="45.68908" lon="6.21209">
        <ele>1448.36328125</ele>
        <time>2011-04-16T09:44:06Z</time>
      </trkpt>
      <trkpt lat="45.68893" lon="6.21203">
        <ele>1449.8054199219</ele>
        <time>2011-04-16T09:44:15Z</time>
      </trkpt>
      <trkpt lat="45.68875" lon="6.21194">
        <ele>1452.2087402344</ele>
        <time>2011-04-16T09:44:26Z</time>
      </trkpt>
      <trkpt lat="45.68861" lon="6.21186">
        <ele>1453.1701660156</ele>
        <time>2011-04-16T09:44:34Z</time>
      </trkpt>
      <trkpt lat="45.68851" lon="6.21175">
        <ele>1454.1315917969</ele>
        <time>2011-04-16T09:44:41Z</time>
      </trkpt>
      <trkpt lat="45.68837" lon="6.21164">
        <ele>1455.0927734375</ele>
        <time>2011-04-16T09:44:50Z</time>
      </trkpt>
      <trkpt lat="45.68826" lon="6.21155">
        <ele>1456.5346679688</ele>
        <time>2011-04-16T09:44:57Z</time>
      </trkpt>
      <trkpt lat="45.68812" lon="6.21144">
        <ele>1458.4572753906</ele>
        <time>2011-04-16T09:45:06Z</time>
      </trkpt>
      <trkpt lat="45.68801" lon="6.21136">
        <ele>1459.4187011719</ele>
        <time>2011-04-16T09:45:14Z</time>
      </trkpt>
      <trkpt lat="45.6879" lon="6.21128">
        <ele>1460.8605957031</ele>
        <time>2011-04-16T09:45:23Z</time>
      </trkpt>
      <trkpt lat="45.68778" lon="6.21118">
        <ele>1462.783203125</ele>
        <time>2011-04-16T09:45:33Z</time>
      </trkpt>
      <trkpt lat="45.68767" lon="6.21103">
        <ele>1465.1865234375</ele>
        <time>2011-04-16T09:45:43Z</time>
      </trkpt>
      <trkpt lat="45.68757" lon="6.21091">
        <ele>1467.1091308594</ele>
        <time>2011-04-16T09:45:52Z</time>
      </trkpt>
      <trkpt lat="45.6875" lon="6.21098">
        <ele>1467.5895996094</ele>
        <time>2011-04-16T09:45:58Z</time>
      </trkpt>
      <trkpt lat="45.68749" lon="6.21112">
        <ele>1468.0705566406</ele>
        <time>2011-04-16T09:46:04Z</time>
      </trkpt>
      <trkpt lat="45.68754" lon="6.21127">
        <ele>1468.5512695312</ele>
        <time>2011-04-16T09:46:11Z</time>
      </trkpt>
      <trkpt lat="45.68763" lon="6.21145">
        <ele>1469.5126953125</ele>
        <time>2011-04-16T09:46:20Z</time>
      </trkpt>
      <trkpt lat="45.68771" lon="6.2116">
        <ele>1469.5126953125</ele>
        <time>2011-04-16T09:46:27Z</time>
      </trkpt>
      <trkpt lat="45.68781" lon="6.21175">
        <ele>1469.9931640625</ele>
        <time>2011-04-16T09:46:35Z</time>
      </trkpt>
      <trkpt lat="45.68784" lon="6.21187">
        <ele>1469.9931640625</ele>
        <time>2011-04-16T09:46:40Z</time>
      </trkpt>
      <trkpt lat="45.68777" lon="6.21195">
        <ele>1470.4738769531</ele>
        <time>2011-04-16T09:46:46Z</time>
      </trkpt>
      <trkpt lat="45.68774" lon="6.21194">
        <ele>1471.4350585938</ele>
        <time>2011-04-16T09:46:48Z</time>
      </trkpt>
      <trkpt lat="45.68762" lon="6.21185">
        <ele>1474.3190917969</ele>
        <time>2011-04-16T09:46:56Z</time>
      </trkpt>
      <trkpt lat="45.68753" lon="6.21175">
        <ele>1476.2416992188</ele>
        <time>2011-04-16T09:47:03Z</time>
      </trkpt>
      <trkpt lat="45.68743" lon="6.21164">
        <ele>1477.68359375</ele>
        <time>2011-04-16T09:47:11Z</time>
      </trkpt>
      <trkpt lat="45.68734" lon="6.21153">
        <ele>1478.6450195312</ele>
        <time>2011-04-16T09:47:19Z</time>
      </trkpt>
      <trkpt lat="45.68723" lon="6.21148">
        <ele>1479.6062011719</ele>
        <time>2011-04-16T09:47:27Z</time>
      </trkpt>
      <trkpt lat="45.68722" lon="6.21149">
        <ele>1480.0869140625</ele>
        <time>2011-04-16T09:47:30Z</time>
      </trkpt>
      <trkpt lat="45.68719" lon="6.21149">
        <ele>1479.6062011719</ele>
        <time>2011-04-16T09:47:36Z</time>
      </trkpt>
      <trkpt lat="45.6872" lon="6.2115">
        <ele>1479.1254882812</ele>
        <time>2011-04-16T09:47:45Z</time>
      </trkpt>
      <trkpt lat="45.68718" lon="6.21148">
        <ele>1479.1254882812</ele>
        <time>2011-04-16T09:47:53Z</time>
      </trkpt>
      <trkpt lat="45.68714" lon="6.21149">
        <ele>1480.0869140625</ele>
        <time>2011-04-16T09:48:01Z</time>
      </trkpt>
      <trkpt lat="45.68711" lon="6.21149">
        <ele>1480.0869140625</ele>
        <time>2011-04-16T09:48:14Z</time>
      </trkpt>
      <trkpt lat="45.68709" lon="6.21149">
        <ele>1480.0869140625</ele>
        <time>2011-04-16T09:48:16Z</time>
      </trkpt>
      <trkpt lat="45.68701" lon="6.2115">
        <ele>1481.5288085938</ele>
        <time>2011-04-16T09:48:24Z</time>
      </trkpt>
      <trkpt lat="45.68695" lon="6.21149">
        <ele>1484.4130859375</ele>
        <time>2011-04-16T09:48:30Z</time>
      </trkpt>
      <trkpt lat="45.68686" lon="6.21151">
        <ele>1485.3742675781</ele>
        <time>2011-04-16T09:48:39Z</time>
      </trkpt>
      <trkpt lat="45.68683" lon="6.21151">
        <ele>1485.8549804688</ele>
        <time>2011-04-16T09:48:46Z</time>
      </trkpt>
      <trkpt lat="45.68679" lon="6.21149">
        <ele>1488.2583007812</ele>
        <time>2011-04-16T09:48:55Z</time>
      </trkpt>
      <trkpt lat="45.6867" lon="6.21149">
        <ele>1488.2583007812</ele>
        <time>2011-04-16T09:49:01Z</time>
      </trkpt>
      <trkpt lat="45.68658" lon="6.21142">
        <ele>1489.2194824219</ele>
        <time>2011-04-16T09:49:10Z</time>
      </trkpt>
      <trkpt lat="45.6865" lon="6.21132">
        <ele>1489.2194824219</ele>
        <time>2011-04-16T09:49:17Z</time>
      </trkpt>
      <trkpt lat="45.68644" lon="6.21122">
        <ele>1490.1809082031</ele>
        <time>2011-04-16T09:49:24Z</time>
      </trkpt>
      <trkpt lat="45.68635" lon="6.21108">
        <ele>1491.1420898438</ele>
        <time>2011-04-16T09:49:33Z</time>
      </trkpt>
      <trkpt lat="45.68627" lon="6.21092">
        <ele>1492.5842285156</ele>
        <time>2011-04-16T09:49:42Z</time>
      </trkpt>
      <trkpt lat="45.6862" lon="6.21072">
        <ele>1494.0261230469</ele>
        <time>2011-04-16T09:49:51Z</time>
      </trkpt>
      <trkpt lat="45.68618" lon="6.21046">
        <ele>1495.4680175781</ele>
        <time>2011-04-16T09:50:01Z</time>
      </trkpt>
      <trkpt lat="45.68615" lon="6.21023">
        <ele>1497.390625</ele>
        <time>2011-04-16T09:50:10Z</time>
      </trkpt>
      <trkpt lat="45.68612" lon="6.21002">
        <ele>1498.8325195312</ele>
        <time>2011-04-16T09:50:18Z</time>
      </trkpt>
      <trkpt lat="45.68606" lon="6.20984">
        <ele>1499.7939453125</ele>
        <time>2011-04-16T09:50:27Z</time>
      </trkpt>
      <trkpt lat="45.68596" lon="6.20969">
        <ele>1499.7939453125</ele>
        <time>2011-04-16T09:50:36Z</time>
      </trkpt>
      <trkpt lat="45.68585" lon="6.20959">
        <ele>1499.3132324219</ele>
        <time>2011-04-16T09:50:43Z</time>
      </trkpt>
      <trkpt lat="45.68584" lon="6.20957">
        <ele>1499.3132324219</ele>
        <time>2011-04-16T09:50:44Z</time>
      </trkpt>
      <trkpt lat="45.68587" lon="6.2095">
        <ele>1498.8325195312</ele>
        <time>2011-04-16T09:50:48Z</time>
      </trkpt>
      <trkpt lat="45.68597" lon="6.20949">
        <ele>1498.8325195312</ele>
        <time>2011-04-16T09:50:54Z</time>
      </trkpt>
      <trkpt lat="45.686" lon="6.20949">
        <ele>1499.3132324219</ele>
        <time>2011-04-16T09:50:57Z</time>
      </trkpt>
      <trkpt lat="45.686" lon="6.20951">
        <ele>1501.2360839844</ele>
        <time>2011-04-16T09:51:04Z</time>
      </trkpt>
      <trkpt lat="45.68596" lon="6.20952">
        <ele>1502.6779785156</ele>
        <time>2011-04-16T09:51:09Z</time>
      </trkpt>
      <trkpt lat="45.68597" lon="6.2095">
        <ele>1501.716796875</ele>
        <time>2011-04-16T09:51:20Z</time>
      </trkpt>
      <trkpt lat="45.686" lon="6.20948">
        <ele>1501.716796875</ele>
        <time>2011-04-16T09:51:24Z</time>
      </trkpt>
      <trkpt lat="45.68602" lon="6.20947">
        <ele>1503.1586914062</ele>
        <time>2011-04-16T09:51:28Z</time>
      </trkpt>
      <trkpt lat="45.68602" lon="6.20949">
        <ele>1503.1586914062</ele>
        <time>2011-04-16T09:51:33Z</time>
      </trkpt>
      <trkpt lat="45.68602" lon="6.2095">
        <ele>1502.6779785156</ele>
        <time>2011-04-16T09:51:37Z</time>
      </trkpt>
      <trkpt lat="45.68604" lon="6.20945">
        <ele>1501.2360839844</ele>
        <time>2011-04-16T09:51:43Z</time>
      </trkpt>
      <trkpt lat="45.68609" lon="6.2094">
        <ele>1501.2360839844</ele>
        <time>2011-04-16T09:51:47Z</time>
      </trkpt>
      <trkpt lat="45.68615" lon="6.20938">
        <ele>1501.2360839844</ele>
        <time>2011-04-16T09:51:52Z</time>
      </trkpt>
      <trkpt lat="45.68616" lon="6.20938">
        <ele>1501.2360839844</ele>
        <time>2011-04-16T09:51:53Z</time>
      </trkpt>
      <trkpt lat="45.68621" lon="6.20939">
        <ele>1501.2360839844</ele>
        <time>2011-04-16T09:51:58Z</time>
      </trkpt>
      <trkpt lat="45.68619" lon="6.20938">
        <ele>1501.2360839844</ele>
        <time>2011-04-16T09:52:00Z</time>
      </trkpt>
      <trkpt lat="45.68614" lon="6.20939">
        <ele>1499.3132324219</ele>
        <time>2011-04-16T09:52:04Z</time>
      </trkpt>
      <trkpt lat="45.68608" lon="6.20942">
        <ele>1499.3132324219</ele>
        <time>2011-04-16T09:52:09Z</time>
      </trkpt>
      <trkpt lat="45.68604" lon="6.20943">
        <ele>1498.8325195312</ele>
        <time>2011-04-16T09:52:12Z</time>
      </trkpt>
      <trkpt lat="45.68604" lon="6.20946">
        <ele>1498.8325195312</ele>
        <time>2011-04-16T09:52:19Z</time>
      </trkpt>
      <trkpt lat="45.68604" lon="6.20946">
        <ele>1500.2749023438</ele>
        <time>2011-04-16T09:52:28Z</time>
      </trkpt>
      <trkpt lat="45.68602" lon="6.20949">
        <ele>1500.7553710938</ele>
        <time>2011-04-16T09:52:33Z</time>
      </trkpt>
      <trkpt lat="45.68602" lon="6.20951">
        <ele>1500.7553710938</ele>
        <time>2011-04-16T09:52:44Z</time>
      </trkpt>
      <trkpt lat="45.686" lon="6.20952">
        <ele>1500.7553710938</ele>
        <time>2011-04-16T09:52:51Z</time>
      </trkpt>
      <trkpt lat="45.68601" lon="6.2095">
        <ele>1500.2749023438</ele>
        <time>2011-04-16T09:52:55Z</time>
      </trkpt>
      <trkpt lat="45.68602" lon="6.20951">
        <ele>1499.3132324219</ele>
        <time>2011-04-16T09:53:02Z</time>
      </trkpt>
      <trkpt lat="45.68602" lon="6.20951">
        <ele>1499.7939453125</ele>
        <time>2011-04-16T09:53:07Z</time>
      </trkpt>
      <trkpt lat="45.686" lon="6.2095">
        <ele>1500.7553710938</ele>
        <time>2011-04-16T09:53:13Z</time>
      </trkpt>
      <trkpt lat="45.686" lon="6.20951">
        <ele>1500.2749023438</ele>
        <time>2011-04-16T09:53:21Z</time>
      </trkpt>
      <trkpt lat="45.68602" lon="6.2095">
        <ele>1499.3132324219</ele>
        <time>2011-04-16T09:53:25Z</time>
      </trkpt>
      <trkpt lat="45.68601" lon="6.2095">
        <ele>1500.2749023438</ele>
        <time>2011-04-16T09:53:29Z</time>
      </trkpt>
      <trkpt lat="45.68601" lon="6.2095">
        <ele>1502.197265625</ele>
        <time>2011-04-16T09:53:37Z</time>
      </trkpt>
      <trkpt lat="45.68601" lon="6.2095">
        <ele>1502.6779785156</ele>
        <time>2011-04-16T09:53:48Z</time>
      </trkpt>
      <trkpt lat="45.68601" lon="6.20952">
        <ele>1498.3518066406</ele>
        <time>2011-04-16T09:54:00Z</time>
      </trkpt>
      <trkpt lat="45.68602" lon="6.20951">
        <ele>1497.8713378906</ele>
        <time>2011-04-16T09:54:07Z</time>
      </trkpt>
      <trkpt lat="45.686" lon="6.20954">
        <ele>1500.7553710938</ele>
        <time>2011-04-16T09:54:17Z</time>
      </trkpt>
      <trkpt lat="45.68599" lon="6.20953">
        <ele>1501.716796875</ele>
        <time>2011-04-16T09:54:23Z</time>
      </trkpt>
      <trkpt lat="45.68597" lon="6.20952">
        <ele>1502.197265625</ele>
        <time>2011-04-16T09:54:28Z</time>
      </trkpt>
      <trkpt lat="45.68594" lon="6.2095">
        <ele>1502.197265625</ele>
        <time>2011-04-16T09:54:33Z</time>
      </trkpt>
      <trkpt lat="45.68593" lon="6.20948">
        <ele>1502.197265625</ele>
        <time>2011-04-16T09:54:39Z</time>
      </trkpt>
      <trkpt lat="45.68592" lon="6.20943">
        <ele>1502.6779785156</ele>
        <time>2011-04-16T09:54:49Z</time>
      </trkpt>
      <trkpt lat="45.68593" lon="6.20943">
        <ele>1503.6394042969</ele>
        <time>2011-04-16T09:54:54Z</time>
      </trkpt>
      <trkpt lat="45.68592" lon="6.2094">
        <ele>1506.5231933594</ele>
        <time>2011-04-16T09:55:11Z</time>
      </trkpt>
      <trkpt lat="45.68592" lon="6.2094">
        <ele>1507.00390625</ele>
        <time>2011-04-16T09:55:25Z</time>
      </trkpt>
      <trkpt lat="45.68592" lon="6.2094">
        <ele>1506.5231933594</ele>
        <time>2011-04-16T09:55:27Z</time>
      </trkpt>
      <trkpt lat="45.68593" lon="6.20942">
        <ele>1506.0424804688</ele>
        <time>2011-04-16T09:55:30Z</time>
      </trkpt>
      <trkpt lat="45.68594" lon="6.20944">
        <ele>1505.5620117188</ele>
        <time>2011-04-16T09:55:31Z</time>
      </trkpt>
      <trkpt lat="45.68593" lon="6.20945">
        <ele>1502.6779785156</ele>
        <time>2011-04-16T09:55:37Z</time>
      </trkpt>
      <trkpt lat="45.68593" lon="6.20947">
        <ele>1501.2360839844</ele>
        <time>2011-04-16T09:55:41Z</time>
      </trkpt>
      <trkpt lat="45.68593" lon="6.20944">
        <ele>1499.7939453125</ele>
        <time>2011-04-16T09:55:46Z</time>
      </trkpt>
      <trkpt lat="45.68594" lon="6.20941">
        <ele>1499.7939453125</ele>
        <time>2011-04-16T09:55:48Z</time>
      </trkpt>
      <trkpt lat="45.68594" lon="6.20936">
        <ele>1498.8325195312</ele>
        <time>2011-04-16T09:55:50Z</time>
      </trkpt>
      <trkpt lat="45.68593" lon="6.20934">
        <ele>1499.3132324219</ele>
        <time>2011-04-16T09:55:59Z</time>
      </trkpt>
      <trkpt lat="45.68594" lon="6.20936">
        <ele>1499.7939453125</ele>
        <time>2011-04-16T09:56:07Z</time>
      </trkpt>
      <trkpt lat="45.68593" lon="6.20934">
        <ele>1500.2749023438</ele>
        <time>2011-04-16T09:56:14Z</time>
      </trkpt>
      <trkpt lat="45.68593" lon="6.20935">
        <ele>1500.7553710938</ele>
        <time>2011-04-16T09:56:22Z</time>
      </trkpt>
      <trkpt lat="45.68596" lon="6.20937">
        <ele>1500.2749023438</ele>
        <time>2011-04-16T09:56:36Z</time>
      </trkpt>
      <trkpt lat="45.68598" lon="6.20946">
        <ele>1500.7553710938</ele>
        <time>2011-04-16T09:56:40Z</time>
      </trkpt>
      <trkpt lat="45.68598" lon="6.20948">
        <ele>1501.2360839844</ele>
        <time>2011-04-16T09:56:41Z</time>
      </trkpt>
      <trkpt lat="45.68593" lon="6.20947">
        <ele>1501.2360839844</ele>
        <time>2011-04-16T09:56:46Z</time>
      </trkpt>
      <trkpt lat="45.68591" lon="6.20945">
        <ele>1501.2360839844</ele>
        <time>2011-04-16T09:56:49Z</time>
      </trkpt>
      <trkpt lat="45.68596" lon="6.20948">
        <ele>1502.197265625</ele>
        <time>2011-04-16T09:56:53Z</time>
      </trkpt>
      <trkpt lat="45.686" lon="6.2095">
        <ele>1502.197265625</ele>
        <time>2011-04-16T09:56:58Z</time>
      </trkpt>
      <trkpt lat="45.686" lon="6.2095">
        <ele>1501.2360839844</ele>
        <time>2011-04-16T09:57:05Z</time>
      </trkpt>
      <trkpt lat="45.686" lon="6.20949">
        <ele>1501.716796875</ele>
        <time>2011-04-16T09:57:19Z</time>
      </trkpt>
      <trkpt lat="45.68602" lon="6.20949">
        <ele>1499.3132324219</ele>
        <time>2011-04-16T09:57:36Z</time>
      </trkpt>
      <trkpt lat="45.68604" lon="6.20949">
        <ele>1498.3518066406</ele>
        <time>2011-04-16T09:57:49Z</time>
      </trkpt>
      <trkpt lat="45.68604" lon="6.2095">
        <ele>1497.8713378906</ele>
        <time>2011-04-16T09:57:54Z</time>
      </trkpt>
      <trkpt lat="45.68604" lon="6.2095">
        <ele>1498.3518066406</ele>
        <time>2011-04-16T09:58:02Z</time>
      </trkpt>
      <trkpt lat="45.68604" lon="6.20952">
        <ele>1498.3518066406</ele>
        <time>2011-04-16T09:58:15Z</time>
      </trkpt>
      <trkpt lat="45.68604" lon="6.20952">
        <ele>1497.390625</ele>
        <time>2011-04-16T09:58:23Z</time>
      </trkpt>
      <trkpt lat="45.68602" lon="6.20952">
        <ele>1497.390625</ele>
        <time>2011-04-16T09:58:41Z</time>
      </trkpt>
      <trkpt lat="45.68602" lon="6.20952">
        <ele>1498.3518066406</ele>
        <time>2011-04-16T09:58:45Z</time>
      </trkpt>
      <trkpt lat="45.686" lon="6.20949">
        <ele>1501.716796875</ele>
        <time>2011-04-16T09:58:58Z</time>
      </trkpt>
      <trkpt lat="45.68599" lon="6.20949">
        <ele>1502.197265625</ele>
        <time>2011-04-16T09:59:03Z</time>
      </trkpt>
      <trkpt lat="45.686" lon="6.20949">
        <ele>1501.716796875</ele>
        <time>2011-04-16T09:59:11Z</time>
      </trkpt>
      <trkpt lat="45.686" lon="6.2095">
        <ele>1501.716796875</ele>
        <time>2011-04-16T09:59:23Z</time>
      </trkpt>
      <trkpt lat="45.686" lon="6.2095">
        <ele>1501.2360839844</ele>
        <time>2011-04-16T09:59:31Z</time>
      </trkpt>
      <trkpt lat="45.686" lon="6.2095">
        <ele>1501.2360839844</ele>
        <time>2011-04-16T09:59:41Z</time>
      </trkpt>
      <trkpt lat="45.686" lon="6.2095">
        <ele>1500.2749023438</ele>
        <time>2011-04-16T09:59:48Z</time>
      </trkpt>
      <trkpt lat="45.686" lon="6.20949">
        <ele>1500.2749023438</ele>
        <time>2011-04-16T09:59:57Z</time>
      </trkpt>
      <trkpt lat="45.68602" lon="6.20941">
        <ele>1499.7939453125</ele>
        <time>2011-04-16T10:00:03Z</time>
      </trkpt>
      <trkpt lat="45.68602" lon="6.20942">
        <ele>1500.2749023438</ele>
        <time>2011-04-16T10:00:10Z</time>
      </trkpt>
      <trkpt lat="45.68601" lon="6.20946">
        <ele>1500.2749023438</ele>
        <time>2011-04-16T10:00:15Z</time>
      </trkpt>
      <trkpt lat="45.68601" lon="6.2095">
        <ele>1500.7553710938</ele>
        <time>2011-04-16T10:00:22Z</time>
      </trkpt>
      <trkpt lat="45.68601" lon="6.2095">
        <ele>1501.2360839844</ele>
        <time>2011-04-16T10:00:27Z</time>
      </trkpt>
      <trkpt lat="45.686" lon="6.20951">
        <ele>1501.716796875</ele>
        <time>2011-04-16T10:00:32Z</time>
      </trkpt>
      <trkpt lat="45.686" lon="6.20951">
        <ele>1501.716796875</ele>
        <time>2011-04-16T10:00:41Z</time>
      </trkpt>
      <trkpt lat="45.686" lon="6.20952">
        <ele>1502.197265625</ele>
        <time>2011-04-16T10:00:48Z</time>
      </trkpt>
      <trkpt lat="45.686" lon="6.20952">
        <ele>1501.716796875</ele>
        <time>2011-04-16T10:00:53Z</time>
      </trkpt>
      <trkpt lat="45.686" lon="6.20952">
        <ele>1500.7553710938</ele>
        <time>2011-04-16T10:00:59Z</time>
      </trkpt>
      <trkpt lat="45.686" lon="6.20951">
        <ele>1501.2360839844</ele>
        <time>2011-04-16T10:01:04Z</time>
      </trkpt>
      <trkpt lat="45.686" lon="6.20952">
        <ele>1500.2749023438</ele>
        <time>2011-04-16T10:01:18Z</time>
      </trkpt>
      <trkpt lat="45.686" lon="6.2095">
        <ele>1500.7553710938</ele>
        <time>2011-04-16T10:01:24Z</time>
      </trkpt>
      <trkpt lat="45.686" lon="6.20951">
        <ele>1500.7553710938</ele>
        <time>2011-04-16T10:01:31Z</time>
      </trkpt>
      <trkpt lat="45.686" lon="6.20949">
        <ele>1501.716796875</ele>
        <time>2011-04-16T10:01:36Z</time>
      </trkpt>
      <trkpt lat="45.686" lon="6.20951">
        <ele>1502.197265625</ele>
        <time>2011-04-16T10:01:41Z</time>
      </trkpt>
      <trkpt lat="45.686" lon="6.20951">
        <ele>1502.197265625</ele>
        <time>2011-04-16T10:01:42Z</time>
      </trkpt>
      <trkpt lat="45.686" lon="6.2095">
        <ele>1502.197265625</ele>
        <time>2011-04-16T10:01:49Z</time>
      </trkpt>
      <trkpt lat="45.686" lon="6.2095">
        <ele>1503.1586914062</ele>
        <time>2011-04-16T10:01:55Z</time>
      </trkpt>
      <trkpt lat="45.686" lon="6.20948">
        <ele>1505.5620117188</ele>
        <time>2011-04-16T10:02:01Z</time>
      </trkpt>
      <trkpt lat="45.686" lon="6.20948">
        <ele>1503.6394042969</ele>
        <time>2011-04-16T10:02:07Z</time>
      </trkpt>
      <trkpt lat="45.686" lon="6.2095">
        <ele>1503.1586914062</ele>
        <time>2011-04-16T10:02:21Z</time>
      </trkpt>
      <trkpt lat="45.686" lon="6.20949">
        <ele>1503.6394042969</ele>
        <time>2011-04-16T10:02:27Z</time>
      </trkpt>
      <trkpt lat="45.686" lon="6.20949">
        <ele>1504.6005859375</ele>
        <time>2011-04-16T10:02:33Z</time>
      </trkpt>
      <trkpt lat="45.68601" lon="6.20952">
        <ele>1504.1201171875</ele>
        <time>2011-04-16T10:02:41Z</time>
      </trkpt>
      <trkpt lat="45.68602" lon="6.20953">
        <ele>1503.6394042969</ele>
        <time>2011-04-16T10:02:52Z</time>
      </trkpt>
      <trkpt lat="45.686" lon="6.20953">
        <ele>1503.1586914062</ele>
        <time>2011-04-16T10:03:02Z</time>
      </trkpt>
      <trkpt lat="45.686" lon="6.20954">
        <ele>1502.6779785156</ele>
        <time>2011-04-16T10:03:10Z</time>
      </trkpt>
      <trkpt lat="45.68601" lon="6.20954">
        <ele>1501.716796875</ele>
        <time>2011-04-16T10:03:18Z</time>
      </trkpt>
      <trkpt lat="45.68601" lon="6.20955">
        <ele>1501.2360839844</ele>
        <time>2011-04-16T10:03:24Z</time>
      </trkpt>
      <trkpt lat="45.68601" lon="6.20954">
        <ele>1500.7553710938</ele>
        <time>2011-04-16T10:03:38Z</time>
      </trkpt>
      <trkpt lat="45.68602" lon="6.20953">
        <ele>1501.2360839844</ele>
        <time>2011-04-16T10:03:45Z</time>
      </trkpt>
      <trkpt lat="45.68601" lon="6.20953">
        <ele>1501.2360839844</ele>
        <time>2011-04-16T10:03:53Z</time>
      </trkpt>
      <trkpt lat="45.686" lon="6.2095">
        <ele>1500.7553710938</ele>
        <time>2011-04-16T10:04:06Z</time>
      </trkpt>
      <trkpt lat="45.68601" lon="6.20949">
        <ele>1500.2749023438</ele>
        <time>2011-04-16T10:04:13Z</time>
      </trkpt>
      <trkpt lat="45.68601" lon="6.2095">
        <ele>1499.3132324219</ele>
        <time>2011-04-16T10:04:19Z</time>
      </trkpt>
      <trkpt lat="45.68601" lon="6.20951">
        <ele>1498.8325195312</ele>
        <time>2011-04-16T10:04:24Z</time>
      </trkpt>
      <trkpt lat="45.68602" lon="6.20951">
        <ele>1498.3518066406</ele>
        <time>2011-04-16T10:04:35Z</time>
      </trkpt>
      <trkpt lat="45.68605" lon="6.20954">
        <ele>1493.5454101562</ele>
        <time>2011-04-16T10:05:25Z</time>
      </trkpt>
      <trkpt lat="45.68604" lon="6.20954">
        <ele>1494.5065917969</ele>
        <time>2011-04-16T10:05:42Z</time>
      </trkpt>
      <trkpt lat="45.68605" lon="6.20955">
        <ele>1494.0261230469</ele>
        <time>2011-04-16T10:05:49Z</time>
      </trkpt>
      <trkpt lat="45.68605" lon="6.20955">
        <ele>1494.5065917969</ele>
        <time>2011-04-16T10:05:55Z</time>
      </trkpt>
      <trkpt lat="45.68605" lon="6.20955">
        <ele>1495.4680175781</ele>
        <time>2011-04-16T10:05:59Z</time>
      </trkpt>
      <trkpt lat="45.68603" lon="6.20954">
        <ele>1499.7939453125</ele>
        <time>2011-04-16T10:06:18Z</time>
      </trkpt>
      <trkpt lat="45.68602" lon="6.20955">
        <ele>1502.6779785156</ele>
        <time>2011-04-16T10:06:27Z</time>
      </trkpt>
      <trkpt lat="45.68602" lon="6.20953">
        <ele>1502.6779785156</ele>
        <time>2011-04-16T10:06:34Z</time>
      </trkpt>
      <trkpt lat="45.68602" lon="6.20953">
        <ele>1503.6394042969</ele>
        <time>2011-04-16T10:06:41Z</time>
      </trkpt>
      <trkpt lat="45.68602" lon="6.20952">
        <ele>1503.1586914062</ele>
        <time>2011-04-16T10:06:50Z</time>
      </trkpt>
      <trkpt lat="45.68601" lon="6.20952">
        <ele>1502.6779785156</ele>
        <time>2011-04-16T10:07:02Z</time>
      </trkpt>
      <trkpt lat="45.686" lon="6.20951">
        <ele>1502.6779785156</ele>
        <time>2011-04-16T10:07:07Z</time>
      </trkpt>
      <trkpt lat="45.68602" lon="6.20954">
        <ele>1501.716796875</ele>
        <time>2011-04-16T10:07:13Z</time>
      </trkpt>
      <trkpt lat="45.68604" lon="6.20956">
        <ele>1497.390625</ele>
        <time>2011-04-16T10:07:58Z</time>
      </trkpt>
      <trkpt lat="45.68604" lon="6.20957">
        <ele>1496.4294433594</ele>
        <time>2011-04-16T10:08:16Z</time>
      </trkpt>
      <trkpt lat="45.68603" lon="6.20957">
        <ele>1498.8325195312</ele>
        <time>2011-04-16T10:08:38Z</time>
      </trkpt>
      <trkpt lat="45.68602" lon="6.20957">
        <ele>1500.2749023438</ele>
        <time>2011-04-16T10:08:56Z</time>
      </trkpt>
      <trkpt lat="45.68602" lon="6.20956">
        <ele>1501.2360839844</ele>
        <time>2011-04-16T10:09:08Z</time>
      </trkpt>
      <trkpt lat="45.68602" lon="6.20954">
        <ele>1501.716796875</ele>
        <time>2011-04-16T10:09:20Z</time>
      </trkpt>
      <trkpt lat="45.68602" lon="6.20951">
        <ele>1501.716796875</ele>
        <time>2011-04-16T10:09:45Z</time>
      </trkpt>
      <trkpt lat="45.68602" lon="6.20952">
        <ele>1501.2360839844</ele>
        <time>2011-04-16T10:10:30Z</time>
      </trkpt>
      <trkpt lat="45.68603" lon="6.20953">
        <ele>1500.2749023438</ele>
        <time>2011-04-16T10:10:38Z</time>
      </trkpt>
      <trkpt lat="45.68601" lon="6.20953">
        <ele>1499.7939453125</ele>
        <time>2011-04-16T10:10:44Z</time>
      </trkpt>
      <trkpt lat="45.686" lon="6.20948">
        <ele>1499.7939453125</ele>
        <time>2011-04-16T10:10:50Z</time>
      </trkpt>
      <trkpt lat="45.68602" lon="6.20954">
        <ele>1499.3132324219</ele>
        <time>2011-04-16T10:10:55Z</time>
      </trkpt>
      <trkpt lat="45.68602" lon="6.20953">
        <ele>1499.3132324219</ele>
        <time>2011-04-16T10:11:00Z</time>
      </trkpt>
      <trkpt lat="45.68602" lon="6.20954">
        <ele>1498.8325195312</ele>
        <time>2011-04-16T10:11:06Z</time>
      </trkpt>
      <trkpt lat="45.686" lon="6.20954">
        <ele>1497.8713378906</ele>
        <time>2011-04-16T10:11:37Z</time>
      </trkpt>
      <trkpt lat="45.686" lon="6.20954">
        <ele>1496.4294433594</ele>
        <time>2011-04-16T10:11:57Z</time>
      </trkpt>
      <trkpt lat="45.686" lon="6.20954">
        <ele>1496.4294433594</ele>
        <time>2011-04-16T10:12:32Z</time>
      </trkpt>
      <trkpt lat="45.68601" lon="6.20955">
        <ele>1496.9099121094</ele>
        <time>2011-04-16T10:12:37Z</time>
      </trkpt>
      <trkpt lat="45.68601" lon="6.20955">
        <ele>1496.9099121094</ele>
        <time>2011-04-16T10:12:42Z</time>
      </trkpt>
      <trkpt lat="45.686" lon="6.20955">
        <ele>1496.9099121094</ele>
        <time>2011-04-16T10:12:50Z</time>
      </trkpt>
      <trkpt lat="45.68604" lon="6.20955">
        <ele>1492.103515625</ele>
        <time>2011-04-16T10:13:28Z</time>
      </trkpt>
      <trkpt lat="45.68604" lon="6.20955">
        <ele>1491.6228027344</ele>
        <time>2011-04-16T10:13:33Z</time>
      </trkpt>
      <trkpt lat="45.68603" lon="6.20955">
        <ele>1497.390625</ele>
        <time>2011-04-16T10:14:01Z</time>
      </trkpt>
      <trkpt lat="45.68603" lon="6.20955">
        <ele>1497.8713378906</ele>
        <time>2011-04-16T10:14:07Z</time>
      </trkpt>
      <trkpt lat="45.68603" lon="6.20958">
        <ele>1498.8325195312</ele>
        <time>2011-04-16T10:14:29Z</time>
      </trkpt>
      <trkpt lat="45.68604" lon="6.20958">
        <ele>1497.8713378906</ele>
        <time>2011-04-16T10:15:19Z</time>
      </trkpt>
      <trkpt lat="45.68605" lon="6.20958">
        <ele>1494.5065917969</ele>
        <time>2011-04-16T10:15:44Z</time>
      </trkpt>
      <trkpt lat="45.68605" lon="6.2096">
        <ele>1496.9099121094</ele>
        <time>2011-04-16T10:15:58Z</time>
      </trkpt>
      <trkpt lat="45.68604" lon="6.2096">
        <ele>1498.3518066406</ele>
        <time>2011-04-16T10:16:21Z</time>
      </trkpt>
      <trkpt lat="45.68604" lon="6.20959">
        <ele>1498.8325195312</ele>
        <time>2011-04-16T10:17:12Z</time>
      </trkpt>
      <trkpt lat="45.68604" lon="6.20957">
        <ele>1499.3132324219</ele>
        <time>2011-04-16T10:17:52Z</time>
      </trkpt>
      <trkpt lat="45.68603" lon="6.20956">
        <ele>1498.8325195312</ele>
        <time>2011-04-16T10:18:00Z</time>
      </trkpt>
      <trkpt lat="45.68602" lon="6.20954">
        <ele>1498.8325195312</ele>
        <time>2011-04-16T10:18:07Z</time>
      </trkpt>
      <trkpt lat="45.68599" lon="6.20947">
        <ele>1499.3132324219</ele>
        <time>2011-04-16T10:18:15Z</time>
      </trkpt>
      <trkpt lat="45.68599" lon="6.20947">
        <ele>1498.8325195312</ele>
        <time>2011-04-16T10:18:21Z</time>
      </trkpt>
      <trkpt lat="45.686" lon="6.20946">
        <ele>1497.390625</ele>
        <time>2011-04-16T10:18:35Z</time>
      </trkpt>
      <trkpt lat="45.68604" lon="6.20948">
        <ele>1496.9099121094</ele>
        <time>2011-04-16T10:18:39Z</time>
      </trkpt>
      <trkpt lat="45.68604" lon="6.20949">
        <ele>1496.9099121094</ele>
        <time>2011-04-16T10:18:43Z</time>
      </trkpt>
      <trkpt lat="45.68604" lon="6.20952">
        <ele>1496.9099121094</ele>
        <time>2011-04-16T10:18:49Z</time>
      </trkpt>
      <trkpt lat="45.68604" lon="6.20952">
        <ele>1496.9099121094</ele>
        <time>2011-04-16T10:18:53Z</time>
      </trkpt>
      <trkpt lat="45.68602" lon="6.20951">
        <ele>1496.9099121094</ele>
        <time>2011-04-16T10:18:59Z</time>
      </trkpt>
      <trkpt lat="45.68601" lon="6.20951">
        <ele>1497.390625</ele>
        <time>2011-04-16T10:19:12Z</time>
      </trkpt>
      <trkpt lat="45.68601" lon="6.20951">
        <ele>1497.390625</ele>
        <time>2011-04-16T10:19:17Z</time>
      </trkpt>
      <trkpt lat="45.68601" lon="6.2095">
        <ele>1497.390625</ele>
        <time>2011-04-16T10:19:24Z</time>
      </trkpt>
      <trkpt lat="45.68601" lon="6.2095">
        <ele>1495.9487304688</ele>
        <time>2011-04-16T10:19:35Z</time>
      </trkpt>
      <trkpt lat="45.686" lon="6.2095">
        <ele>1495.4680175781</ele>
        <time>2011-04-16T10:19:43Z</time>
      </trkpt>
      <trkpt lat="45.686" lon="6.2095">
        <ele>1495.9487304688</ele>
        <time>2011-04-16T10:19:50Z</time>
      </trkpt>
      <trkpt lat="45.68601" lon="6.20951">
        <ele>1498.3518066406</ele>
        <time>2011-04-16T10:19:57Z</time>
      </trkpt>
      <trkpt lat="45.68602" lon="6.20954">
        <ele>1499.7939453125</ele>
        <time>2011-04-16T10:20:03Z</time>
      </trkpt>
      <trkpt lat="45.68602" lon="6.20956">
        <ele>1503.1586914062</ele>
        <time>2011-04-16T10:20:35Z</time>
      </trkpt>
      <trkpt lat="45.68602" lon="6.20957">
        <ele>1502.6779785156</ele>
        <time>2011-04-16T10:21:02Z</time>
      </trkpt>
      <trkpt lat="45.686" lon="6.20955">
        <ele>1501.716796875</ele>
        <time>2011-04-16T10:21:07Z</time>
      </trkpt>
      <trkpt lat="45.68599" lon="6.20949">
        <ele>1503.1586914062</ele>
        <time>2011-04-16T10:21:11Z</time>
      </trkpt>
      <trkpt lat="45.68598" lon="6.20947">
        <ele>1503.1586914062</ele>
        <time>2011-04-16T10:21:17Z</time>
      </trkpt>
      <trkpt lat="45.68596" lon="6.20945">
        <ele>1503.1586914062</ele>
        <time>2011-04-16T10:21:21Z</time>
      </trkpt>
      <trkpt lat="45.68595" lon="6.2094">
        <ele>1502.197265625</ele>
        <time>2011-04-16T10:21:26Z</time>
      </trkpt>
      <trkpt lat="45.68595" lon="6.20937">
        <ele>1502.197265625</ele>
        <time>2011-04-16T10:21:30Z</time>
      </trkpt>
      <trkpt lat="45.68594" lon="6.2094">
        <ele>1500.2749023438</ele>
        <time>2011-04-16T10:21:39Z</time>
      </trkpt>
      <trkpt lat="45.68596" lon="6.20943">
        <ele>1500.2749023438</ele>
        <time>2011-04-16T10:21:43Z</time>
      </trkpt>
      <trkpt lat="45.68597" lon="6.20946">
        <ele>1499.7939453125</ele>
        <time>2011-04-16T10:21:48Z</time>
      </trkpt>
      <trkpt lat="45.68597" lon="6.20946">
        <ele>1500.2749023438</ele>
        <time>2011-04-16T10:21:54Z</time>
      </trkpt>
      <trkpt lat="45.68598" lon="6.20948">
        <ele>1498.8325195312</ele>
        <time>2011-04-16T10:22:00Z</time>
      </trkpt>
      <trkpt lat="45.68597" lon="6.2095">
        <ele>1502.6779785156</ele>
        <time>2011-04-16T10:22:10Z</time>
      </trkpt>
      <trkpt lat="45.68597" lon="6.20951">
        <ele>1503.1586914062</ele>
        <time>2011-04-16T10:22:18Z</time>
      </trkpt>
      <trkpt lat="45.68599" lon="6.20952">
        <ele>1501.716796875</ele>
        <time>2011-04-16T10:22:22Z</time>
      </trkpt>
      <trkpt lat="45.686" lon="6.20954">
        <ele>1501.716796875</ele>
        <time>2011-04-16T10:22:28Z</time>
      </trkpt>
      <trkpt lat="45.68599" lon="6.20954">
        <ele>1500.7553710938</ele>
        <time>2011-04-16T10:22:45Z</time>
      </trkpt>
      <trkpt lat="45.68599" lon="6.20954">
        <ele>1500.2749023438</ele>
        <time>2011-04-16T10:22:52Z</time>
      </trkpt>
      <trkpt lat="45.68597" lon="6.20951">
        <ele>1500.2749023438</ele>
        <time>2011-04-16T10:23:04Z</time>
      </trkpt>
      <trkpt lat="45.68597" lon="6.20952">
        <ele>1499.7939453125</ele>
        <time>2011-04-16T10:23:12Z</time>
      </trkpt>
      <trkpt lat="45.68597" lon="6.20953">
        <ele>1499.7939453125</ele>
        <time>2011-04-16T10:23:22Z</time>
      </trkpt>
      <trkpt lat="45.68597" lon="6.20953">
        <ele>1500.2749023438</ele>
        <time>2011-04-16T10:23:23Z</time>
      </trkpt>
      <trkpt lat="45.68591" lon="6.2095">
        <ele>1501.2360839844</ele>
        <time>2011-04-16T10:23:29Z</time>
      </trkpt>
      <trkpt lat="45.68589" lon="6.20947">
        <ele>1500.7553710938</ele>
        <time>2011-04-16T10:23:34Z</time>
      </trkpt>
      <trkpt lat="45.6859" lon="6.20947">
        <ele>1499.7939453125</ele>
        <time>2011-04-16T10:23:39Z</time>
      </trkpt>
      <trkpt lat="45.6859" lon="6.20946">
        <ele>1497.390625</ele>
        <time>2011-04-16T10:23:41Z</time>
      </trkpt>
      <trkpt lat="45.68591" lon="6.20944">
        <ele>1494.5065917969</ele>
        <time>2011-04-16T10:23:52Z</time>
      </trkpt>
      <trkpt lat="45.68591" lon="6.20944">
        <ele>1494.5065917969</ele>
        <time>2011-04-16T10:23:56Z</time>
      </trkpt>
      <trkpt lat="45.68595" lon="6.20946">
        <ele>1494.0261230469</ele>
        <time>2011-04-16T10:24:01Z</time>
      </trkpt>
      <trkpt lat="45.68598" lon="6.20949">
        <ele>1493.5454101562</ele>
        <time>2011-04-16T10:24:06Z</time>
      </trkpt>
      <trkpt lat="45.686" lon="6.20952">
        <ele>1494.5065917969</ele>
        <time>2011-04-16T10:24:12Z</time>
      </trkpt>
      <trkpt lat="45.68602" lon="6.20954">
        <ele>1496.4294433594</ele>
        <time>2011-04-16T10:24:29Z</time>
      </trkpt>
      <trkpt lat="45.68602" lon="6.20956">
        <ele>1498.3518066406</ele>
        <time>2011-04-16T10:24:48Z</time>
      </trkpt>
      <trkpt lat="45.68602" lon="6.20955">
        <ele>1499.3132324219</ele>
        <time>2011-04-16T10:25:00Z</time>
      </trkpt>
      <trkpt lat="45.68602" lon="6.20955">
        <ele>1499.7939453125</ele>
        <time>2011-04-16T10:25:15Z</time>
      </trkpt>
      <trkpt lat="45.68603" lon="6.20955">
        <ele>1499.3132324219</ele>
        <time>2011-04-16T10:25:23Z</time>
      </trkpt>
      <trkpt lat="45.68602" lon="6.20952">
        <ele>1500.2749023438</ele>
        <time>2011-04-16T10:25:41Z</time>
      </trkpt>
      <trkpt lat="45.68602" lon="6.20952">
        <ele>1501.716796875</ele>
        <time>2011-04-16T10:25:44Z</time>
      </trkpt>
      <trkpt lat="45.68603" lon="6.20955">
        <ele>1502.6779785156</ele>
        <time>2011-04-16T10:26:02Z</time>
      </trkpt>
      <trkpt lat="45.68603" lon="6.20956">
        <ele>1502.197265625</ele>
        <time>2011-04-16T10:26:07Z</time>
      </trkpt>
      <trkpt lat="45.68602" lon="6.20953">
        <ele>1501.716796875</ele>
        <time>2011-04-16T10:26:19Z</time>
      </trkpt>
      <trkpt lat="45.68601" lon="6.20951">
        <ele>1501.716796875</ele>
        <time>2011-04-16T10:26:25Z</time>
      </trkpt>
      <trkpt lat="45.68602" lon="6.20955">
        <ele>1502.197265625</ele>
        <time>2011-04-16T10:26:30Z</time>
      </trkpt>
      <trkpt lat="45.68601" lon="6.20957">
        <ele>1503.1586914062</ele>
        <time>2011-04-16T10:26:35Z</time>
      </trkpt>
      <trkpt lat="45.68601" lon="6.20958">
        <ele>1503.1586914062</ele>
        <time>2011-04-16T10:26:46Z</time>
      </trkpt>
      <trkpt lat="45.68602" lon="6.20957">
        <ele>1499.3132324219</ele>
        <time>2011-04-16T10:27:03Z</time>
      </trkpt>
      <trkpt lat="45.68604" lon="6.20956">
        <ele>1499.3132324219</ele>
        <time>2011-04-16T10:27:56Z</time>
      </trkpt>
      <trkpt lat="45.68604" lon="6.20956">
        <ele>1499.3132324219</ele>
        <time>2011-04-16T10:28:04Z</time>
      </trkpt>
      <trkpt lat="45.68604" lon="6.20956">
        <ele>1498.3518066406</ele>
        <time>2011-04-16T10:28:13Z</time>
      </trkpt>
      <trkpt lat="45.68604" lon="6.20956">
        <ele>1498.8325195312</ele>
        <time>2011-04-16T10:28:22Z</time>
      </trkpt>
      <trkpt lat="45.68605" lon="6.20955">
        <ele>1499.7939453125</ele>
        <time>2011-04-16T10:28:33Z</time>
      </trkpt>
      <trkpt lat="45.68607" lon="6.20956">
        <ele>1500.2749023438</ele>
        <time>2011-04-16T10:28:55Z</time>
      </trkpt>
      <trkpt lat="45.68607" lon="6.20956">
        <ele>1500.2749023438</ele>
        <time>2011-04-16T10:28:58Z</time>
      </trkpt>
      <trkpt lat="45.68607" lon="6.20953">
        <ele>1504.6005859375</ele>
        <time>2011-04-16T10:29:24Z</time>
      </trkpt>
      <trkpt lat="45.68607" lon="6.20954">
        <ele>1504.1201171875</ele>
        <time>2011-04-16T10:29:27Z</time>
      </trkpt>
      <trkpt lat="45.68607" lon="6.20954">
        <ele>1504.1201171875</ele>
        <time>2011-04-16T10:29:28Z</time>
      </trkpt>
      <trkpt lat="45.68607" lon="6.20954">
        <ele>1505.0812988281</ele>
        <time>2011-04-16T10:29:41Z</time>
      </trkpt>
      <trkpt lat="45.68606" lon="6.20954">
        <ele>1505.0812988281</ele>
        <time>2011-04-16T10:30:13Z</time>
      </trkpt>
      <trkpt lat="45.68604" lon="6.20953">
        <ele>1505.5620117188</ele>
        <time>2011-04-16T10:30:55Z</time>
      </trkpt>
      <trkpt lat="45.68605" lon="6.20952">
        <ele>1505.0812988281</ele>
        <time>2011-04-16T10:31:11Z</time>
      </trkpt>
      <trkpt lat="45.68604" lon="6.20952">
        <ele>1505.0812988281</ele>
        <time>2011-04-16T10:31:18Z</time>
      </trkpt>
      <trkpt lat="45.68604" lon="6.20952">
        <ele>1504.1201171875</ele>
        <time>2011-04-16T10:31:39Z</time>
      </trkpt>
      <trkpt lat="45.68604" lon="6.20953">
        <ele>1502.197265625</ele>
        <time>2011-04-16T10:31:47Z</time>
      </trkpt>
      <trkpt lat="45.68604" lon="6.20953">
        <ele>1501.2360839844</ele>
        <time>2011-04-16T10:31:58Z</time>
      </trkpt>
      <trkpt lat="45.68603" lon="6.20954">
        <ele>1500.7553710938</ele>
        <time>2011-04-16T10:32:07Z</time>
      </trkpt>
      <trkpt lat="45.68602" lon="6.20955">
        <ele>1499.7939453125</ele>
        <time>2011-04-16T10:32:17Z</time>
      </trkpt>
      <trkpt lat="45.68602" lon="6.20955">
        <ele>1498.8325195312</ele>
        <time>2011-04-16T10:32:18Z</time>
      </trkpt>
      <trkpt lat="45.68602" lon="6.20955">
        <ele>1500.7553710938</ele>
        <time>2011-04-16T10:32:31Z</time>
      </trkpt>
      <trkpt lat="45.68602" lon="6.20954">
        <ele>1501.716796875</ele>
        <time>2011-04-16T10:32:35Z</time>
      </trkpt>
      <trkpt lat="45.68601" lon="6.20954">
        <ele>1501.716796875</ele>
        <time>2011-04-16T10:32:42Z</time>
      </trkpt>
      <trkpt lat="45.68601" lon="6.20953">
        <ele>1502.197265625</ele>
        <time>2011-04-16T10:32:48Z</time>
      </trkpt>
      <trkpt lat="45.68601" lon="6.20955">
        <ele>1502.197265625</ele>
        <time>2011-04-16T10:32:54Z</time>
      </trkpt>
      <trkpt lat="45.68602" lon="6.20957">
        <ele>1502.197265625</ele>
        <time>2011-04-16T10:33:33Z</time>
      </trkpt>
      <trkpt lat="45.68601" lon="6.20956">
        <ele>1502.197265625</ele>
        <time>2011-04-16T10:33:42Z</time>
      </trkpt>
      <trkpt lat="45.68603" lon="6.20952">
        <ele>1502.197265625</ele>
        <time>2011-04-16T10:33:47Z</time>
      </trkpt>
      <trkpt lat="45.68604" lon="6.20952">
        <ele>1502.6779785156</ele>
        <time>2011-04-16T10:33:51Z</time>
      </trkpt>
      <trkpt lat="45.68601" lon="6.2095">
        <ele>1505.0812988281</ele>
        <time>2011-04-16T10:34:07Z</time>
      </trkpt>
      <trkpt lat="45.68601" lon="6.20948">
        <ele>1503.6394042969</ele>
        <time>2011-04-16T10:34:15Z</time>
      </trkpt>
      <trkpt lat="45.68601" lon="6.20951">
        <ele>1501.2360839844</ele>
        <time>2011-04-16T10:34:23Z</time>
      </trkpt>
      <trkpt lat="45.686" lon="6.20954">
        <ele>1500.2749023438</ele>
        <time>2011-04-16T10:34:25Z</time>
      </trkpt>
      <trkpt lat="45.68601" lon="6.20955">
        <ele>1499.7939453125</ele>
        <time>2011-04-16T10:34:27Z</time>
      </trkpt>
      <trkpt lat="45.686" lon="6.20955">
        <ele>1499.3132324219</ele>
        <time>2011-04-16T10:34:31Z</time>
      </trkpt>
      <trkpt lat="45.686" lon="6.20955">
        <ele>1498.8325195312</ele>
        <time>2011-04-16T10:34:37Z</time>
      </trkpt>
      <trkpt lat="45.68601" lon="6.20955">
        <ele>1497.8713378906</ele>
        <time>2011-04-16T10:34:48Z</time>
      </trkpt>
      <trkpt lat="45.68601" lon="6.20955">
        <ele>1497.8713378906</ele>
        <time>2011-04-16T10:35:03Z</time>
      </trkpt>
      <trkpt lat="45.68601" lon="6.20952">
        <ele>1498.3518066406</ele>
        <time>2011-04-16T10:35:09Z</time>
      </trkpt>
      <trkpt lat="45.686" lon="6.20952">
        <ele>1498.3518066406</ele>
        <time>2011-04-16T10:35:16Z</time>
      </trkpt>
      <trkpt lat="45.68601" lon="6.20951">
        <ele>1498.3518066406</ele>
        <time>2011-04-16T10:35:21Z</time>
      </trkpt>
      <trkpt lat="45.68602" lon="6.20954">
        <ele>1497.390625</ele>
        <time>2011-04-16T10:35:26Z</time>
      </trkpt>
      <trkpt lat="45.68602" lon="6.20954">
        <ele>1498.3518066406</ele>
        <time>2011-04-16T10:35:31Z</time>
      </trkpt>
      <trkpt lat="45.68602" lon="6.20954">
        <ele>1498.8325195312</ele>
        <time>2011-04-16T10:35:55Z</time>
      </trkpt>
      <trkpt lat="45.68602" lon="6.20954">
        <ele>1498.3518066406</ele>
        <time>2011-04-16T10:36:05Z</time>
      </trkpt>
      <trkpt lat="45.68601" lon="6.20953">
        <ele>1496.4294433594</ele>
        <time>2011-04-16T10:36:13Z</time>
      </trkpt>
      <trkpt lat="45.686" lon="6.20954">
        <ele>1496.9099121094</ele>
        <time>2011-04-16T10:36:36Z</time>
      </trkpt>
      <trkpt lat="45.68602" lon="6.20956">
        <ele>1498.3518066406</ele>
        <time>2011-04-16T10:37:24Z</time>
      </trkpt>
      <trkpt lat="45.68602" lon="6.20956">
        <ele>1498.8325195312</ele>
        <time>2011-04-16T10:37:33Z</time>
      </trkpt>
      <trkpt lat="45.68602" lon="6.20955">
        <ele>1498.3518066406</ele>
        <time>2011-04-16T10:37:42Z</time>
      </trkpt>
      <trkpt lat="45.68602" lon="6.20955">
        <ele>1497.8713378906</ele>
        <time>2011-04-16T10:37:51Z</time>
      </trkpt>
      <trkpt lat="45.68599" lon="6.20953">
        <ele>1498.3518066406</ele>
        <time>2011-04-16T10:38:22Z</time>
      </trkpt>
      <trkpt lat="45.686" lon="6.20953">
        <ele>1497.8713378906</ele>
        <time>2011-04-16T10:38:34Z</time>
      </trkpt>
      <trkpt lat="45.686" lon="6.20953">
        <ele>1497.390625</ele>
        <time>2011-04-16T10:38:52Z</time>
      </trkpt>
      <trkpt lat="45.68602" lon="6.20956">
        <ele>1499.7939453125</ele>
        <time>2011-04-16T10:39:51Z</time>
      </trkpt>
      <trkpt lat="45.68602" lon="6.20956">
        <ele>1500.7553710938</ele>
        <time>2011-04-16T10:40:14Z</time>
      </trkpt>
      <trkpt lat="45.68601" lon="6.20955">
        <ele>1500.2749023438</ele>
        <time>2011-04-16T10:40:21Z</time>
      </trkpt>
      <trkpt lat="45.68601" lon="6.20955">
        <ele>1502.197265625</ele>
        <time>2011-04-16T10:41:08Z</time>
      </trkpt>
      <trkpt lat="45.68601" lon="6.20955">
        <ele>1501.716796875</ele>
        <time>2011-04-16T10:41:18Z</time>
      </trkpt>
      <trkpt lat="45.68601" lon="6.20953">
        <ele>1500.7553710938</ele>
        <time>2011-04-16T10:41:36Z</time>
      </trkpt>
      <trkpt lat="45.68601" lon="6.20952">
        <ele>1497.8713378906</ele>
        <time>2011-04-16T10:41:49Z</time>
      </trkpt>
      <trkpt lat="45.68602" lon="6.20952">
        <ele>1497.8713378906</ele>
        <time>2011-04-16T10:41:59Z</time>
      </trkpt>
      <trkpt lat="45.68602" lon="6.20953">
        <ele>1497.390625</ele>
        <time>2011-04-16T10:42:03Z</time>
      </trkpt>
      <trkpt lat="45.68601" lon="6.2095">
        <ele>1497.8713378906</ele>
        <time>2011-04-16T10:42:07Z</time>
      </trkpt>
      <trkpt lat="45.68601" lon="6.20951">
        <ele>1497.8713378906</ele>
        <time>2011-04-16T10:42:21Z</time>
      </trkpt>
      <trkpt lat="45.68601" lon="6.20952">
        <ele>1498.3518066406</ele>
        <time>2011-04-16T10:42:28Z</time>
      </trkpt>
      <trkpt lat="45.68599" lon="6.20953">
        <ele>1498.8325195312</ele>
        <time>2011-04-16T10:42:34Z</time>
      </trkpt>
      <trkpt lat="45.68601" lon="6.20953">
        <ele>1498.3518066406</ele>
        <time>2011-04-16T10:42:40Z</time>
      </trkpt>
      <trkpt lat="45.68602" lon="6.20952">
        <ele>1497.8713378906</ele>
        <time>2011-04-16T10:42:45Z</time>
      </trkpt>
      <trkpt lat="45.68601" lon="6.20953">
        <ele>1497.8713378906</ele>
        <time>2011-04-16T10:42:50Z</time>
      </trkpt>
      <trkpt lat="45.686" lon="6.20952">
        <ele>1498.3518066406</ele>
        <time>2011-04-16T10:42:56Z</time>
      </trkpt>
      <trkpt lat="45.686" lon="6.20953">
        <ele>1498.8325195312</ele>
        <time>2011-04-16T10:43:03Z</time>
      </trkpt>
      <trkpt lat="45.686" lon="6.20952">
        <ele>1498.8325195312</ele>
        <time>2011-04-16T10:43:08Z</time>
      </trkpt>
      <trkpt lat="45.686" lon="6.20952">
        <ele>1499.7939453125</ele>
        <time>2011-04-16T10:43:13Z</time>
      </trkpt>
      <trkpt lat="45.686" lon="6.20952">
        <ele>1499.3132324219</ele>
        <time>2011-04-16T10:43:17Z</time>
      </trkpt>
      <trkpt lat="45.68599" lon="6.20955">
        <ele>1503.1586914062</ele>
        <time>2011-04-16T10:43:32Z</time>
      </trkpt>
      <trkpt lat="45.68597" lon="6.20958">
        <ele>1506.5231933594</ele>
        <time>2011-04-16T10:43:40Z</time>
      </trkpt>
      <trkpt lat="45.68595" lon="6.20965">
        <ele>1510.8491210938</ele>
        <time>2011-04-16T10:43:51Z</time>
      </trkpt>
      <trkpt lat="45.68594" lon="6.20961">
        <ele>1513.2524414062</ele>
        <time>2011-04-16T10:43:57Z</time>
      </trkpt>
      <trkpt lat="45.68597" lon="6.20957">
        <ele>1513.7329101562</ele>
        <time>2011-04-16T10:44:21Z</time>
      </trkpt>
      <trkpt lat="45.68598" lon="6.20956">
        <ele>1511.810546875</ele>
        <time>2011-04-16T10:44:35Z</time>
      </trkpt>
      <trkpt lat="45.68599" lon="6.20954">
        <ele>1507.4846191406</ele>
        <time>2011-04-16T10:44:40Z</time>
      </trkpt>
      <trkpt lat="45.686" lon="6.20954">
        <ele>1505.5620117188</ele>
        <time>2011-04-16T10:44:43Z</time>
      </trkpt>
      <trkpt lat="45.686" lon="6.20954">
        <ele>1505.5620117188</ele>
        <time>2011-04-16T10:44:44Z</time>
      </trkpt>
      <trkpt lat="45.686" lon="6.20953">
        <ele>1504.6005859375</ele>
        <time>2011-04-16T10:44:45Z</time>
      </trkpt>
      <trkpt lat="45.686" lon="6.20952">
        <ele>1503.1586914062</ele>
        <time>2011-04-16T10:44:48Z</time>
      </trkpt>
      <trkpt lat="45.686" lon="6.20952">
        <ele>1501.2360839844</ele>
        <time>2011-04-16T10:44:59Z</time>
      </trkpt>
      <trkpt lat="45.68601" lon="6.20954">
        <ele>1501.716796875</ele>
        <time>2011-04-16T10:45:04Z</time>
      </trkpt>
      <trkpt lat="45.68601" lon="6.20953">
        <ele>1502.6779785156</ele>
        <time>2011-04-16T10:45:08Z</time>
      </trkpt>
      <trkpt lat="45.686" lon="6.20952">
        <ele>1503.1586914062</ele>
        <time>2011-04-16T10:45:25Z</time>
      </trkpt>
      <trkpt lat="45.68601" lon="6.20952">
        <ele>1503.6394042969</ele>
        <time>2011-04-16T10:45:29Z</time>
      </trkpt>
      <trkpt lat="45.68601" lon="6.20952">
        <ele>1503.6394042969</ele>
        <time>2011-04-16T10:45:33Z</time>
      </trkpt>
      <trkpt lat="45.686" lon="6.20952">
        <ele>1504.6005859375</ele>
        <time>2011-04-16T10:45:43Z</time>
      </trkpt>
      <trkpt lat="45.68601" lon="6.20953">
        <ele>1507.4846191406</ele>
        <time>2011-04-16T10:46:03Z</time>
      </trkpt>
      <trkpt lat="45.68601" lon="6.20953">
        <ele>1507.00390625</ele>
        <time>2011-04-16T10:46:12Z</time>
      </trkpt>
      <trkpt lat="45.68602" lon="6.20953">
        <ele>1507.00390625</ele>
        <time>2011-04-16T10:46:21Z</time>
      </trkpt>
      <trkpt lat="45.68601" lon="6.20955">
        <ele>1505.0812988281</ele>
        <time>2011-04-16T10:46:39Z</time>
      </trkpt>
      <trkpt lat="45.68601" lon="6.20954">
        <ele>1505.5620117188</ele>
        <time>2011-04-16T10:47:08Z</time>
      </trkpt>
      <trkpt lat="45.68601" lon="6.20952">
        <ele>1507.00390625</ele>
        <time>2011-04-16T10:47:16Z</time>
      </trkpt>
      <trkpt lat="45.68601" lon="6.20952">
        <ele>1506.5231933594</ele>
        <time>2011-04-16T10:47:20Z</time>
      </trkpt>
      <trkpt lat="45.68601" lon="6.20952">
        <ele>1506.5231933594</ele>
        <time>2011-04-16T10:47:21Z</time>
      </trkpt>
      <trkpt lat="45.68601" lon="6.20953">
        <ele>1507.4846191406</ele>
        <time>2011-04-16T10:47:32Z</time>
      </trkpt>
      <trkpt lat="45.686" lon="6.20952">
        <ele>1506.5231933594</ele>
        <time>2011-04-16T10:47:39Z</time>
      </trkpt>
      <trkpt lat="45.68597" lon="6.20951">
        <ele>1507.4846191406</ele>
        <time>2011-04-16T10:47:45Z</time>
      </trkpt>
      <trkpt lat="45.68599" lon="6.20954">
        <ele>1508.4458007812</ele>
        <time>2011-04-16T10:47:54Z</time>
      </trkpt>
      <trkpt lat="45.68601" lon="6.20955">
        <ele>1508.4458007812</ele>
        <time>2011-04-16T10:47:59Z</time>
      </trkpt>
      <trkpt lat="45.686" lon="6.20956">
        <ele>1506.0424804688</ele>
        <time>2011-04-16T10:48:09Z</time>
      </trkpt>
      <trkpt lat="45.686" lon="6.20951">
        <ele>1502.197265625</ele>
        <time>2011-04-16T10:48:28Z</time>
      </trkpt>
      <trkpt lat="45.68599" lon="6.20951">
        <ele>1502.197265625</ele>
        <time>2011-04-16T10:48:33Z</time>
      </trkpt>
      <trkpt lat="45.68595" lon="6.20949">
        <ele>1502.197265625</ele>
        <time>2011-04-16T10:48:38Z</time>
      </trkpt>
      <trkpt lat="45.68592" lon="6.20946">
        <ele>1502.6779785156</ele>
        <time>2011-04-16T10:48:43Z</time>
      </trkpt>
      <trkpt lat="45.68592" lon="6.20947">
        <ele>1503.1586914062</ele>
        <time>2011-04-16T10:48:48Z</time>
      </trkpt>
      <trkpt lat="45.68592" lon="6.20946">
        <ele>1503.1586914062</ele>
        <time>2011-04-16T10:48:50Z</time>
      </trkpt>
      <trkpt lat="45.68592" lon="6.20946">
        <ele>1503.1586914062</ele>
        <time>2011-04-16T10:48:51Z</time>
      </trkpt>
      <trkpt lat="45.68592" lon="6.20946">
        <ele>1503.1586914062</ele>
        <time>2011-04-16T10:48:52Z</time>
      </trkpt>
      <trkpt lat="45.68593" lon="6.20946">
        <ele>1502.6779785156</ele>
        <time>2011-04-16T10:48:56Z</time>
      </trkpt>
      <trkpt lat="45.68598" lon="6.2095">
        <ele>1501.716796875</ele>
        <time>2011-04-16T10:49:01Z</time>
      </trkpt>
      <trkpt lat="45.68599" lon="6.20951">
        <ele>1501.716796875</ele>
        <time>2011-04-16T10:49:02Z</time>
      </trkpt>
      <trkpt lat="45.68601" lon="6.20954">
        <ele>1500.7553710938</ele>
        <time>2011-04-16T10:49:09Z</time>
      </trkpt>
      <trkpt lat="45.68601" lon="6.20952">
        <ele>1501.2360839844</ele>
        <time>2011-04-16T10:49:17Z</time>
      </trkpt>
      <trkpt lat="45.686" lon="6.20953">
        <ele>1502.6779785156</ele>
        <time>2011-04-16T10:49:24Z</time>
      </trkpt>
      <trkpt lat="45.686" lon="6.20954">
        <ele>1503.1586914062</ele>
        <time>2011-04-16T10:49:28Z</time>
      </trkpt>
      <trkpt lat="45.686" lon="6.20953">
        <ele>1502.197265625</ele>
        <time>2011-04-16T10:49:31Z</time>
      </trkpt>
      <trkpt lat="45.686" lon="6.20953">
        <ele>1502.197265625</ele>
        <time>2011-04-16T10:49:34Z</time>
      </trkpt>
      <trkpt lat="45.68601" lon="6.20952">
        <ele>1501.716796875</ele>
        <time>2011-04-16T10:49:38Z</time>
      </trkpt>
      <trkpt lat="45.68601" lon="6.20954">
        <ele>1501.2360839844</ele>
        <time>2011-04-16T10:49:44Z</time>
      </trkpt>
      <trkpt lat="45.68601" lon="6.20954">
        <ele>1501.716796875</ele>
        <time>2011-04-16T10:49:52Z</time>
      </trkpt>
      <trkpt lat="45.68602" lon="6.20955">
        <ele>1502.197265625</ele>
        <time>2011-04-16T10:49:58Z</time>
      </trkpt>
      <trkpt lat="45.68602" lon="6.20955">
        <ele>1501.716796875</ele>
        <time>2011-04-16T10:50:10Z</time>
      </trkpt>
      <trkpt lat="45.68602" lon="6.20952">
        <ele>1503.6394042969</ele>
        <time>2011-04-16T10:50:18Z</time>
      </trkpt>
      <trkpt lat="45.68601" lon="6.20954">
        <ele>1504.1201171875</ele>
        <time>2011-04-16T10:50:24Z</time>
      </trkpt>
      <trkpt lat="45.68601" lon="6.20954">
        <ele>1505.5620117188</ele>
        <time>2011-04-16T10:50:33Z</time>
      </trkpt>
      <trkpt lat="45.686" lon="6.20952">
        <ele>1507.9653320312</ele>
        <time>2011-04-16T10:50:43Z</time>
      </trkpt>
      <trkpt lat="45.686" lon="6.20951">
        <ele>1507.9653320312</ele>
        <time>2011-04-16T10:50:52Z</time>
      </trkpt>
      <trkpt lat="45.68601" lon="6.20953">
        <ele>1506.5231933594</ele>
        <time>2011-04-16T10:50:59Z</time>
      </trkpt>
      <trkpt lat="45.686" lon="6.20954">
        <ele>1506.5231933594</ele>
        <time>2011-04-16T10:51:06Z</time>
      </trkpt>
      <trkpt lat="45.68601" lon="6.20954">
        <ele>1506.5231933594</ele>
        <time>2011-04-16T10:51:13Z</time>
      </trkpt>
      <trkpt lat="45.68601" lon="6.20954">
        <ele>1505.0812988281</ele>
        <time>2011-04-16T10:51:18Z</time>
      </trkpt>
      <trkpt lat="45.68602" lon="6.20954">
        <ele>1503.1586914062</ele>
        <time>2011-04-16T10:51:23Z</time>
      </trkpt>
      <trkpt lat="45.68602" lon="6.20954">
        <ele>1503.1586914062</ele>
        <time>2011-04-16T10:51:31Z</time>
      </trkpt>
      <trkpt lat="45.68602" lon="6.20955">
        <ele>1504.1201171875</ele>
        <time>2011-04-16T10:51:38Z</time>
      </trkpt>
      <trkpt lat="45.68602" lon="6.20956">
        <ele>1505.5620117188</ele>
        <time>2011-04-16T10:51:43Z</time>
      </trkpt>
      <trkpt lat="45.68601" lon="6.20957">
        <ele>1506.0424804688</ele>
        <time>2011-04-16T10:51:49Z</time>
      </trkpt>
      <trkpt lat="45.68602" lon="6.20958">
        <ele>1506.5231933594</ele>
        <time>2011-04-16T10:51:56Z</time>
      </trkpt>
      <trkpt lat="45.686" lon="6.20957">
        <ele>1506.5231933594</ele>
        <time>2011-04-16T10:52:04Z</time>
      </trkpt>
      <trkpt lat="45.68599" lon="6.20956">
        <ele>1507.4846191406</ele>
        <time>2011-04-16T10:52:13Z</time>
      </trkpt>
      <trkpt lat="45.686" lon="6.20957">
        <ele>1507.4846191406</ele>
        <time>2011-04-16T10:52:19Z</time>
      </trkpt>
      <trkpt lat="45.686" lon="6.20957">
        <ele>1507.00390625</ele>
        <time>2011-04-16T10:52:28Z</time>
      </trkpt>
      <trkpt lat="45.686" lon="6.20953">
        <ele>1508.4458007812</ele>
        <time>2011-04-16T10:52:57Z</time>
      </trkpt>
      <trkpt lat="45.68601" lon="6.20951">
        <ele>1509.8876953125</ele>
        <time>2011-04-16T10:53:50Z</time>
      </trkpt>
      <trkpt lat="45.68602" lon="6.20953">
        <ele>1509.4072265625</ele>
        <time>2011-04-16T10:54:12Z</time>
      </trkpt>
      <trkpt lat="45.68601" lon="6.20954">
        <ele>1507.9653320312</ele>
        <time>2011-04-16T10:54:28Z</time>
      </trkpt>
      <trkpt lat="45.686" lon="6.20952">
        <ele>1506.5231933594</ele>
        <time>2011-04-16T10:54:32Z</time>
      </trkpt>
      <trkpt lat="45.68598" lon="6.20954">
        <ele>1504.6005859375</ele>
        <time>2011-04-16T10:54:38Z</time>
      </trkpt>
      <trkpt lat="45.68598" lon="6.20954">
        <ele>1504.1201171875</ele>
        <time>2011-04-16T10:54:47Z</time>
      </trkpt>
      <trkpt lat="45.68596" lon="6.20955">
        <ele>1506.0424804688</ele>
        <time>2011-04-16T10:55:09Z</time>
      </trkpt>
      <trkpt lat="45.68599" lon="6.20956">
        <ele>1507.9653320312</ele>
        <time>2011-04-16T10:55:34Z</time>
      </trkpt>
      <trkpt lat="45.68599" lon="6.20955">
        <ele>1506.5231933594</ele>
        <time>2011-04-16T10:55:40Z</time>
      </trkpt>
      <trkpt lat="45.68599" lon="6.20955">
        <ele>1506.0424804688</ele>
        <time>2011-04-16T10:55:49Z</time>
      </trkpt>
      <trkpt lat="45.68599" lon="6.20955">
        <ele>1505.5620117188</ele>
        <time>2011-04-16T10:55:54Z</time>
      </trkpt>
      <trkpt lat="45.68599" lon="6.20954">
        <ele>1503.1586914062</ele>
        <time>2011-04-16T10:56:00Z</time>
      </trkpt>
      <trkpt lat="45.686" lon="6.20953">
        <ele>1503.1586914062</ele>
        <time>2011-04-16T10:56:15Z</time>
      </trkpt>
      <trkpt lat="45.686" lon="6.20953">
        <ele>1504.1201171875</ele>
        <time>2011-04-16T10:56:22Z</time>
      </trkpt>
      <trkpt lat="45.686" lon="6.20952">
        <ele>1506.0424804688</ele>
        <time>2011-04-16T10:56:31Z</time>
      </trkpt>
      <trkpt lat="45.686" lon="6.20952">
        <ele>1505.5620117188</ele>
        <time>2011-04-16T10:56:34Z</time>
      </trkpt>
      <trkpt lat="45.686" lon="6.20952">
        <ele>1505.5620117188</ele>
        <time>2011-04-16T10:56:46Z</time>
      </trkpt>
      <trkpt lat="45.686" lon="6.20951">
        <ele>1507.00390625</ele>
        <time>2011-04-16T10:57:02Z</time>
      </trkpt>
      <trkpt lat="45.686" lon="6.20952">
        <ele>1505.5620117188</ele>
        <time>2011-04-16T10:57:10Z</time>
      </trkpt>
      <trkpt lat="45.68597" lon="6.2095">
        <ele>1504.6005859375</ele>
        <time>2011-04-16T10:57:14Z</time>
      </trkpt>
      <trkpt lat="45.68592" lon="6.20945">
        <ele>1505.0812988281</ele>
        <time>2011-04-16T10:57:20Z</time>
      </trkpt>
      <trkpt lat="45.68592" lon="6.20945">
        <ele>1506.0424804688</ele>
        <time>2011-04-16T10:57:33Z</time>
      </trkpt>
      <trkpt lat="45.68592" lon="6.20945">
        <ele>1507.4846191406</ele>
        <time>2011-04-16T10:57:45Z</time>
      </trkpt>
      <trkpt lat="45.68594" lon="6.20945">
        <ele>1507.9653320312</ele>
        <time>2011-04-16T10:57:47Z</time>
      </trkpt>
      <trkpt lat="45.68602" lon="6.2095">
        <ele>1505.5620117188</ele>
        <time>2011-04-16T10:57:54Z</time>
      </trkpt>
      <trkpt lat="45.68602" lon="6.20951">
        <ele>1503.6394042969</ele>
        <time>2011-04-16T10:57:59Z</time>
      </trkpt>
      <trkpt lat="45.68602" lon="6.2095">
        <ele>1502.197265625</ele>
        <time>2011-04-16T10:58:04Z</time>
      </trkpt>
      <trkpt lat="45.68603" lon="6.20952">
        <ele>1499.7939453125</ele>
        <time>2011-04-16T10:58:09Z</time>
      </trkpt>
      <trkpt lat="45.68602" lon="6.20954">
        <ele>1501.716796875</ele>
        <time>2011-04-16T10:58:22Z</time>
      </trkpt>
      <trkpt lat="45.68602" lon="6.20955">
        <ele>1502.6779785156</ele>
        <time>2011-04-16T10:58:33Z</time>
      </trkpt>
      <trkpt lat="45.686" lon="6.20958">
        <ele>1502.197265625</ele>
        <time>2011-04-16T10:58:37Z</time>
      </trkpt>
      <trkpt lat="45.68601" lon="6.20956">
        <ele>1502.197265625</ele>
        <time>2011-04-16T10:58:41Z</time>
      </trkpt>
      <trkpt lat="45.68601" lon="6.20956">
        <ele>1502.197265625</ele>
        <time>2011-04-16T10:58:43Z</time>
      </trkpt>
      <trkpt lat="45.68599" lon="6.20959">
        <ele>1502.6779785156</ele>
        <time>2011-04-16T10:58:48Z</time>
      </trkpt>
      <trkpt lat="45.68599" lon="6.20957">
        <ele>1503.1586914062</ele>
        <time>2011-04-16T10:58:59Z</time>
      </trkpt>
      <trkpt lat="45.68598" lon="6.20956">
        <ele>1503.1586914062</ele>
        <time>2011-04-16T10:59:05Z</time>
      </trkpt>
      <trkpt lat="45.68599" lon="6.20953">
        <ele>1502.6779785156</ele>
        <time>2011-04-16T10:59:11Z</time>
      </trkpt>
      <trkpt lat="45.68598" lon="6.20954">
        <ele>1502.6779785156</ele>
        <time>2011-04-16T10:59:16Z</time>
      </trkpt>
      <trkpt lat="45.68598" lon="6.20955">
        <ele>1502.6779785156</ele>
        <time>2011-04-16T10:59:22Z</time>
      </trkpt>
      <trkpt lat="45.68598" lon="6.20955">
        <ele>1503.1586914062</ele>
        <time>2011-04-16T10:59:31Z</time>
      </trkpt>
      <trkpt lat="45.68598" lon="6.20956">
        <ele>1505.0812988281</ele>
        <time>2011-04-16T10:59:40Z</time>
      </trkpt>
      <trkpt lat="45.68598" lon="6.20957">
        <ele>1506.0424804688</ele>
        <time>2011-04-16T10:59:51Z</time>
      </trkpt>
      <trkpt lat="45.686" lon="6.20955">
        <ele>1505.5620117188</ele>
        <time>2011-04-16T10:59:58Z</time>
      </trkpt>
      <trkpt lat="45.68604" lon="6.20951">
        <ele>1500.2749023438</ele>
        <time>2011-04-16T11:00:07Z</time>
      </trkpt>
      <trkpt lat="45.68608" lon="6.20951">
        <ele>1513.2524414062</ele>
        <time>2011-04-16T11:00:35Z</time>
      </trkpt>
      <trkpt lat="45.68608" lon="6.20951">
        <ele>1514.2136230469</ele>
        <time>2011-04-16T11:00:36Z</time>
      </trkpt>
      <trkpt lat="45.68607" lon="6.20952">
        <ele>1515.1750488281</ele>
        <time>2011-04-16T11:00:38Z</time>
      </trkpt>
      <trkpt lat="45.68606" lon="6.20953">
        <ele>1514.2136230469</ele>
        <time>2011-04-16T11:00:39Z</time>
      </trkpt>
      <trkpt lat="45.68606" lon="6.20954">
        <ele>1511.810546875</ele>
        <time>2011-04-16T11:00:43Z</time>
      </trkpt>
      <trkpt lat="45.68608" lon="6.20954">
        <ele>1509.8876953125</ele>
        <time>2011-04-16T11:00:47Z</time>
      </trkpt>
      <trkpt lat="45.68607" lon="6.20951">
        <ele>1504.6005859375</ele>
        <time>2011-04-16T11:00:53Z</time>
      </trkpt>
      <trkpt lat="45.68607" lon="6.2095">
        <ele>1501.2360839844</ele>
        <time>2011-04-16T11:01:02Z</time>
      </trkpt>
      <trkpt lat="45.68606" lon="6.2095">
        <ele>1499.7939453125</ele>
        <time>2011-04-16T11:01:10Z</time>
      </trkpt>
      <trkpt lat="45.68605" lon="6.2095">
        <ele>1500.2749023438</ele>
        <time>2011-04-16T11:01:17Z</time>
      </trkpt>
      <trkpt lat="45.68603" lon="6.20949">
        <ele>1497.390625</ele>
        <time>2011-04-16T11:01:24Z</time>
      </trkpt>
      <trkpt lat="45.68604" lon="6.2095">
        <ele>1495.9487304688</ele>
        <time>2011-04-16T11:01:29Z</time>
      </trkpt>
      <trkpt lat="45.68604" lon="6.2095">
        <ele>1495.9487304688</ele>
        <time>2011-04-16T11:01:33Z</time>
      </trkpt>
      <trkpt lat="45.68603" lon="6.2095">
        <ele>1495.4680175781</ele>
        <time>2011-04-16T11:01:41Z</time>
      </trkpt>
      <trkpt lat="45.68603" lon="6.20955">
        <ele>1492.103515625</ele>
        <time>2011-04-16T11:01:57Z</time>
      </trkpt>
      <trkpt lat="45.68604" lon="6.20953">
        <ele>1493.0646972656</ele>
        <time>2011-04-16T11:02:02Z</time>
      </trkpt>
      <trkpt lat="45.68603" lon="6.20953">
        <ele>1495.9487304688</ele>
        <time>2011-04-16T11:02:13Z</time>
      </trkpt>
      <trkpt lat="45.686" lon="6.20952">
        <ele>1497.8713378906</ele>
        <time>2011-04-16T11:02:25Z</time>
      </trkpt>
      <trkpt lat="45.686" lon="6.20951">
        <ele>1499.3132324219</ele>
        <time>2011-04-16T11:02:32Z</time>
      </trkpt>
      <trkpt lat="45.68601" lon="6.20954">
        <ele>1497.8713378906</ele>
        <time>2011-04-16T11:02:44Z</time>
      </trkpt>
      <trkpt lat="45.68602" lon="6.20956">
        <ele>1497.390625</ele>
        <time>2011-04-16T11:02:49Z</time>
      </trkpt>
      <trkpt lat="45.68602" lon="6.20956">
        <ele>1497.390625</ele>
        <time>2011-04-16T11:02:53Z</time>
      </trkpt>
      <trkpt lat="45.68603" lon="6.20956">
        <ele>1497.390625</ele>
        <time>2011-04-16T11:03:03Z</time>
      </trkpt>
      <trkpt lat="45.68604" lon="6.20956">
        <ele>1497.8713378906</ele>
        <time>2011-04-16T11:03:21Z</time>
      </trkpt>
      <trkpt lat="45.68604" lon="6.20956">
        <ele>1497.8713378906</ele>
        <time>2011-04-16T11:03:30Z</time>
      </trkpt>
      <trkpt lat="45.68604" lon="6.20956">
        <ele>1499.3132324219</ele>
        <time>2011-04-16T11:04:20Z</time>
      </trkpt>
      <trkpt lat="45.68604" lon="6.20954">
        <ele>1500.2749023438</ele>
        <time>2011-04-16T11:04:41Z</time>
      </trkpt>
      <trkpt lat="45.68603" lon="6.20952">
        <ele>1501.2360839844</ele>
        <time>2011-04-16T11:05:02Z</time>
      </trkpt>
      <trkpt lat="45.68603" lon="6.20951">
        <ele>1501.2360839844</ele>
        <time>2011-04-16T11:05:07Z</time>
      </trkpt>
      <trkpt lat="45.68604" lon="6.20951">
        <ele>1500.2749023438</ele>
        <time>2011-04-16T11:05:16Z</time>
      </trkpt>
      <trkpt lat="45.68605" lon="6.20952">
        <ele>1497.390625</ele>
        <time>2011-04-16T11:05:26Z</time>
      </trkpt>
      <trkpt lat="45.68604" lon="6.20953">
        <ele>1496.9099121094</ele>
        <time>2011-04-16T11:05:36Z</time>
      </trkpt>
      <trkpt lat="45.68604" lon="6.20953">
        <ele>1496.9099121094</ele>
        <time>2011-04-16T11:05:44Z</time>
      </trkpt>
      <trkpt lat="45.68602" lon="6.20954">
        <ele>1496.4294433594</ele>
        <time>2011-04-16T11:05:54Z</time>
      </trkpt>
      <trkpt lat="45.68602" lon="6.20954">
        <ele>1497.390625</ele>
        <time>2011-04-16T11:06:09Z</time>
      </trkpt>
      <trkpt lat="45.68603" lon="6.20955">
        <ele>1498.8325195312</ele>
        <time>2011-04-16T11:06:20Z</time>
      </trkpt>
      <trkpt lat="45.68605" lon="6.20955">
        <ele>1500.7553710938</ele>
        <time>2011-04-16T11:06:40Z</time>
      </trkpt>
      <trkpt lat="45.68605" lon="6.20955">
        <ele>1500.2749023438</ele>
        <time>2011-04-16T11:06:46Z</time>
      </trkpt>
      <trkpt lat="45.68605" lon="6.20955">
        <ele>1500.7553710938</ele>
        <time>2011-04-16T11:07:04Z</time>
      </trkpt>
      <trkpt lat="45.68605" lon="6.20954">
        <ele>1499.3132324219</ele>
        <time>2011-04-16T11:07:08Z</time>
      </trkpt>
      <trkpt lat="45.68604" lon="6.20954">
        <ele>1499.3132324219</ele>
        <time>2011-04-16T11:07:17Z</time>
      </trkpt>
      <trkpt lat="45.68604" lon="6.20953">
        <ele>1499.3132324219</ele>
        <time>2011-04-16T11:07:24Z</time>
      </trkpt>
      <trkpt lat="45.686" lon="6.20956">
        <ele>1499.3132324219</ele>
        <time>2011-04-16T11:07:49Z</time>
      </trkpt>
      <trkpt lat="45.686" lon="6.20955">
        <ele>1499.7939453125</ele>
        <time>2011-04-16T11:07:54Z</time>
      </trkpt>
      <trkpt lat="45.68601" lon="6.20952">
        <ele>1497.8713378906</ele>
        <time>2011-04-16T11:08:03Z</time>
      </trkpt>
      <trkpt lat="45.68604" lon="6.20951">
        <ele>1496.9099121094</ele>
        <time>2011-04-16T11:08:09Z</time>
      </trkpt>
      <trkpt lat="45.68604" lon="6.20953">
        <ele>1497.8713378906</ele>
        <time>2011-04-16T11:08:14Z</time>
      </trkpt>
      <trkpt lat="45.68604" lon="6.20956">
        <ele>1504.1201171875</ele>
        <time>2011-04-16T11:09:01Z</time>
      </trkpt>
      <trkpt lat="45.68603" lon="6.20955">
        <ele>1503.1586914062</ele>
        <time>2011-04-16T11:09:26Z</time>
      </trkpt>
      <trkpt lat="45.68603" lon="6.20954">
        <ele>1502.197265625</ele>
        <time>2011-04-16T11:09:41Z</time>
      </trkpt>
      <trkpt lat="45.68603" lon="6.20954">
        <ele>1500.2749023438</ele>
        <time>2011-04-16T11:10:02Z</time>
      </trkpt>
      <trkpt lat="45.68603" lon="6.20954">
        <ele>1499.7939453125</ele>
        <time>2011-04-16T11:10:13Z</time>
      </trkpt>
      <trkpt lat="45.68603" lon="6.20954">
        <ele>1496.9099121094</ele>
        <time>2011-04-16T11:11:10Z</time>
      </trkpt>
      <trkpt lat="45.68603" lon="6.20953">
        <ele>1497.390625</ele>
        <time>2011-04-16T11:11:30Z</time>
      </trkpt>
      <trkpt lat="45.68604" lon="6.20951">
        <ele>1495.9487304688</ele>
        <time>2011-04-16T11:11:49Z</time>
      </trkpt>
      <trkpt lat="45.68604" lon="6.20951">
        <ele>1495.4680175781</ele>
        <time>2011-04-16T11:12:04Z</time>
      </trkpt>
      <trkpt lat="45.68604" lon="6.20951">
        <ele>1494.5065917969</ele>
        <time>2011-04-16T11:12:11Z</time>
      </trkpt>
      <trkpt lat="45.68604" lon="6.20952">
        <ele>1494.5065917969</ele>
        <time>2011-04-16T11:12:25Z</time>
      </trkpt>
      <trkpt lat="45.68604" lon="6.20952">
        <ele>1494.9873046875</ele>
        <time>2011-04-16T11:12:32Z</time>
      </trkpt>
      <trkpt lat="45.68603" lon="6.20954">
        <ele>1495.4680175781</ele>
        <time>2011-04-16T11:12:49Z</time>
      </trkpt>
      <trkpt lat="45.68602" lon="6.20952">
        <ele>1495.4680175781</ele>
        <time>2011-04-16T11:12:56Z</time>
      </trkpt>
      <trkpt lat="45.68604" lon="6.20952">
        <ele>1495.4680175781</ele>
        <time>2011-04-16T11:13:06Z</time>
      </trkpt>
      <trkpt lat="45.68604" lon="6.20952">
        <ele>1495.9487304688</ele>
        <time>2011-04-16T11:13:14Z</time>
      </trkpt>
      <trkpt lat="45.68604" lon="6.20952">
        <ele>1495.4680175781</ele>
        <time>2011-04-16T11:13:22Z</time>
      </trkpt>
      <trkpt lat="45.68604" lon="6.20953">
        <ele>1495.4680175781</ele>
        <time>2011-04-16T11:13:31Z</time>
      </trkpt>
      <trkpt lat="45.68604" lon="6.20952">
        <ele>1495.9487304688</ele>
        <time>2011-04-16T11:13:37Z</time>
      </trkpt>
      <trkpt lat="45.68604" lon="6.20953">
        <ele>1495.9487304688</ele>
        <time>2011-04-16T11:13:46Z</time>
      </trkpt>
      <trkpt lat="45.68603" lon="6.20953">
        <ele>1496.4294433594</ele>
        <time>2011-04-16T11:13:52Z</time>
      </trkpt>
      <trkpt lat="45.68603" lon="6.20953">
        <ele>1496.4294433594</ele>
        <time>2011-04-16T11:13:58Z</time>
      </trkpt>
      <trkpt lat="45.68602" lon="6.20953">
        <ele>1496.9099121094</ele>
        <time>2011-04-16T11:14:05Z</time>
      </trkpt>
      <trkpt lat="45.68602" lon="6.20952">
        <ele>1497.390625</ele>
        <time>2011-04-16T11:14:15Z</time>
      </trkpt>
      <trkpt lat="45.68602" lon="6.20952">
        <ele>1497.390625</ele>
        <time>2011-04-16T11:14:21Z</time>
      </trkpt>
      <trkpt lat="45.68603" lon="6.20951">
        <ele>1496.9099121094</ele>
        <time>2011-04-16T11:14:27Z</time>
      </trkpt>
      <trkpt lat="45.68603" lon="6.20952">
        <ele>1497.390625</ele>
        <time>2011-04-16T11:14:35Z</time>
      </trkpt>
      <trkpt lat="45.68604" lon="6.20951">
        <ele>1497.8713378906</ele>
        <time>2011-04-16T11:14:41Z</time>
      </trkpt>
      <trkpt lat="45.68604" lon="6.20954">
        <ele>1498.3518066406</ele>
        <time>2011-04-16T11:14:46Z</time>
      </trkpt>
      <trkpt lat="45.68604" lon="6.20954">
        <ele>1496.9099121094</ele>
        <time>2011-04-16T11:14:54Z</time>
      </trkpt>
      <trkpt lat="45.68602" lon="6.20954">
        <ele>1495.9487304688</ele>
        <time>2011-04-16T11:15:03Z</time>
      </trkpt>
      <trkpt lat="45.68602" lon="6.20954">
        <ele>1495.4680175781</ele>
        <time>2011-04-16T11:15:07Z</time>
      </trkpt>
      <trkpt lat="45.68602" lon="6.20954">
        <ele>1496.4294433594</ele>
        <time>2011-04-16T11:15:12Z</time>
      </trkpt>
      <trkpt lat="45.68602" lon="6.20954">
        <ele>1497.390625</ele>
        <time>2011-04-16T11:15:16Z</time>
      </trkpt>
      <trkpt lat="45.68602" lon="6.20954">
        <ele>1497.390625</ele>
        <time>2011-04-16T11:15:17Z</time>
      </trkpt>
      <trkpt lat="45.68602" lon="6.20954">
        <ele>1497.8713378906</ele>
        <time>2011-04-16T11:15:28Z</time>
      </trkpt>
      <trkpt lat="45.68602" lon="6.20954">
        <ele>1495.4680175781</ele>
        <time>2011-04-16T11:15:48Z</time>
      </trkpt>
      <trkpt lat="45.68602" lon="6.20953">
        <ele>1495.9487304688</ele>
        <time>2011-04-16T11:15:55Z</time>
      </trkpt>
      <trkpt lat="45.68602" lon="6.20953">
        <ele>1495.4680175781</ele>
        <time>2011-04-16T11:15:58Z</time>
      </trkpt>
      <trkpt lat="45.68603" lon="6.20952">
        <ele>1495.9487304688</ele>
        <time>2011-04-16T11:16:01Z</time>
      </trkpt>
      <trkpt lat="45.68603" lon="6.20952">
        <ele>1495.9487304688</ele>
        <time>2011-04-16T11:16:02Z</time>
      </trkpt>
      <trkpt lat="45.68603" lon="6.20952">
        <ele>1496.4294433594</ele>
        <time>2011-04-16T11:16:05Z</time>
      </trkpt>
      <trkpt lat="45.68603" lon="6.20952">
        <ele>1496.9099121094</ele>
        <time>2011-04-16T11:16:09Z</time>
      </trkpt>
      <trkpt lat="45.68604" lon="6.20952">
        <ele>1498.8325195312</ele>
        <time>2011-04-16T11:16:16Z</time>
      </trkpt>
      <trkpt lat="45.68603" lon="6.20951">
        <ele>1501.2360839844</ele>
        <time>2011-04-16T11:16:19Z</time>
      </trkpt>
      <trkpt lat="45.68602" lon="6.20951">
        <ele>1502.6779785156</ele>
        <time>2011-04-16T11:16:20Z</time>
      </trkpt>
      <trkpt lat="45.68602" lon="6.20951">
        <ele>1505.0812988281</ele>
        <time>2011-04-16T11:16:35Z</time>
      </trkpt>
      <trkpt lat="45.68602" lon="6.20952">
        <ele>1502.6779785156</ele>
        <time>2011-04-16T11:16:48Z</time>
      </trkpt>
      <trkpt lat="45.68602" lon="6.20953">
        <ele>1501.716796875</ele>
        <time>2011-04-16T11:16:53Z</time>
      </trkpt>
      <trkpt lat="45.68603" lon="6.20954">
        <ele>1500.2749023438</ele>
        <time>2011-04-16T11:17:04Z</time>
      </trkpt>
      <trkpt lat="45.68604" lon="6.20955">
        <ele>1499.7939453125</ele>
        <time>2011-04-16T11:17:28Z</time>
      </trkpt>
      <trkpt lat="45.68604" lon="6.20955">
        <ele>1497.390625</ele>
        <time>2011-04-16T11:17:50Z</time>
      </trkpt>
      <trkpt lat="45.68605" lon="6.20953">
        <ele>1495.9487304688</ele>
        <time>2011-04-16T11:17:57Z</time>
      </trkpt>
      <trkpt lat="45.68604" lon="6.20953">
        <ele>1497.390625</ele>
        <time>2011-04-16T11:18:07Z</time>
      </trkpt>
      <trkpt lat="45.68603" lon="6.20953">
        <ele>1497.390625</ele>
        <time>2011-04-16T11:18:22Z</time>
      </trkpt>
      <trkpt lat="45.68602" lon="6.20951">
        <ele>1496.9099121094</ele>
        <time>2011-04-16T11:18:28Z</time>
      </trkpt>
      <trkpt lat="45.68603" lon="6.20951">
        <ele>1497.390625</ele>
        <time>2011-04-16T11:18:31Z</time>
      </trkpt>
      <trkpt lat="45.68604" lon="6.20953">
        <ele>1496.9099121094</ele>
        <time>2011-04-16T11:18:37Z</time>
      </trkpt>
      <trkpt lat="45.68603" lon="6.20951">
        <ele>1496.4294433594</ele>
        <time>2011-04-16T11:18:41Z</time>
      </trkpt>
      <trkpt lat="45.68603" lon="6.20951">
        <ele>1496.4294433594</ele>
        <time>2011-04-16T11:18:48Z</time>
      </trkpt>
      <trkpt lat="45.68602" lon="6.20953">
        <ele>1496.9099121094</ele>
        <time>2011-04-16T11:18:53Z</time>
      </trkpt>
      <trkpt lat="45.68601" lon="6.20952">
        <ele>1497.390625</ele>
        <time>2011-04-16T11:18:55Z</time>
      </trkpt>
      <trkpt lat="45.68597" lon="6.20948">
        <ele>1495.9487304688</ele>
        <time>2011-04-16T11:18:59Z</time>
      </trkpt>
      <trkpt lat="45.68597" lon="6.20947">
        <ele>1495.9487304688</ele>
        <time>2011-04-16T11:19:00Z</time>
      </trkpt>
      <trkpt lat="45.68594" lon="6.20944">
        <ele>1497.390625</ele>
        <time>2011-04-16T11:19:06Z</time>
      </trkpt>
      <trkpt lat="45.68594" lon="6.20945">
        <ele>1497.390625</ele>
        <time>2011-04-16T11:19:08Z</time>
      </trkpt>
      <trkpt lat="45.68597" lon="6.20953">
        <ele>1497.390625</ele>
        <time>2011-04-16T11:19:15Z</time>
      </trkpt>
      <trkpt lat="45.68597" lon="6.20954">
        <ele>1498.3518066406</ele>
        <time>2011-04-16T11:19:22Z</time>
      </trkpt>
      <trkpt lat="45.68601" lon="6.20953">
        <ele>1497.390625</ele>
        <time>2011-04-16T11:19:26Z</time>
      </trkpt>
      <trkpt lat="45.68603" lon="6.20953">
        <ele>1497.390625</ele>
        <time>2011-04-16T11:19:30Z</time>
      </trkpt>
      <trkpt lat="45.68603" lon="6.20955">
        <ele>1498.8325195312</ele>
        <time>2011-04-16T11:19:38Z</time>
      </trkpt>
      <trkpt lat="45.68603" lon="6.20955">
        <ele>1500.2749023438</ele>
        <time>2011-04-16T11:19:47Z</time>
      </trkpt>
      <trkpt lat="45.68602" lon="6.20956">
        <ele>1500.7553710938</ele>
        <time>2011-04-16T11:19:52Z</time>
      </trkpt>
      <trkpt lat="45.68598" lon="6.20956">
        <ele>1500.7553710938</ele>
        <time>2011-04-16T11:19:58Z</time>
      </trkpt>
      <trkpt lat="45.68598" lon="6.20956">
        <ele>1500.7553710938</ele>
        <time>2011-04-16T11:20:05Z</time>
      </trkpt>
      <trkpt lat="45.68599" lon="6.20955">
        <ele>1500.7553710938</ele>
        <time>2011-04-16T11:20:19Z</time>
      </trkpt>
      <trkpt lat="45.68599" lon="6.20954">
        <ele>1500.2749023438</ele>
        <time>2011-04-16T11:20:44Z</time>
      </trkpt>
      <trkpt lat="45.68603" lon="6.2095">
        <ele>1499.7939453125</ele>
        <time>2011-04-16T11:20:48Z</time>
      </trkpt>
      <trkpt lat="45.68604" lon="6.20951">
        <ele>1499.7939453125</ele>
        <time>2011-04-16T11:20:53Z</time>
      </trkpt>
      <trkpt lat="45.68603" lon="6.2095">
        <ele>1500.7553710938</ele>
        <time>2011-04-16T11:21:01Z</time>
      </trkpt>
      <trkpt lat="45.686" lon="6.20951">
        <ele>1500.2749023438</ele>
        <time>2011-04-16T11:21:05Z</time>
      </trkpt>
      <trkpt lat="45.68598" lon="6.20951">
        <ele>1500.7553710938</ele>
        <time>2011-04-16T11:21:09Z</time>
      </trkpt>
      <trkpt lat="45.68597" lon="6.20952">
        <ele>1501.2360839844</ele>
        <time>2011-04-16T11:21:14Z</time>
      </trkpt>
      <trkpt lat="45.68599" lon="6.20954">
        <ele>1500.2749023438</ele>
        <time>2011-04-16T11:21:24Z</time>
      </trkpt>
      <trkpt lat="45.68602" lon="6.20951">
        <ele>1499.3132324219</ele>
        <time>2011-04-16T11:21:32Z</time>
      </trkpt>
      <trkpt lat="45.68604" lon="6.20951">
        <ele>1496.4294433594</ele>
        <time>2011-04-16T11:21:37Z</time>
      </trkpt>
      <trkpt lat="45.68604" lon="6.20951">
        <ele>1495.9487304688</ele>
        <time>2011-04-16T11:21:42Z</time>
      </trkpt>
      <trkpt lat="45.68604" lon="6.20952">
        <ele>1497.390625</ele>
        <time>2011-04-16T11:21:50Z</time>
      </trkpt>
      <trkpt lat="45.68604" lon="6.20952">
        <ele>1497.390625</ele>
        <time>2011-04-16T11:22:00Z</time>
      </trkpt>
      <trkpt lat="45.68603" lon="6.20952">
        <ele>1496.9099121094</ele>
        <time>2011-04-16T11:22:07Z</time>
      </trkpt>
      <trkpt lat="45.68603" lon="6.20952">
        <ele>1496.4294433594</ele>
        <time>2011-04-16T11:22:14Z</time>
      </trkpt>
      <trkpt lat="45.68603" lon="6.20952">
        <ele>1496.9099121094</ele>
        <time>2011-04-16T11:22:19Z</time>
      </trkpt>
      <trkpt lat="45.68604" lon="6.20952">
        <ele>1495.4680175781</ele>
        <time>2011-04-16T11:22:26Z</time>
      </trkpt>
      <trkpt lat="45.68603" lon="6.20952">
        <ele>1494.9873046875</ele>
        <time>2011-04-16T11:22:32Z</time>
      </trkpt>
      <trkpt lat="45.68604" lon="6.20952">
        <ele>1494.9873046875</ele>
        <time>2011-04-16T11:22:36Z</time>
      </trkpt>
      <trkpt lat="45.68604" lon="6.20951">
        <ele>1494.5065917969</ele>
        <time>2011-04-16T11:22:43Z</time>
      </trkpt>
      <trkpt lat="45.68604" lon="6.20952">
        <ele>1495.9487304688</ele>
        <time>2011-04-16T11:22:49Z</time>
      </trkpt>
      <trkpt lat="45.68603" lon="6.20952">
        <ele>1495.9487304688</ele>
        <time>2011-04-16T11:22:56Z</time>
      </trkpt>
      <trkpt lat="45.68603" lon="6.20951">
        <ele>1496.9099121094</ele>
        <time>2011-04-16T11:23:01Z</time>
      </trkpt>
      <trkpt lat="45.68603" lon="6.20952">
        <ele>1498.3518066406</ele>
        <time>2011-04-16T11:23:10Z</time>
      </trkpt>
      <trkpt lat="45.68602" lon="6.20951">
        <ele>1497.8713378906</ele>
        <time>2011-04-16T11:23:15Z</time>
      </trkpt>
      <trkpt lat="45.68602" lon="6.20951">
        <ele>1497.8713378906</ele>
        <time>2011-04-16T11:23:25Z</time>
      </trkpt>
      <trkpt lat="45.68602" lon="6.20953">
        <ele>1498.3518066406</ele>
        <time>2011-04-16T11:23:34Z</time>
      </trkpt>
      <trkpt lat="45.68603" lon="6.20953">
        <ele>1497.390625</ele>
        <time>2011-04-16T11:23:48Z</time>
      </trkpt>
      <trkpt lat="45.68603" lon="6.20952">
        <ele>1496.9099121094</ele>
        <time>2011-04-16T11:23:55Z</time>
      </trkpt>
      <trkpt lat="45.68602" lon="6.20951">
        <ele>1496.4294433594</ele>
        <time>2011-04-16T11:24:02Z</time>
      </trkpt>
      <trkpt lat="45.68602" lon="6.2095">
        <ele>1497.390625</ele>
        <time>2011-04-16T11:24:09Z</time>
      </trkpt>
      <trkpt lat="45.68602" lon="6.2095">
        <ele>1498.3518066406</ele>
        <time>2011-04-16T11:24:15Z</time>
      </trkpt>
      <trkpt lat="45.68602" lon="6.20951">
        <ele>1498.3518066406</ele>
        <time>2011-04-16T11:24:18Z</time>
      </trkpt>
      <trkpt lat="45.68602" lon="6.20952">
        <ele>1497.8713378906</ele>
        <time>2011-04-16T11:24:22Z</time>
      </trkpt>
      <trkpt lat="45.68602" lon="6.20952">
        <ele>1499.7939453125</ele>
        <time>2011-04-16T11:24:30Z</time>
      </trkpt>
      <trkpt lat="45.68602" lon="6.20947">
        <ele>1499.3132324219</ele>
        <time>2011-04-16T11:24:35Z</time>
      </trkpt>
      <trkpt lat="45.68602" lon="6.20945">
        <ele>1499.3132324219</ele>
        <time>2011-04-16T11:24:40Z</time>
      </trkpt>
      <trkpt lat="45.68605" lon="6.20943">
        <ele>1499.3132324219</ele>
        <time>2011-04-16T11:24:45Z</time>
      </trkpt>
      <trkpt lat="45.6861" lon="6.2094">
        <ele>1497.8713378906</ele>
        <time>2011-04-16T11:24:50Z</time>
      </trkpt>
      <trkpt lat="45.68616" lon="6.20941">
        <ele>1498.3518066406</ele>
        <time>2011-04-16T11:24:55Z</time>
      </trkpt>
      <trkpt lat="45.68618" lon="6.2094">
        <ele>1498.8325195312</ele>
        <time>2011-04-16T11:24:57Z</time>
      </trkpt>
      <trkpt lat="45.68622" lon="6.20941">
        <ele>1498.8325195312</ele>
        <time>2011-04-16T11:25:00Z</time>
      </trkpt>
      <trkpt lat="45.68623" lon="6.20943">
        <ele>1499.3132324219</ele>
        <time>2011-04-16T11:25:06Z</time>
      </trkpt>
      <trkpt lat="45.68622" lon="6.20943">
        <ele>1499.3132324219</ele>
        <time>2011-04-16T11:25:11Z</time>
      </trkpt>
      <trkpt lat="45.68617" lon="6.2094">
        <ele>1499.3132324219</ele>
        <time>2011-04-16T11:25:17Z</time>
      </trkpt>
      <trkpt lat="45.68614" lon="6.20942">
        <ele>1499.3132324219</ele>
        <time>2011-04-16T11:25:23Z</time>
      </trkpt>
      <trkpt lat="45.68613" lon="6.20942">
        <ele>1500.2749023438</ele>
        <time>2011-04-16T11:25:29Z</time>
      </trkpt>
      <trkpt lat="45.6861" lon="6.20943">
        <ele>1500.2749023438</ele>
        <time>2011-04-16T11:25:37Z</time>
      </trkpt>
      <trkpt lat="45.68609" lon="6.20943">
        <ele>1499.7939453125</ele>
        <time>2011-04-16T11:25:41Z</time>
      </trkpt>
      <trkpt lat="45.68607" lon="6.20943">
        <ele>1498.3518066406</ele>
        <time>2011-04-16T11:25:47Z</time>
      </trkpt>
      <trkpt lat="45.68603" lon="6.20944">
        <ele>1497.8713378906</ele>
        <time>2011-04-16T11:25:51Z</time>
      </trkpt>
      <trkpt lat="45.68603" lon="6.20945">
        <ele>1498.3518066406</ele>
        <time>2011-04-16T11:25:59Z</time>
      </trkpt>
      <trkpt lat="45.68604" lon="6.20945">
        <ele>1497.390625</ele>
        <time>2011-04-16T11:26:06Z</time>
      </trkpt>
      <trkpt lat="45.68604" lon="6.20944">
        <ele>1497.8713378906</ele>
        <time>2011-04-16T11:26:09Z</time>
      </trkpt>
      <trkpt lat="45.68601" lon="6.20948">
        <ele>1497.8713378906</ele>
        <time>2011-04-16T11:26:14Z</time>
      </trkpt>
      <trkpt lat="45.68599" lon="6.20948">
        <ele>1499.7939453125</ele>
        <time>2011-04-16T11:26:22Z</time>
      </trkpt>
      <trkpt lat="45.68599" lon="6.20949">
        <ele>1499.7939453125</ele>
        <time>2011-04-16T11:26:26Z</time>
      </trkpt>
      <trkpt lat="45.68599" lon="6.20948">
        <ele>1499.3132324219</ele>
        <time>2011-04-16T11:26:33Z</time>
      </trkpt>
      <trkpt lat="45.68599" lon="6.2095">
        <ele>1498.8325195312</ele>
        <time>2011-04-16T11:26:37Z</time>
      </trkpt>
      <trkpt lat="45.68599" lon="6.20948">
        <ele>1498.8325195312</ele>
        <time>2011-04-16T11:26:44Z</time>
      </trkpt>
      <trkpt lat="45.686" lon="6.20948">
        <ele>1499.3132324219</ele>
        <time>2011-04-16T11:26:51Z</time>
      </trkpt>
      <trkpt lat="45.686" lon="6.20948">
        <ele>1500.2749023438</ele>
        <time>2011-04-16T11:27:03Z</time>
      </trkpt>
      <trkpt lat="45.686" lon="6.20947">
        <ele>1501.2360839844</ele>
        <time>2011-04-16T11:27:24Z</time>
      </trkpt>
      <trkpt lat="45.68599" lon="6.20947">
        <ele>1501.716796875</ele>
        <time>2011-04-16T11:27:26Z</time>
      </trkpt>
      <trkpt lat="45.68596" lon="6.20953">
        <ele>1501.2360839844</ele>
        <time>2011-04-16T11:27:31Z</time>
      </trkpt>
      <trkpt lat="45.6859" lon="6.20962">
        <ele>1501.716796875</ele>
        <time>2011-04-16T11:27:38Z</time>
      </trkpt>
      <trkpt lat="45.68589" lon="6.20961">
        <ele>1501.716796875</ele>
        <time>2011-04-16T11:27:39Z</time>
      </trkpt>
      <trkpt lat="45.68585" lon="6.20957">
        <ele>1501.716796875</ele>
        <time>2011-04-16T11:27:42Z</time>
      </trkpt>
      <trkpt lat="45.68578" lon="6.20952">
        <ele>1501.2360839844</ele>
        <time>2011-04-16T11:27:47Z</time>
      </trkpt>
      <trkpt lat="45.68574" lon="6.20951">
        <ele>1501.2360839844</ele>
        <time>2011-04-16T11:27:50Z</time>
      </trkpt>
      <trkpt lat="45.68563" lon="6.2095">
        <ele>1500.2749023438</ele>
        <time>2011-04-16T11:27:58Z</time>
      </trkpt>
      <trkpt lat="45.68545" lon="6.2095">
        <ele>1498.3518066406</ele>
        <time>2011-04-16T11:28:07Z</time>
      </trkpt>
      <trkpt lat="45.68522" lon="6.2095">
        <ele>1495.4680175781</ele>
        <time>2011-04-16T11:28:15Z</time>
      </trkpt>
      <trkpt lat="45.68504" lon="6.20955">
        <ele>1495.4680175781</ele>
        <time>2011-04-16T11:28:21Z</time>
      </trkpt>
      <trkpt lat="45.68487" lon="6.20967">
        <ele>1495.4680175781</ele>
        <time>2011-04-16T11:28:27Z</time>
      </trkpt>
      <trkpt lat="45.68468" lon="6.20976">
        <ele>1495.4680175781</ele>
        <time>2011-04-16T11:28:33Z</time>
      </trkpt>
      <trkpt lat="45.68452" lon="6.20979">
        <ele>1493.0646972656</ele>
        <time>2011-04-16T11:28:38Z</time>
      </trkpt>
      <trkpt lat="45.68435" lon="6.2098">
        <ele>1492.103515625</ele>
        <time>2011-04-16T11:28:44Z</time>
      </trkpt>
      <trkpt lat="45.68408" lon="6.20977">
        <ele>1488.7390136719</ele>
        <time>2011-04-16T11:28:52Z</time>
      </trkpt>
      <trkpt lat="45.68384" lon="6.20973">
        <ele>1489.2194824219</ele>
        <time>2011-04-16T11:29:00Z</time>
      </trkpt>
      <trkpt lat="45.68366" lon="6.20969">
        <ele>1488.2583007812</ele>
        <time>2011-04-16T11:29:06Z</time>
      </trkpt>
      <trkpt lat="45.6834" lon="6.20966">
        <ele>1484.8937988281</ele>
        <time>2011-04-16T11:29:15Z</time>
      </trkpt>
      <trkpt lat="45.68325" lon="6.20964">
        <ele>1481.5288085938</ele>
        <time>2011-04-16T11:29:21Z</time>
      </trkpt>
      <trkpt lat="45.68306" lon="6.20958">
        <ele>1480.5676269531</ele>
        <time>2011-04-16T11:29:28Z</time>
      </trkpt>
      <trkpt lat="45.6829" lon="6.20954">
        <ele>1477.68359375</ele>
        <time>2011-04-16T11:29:35Z</time>
      </trkpt>
      <trkpt lat="45.6827" lon="6.2095">
        <ele>1476.7224121094</ele>
        <time>2011-04-16T11:29:43Z</time>
      </trkpt>
      <trkpt lat="45.6825" lon="6.2095">
        <ele>1473.8383789062</ele>
        <time>2011-04-16T11:29:51Z</time>
      </trkpt>
      <trkpt lat="45.6823" lon="6.20952">
        <ele>1470.9545898438</ele>
        <time>2011-04-16T11:29:58Z</time>
      </trkpt>
      <trkpt lat="45.68209" lon="6.20956">
        <ele>1468.5512695312</ele>
        <time>2011-04-16T11:30:04Z</time>
      </trkpt>
      <trkpt lat="45.68193" lon="6.20965">
        <ele>1466.6284179688</ele>
        <time>2011-04-16T11:30:09Z</time>
      </trkpt>
      <trkpt lat="45.68176" lon="6.20967">
        <ele>1465.6672363281</ele>
        <time>2011-04-16T11:30:14Z</time>
      </trkpt>
      <trkpt lat="45.68155" lon="6.20958">
        <ele>1458.9379882812</ele>
        <time>2011-04-16T11:30:20Z</time>
      </trkpt>
      <trkpt lat="45.68136" lon="6.20955">
        <ele>1453.1701660156</ele>
        <time>2011-04-16T11:30:26Z</time>
      </trkpt>
      <trkpt lat="45.68117" lon="6.20956">
        <ele>1449.8054199219</ele>
        <time>2011-04-16T11:30:32Z</time>
      </trkpt>
      <trkpt lat="45.68097" lon="6.20954">
        <ele>1449.8054199219</ele>
        <time>2011-04-16T11:30:37Z</time>
      </trkpt>
      <trkpt lat="45.68065" lon="6.20948">
        <ele>1446.4409179688</ele>
        <time>2011-04-16T11:30:45Z</time>
      </trkpt>
      <trkpt lat="45.68047" lon="6.20946">
        <ele>1443.5568847656</ele>
        <time>2011-04-16T11:30:50Z</time>
      </trkpt>
      <trkpt lat="45.68027" lon="6.20946">
        <ele>1439.7116699219</ele>
        <time>2011-04-16T11:30:56Z</time>
      </trkpt>
      <trkpt lat="45.68005" lon="6.20948">
        <ele>1436.3471679688</ele>
        <time>2011-04-16T11:31:03Z</time>
      </trkpt>
      <trkpt lat="45.67991" lon="6.20958">
        <ele>1433.9436035156</ele>
        <time>2011-04-16T11:31:08Z</time>
      </trkpt>
      <trkpt lat="45.67981" lon="6.20956">
        <ele>1432.5017089844</ele>
        <time>2011-04-16T11:31:12Z</time>
      </trkpt>
      <trkpt lat="45.67967" lon="6.20943">
        <ele>1430.0983886719</ele>
        <time>2011-04-16T11:31:18Z</time>
      </trkpt>
      <trkpt lat="45.67951" lon="6.20945">
        <ele>1429.1369628906</ele>
        <time>2011-04-16T11:31:23Z</time>
      </trkpt>
      <trkpt lat="45.67933" lon="6.20955">
        <ele>1428.6564941406</ele>
        <time>2011-04-16T11:31:29Z</time>
      </trkpt>
      <trkpt lat="45.67918" lon="6.20953">
        <ele>1427.2145996094</ele>
        <time>2011-04-16T11:31:34Z</time>
      </trkpt>
      <trkpt lat="45.67908" lon="6.20947">
        <ele>1424.8112792969</ele>
        <time>2011-04-16T11:31:39Z</time>
      </trkpt>
      <trkpt lat="45.67893" lon="6.20941">
        <ele>1420.4853515625</ele>
        <time>2011-04-16T11:31:46Z</time>
      </trkpt>
      <trkpt lat="45.67873" lon="6.20944">
        <ele>1417.6010742188</ele>
        <time>2011-04-16T11:31:53Z</time>
      </trkpt>
      <trkpt lat="45.67859" lon="6.20955">
        <ele>1414.7172851562</ele>
        <time>2011-04-16T11:31:58Z</time>
      </trkpt>
      <trkpt lat="45.67854" lon="6.2096">
        <ele>1413.755859375</ele>
        <time>2011-04-16T11:32:00Z</time>
      </trkpt>
      <trkpt lat="45.67844" lon="6.2095">
        <ele>1413.275390625</ele>
        <time>2011-04-16T11:32:05Z</time>
      </trkpt>
      <trkpt lat="45.67848" lon="6.20932">
        <ele>1415.1979980469</ele>
        <time>2011-04-16T11:32:09Z</time>
      </trkpt>
      <trkpt lat="45.67854" lon="6.20908">
        <ele>1413.755859375</ele>
        <time>2011-04-16T11:32:15Z</time>
      </trkpt>
      <trkpt lat="45.67848" lon="6.20886">
        <ele>1415.1979980469</ele>
        <time>2011-04-16T11:32:20Z</time>
      </trkpt>
      <trkpt lat="45.67846" lon="6.20869">
        <ele>1412.7946777344</ele>
        <time>2011-04-16T11:32:24Z</time>
      </trkpt>
      <trkpt lat="45.67846" lon="6.20867">
        <ele>1411.3527832031</ele>
        <time>2011-04-16T11:32:25Z</time>
      </trkpt>
      <trkpt lat="45.67847" lon="6.20871">
        <ele>1408.46875</ele>
        <time>2011-04-16T11:32:36Z</time>
      </trkpt>
      <trkpt lat="45.67845" lon="6.20869">
        <ele>1414.2365722656</ele>
        <time>2011-04-16T11:32:48Z</time>
      </trkpt>
      <trkpt lat="45.67843" lon="6.20866">
        <ele>1414.2365722656</ele>
        <time>2011-04-16T11:33:07Z</time>
      </trkpt>
      <trkpt lat="45.67844" lon="6.20866">
        <ele>1415.1979980469</ele>
        <time>2011-04-16T11:33:27Z</time>
      </trkpt>
      <trkpt lat="45.67848" lon="6.20861">
        <ele>1415.6787109375</ele>
        <time>2011-04-16T11:33:47Z</time>
      </trkpt>
      <trkpt lat="45.67854" lon="6.2085">
        <ele>1413.755859375</ele>
        <time>2011-04-16T11:33:50Z</time>
      </trkpt>
      <trkpt lat="45.6785" lon="6.20832">
        <ele>1411.3527832031</ele>
        <time>2011-04-16T11:33:54Z</time>
      </trkpt>
      <trkpt lat="45.67851" lon="6.20817">
        <ele>1408.9494628906</ele>
        <time>2011-04-16T11:33:57Z</time>
      </trkpt>
      <trkpt lat="45.67864" lon="6.2081">
        <ele>1406.0654296875</ele>
        <time>2011-04-16T11:34:00Z</time>
      </trkpt>
      <trkpt lat="45.6787" lon="6.2081">
        <ele>1405.1042480469</ele>
        <time>2011-04-16T11:34:01Z</time>
      </trkpt>
      <trkpt lat="45.67918" lon="6.20812">
        <ele>1398.85546875</ele>
        <time>2011-04-16T11:34:08Z</time>
      </trkpt>
      <trkpt lat="45.67942" lon="6.20813">
        <ele>1394.0490722656</ele>
        <time>2011-04-16T11:34:12Z</time>
      </trkpt>
      <trkpt lat="45.67961" lon="6.2081">
        <ele>1391.6457519531</ele>
        <time>2011-04-16T11:34:16Z</time>
      </trkpt>
      <trkpt lat="45.6797" lon="6.20811">
        <ele>1389.2424316406</ele>
        <time>2011-04-16T11:34:19Z</time>
      </trkpt>
      <trkpt lat="45.68003" lon="6.20814">
        <ele>1379.1484375</ele>
        <time>2011-04-16T11:34:28Z</time>
      </trkpt>
      <trkpt lat="45.68023" lon="6.2082">
        <ele>1371.4577636719</ele>
        <time>2011-04-16T11:34:34Z</time>
      </trkpt>
      <trkpt lat="45.68037" lon="6.20819">
        <ele>1369.0546875</ele>
        <time>2011-04-16T11:34:39Z</time>
      </trkpt>
      <trkpt lat="45.68053" lon="6.20808">
        <ele>1366.1706542969</ele>
        <time>2011-04-16T11:34:44Z</time>
      </trkpt>
      <trkpt lat="45.68064" lon="6.20789">
        <ele>1363.7673339844</ele>
        <time>2011-04-16T11:34:49Z</time>
      </trkpt>
      <trkpt lat="45.68077" lon="6.20776">
        <ele>1363.7673339844</ele>
        <time>2011-04-16T11:34:54Z</time>
      </trkpt>
      <trkpt lat="45.68089" lon="6.20771">
        <ele>1367.1320800781</ele>
        <time>2011-04-16T11:34:58Z</time>
      </trkpt>
      <trkpt lat="45.68101" lon="6.20755">
        <ele>1368.5739746094</ele>
        <time>2011-04-16T11:35:02Z</time>
      </trkpt>
      <trkpt lat="45.68113" lon="6.2073">
        <ele>1373.861328125</ele>
        <time>2011-04-16T11:35:08Z</time>
      </trkpt>
      <trkpt lat="45.68128" lon="6.20718">
        <ele>1369.0546875</ele>
        <time>2011-04-16T11:35:13Z</time>
      </trkpt>
      <trkpt lat="45.68142" lon="6.20706">
        <ele>1363.7673339844</ele>
        <time>2011-04-16T11:35:19Z</time>
      </trkpt>
      <trkpt lat="45.68143" lon="6.20705">
        <ele>1365.6901855469</ele>
        <time>2011-04-16T11:35:25Z</time>
      </trkpt>
      <trkpt lat="45.6814" lon="6.207">
        <ele>1370.0158691406</ele>
        <time>2011-04-16T11:35:41Z</time>
      </trkpt>
      <trkpt lat="45.68145" lon="6.20696">
        <ele>1368.5739746094</ele>
        <time>2011-04-16T11:35:45Z</time>
      </trkpt>
      <trkpt lat="45.68155" lon="6.20681">
        <ele>1366.6513671875</ele>
        <time>2011-04-16T11:35:51Z</time>
      </trkpt>
      <trkpt lat="45.68168" lon="6.2067">
        <ele>1364.7287597656</ele>
        <time>2011-04-16T11:35:57Z</time>
      </trkpt>
      <trkpt lat="45.68178" lon="6.20655">
        <ele>1360.4028320312</ele>
        <time>2011-04-16T11:36:01Z</time>
      </trkpt>
      <trkpt lat="45.68192" lon="6.20627">
        <ele>1357.5190429688</ele>
        <time>2011-04-16T11:36:07Z</time>
      </trkpt>
      <trkpt lat="45.68207" lon="6.20619">
        <ele>1357.0383300781</ele>
        <time>2011-04-16T11:36:11Z</time>
      </trkpt>
      <trkpt lat="45.68225" lon="6.20612">
        <ele>1356.0769042969</ele>
        <time>2011-04-16T11:36:16Z</time>
      </trkpt>
      <trkpt lat="45.68234" lon="6.20607">
        <ele>1356.0769042969</ele>
        <time>2011-04-16T11:36:18Z</time>
      </trkpt>
      <trkpt lat="45.68248" lon="6.20592">
        <ele>1357.5190429688</ele>
        <time>2011-04-16T11:36:21Z</time>
      </trkpt>
      <trkpt lat="45.68262" lon="6.2056">
        <ele>1354.154296875</ele>
        <time>2011-04-16T11:36:25Z</time>
      </trkpt>
      <trkpt lat="45.68265" lon="6.20546">
        <ele>1354.154296875</ele>
        <time>2011-04-16T11:36:27Z</time>
      </trkpt>
      <trkpt lat="45.68266" lon="6.20535">
        <ele>1351.2702636719</ele>
        <time>2011-04-16T11:36:31Z</time>
      </trkpt>
      <trkpt lat="45.68269" lon="6.20532">
        <ele>1347.4250488281</ele>
        <time>2011-04-16T11:36:36Z</time>
      </trkpt>
      <trkpt lat="45.68272" lon="6.20509">
        <ele>1348.8669433594</ele>
        <time>2011-04-16T11:36:42Z</time>
      </trkpt>
      <trkpt lat="45.68268" lon="6.20502">
        <ele>1348.3862304688</ele>
        <time>2011-04-16T11:36:44Z</time>
      </trkpt>
      <trkpt lat="45.68258" lon="6.2049">
        <ele>1344.541015625</ele>
        <time>2011-04-16T11:36:50Z</time>
      </trkpt>
      <trkpt lat="45.68257" lon="6.20489">
        <ele>1347.9057617188</ele>
        <time>2011-04-16T11:36:53Z</time>
      </trkpt>
      <trkpt lat="45.6825" lon="6.20474">
        <ele>1346.4638671875</ele>
        <time>2011-04-16T11:36:58Z</time>
      </trkpt>
      <trkpt lat="45.68248" lon="6.20469">
        <ele>1345.5024414062</ele>
        <time>2011-04-16T11:36:59Z</time>
      </trkpt>
      <trkpt lat="45.68257" lon="6.20439">
        <ele>1343.0991210938</ele>
        <time>2011-04-16T11:37:04Z</time>
      </trkpt>
      <trkpt lat="45.68265" lon="6.20418">
        <ele>1345.5024414062</ele>
        <time>2011-04-16T11:37:07Z</time>
      </trkpt>
      <trkpt lat="45.68284" lon="6.20403">
        <ele>1338.2924804688</ele>
        <time>2011-04-16T11:37:12Z</time>
      </trkpt>
      <trkpt lat="45.68287" lon="6.20391">
        <ele>1335.4084472656</ele>
        <time>2011-04-16T11:37:16Z</time>
      </trkpt>
      <trkpt lat="45.68285" lon="6.20388">
        <ele>1334.9279785156</ele>
        <time>2011-04-16T11:37:17Z</time>
      </trkpt>
      <trkpt lat="45.68269" lon="6.20365">
        <ele>1335.8891601562</ele>
        <time>2011-04-16T11:37:24Z</time>
      </trkpt>
      <trkpt lat="45.68254" lon="6.20354">
        <ele>1335.8891601562</ele>
        <time>2011-04-16T11:37:28Z</time>
      </trkpt>
      <trkpt lat="45.68248" lon="6.20354">
        <ele>1336.8503417969</ele>
        <time>2011-04-16T11:37:31Z</time>
      </trkpt>
      <trkpt lat="45.68247" lon="6.20354">
        <ele>1336.3698730469</ele>
        <time>2011-04-16T11:37:36Z</time>
      </trkpt>
      <trkpt lat="45.68232" lon="6.2035">
        <ele>1333.9665527344</ele>
        <time>2011-04-16T11:37:43Z</time>
      </trkpt>
      <trkpt lat="45.68224" lon="6.20355">
        <ele>1331.5632324219</ele>
        <time>2011-04-16T11:37:46Z</time>
      </trkpt>
      <trkpt lat="45.68214" lon="6.20359">
        <ele>1333.4858398438</ele>
        <time>2011-04-16T11:37:50Z</time>
      </trkpt>
      <trkpt lat="45.68198" lon="6.20361">
        <ele>1329.1599121094</ele>
        <time>2011-04-16T11:37:54Z</time>
      </trkpt>
      <trkpt lat="45.68169" lon="6.20354">
        <ele>1326.2761230469</ele>
        <time>2011-04-16T11:38:00Z</time>
      </trkpt>
      <trkpt lat="45.68156" lon="6.20333">
        <ele>1322.9113769531</ele>
        <time>2011-04-16T11:38:04Z</time>
      </trkpt>
      <trkpt lat="45.68143" lon="6.20333">
        <ele>1320.5080566406</ele>
        <time>2011-04-16T11:38:07Z</time>
      </trkpt>
      <trkpt lat="45.68129" lon="6.20336">
        <ele>1319.0661621094</ele>
        <time>2011-04-16T11:38:10Z</time>
      </trkpt>
      <trkpt lat="45.6811" lon="6.20328">
        <ele>1314.740234375</ele>
        <time>2011-04-16T11:38:14Z</time>
      </trkpt>
      <trkpt lat="45.68106" lon="6.20311">
        <ele>1309.453125</ele>
        <time>2011-04-16T11:38:17Z</time>
      </trkpt>
      <trkpt lat="45.68101" lon="6.20286">
        <ele>1311.3757324219</ele>
        <time>2011-04-16T11:38:21Z</time>
      </trkpt>
      <trkpt lat="45.68088" lon="6.20268">
        <ele>1309.453125</ele>
        <time>2011-04-16T11:38:25Z</time>
      </trkpt>
      <trkpt lat="45.68088" lon="6.20246">
        <ele>1306.0881347656</ele>
        <time>2011-04-16T11:38:28Z</time>
      </trkpt>
      <trkpt lat="45.68082" lon="6.20221">
        <ele>1301.7624511719</ele>
        <time>2011-04-16T11:38:32Z</time>
      </trkpt>
      <trkpt lat="45.68066" lon="6.20212">
        <ele>1299.3591308594</ele>
        <time>2011-04-16T11:38:35Z</time>
      </trkpt>
      <trkpt lat="45.68055" lon="6.20215">
        <ele>1297.4365234375</ele>
        <time>2011-04-16T11:38:37Z</time>
      </trkpt>
      <trkpt lat="45.68044" lon="6.2022">
        <ele>1295.5139160156</ele>
        <time>2011-04-16T11:38:39Z</time>
      </trkpt>
      <trkpt lat="45.68021" lon="6.20225">
        <ele>1292.6301269531</ele>
        <time>2011-04-16T11:38:44Z</time>
      </trkpt>
      <trkpt lat="45.68015" lon="6.20223">
        <ele>1292.1494140625</ele>
        <time>2011-04-16T11:38:45Z</time>
      </trkpt>
      <trkpt lat="45.67985" lon="6.20203">
        <ele>1283.4973144531</ele>
        <time>2011-04-16T11:38:51Z</time>
      </trkpt>
      <trkpt lat="45.67973" lon="6.2019">
        <ele>1285.9006347656</ele>
        <time>2011-04-16T11:38:53Z</time>
      </trkpt>
      <trkpt lat="45.67961" lon="6.20167">
        <ele>1280.6135253906</ele>
        <time>2011-04-16T11:38:57Z</time>
      </trkpt>
      <trkpt lat="45.67955" lon="6.20167">
        <ele>1277.7294921875</ele>
        <time>2011-04-16T11:39:01Z</time>
      </trkpt>
      <trkpt lat="45.6795" lon="6.2016">
        <ele>1282.5361328125</ele>
        <time>2011-04-16T11:39:10Z</time>
      </trkpt>
      <trkpt lat="45.67937" lon="6.20146">
        <ele>1280.6135253906</ele>
        <time>2011-04-16T11:39:14Z</time>
      </trkpt>
      <trkpt lat="45.67923" lon="6.20123">
        <ele>1278.6909179688</ele>
        <time>2011-04-16T11:39:18Z</time>
      </trkpt>
      <trkpt lat="45.67908" lon="6.2009">
        <ele>1271.4807128906</ele>
        <time>2011-04-16T11:39:23Z</time>
      </trkpt>
      <trkpt lat="45.67896" lon="6.20085">
        <ele>1271.0002441406</ele>
        <time>2011-04-16T11:39:27Z</time>
      </trkpt>
      <trkpt lat="45.67897" lon="6.20101">
        <ele>1270.51953125</ele>
        <time>2011-04-16T11:39:30Z</time>
      </trkpt>
      <trkpt lat="45.67903" lon="6.20118">
        <ele>1269.5583496094</ele>
        <time>2011-04-16T11:39:33Z</time>
      </trkpt>
      <trkpt lat="45.67906" lon="6.20134">
        <ele>1268.5969238281</ele>
        <time>2011-04-16T11:39:36Z</time>
      </trkpt>
      <trkpt lat="45.67904" lon="6.20172">
        <ele>1269.5583496094</ele>
        <time>2011-04-16T11:39:41Z</time>
      </trkpt>
      <trkpt lat="45.67909" lon="6.20206">
        <ele>1264.2709960938</ele>
        <time>2011-04-16T11:39:45Z</time>
      </trkpt>
      <trkpt lat="45.67912" lon="6.20228">
        <ele>1262.3483886719</ele>
        <time>2011-04-16T11:39:50Z</time>
      </trkpt>
      <trkpt lat="45.67903" lon="6.20218">
        <ele>1261.8679199219</ele>
        <time>2011-04-16T11:39:52Z</time>
      </trkpt>
      <trkpt lat="45.67889" lon="6.20203">
        <ele>1259.4643554688</ele>
        <time>2011-04-16T11:39:55Z</time>
      </trkpt>
      <trkpt lat="45.67868" lon="6.20169">
        <ele>1255.1384277344</ele>
        <time>2011-04-16T11:40:00Z</time>
      </trkpt>
      <trkpt lat="45.67864" lon="6.20162">
        <ele>1253.2158203125</ele>
        <time>2011-04-16T11:40:01Z</time>
      </trkpt>
      <trkpt lat="45.67851" lon="6.20135">
        <ele>1245.525390625</ele>
        <time>2011-04-16T11:40:05Z</time>
      </trkpt>
      <trkpt lat="45.67839" lon="6.2012">
        <ele>1237.8347167969</ele>
        <time>2011-04-16T11:40:09Z</time>
      </trkpt>
      <trkpt lat="45.67836" lon="6.20137">
        <ele>1237.3540039062</ele>
        <time>2011-04-16T11:40:12Z</time>
      </trkpt>
      <trkpt lat="45.67839" lon="6.20143">
        <ele>1234.4702148438</ele>
        <time>2011-04-16T11:40:13Z</time>
      </trkpt>
      <trkpt lat="45.67842" lon="6.20196">
        <ele>1231.1057128906</ele>
        <time>2011-04-16T11:40:19Z</time>
      </trkpt>
      <trkpt lat="45.67842" lon="6.20204">
        <ele>1231.1057128906</ele>
        <time>2011-04-16T11:40:20Z</time>
      </trkpt>
      <trkpt lat="45.67834" lon="6.20222">
        <ele>1228.7023925781</ele>
        <time>2011-04-16T11:40:24Z</time>
      </trkpt>
      <trkpt lat="45.67826" lon="6.20211">
        <ele>1229.6635742188</ele>
        <time>2011-04-16T11:40:26Z</time>
      </trkpt>
      <trkpt lat="45.67822" lon="6.20193">
        <ele>1230.1442871094</ele>
        <time>2011-04-16T11:40:28Z</time>
      </trkpt>
      <trkpt lat="45.67819" lon="6.20176">
        <ele>1231.5861816406</ele>
        <time>2011-04-16T11:40:30Z</time>
      </trkpt>
      <trkpt lat="45.67803" lon="6.20158">
        <ele>1228.7023925781</ele>
        <time>2011-04-16T11:40:34Z</time>
      </trkpt>
      <trkpt lat="45.67788" lon="6.20154">
        <ele>1227.2602539062</ele>
        <time>2011-04-16T11:40:36Z</time>
      </trkpt>
      <trkpt lat="45.67753" lon="6.20121">
        <ele>1225.3374023438</ele>
        <time>2011-04-16T11:40:42Z</time>
      </trkpt>
      <trkpt lat="45.67755" lon="6.20104">
        <ele>1220.5310058594</ele>
        <time>2011-04-16T11:40:45Z</time>
      </trkpt>
      <trkpt lat="45.67766" lon="6.20083">
        <ele>1215.724609375</ele>
        <time>2011-04-16T11:40:48Z</time>
      </trkpt>
      <trkpt lat="45.67775" lon="6.2006">
        <ele>1211.3984375</ele>
        <time>2011-04-16T11:40:51Z</time>
      </trkpt>
      <trkpt lat="45.67773" lon="6.20037">
        <ele>1208.9951171875</ele>
        <time>2011-04-16T11:40:54Z</time>
      </trkpt>
      <trkpt lat="45.67762" lon="6.20023">
        <ele>1207.0725097656</ele>
        <time>2011-04-16T11:40:57Z</time>
      </trkpt>
      <trkpt lat="45.6774" lon="6.20013">
        <ele>1204.1887207031</ele>
        <time>2011-04-16T11:41:01Z</time>
      </trkpt>
      <trkpt lat="45.67725" lon="6.20009">
        <ele>1202.7465820312</ele>
        <time>2011-04-16T11:41:04Z</time>
      </trkpt>
      <trkpt lat="45.67705" lon="6.20003">
        <ele>1204.6691894531</ele>
        <time>2011-04-16T11:41:08Z</time>
      </trkpt>
      <trkpt lat="45.67695" lon="6.20006">
        <ele>1198.4206542969</ele>
        <time>2011-04-16T11:41:10Z</time>
      </trkpt>
      <trkpt lat="45.67671" lon="6.19986">
        <ele>1192.6528320312</ele>
        <time>2011-04-16T11:41:15Z</time>
      </trkpt>
      <trkpt lat="45.67666" lon="6.1998">
        <ele>1191.2106933594</ele>
        <time>2011-04-16T11:41:16Z</time>
      </trkpt>
      <trkpt lat="45.67639" lon="6.19945">
        <ele>1184.9624023438</ele>
        <time>2011-04-16T11:41:21Z</time>
      </trkpt>
      <trkpt lat="45.67632" lon="6.19934">
        <ele>1182.5590820312</ele>
        <time>2011-04-16T11:41:23Z</time>
      </trkpt>
      <trkpt lat="45.67622" lon="6.19935">
        <ele>1182.5590820312</ele>
        <time>2011-04-16T11:41:27Z</time>
      </trkpt>
      <trkpt lat="45.67627" lon="6.19948">
        <ele>1181.59765625</ele>
        <time>2011-04-16T11:41:30Z</time>
      </trkpt>
      <trkpt lat="45.67633" lon="6.19958">
        <ele>1180.1557617188</ele>
        <time>2011-04-16T11:41:32Z</time>
      </trkpt>
      <trkpt lat="45.67646" lon="6.1999">
        <ele>1178.7136230469</ele>
        <time>2011-04-16T11:41:36Z</time>
      </trkpt>
      <trkpt lat="45.67658" lon="6.20034">
        <ele>1174.3876953125</ele>
        <time>2011-04-16T11:41:41Z</time>
      </trkpt>
      <trkpt lat="45.67675" lon="6.20045">
        <ele>1169.5812988281</ele>
        <time>2011-04-16T11:41:44Z</time>
      </trkpt>
      <trkpt lat="45.6768" lon="6.20056">
        <ele>1167.1779785156</ele>
        <time>2011-04-16T11:41:47Z</time>
      </trkpt>
      <trkpt lat="45.67672" lon="6.20054">
        <ele>1168.6198730469</ele>
        <time>2011-04-16T11:41:49Z</time>
      </trkpt>
      <trkpt lat="45.67659" lon="6.20047">
        <ele>1169.1005859375</ele>
        <time>2011-04-16T11:41:51Z</time>
      </trkpt>
      <trkpt lat="45.6763" lon="6.20044">
        <ele>1163.8129882812</ele>
        <time>2011-04-16T11:41:56Z</time>
      </trkpt>
      <trkpt lat="45.67616" lon="6.20022">
        <ele>1157.5646972656</ele>
        <time>2011-04-16T11:42:00Z</time>
      </trkpt>
      <trkpt lat="45.67614" lon="6.20011">
        <ele>1156.1225585938</ele>
        <time>2011-04-16T11:42:01Z</time>
      </trkpt>
      <trkpt lat="45.67601" lon="6.19977">
        <ele>1155.1613769531</ele>
        <time>2011-04-16T11:42:06Z</time>
      </trkpt>
      <trkpt lat="45.67596" lon="6.19994">
        <ele>1156.6032714844</ele>
        <time>2011-04-16T11:42:09Z</time>
      </trkpt>
      <trkpt lat="45.67599" lon="6.19999">
        <ele>1156.1225585938</ele>
        <time>2011-04-16T11:42:10Z</time>
      </trkpt>
      <trkpt lat="45.67602" lon="6.20034">
        <ele>1153.2387695312</ele>
        <time>2011-04-16T11:42:15Z</time>
      </trkpt>
      <trkpt lat="45.67595" lon="6.20067">
        <ele>1151.3161621094</ele>
        <time>2011-04-16T11:42:19Z</time>
      </trkpt>
      <trkpt lat="45.67605" lon="6.20083">
        <ele>1149.3935546875</ele>
        <time>2011-04-16T11:42:22Z</time>
      </trkpt>
      <trkpt lat="45.6761" lon="6.2011">
        <ele>1143.6254882812</ele>
        <time>2011-04-16T11:42:27Z</time>
      </trkpt>
      <trkpt lat="45.67601" lon="6.20118">
        <ele>1143.1447753906</ele>
        <time>2011-04-16T11:42:31Z</time>
      </trkpt>
      <trkpt lat="45.67597" lon="6.20108">
        <ele>1141.7028808594</ele>
        <time>2011-04-16T11:42:33Z</time>
      </trkpt>
      <trkpt lat="45.67578" lon="6.20082">
        <ele>1135.9350585938</ele>
        <time>2011-04-16T11:42:38Z</time>
      </trkpt>
      <trkpt lat="45.67567" lon="6.20072">
        <ele>1133.5317382812</ele>
        <time>2011-04-16T11:42:40Z</time>
      </trkpt>
      <trkpt lat="45.67554" lon="6.20046">
        <ele>1129.6862792969</ele>
        <time>2011-04-16T11:42:44Z</time>
      </trkpt>
      <trkpt lat="45.67554" lon="6.2003">
        <ele>1126.3217773438</ele>
        <time>2011-04-16T11:42:47Z</time>
      </trkpt>
      <trkpt lat="45.67547" lon="6.20034">
        <ele>1124.8798828125</ele>
        <time>2011-04-16T11:42:50Z</time>
      </trkpt>
      <trkpt lat="45.67545" lon="6.20049">
        <ele>1123.9184570312</ele>
        <time>2011-04-16T11:42:53Z</time>
      </trkpt>
      <trkpt lat="45.67551" lon="6.20083">
        <ele>1123.9184570312</ele>
        <time>2011-04-16T11:42:58Z</time>
      </trkpt>
      <trkpt lat="45.67563" lon="6.201">
        <ele>1121.9958496094</ele>
        <time>2011-04-16T11:43:01Z</time>
      </trkpt>
      <trkpt lat="45.67569" lon="6.20133">
        <ele>1122.9572753906</ele>
        <time>2011-04-16T11:43:05Z</time>
      </trkpt>
      <trkpt lat="45.67571" lon="6.20157">
        <ele>1122.4765625</ele>
        <time>2011-04-16T11:43:08Z</time>
      </trkpt>
      <trkpt lat="45.6757" lon="6.20179">
        <ele>1127.283203125</ele>
        <time>2011-04-16T11:43:13Z</time>
      </trkpt>
      <trkpt lat="45.67568" lon="6.20179">
        <ele>1129.2055664062</ele>
        <time>2011-04-16T11:43:18Z</time>
      </trkpt>
      <trkpt lat="45.67567" lon="6.20178">
        <ele>1132.08984375</ele>
        <time>2011-04-16T11:43:22Z</time>
      </trkpt>
      <trkpt lat="45.67561" lon="6.20177">
        <ele>1131.1284179688</ele>
        <time>2011-04-16T11:43:29Z</time>
      </trkpt>
      <trkpt lat="45.67554" lon="6.20161">
        <ele>1126.8024902344</ele>
        <time>2011-04-16T11:43:33Z</time>
      </trkpt>
      <trkpt lat="45.67542" lon="6.20122">
        <ele>1121.5151367188</ele>
        <time>2011-04-16T11:43:38Z</time>
      </trkpt>
      <trkpt lat="45.67524" lon="6.20099">
        <ele>1116.2280273438</ele>
        <time>2011-04-16T11:43:42Z</time>
      </trkpt>
      <trkpt lat="45.6749" lon="6.20056">
        <ele>1106.1340332031</ele>
        <time>2011-04-16T11:43:49Z</time>
      </trkpt>
      <trkpt lat="45.67479" lon="6.20042">
        <ele>1103.2502441406</ele>
        <time>2011-04-16T11:43:52Z</time>
      </trkpt>
      <trkpt lat="45.67479" lon="6.20041">
        <ele>1101.8083496094</ele>
        <time>2011-04-16T11:43:56Z</time>
      </trkpt>
      <trkpt lat="45.67479" lon="6.2004">
        <ele>1097.962890625</ele>
        <time>2011-04-16T11:43:59Z</time>
      </trkpt>
      <trkpt lat="45.67479" lon="6.20029">
        <ele>1097.0014648438</ele>
        <time>2011-04-16T11:44:04Z</time>
      </trkpt>
      <trkpt lat="45.67479" lon="6.20031">
        <ele>1097.4821777344</ele>
        <time>2011-04-16T11:44:06Z</time>
      </trkpt>
      <trkpt lat="45.67479" lon="6.20046">
        <ele>1098.9240722656</ele>
        <time>2011-04-16T11:44:10Z</time>
      </trkpt>
      <trkpt lat="45.67478" lon="6.20045">
        <ele>1100.3664550781</ele>
        <time>2011-04-16T11:44:14Z</time>
      </trkpt>
      <trkpt lat="45.67476" lon="6.20042">
        <ele>1101.8083496094</ele>
        <time>2011-04-16T11:44:20Z</time>
      </trkpt>
      <trkpt lat="45.67468" lon="6.20033">
        <ele>1101.8083496094</ele>
        <time>2011-04-16T11:44:24Z</time>
      </trkpt>
      <trkpt lat="45.67453" lon="6.2001">
        <ele>1097.962890625</ele>
        <time>2011-04-16T11:44:30Z</time>
      </trkpt>
      <trkpt lat="45.67432" lon="6.19997">
        <ele>1093.15625</ele>
        <time>2011-04-16T11:44:36Z</time>
      </trkpt>
      <trkpt lat="45.67416" lon="6.19988">
        <ele>1088.3498535156</ele>
        <time>2011-04-16T11:44:40Z</time>
      </trkpt>
      <trkpt lat="45.67403" lon="6.1997">
        <ele>1081.1398925781</ele>
        <time>2011-04-16T11:44:44Z</time>
      </trkpt>
      <trkpt lat="45.67404" lon="6.19954">
        <ele>1079.2170410156</ele>
        <time>2011-04-16T11:44:46Z</time>
      </trkpt>
      <trkpt lat="45.67406" lon="6.19939">
        <ele>1077.7751464844</ele>
        <time>2011-04-16T11:44:48Z</time>
      </trkpt>
      <trkpt lat="45.674" lon="6.19916">
        <ele>1073.4494628906</ele>
        <time>2011-04-16T11:44:52Z</time>
      </trkpt>
      <trkpt lat="45.67386" lon="6.19908">
        <ele>1069.6042480469</ele>
        <time>2011-04-16T11:44:55Z</time>
      </trkpt>
      <trkpt lat="45.67375" lon="6.19888">
        <ele>1071.0461425781</ele>
        <time>2011-04-16T11:44:58Z</time>
      </trkpt>
      <trkpt lat="45.67365" lon="6.19867">
        <ele>1072.0073242188</ele>
        <time>2011-04-16T11:45:01Z</time>
      </trkpt>
      <trkpt lat="45.67354" lon="6.19863">
        <ele>1068.6428222656</ele>
        <time>2011-04-16T11:45:05Z</time>
      </trkpt>
      <trkpt lat="45.67355" lon="6.19874">
        <ele>1067.6811523438</ele>
        <time>2011-04-16T11:45:07Z</time>
      </trkpt>
      <trkpt lat="45.67364" lon="6.19913">
        <ele>1064.3166503906</ele>
        <time>2011-04-16T11:45:12Z</time>
      </trkpt>
      <trkpt lat="45.67359" lon="6.19949">
        <ele>1061.4328613281</ele>
        <time>2011-04-16T11:45:17Z</time>
      </trkpt>
      <trkpt lat="45.67357" lon="6.19973">
        <ele>1060.9521484375</ele>
        <time>2011-04-16T11:45:20Z</time>
      </trkpt>
      <trkpt lat="45.67351" lon="6.20003">
        <ele>1059.0295410156</ele>
        <time>2011-04-16T11:45:25Z</time>
      </trkpt>
      <trkpt lat="45.67337" lon="6.20013">
        <ele>1058.068359375</ele>
        <time>2011-04-16T11:45:28Z</time>
      </trkpt>
      <trkpt lat="45.6734" lon="6.20016">
        <ele>1059.9907226562</ele>
        <time>2011-04-16T11:45:34Z</time>
      </trkpt>
      <trkpt lat="45.67341" lon="6.20015">
        <ele>1057.5876464844</ele>
        <time>2011-04-16T11:45:41Z</time>
      </trkpt>
      <trkpt lat="45.67339" lon="6.20015">
        <ele>1070.5654296875</ele>
        <time>2011-04-16T11:45:51Z</time>
      </trkpt>
      <trkpt lat="45.67337" lon="6.20013">
        <ele>1074.4106445312</ele>
        <time>2011-04-16T11:46:07Z</time>
      </trkpt>
      <trkpt lat="45.67326" lon="6.19995">
        <ele>1072.0073242188</ele>
        <time>2011-04-16T11:46:13Z</time>
      </trkpt>
      <trkpt lat="45.67308" lon="6.1996">
        <ele>1064.3166503906</ele>
        <time>2011-04-16T11:46:21Z</time>
      </trkpt>
      <trkpt lat="45.67305" lon="6.19955">
        <ele>1064.3166503906</ele>
        <time>2011-04-16T11:46:22Z</time>
      </trkpt>
      <trkpt lat="45.6729" lon="6.19927">
        <ele>1058.548828125</ele>
        <time>2011-04-16T11:46:28Z</time>
      </trkpt>
      <trkpt lat="45.67276" lon="6.19912">
        <ele>1053.26171875</ele>
        <time>2011-04-16T11:46:33Z</time>
      </trkpt>
      <trkpt lat="45.67268" lon="6.19909">
        <ele>1051.3388671875</ele>
        <time>2011-04-16T11:46:35Z</time>
      </trkpt>
      <trkpt lat="45.67242" lon="6.19891">
        <ele>1047.9743652344</ele>
        <time>2011-04-16T11:46:42Z</time>
      </trkpt>
      <trkpt lat="45.67218" lon="6.19867">
        <ele>1044.1291503906</ele>
        <time>2011-04-16T11:46:48Z</time>
      </trkpt>
      <trkpt lat="45.67207" lon="6.19859">
        <ele>1043.6484375</ele>
        <time>2011-04-16T11:46:50Z</time>
      </trkpt>
      <trkpt lat="45.67183" lon="6.1983">
        <ele>1044.6096191406</ele>
        <time>2011-04-16T11:46:56Z</time>
      </trkpt>
      <trkpt lat="45.67175" lon="6.19821">
        <ele>1044.6096191406</ele>
        <time>2011-04-16T11:46:58Z</time>
      </trkpt>
      <trkpt lat="45.67151" lon="6.19804">
        <ele>1042.2065429688</ele>
        <time>2011-04-16T11:47:03Z</time>
      </trkpt>
      <trkpt lat="45.67118" lon="6.19783">
        <ele>1034.5158691406</ele>
        <time>2011-04-16T11:47:10Z</time>
      </trkpt>
      <trkpt lat="45.67088" lon="6.1975">
        <ele>1030.1899414062</ele>
        <time>2011-04-16T11:47:16Z</time>
      </trkpt>
      <trkpt lat="45.67062" lon="6.19702">
        <ele>1027.3061523438</ele>
        <time>2011-04-16T11:47:23Z</time>
      </trkpt>
      <trkpt lat="45.6703" lon="6.19665">
        <ele>1024.4221191406</ele>
        <time>2011-04-16T11:47:30Z</time>
      </trkpt>
      <trkpt lat="45.67006" lon="6.19645">
        <ele>1019.6154785156</ele>
        <time>2011-04-16T11:47:35Z</time>
      </trkpt>
      <trkpt lat="45.66983" lon="6.1963">
        <ele>1016.2507324219</ele>
        <time>2011-04-16T11:47:39Z</time>
      </trkpt>
      <trkpt lat="45.66965" lon="6.1961">
        <ele>1013.8474121094</ele>
        <time>2011-04-16T11:47:43Z</time>
      </trkpt>
      <trkpt lat="45.66954" lon="6.19592">
        <ele>1010.0021972656</ele>
        <time>2011-04-16T11:47:46Z</time>
      </trkpt>
      <trkpt lat="45.66932" lon="6.19571">
        <ele>1008.5603027344</ele>
        <time>2011-04-16T11:47:50Z</time>
      </trkpt>
      <trkpt lat="45.66889" lon="6.19538">
        <ele>1002.7922363281</ele>
        <time>2011-04-16T11:47:56Z</time>
      </trkpt>
      <trkpt lat="45.66873" lon="6.19526">
        <ele>1000.3891601562</ele>
        <time>2011-04-16T11:47:58Z</time>
      </trkpt>
      <trkpt lat="45.6682" lon="6.19495">
        <ele>991.7373046875</ele>
        <time>2011-04-16T11:48:04Z</time>
      </trkpt>
      <trkpt lat="45.66792" lon="6.19473">
        <ele>988.37280273438</ele>
        <time>2011-04-16T11:48:07Z</time>
      </trkpt>
      <trkpt lat="45.66749" lon="6.19429">
        <ele>985.96923828125</ele>
        <time>2011-04-16T11:48:12Z</time>
      </trkpt>
      <trkpt lat="45.66713" lon="6.19391">
        <ele>985.96923828125</ele>
        <time>2011-04-16T11:48:17Z</time>
      </trkpt>
      <trkpt lat="45.66693" lon="6.19371">
        <ele>986.93041992188</ele>
        <time>2011-04-16T11:48:20Z</time>
      </trkpt>
      <trkpt lat="45.66676" lon="6.19353">
        <ele>987.4111328125</ele>
        <time>2011-04-16T11:48:23Z</time>
      </trkpt>
      <trkpt lat="45.66656" lon="6.19331">
        <ele>988.37280273438</ele>
        <time>2011-04-16T11:48:27Z</time>
      </trkpt>
      <trkpt lat="45.66651" lon="6.19326">
        <ele>988.37280273438</ele>
        <time>2011-04-16T11:48:28Z</time>
      </trkpt>
      <trkpt lat="45.6661" lon="6.19284">
        <ele>988.853515625</ele>
        <time>2011-04-16T11:48:36Z</time>
      </trkpt>
      <trkpt lat="45.66576" lon="6.1924">
        <ele>986.44995117188</ele>
        <time>2011-04-16T11:48:42Z</time>
      </trkpt>
      <trkpt lat="45.66545" lon="6.19203">
        <ele>986.93041992188</ele>
        <time>2011-04-16T11:48:48Z</time>
      </trkpt>
      <trkpt lat="45.66515" lon="6.19166">
        <ele>987.89184570312</ele>
        <time>2011-04-16T11:48:55Z</time>
      </trkpt>
      <trkpt lat="45.66503" lon="6.19149">
        <ele>989.333984375</ele>
        <time>2011-04-16T11:48:59Z</time>
      </trkpt>
      <trkpt lat="45.66491" lon="6.19145">
        <ele>987.89184570312</ele>
        <time>2011-04-16T11:49:05Z</time>
      </trkpt>
      <trkpt lat="45.66486" lon="6.19147">
        <ele>989.333984375</ele>
        <time>2011-04-16T11:49:09Z</time>
      </trkpt>
      <trkpt lat="45.66483" lon="6.19152">
        <ele>991.25659179688</ele>
        <time>2011-04-16T11:49:12Z</time>
      </trkpt>
      <trkpt lat="45.66489" lon="6.19156">
        <ele>991.25659179688</ele>
        <time>2011-04-16T11:49:16Z</time>
      </trkpt>
      <trkpt lat="45.66491" lon="6.19155">
        <ele>991.25659179688</ele>
        <time>2011-04-16T11:49:17Z</time>
      </trkpt>
      <trkpt lat="45.66494" lon="6.19155">
        <ele>991.25659179688</ele>
        <time>2011-04-16T11:49:19Z</time>
      </trkpt>
      <trkpt lat="45.66493" lon="6.19147">
        <ele>989.81469726562</ele>
        <time>2011-04-16T11:49:23Z</time>
      </trkpt>
      <trkpt lat="45.66488" lon="6.1915">
        <ele>989.333984375</ele>
        <time>2011-04-16T11:49:26Z</time>
      </trkpt>
      <trkpt lat="45.66487" lon="6.1915">
        <ele>988.853515625</ele>
        <time>2011-04-16T11:49:33Z</time>
      </trkpt>
      <trkpt lat="45.66487" lon="6.19151">
        <ele>987.4111328125</ele>
        <time>2011-04-16T11:49:51Z</time>
      </trkpt>
      <trkpt lat="45.66486" lon="6.19153">
        <ele>982.1240234375</ele>
        <time>2011-04-16T11:50:08Z</time>
      </trkpt>
      <trkpt lat="45.66488" lon="6.19153">
        <ele>980.68212890625</ele>
        <time>2011-04-16T11:50:24Z</time>
      </trkpt>
      <trkpt lat="45.66488" lon="6.19153">
        <ele>982.60473632812</ele>
        <time>2011-04-16T11:50:39Z</time>
      </trkpt>
      <trkpt lat="45.66487" lon="6.19153">
        <ele>985.96923828125</ele>
        <time>2011-04-16T11:50:50Z</time>
      </trkpt>
      <trkpt lat="45.66488" lon="6.19153">
        <ele>985.96923828125</ele>
        <time>2011-04-16T11:50:58Z</time>
      </trkpt>
      <trkpt lat="45.66487" lon="6.19153">
        <ele>986.44995117188</ele>
        <time>2011-04-16T11:51:03Z</time>
      </trkpt>
      <trkpt lat="45.66488" lon="6.19152">
        <ele>985.96923828125</ele>
        <time>2011-04-16T11:51:12Z</time>
      </trkpt>
      <trkpt lat="45.66487" lon="6.19152">
        <ele>985.48852539062</ele>
        <time>2011-04-16T11:51:33Z</time>
      </trkpt>
      <trkpt lat="45.66486" lon="6.19153">
        <ele>985.96923828125</ele>
        <time>2011-04-16T11:51:41Z</time>
      </trkpt>
      <trkpt lat="45.66486" lon="6.19153">
        <ele>985.96923828125</ele>
        <time>2011-04-16T11:51:46Z</time>
      </trkpt>
      <trkpt lat="45.66486" lon="6.19153">
        <ele>985.96923828125</ele>
        <time>2011-04-16T11:51:50Z</time>
      </trkpt>
      <trkpt lat="45.66484" lon="6.19151">
        <ele>987.89184570312</ele>
        <time>2011-04-16T11:52:07Z</time>
      </trkpt>
      <trkpt lat="45.66484" lon="6.19151">
        <ele>989.81469726562</ele>
        <time>2011-04-16T11:52:13Z</time>
      </trkpt>
      <trkpt lat="45.66484" lon="6.19151">
        <ele>991.25659179688</ele>
        <time>2011-04-16T11:52:19Z</time>
      </trkpt>
      <trkpt lat="45.66485" lon="6.1915">
        <ele>992.69873046875</ele>
        <time>2011-04-16T11:52:25Z</time>
      </trkpt>
      <trkpt lat="45.66486" lon="6.19149">
        <ele>994.140625</ele>
        <time>2011-04-16T11:52:33Z</time>
      </trkpt>
      <trkpt lat="45.66487" lon="6.1915">
        <ele>994.140625</ele>
        <time>2011-04-16T11:52:40Z</time>
      </trkpt>
      <trkpt lat="45.66486" lon="6.19151">
        <ele>993.65991210938</ele>
        <time>2011-04-16T11:52:46Z</time>
      </trkpt>
      <trkpt lat="45.66488" lon="6.1915">
        <ele>992.21801757812</ele>
        <time>2011-04-16T11:52:50Z</time>
      </trkpt>
      <trkpt lat="45.66487" lon="6.19152">
        <ele>991.25659179688</ele>
        <time>2011-04-16T11:52:54Z</time>
      </trkpt>
      <trkpt lat="45.66486" lon="6.19153">
        <ele>989.333984375</ele>
        <time>2011-04-16T11:53:06Z</time>
      </trkpt>
      <trkpt lat="45.66485" lon="6.19152">
        <ele>988.853515625</ele>
        <time>2011-04-16T11:53:11Z</time>
      </trkpt>
      <trkpt lat="45.66483" lon="6.19152">
        <ele>989.333984375</ele>
        <time>2011-04-16T11:53:17Z</time>
      </trkpt>
      <trkpt lat="45.66483" lon="6.19151">
        <ele>990.77587890625</ele>
        <time>2011-04-16T11:53:34Z</time>
      </trkpt>
      <trkpt lat="45.66484" lon="6.19151">
        <ele>991.7373046875</ele>
        <time>2011-04-16T11:53:46Z</time>
      </trkpt>
      <trkpt lat="45.66484" lon="6.19151">
        <ele>992.21801757812</ele>
        <time>2011-04-16T11:53:55Z</time>
      </trkpt>
      <trkpt lat="45.66484" lon="6.19152">
        <ele>992.69873046875</ele>
        <time>2011-04-16T11:54:03Z</time>
      </trkpt>
      <trkpt lat="45.66485" lon="6.19152">
        <ele>995.10180664062</ele>
        <time>2011-04-16T11:54:19Z</time>
      </trkpt>
      <trkpt lat="45.66486" lon="6.19153">
        <ele>997.50512695312</ele>
        <time>2011-04-16T11:54:43Z</time>
      </trkpt>
      <trkpt lat="45.66486" lon="6.19154">
        <ele>997.0244140625</ele>
        <time>2011-04-16T11:54:52Z</time>
      </trkpt>
      <trkpt lat="45.66485" lon="6.19155">
        <ele>995.58251953125</ele>
        <time>2011-04-16T11:55:06Z</time>
      </trkpt>
      <trkpt lat="45.66484" lon="6.19156">
        <ele>994.62109375</ele>
        <time>2011-04-16T11:55:13Z</time>
      </trkpt>
      <trkpt lat="45.66484" lon="6.19156">
        <ele>994.140625</ele>
        <time>2011-04-16T11:55:19Z</time>
      </trkpt>
      <trkpt lat="45.66485" lon="6.19153">
        <ele>992.69873046875</ele>
        <time>2011-04-16T11:55:26Z</time>
      </trkpt>
      <trkpt lat="45.66485" lon="6.19152">
        <ele>994.140625</ele>
        <time>2011-04-16T11:55:48Z</time>
      </trkpt>
      <trkpt lat="45.66484" lon="6.19155">
        <ele>990.29541015625</ele>
        <time>2011-04-16T11:55:58Z</time>
      </trkpt>
      <trkpt lat="45.66484" lon="6.19159">
        <ele>991.25659179688</ele>
        <time>2011-04-16T11:56:00Z</time>
      </trkpt>
      <trkpt lat="45.66491" lon="6.19157">
        <ele>990.29541015625</ele>
        <time>2011-04-16T11:56:04Z</time>
      </trkpt>
      <trkpt lat="45.66489" lon="6.19139">
        <ele>990.29541015625</ele>
        <time>2011-04-16T11:56:08Z</time>
      </trkpt>
      <trkpt lat="45.66487" lon="6.19133">
        <ele>990.29541015625</ele>
        <time>2011-04-16T11:56:09Z</time>
      </trkpt>
      <trkpt lat="45.66462" lon="6.19088">
        <ele>988.37280273438</ele>
        <time>2011-04-16T11:56:16Z</time>
      </trkpt>
      <trkpt lat="45.66447" lon="6.19069">
        <ele>987.4111328125</ele>
        <time>2011-04-16T11:56:19Z</time>
      </trkpt>
      <trkpt lat="45.66427" lon="6.19021">
        <ele>986.93041992188</ele>
        <time>2011-04-16T11:56:24Z</time>
      </trkpt>
      <trkpt lat="45.66412" lon="6.18947">
        <ele>985.00805664062</ele>
        <time>2011-04-16T11:56:30Z</time>
      </trkpt>
      <trkpt lat="45.66409" lon="6.18928">
        <ele>984.04663085938</ele>
        <time>2011-04-16T11:56:32Z</time>
      </trkpt>
      <trkpt lat="45.66392" lon="6.18895">
        <ele>980.68212890625</ele>
        <time>2011-04-16T11:56:36Z</time>
      </trkpt>
      <trkpt lat="45.66354" lon="6.18854">
        <ele>976.8369140625</ele>
        <time>2011-04-16T11:56:41Z</time>
      </trkpt>
      <trkpt lat="45.66321" lon="6.18811">
        <ele>970.58813476562</ele>
        <time>2011-04-16T11:56:45Z</time>
      </trkpt>
      <trkpt lat="45.66306" lon="6.18788">
        <ele>967.7041015625</ele>
        <time>2011-04-16T11:56:47Z</time>
      </trkpt>
      <trkpt lat="45.66268" lon="6.18759">
        <ele>964.33959960938</ele>
        <time>2011-04-16T11:56:51Z</time>
      </trkpt>
      <trkpt lat="45.66207" lon="6.18738">
        <ele>959.533203125</ele>
        <time>2011-04-16T11:56:56Z</time>
      </trkpt>
      <trkpt lat="45.66166" lon="6.18708">
        <ele>955.20703125</ele>
        <time>2011-04-16T11:57:00Z</time>
      </trkpt>
      <trkpt lat="45.66128" lon="6.18678">
        <ele>951.36181640625</ele>
        <time>2011-04-16T11:57:04Z</time>
      </trkpt>
      <trkpt lat="45.66104" lon="6.1867">
        <ele>948.47778320312</ele>
        <time>2011-04-16T11:57:06Z</time>
      </trkpt>
    </trkseg>
  </trk>
</gpx>